<?xml version='1.0' encoding='UTF-8'?><gpx version="1.1" creator="JPX - https://github.com/jenetics/jpx" xmlns="http://www.topografix.com/GPX/1/1"><trk><trkseg><trkpt lat="44.9972522" lon="9.7883781"><ele>67.0</ele><time>2026-04-12T06:17:47.149Z</time></trkpt><trkpt lat="44.9972915" lon="9.7884516"><ele>67.0</ele><time>2026-04-12T06:18:00.146Z</time></trkpt><trkpt lat="44.9972788" lon="9.7885395"><ele>66.0</ele><time>2026-04-12T06:18:16.159Z</time></trkpt></trkseg><trkseg><trkpt lat="44.9971899" lon="9.7883586"><ele>67.0</ele><time>2026-04-12T06:29:55.174Z</time></trkpt><trkpt lat="44.99723" lon="9.7882807"><ele>67.0</ele><time>2026-04-12T06:30:03.167Z</time></trkpt><trkpt lat="44.9971995" lon="9.7881847"><ele>67.0</ele><time>2026-04-12T06:30:09.163Z</time></trkpt><trkpt lat="44.997145" lon="9.7880963"><ele>67.0</ele><time>2026-04-12T06:30:13.163Z</time></trkpt><trkpt lat="44.9971377" lon="9.7879913"><ele>67.0</ele><time>2026-04-12T06:30:17.167Z</time></trkpt><trkpt lat="44.9971659" lon="9.7879033"><ele>67.0</ele><time>2026-04-12T06:30:22.155Z</time></trkpt><trkpt lat="44.9972273" lon="9.7878202"><ele>67.0</ele><time>2026-04-12T06:30:26.166Z</time></trkpt><trkpt lat="44.9972802" lon="9.7877493"><ele>67.0</ele><time>2026-04-12T06:30:29.162Z</time></trkpt><trkpt lat="44.997329" lon="9.7876694"><ele>67.0</ele><time>2026-04-12T06:30:32.158Z</time></trkpt><trkpt lat="44.9973058" lon="9.7875752"><ele>67.0</ele><time>2026-04-12T06:30:35.155Z</time></trkpt><trkpt lat="44.9973145" lon="9.7876828"><ele>67.0</ele><time>2026-04-12T06:31:13.168Z</time></trkpt><trkpt lat="44.997258" lon="9.7877498"><ele>67.0</ele><time>2026-04-12T06:31:18.154Z</time></trkpt><trkpt lat="44.9972117" lon="9.7878197"><ele>67.0</ele><time>2026-04-12T06:31:25.169Z</time></trkpt><trkpt lat="44.9971671" lon="9.7878952"><ele>67.0</ele><time>2026-04-12T06:31:31.154Z</time></trkpt><trkpt lat="44.9970928" lon="9.7879658"><ele>67.0</ele><time>2026-04-12T06:31:35.165Z</time></trkpt><trkpt lat="44.9970135" lon="9.7879927"><ele>67.0</ele><time>2026-04-12T06:31:39.148Z</time></trkpt><trkpt lat="44.996954" lon="9.787914"><ele>67.0</ele><time>2026-04-12T06:31:43.164Z</time></trkpt><trkpt lat="44.996906" lon="9.7878379"><ele>67.0</ele><time>2026-04-12T06:31:47.162Z</time></trkpt><trkpt lat="44.9968396" lon="9.7877723"><ele>67.0</ele><time>2026-04-12T06:31:53.174Z</time></trkpt><trkpt lat="44.9967881" lon="9.7876922"><ele>67.0</ele><time>2026-04-12T06:31:56.151Z</time></trkpt><trkpt lat="44.9967211" lon="9.787609"><ele>67.0</ele><time>2026-04-12T06:31:59.131Z</time></trkpt><trkpt lat="44.9966547" lon="9.7875177"><ele>67.0</ele><time>2026-04-12T06:32:02.149Z</time></trkpt><trkpt lat="44.9965804" lon="9.7874378"><ele>67.0</ele><time>2026-04-12T06:32:05.174Z</time></trkpt><trkpt lat="44.9965146" lon="9.7873456"><ele>67.0</ele><time>2026-04-12T06:32:08.174Z</time></trkpt><trkpt lat="44.9964529" lon="9.7872411"><ele>67.0</ele><time>2026-04-12T06:32:11.177Z</time></trkpt><trkpt lat="44.9964036" lon="9.7871775"><ele>67.0</ele><time>2026-04-12T06:32:13.176Z</time></trkpt><trkpt lat="44.9963382" lon="9.787092"><ele>67.0</ele><time>2026-04-12T06:32:16.179Z</time></trkpt><trkpt lat="44.9962717" lon="9.787"><ele>67.0</ele><time>2026-04-12T06:32:19.173Z</time></trkpt><trkpt lat="44.9962025" lon="9.7869421"><ele>67.0</ele><time>2026-04-12T06:32:21.175Z</time></trkpt><trkpt lat="44.9961429" lon="9.7868839"><ele>67.0</ele><time>2026-04-12T06:32:23.175Z</time></trkpt><trkpt lat="44.9960677" lon="9.7868102"><ele>67.0</ele><time>2026-04-12T06:32:25.156Z</time></trkpt><trkpt lat="44.995989" lon="9.7867464"><ele>67.0</ele><time>2026-04-12T06:32:27.172Z</time></trkpt><trkpt lat="44.9959122" lon="9.7866931"><ele>67.0</ele><time>2026-04-12T06:32:29.171Z</time></trkpt><trkpt lat="44.9958301" lon="9.7866361"><ele>67.0</ele><time>2026-04-12T06:32:31.163Z</time></trkpt><trkpt lat="44.9957532" lon="9.7865768"><ele>67.0</ele><time>2026-04-12T06:32:33.171Z</time></trkpt><trkpt lat="44.9956749" lon="9.7865142"><ele>67.0</ele><time>2026-04-12T06:32:35.175Z</time></trkpt><trkpt lat="44.9956102" lon="9.7864516"><ele>67.0</ele><time>2026-04-12T06:32:37.175Z</time></trkpt><trkpt lat="44.9955236" lon="9.7863962"><ele>67.0</ele><time>2026-04-12T06:32:39.173Z</time></trkpt><trkpt lat="44.9954421" lon="9.7863547"><ele>67.0</ele><time>2026-04-12T06:32:41.175Z</time></trkpt><trkpt lat="44.9953569" lon="9.7862994"><ele>67.0</ele><time>2026-04-12T06:32:43.171Z</time></trkpt><trkpt lat="44.9952778" lon="9.7862501"><ele>67.0</ele><time>2026-04-12T06:32:45.17Z</time></trkpt><trkpt lat="44.9951962" lon="9.7862018"><ele>67.0</ele><time>2026-04-12T06:32:47.175Z</time></trkpt><trkpt lat="44.9951143" lon="9.7861511"><ele>67.0</ele><time>2026-04-12T06:32:49.178Z</time></trkpt><trkpt lat="44.9950359" lon="9.7860959"><ele>67.0</ele><time>2026-04-12T06:32:51.162Z</time></trkpt><trkpt lat="44.9949519" lon="9.7860419"><ele>67.0</ele><time>2026-04-12T06:32:53.184Z</time></trkpt><trkpt lat="44.9948664" lon="9.7859937"><ele>67.0</ele><time>2026-04-12T06:32:55.158Z</time></trkpt><trkpt lat="44.9947798" lon="9.7859544"><ele>67.0</ele><time>2026-04-12T06:32:57.168Z</time></trkpt><trkpt lat="44.9946918" lon="9.7859021"><ele>67.0</ele><time>2026-04-12T06:32:59.148Z</time></trkpt><trkpt lat="44.9946069" lon="9.7858449"><ele>67.0</ele><time>2026-04-12T06:33:01.167Z</time></trkpt><trkpt lat="44.9945354" lon="9.7857785"><ele>67.0</ele><time>2026-04-12T06:33:03.158Z</time></trkpt><trkpt lat="44.9944514" lon="9.7857298"><ele>67.0</ele><time>2026-04-12T06:33:05.167Z</time></trkpt><trkpt lat="44.9943749" lon="9.7856757"><ele>67.0</ele><time>2026-04-12T06:33:07.169Z</time></trkpt><trkpt lat="44.9942886" lon="9.7856257"><ele>67.0</ele><time>2026-04-12T06:33:09.167Z</time></trkpt><trkpt lat="44.9942038" lon="9.7855748"><ele>67.0</ele><time>2026-04-12T06:33:11.178Z</time></trkpt><trkpt lat="44.9941205" lon="9.7855199"><ele>67.0</ele><time>2026-04-12T06:33:13.171Z</time></trkpt><trkpt lat="44.9940422" lon="9.7854689"><ele>67.0</ele><time>2026-04-12T06:33:15.168Z</time></trkpt><trkpt lat="44.9939485" lon="9.7854243"><ele>66.8</ele><time>2026-04-12T06:33:17.163Z</time></trkpt><trkpt lat="44.9938566" lon="9.7853804"><ele>66.6</ele><time>2026-04-12T06:33:19.147Z</time></trkpt><trkpt lat="44.9937743" lon="9.7853223"><ele>66.39999999999999</ele><time>2026-04-12T06:33:21.175Z</time></trkpt><trkpt lat="44.9936899" lon="9.7852724"><ele>66.2</ele><time>2026-04-12T06:33:23.171Z</time></trkpt><trkpt lat="44.993605" lon="9.7852286"><ele>66.0</ele><time>2026-04-12T06:33:25.169Z</time></trkpt><trkpt lat="44.9935226" lon="9.785185"><ele>66.0</ele><time>2026-04-12T06:33:27.159Z</time></trkpt><trkpt lat="44.9934353" lon="9.7851485"><ele>66.0</ele><time>2026-04-12T06:33:29.172Z</time></trkpt><trkpt lat="44.9933544" lon="9.7851147"><ele>66.0</ele><time>2026-04-12T06:33:31.155Z</time></trkpt><trkpt lat="44.9932594" lon="9.7850808"><ele>66.0</ele><time>2026-04-12T06:33:33.168Z</time></trkpt><trkpt lat="44.9931752" lon="9.7850496"><ele>66.0</ele><time>2026-04-12T06:33:35.151Z</time></trkpt><trkpt lat="44.9930903" lon="9.785007"><ele>66.0</ele><time>2026-04-12T06:33:37.153Z</time></trkpt><trkpt lat="44.9930033" lon="9.7849629"><ele>66.0</ele><time>2026-04-12T06:33:39.173Z</time></trkpt><trkpt lat="44.9929129" lon="9.7849272"><ele>66.0</ele><time>2026-04-12T06:33:41.16Z</time></trkpt><trkpt lat="44.9928191" lon="9.7849002"><ele>66.0</ele><time>2026-04-12T06:33:43.157Z</time></trkpt><trkpt lat="44.9927269" lon="9.7848677"><ele>66.0</ele><time>2026-04-12T06:33:45.182Z</time></trkpt><trkpt lat="44.9926377" lon="9.7848429"><ele>66.0</ele><time>2026-04-12T06:33:47.177Z</time></trkpt><trkpt lat="44.9925546" lon="9.7848075"><ele>66.0</ele><time>2026-04-12T06:33:49.171Z</time></trkpt><trkpt lat="44.9924771" lon="9.7847831"><ele>66.0</ele><time>2026-04-12T06:33:51.166Z</time></trkpt><trkpt lat="44.9923988" lon="9.7847673"><ele>66.0</ele><time>2026-04-12T06:33:53.171Z</time></trkpt><trkpt lat="44.9923236" lon="9.7847468"><ele>66.0</ele><time>2026-04-12T06:33:55.187Z</time></trkpt><trkpt lat="44.9922384" lon="9.7847208"><ele>66.0</ele><time>2026-04-12T06:33:57.169Z</time></trkpt><trkpt lat="44.9921455" lon="9.7846834"><ele>66.0</ele><time>2026-04-12T06:33:59.169Z</time></trkpt><trkpt lat="44.9920581" lon="9.7846624"><ele>66.0</ele><time>2026-04-12T06:34:01.164Z</time></trkpt><trkpt lat="44.9919652" lon="9.7846379"><ele>66.0</ele><time>2026-04-12T06:34:03.15Z</time></trkpt><trkpt lat="44.9918788" lon="9.7845973"><ele>66.0</ele><time>2026-04-12T06:34:05.159Z</time></trkpt><trkpt lat="44.9917943" lon="9.7845644"><ele>66.0</ele><time>2026-04-12T06:34:07.17Z</time></trkpt><trkpt lat="44.9917028" lon="9.7845268"><ele>66.0</ele><time>2026-04-12T06:34:09.164Z</time></trkpt><trkpt lat="44.9916134" lon="9.7844906"><ele>66.0</ele><time>2026-04-12T06:34:11.167Z</time></trkpt><trkpt lat="44.9915273" lon="9.7844549"><ele>66.0</ele><time>2026-04-12T06:34:13.157Z</time></trkpt><trkpt lat="44.9914378" lon="9.7844225"><ele>66.0</ele><time>2026-04-12T06:34:15.171Z</time></trkpt><trkpt lat="44.9913531" lon="9.7843859"><ele>66.0</ele><time>2026-04-12T06:34:17.173Z</time></trkpt><trkpt lat="44.9912682" lon="9.7843402"><ele>65.6</ele><time>2026-04-12T06:34:19.177Z</time></trkpt><trkpt lat="44.9911769" lon="9.7842971"><ele>65.19999999999999</ele><time>2026-04-12T06:34:21.176Z</time></trkpt><trkpt lat="44.9910825" lon="9.7842686"><ele>64.80000000000001</ele><time>2026-04-12T06:34:23.178Z</time></trkpt><trkpt lat="44.9909971" lon="9.7842238"><ele>64.4</ele><time>2026-04-12T06:34:25.174Z</time></trkpt><trkpt lat="44.9909094" lon="9.7841834"><ele>64.0</ele><time>2026-04-12T06:34:27.167Z</time></trkpt><trkpt lat="44.9908217" lon="9.7841422"><ele>64.0</ele><time>2026-04-12T06:34:29.167Z</time></trkpt><trkpt lat="44.9907301" lon="9.7841036"><ele>64.0</ele><time>2026-04-12T06:34:31.177Z</time></trkpt><trkpt lat="44.9906398" lon="9.7840506"><ele>64.0</ele><time>2026-04-12T06:34:33.181Z</time></trkpt><trkpt lat="44.9905551" lon="9.7840025"><ele>64.0</ele><time>2026-04-12T06:34:35.177Z</time></trkpt><trkpt lat="44.9904686" lon="9.7839681"><ele>64.0</ele><time>2026-04-12T06:34:37.179Z</time></trkpt><trkpt lat="44.9903818" lon="9.7839338"><ele>64.0</ele><time>2026-04-12T06:34:39.171Z</time></trkpt><trkpt lat="44.9902904" lon="9.7838886"><ele>64.0</ele><time>2026-04-12T06:34:41.169Z</time></trkpt><trkpt lat="44.9902036" lon="9.7838458"><ele>64.0</ele><time>2026-04-12T06:34:43.152Z</time></trkpt><trkpt lat="44.9901199" lon="9.7837951"><ele>64.0</ele><time>2026-04-12T06:34:45.178Z</time></trkpt><trkpt lat="44.9900266" lon="9.7837497"><ele>64.0</ele><time>2026-04-12T06:34:47.168Z</time></trkpt><trkpt lat="44.9899352" lon="9.7837049"><ele>64.2</ele><time>2026-04-12T06:34:49.169Z</time></trkpt><trkpt lat="44.9898485" lon="9.7836516"><ele>64.4</ele><time>2026-04-12T06:34:51.175Z</time></trkpt><trkpt lat="44.9897598" lon="9.783595"><ele>64.6</ele><time>2026-04-12T06:34:53.182Z</time></trkpt><trkpt lat="44.9896641" lon="9.7835437"><ele>64.8</ele><time>2026-04-12T06:34:55.161Z</time></trkpt><trkpt lat="44.9895732" lon="9.7834977"><ele>65.0</ele><time>2026-04-12T06:34:57.176Z</time></trkpt><trkpt lat="44.9894824" lon="9.7834535"><ele>65.2</ele><time>2026-04-12T06:34:59.175Z</time></trkpt><trkpt lat="44.9894019" lon="9.7833968"><ele>65.4</ele><time>2026-04-12T06:35:01.167Z</time></trkpt><trkpt lat="44.9893118" lon="9.7833591"><ele>65.6</ele><time>2026-04-12T06:35:03.172Z</time></trkpt><trkpt lat="44.9892229" lon="9.7833136"><ele>65.8</ele><time>2026-04-12T06:35:05.181Z</time></trkpt><trkpt lat="44.9891503" lon="9.7832168"><ele>66.0</ele><time>2026-04-12T06:35:07.167Z</time></trkpt><trkpt lat="44.9891536" lon="9.7830938"><ele>66.0</ele><time>2026-04-12T06:35:09.169Z</time></trkpt><trkpt lat="44.9891851" lon="9.7829606"><ele>66.0</ele><time>2026-04-12T06:35:11.159Z</time></trkpt><trkpt lat="44.9891965" lon="9.7828278"><ele>66.0</ele><time>2026-04-12T06:35:13.159Z</time></trkpt><trkpt lat="44.9891402" lon="9.7827278"><ele>66.0</ele><time>2026-04-12T06:35:15.17Z</time></trkpt><trkpt lat="44.9890472" lon="9.7826787"><ele>66.0</ele><time>2026-04-12T06:35:17.175Z</time></trkpt><trkpt lat="44.9889511" lon="9.7826515"><ele>65.8</ele><time>2026-04-12T06:35:19.173Z</time></trkpt><trkpt lat="44.9888614" lon="9.7826171"><ele>65.6</ele><time>2026-04-12T06:35:21.17Z</time></trkpt><trkpt lat="44.988775" lon="9.7825917"><ele>65.4</ele><time>2026-04-12T06:35:23.168Z</time></trkpt><trkpt lat="44.9886879" lon="9.7825622"><ele>65.2</ele><time>2026-04-12T06:35:25.181Z</time></trkpt><trkpt lat="44.9885958" lon="9.7825427"><ele>65.0</ele><time>2026-04-12T06:35:27.169Z</time></trkpt><trkpt lat="44.9885061" lon="9.7825147"><ele>65.0</ele><time>2026-04-12T06:35:29.179Z</time></trkpt><trkpt lat="44.9884165" lon="9.7824849"><ele>65.0</ele><time>2026-04-12T06:35:31.169Z</time></trkpt><trkpt lat="44.9883201" lon="9.7824642"><ele>65.0</ele><time>2026-04-12T06:35:33.181Z</time></trkpt><trkpt lat="44.9882295" lon="9.7824372"><ele>65.0</ele><time>2026-04-12T06:35:35.171Z</time></trkpt><trkpt lat="44.9881406" lon="9.782421"><ele>65.0</ele><time>2026-04-12T06:35:37.172Z</time></trkpt><trkpt lat="44.9880493" lon="9.7823886"><ele>64.8</ele><time>2026-04-12T06:35:39.171Z</time></trkpt><trkpt lat="44.9879653" lon="9.7823608"><ele>64.6</ele><time>2026-04-12T06:35:41.176Z</time></trkpt><trkpt lat="44.9878739" lon="9.7823344"><ele>64.4</ele><time>2026-04-12T06:35:43.18Z</time></trkpt><trkpt lat="44.987789" lon="9.7823008"><ele>64.2</ele><time>2026-04-12T06:35:45.167Z</time></trkpt><trkpt lat="44.9876969" lon="9.7822747"><ele>64.0</ele><time>2026-04-12T06:35:47.174Z</time></trkpt><trkpt lat="44.9876038" lon="9.7822573"><ele>64.0</ele><time>2026-04-12T06:35:49.154Z</time></trkpt><trkpt lat="44.987512" lon="9.7822304"><ele>64.0</ele><time>2026-04-12T06:35:51.175Z</time></trkpt><trkpt lat="44.9874176" lon="9.7822029"><ele>64.0</ele><time>2026-04-12T06:35:53.169Z</time></trkpt><trkpt lat="44.9873255" lon="9.7821775"><ele>64.0</ele><time>2026-04-12T06:35:55.169Z</time></trkpt><trkpt lat="44.9872362" lon="9.782151"><ele>64.0</ele><time>2026-04-12T06:35:57.157Z</time></trkpt><trkpt lat="44.9871381" lon="9.7821273"><ele>64.4</ele><time>2026-04-12T06:35:59.171Z</time></trkpt><trkpt lat="44.9870443" lon="9.782106"><ele>64.80000000000001</ele><time>2026-04-12T06:36:01.179Z</time></trkpt><trkpt lat="44.9869552" lon="9.7820791"><ele>65.19999999999999</ele><time>2026-04-12T06:36:03.176Z</time></trkpt><trkpt lat="44.9868674" lon="9.7820564"><ele>65.6</ele><time>2026-04-12T06:36:05.173Z</time></trkpt><trkpt lat="44.9867731" lon="9.782033"><ele>66.0</ele><time>2026-04-12T06:36:07.171Z</time></trkpt><trkpt lat="44.9866827" lon="9.7820044"><ele>66.0</ele><time>2026-04-12T06:36:09.138Z</time></trkpt><trkpt lat="44.9865966" lon="9.7819641"><ele>66.0</ele><time>2026-04-12T06:36:11.173Z</time></trkpt><trkpt lat="44.9865178" lon="9.7818905"><ele>66.0</ele><time>2026-04-12T06:36:13.162Z</time></trkpt><trkpt lat="44.9864906" lon="9.7817617"><ele>66.0</ele><time>2026-04-12T06:36:15.18Z</time></trkpt><trkpt lat="44.9865077" lon="9.7816365"><ele>66.0</ele><time>2026-04-12T06:36:17.168Z</time></trkpt><trkpt lat="44.9865249" lon="9.7815062"><ele>66.0</ele><time>2026-04-12T06:36:19.172Z</time></trkpt><trkpt lat="44.9865472" lon="9.7813841"><ele>66.0</ele><time>2026-04-12T06:36:21.213Z</time></trkpt><trkpt lat="44.9865665" lon="9.78125"><ele>66.0</ele><time>2026-04-12T06:36:23.173Z</time></trkpt><trkpt lat="44.9865833" lon="9.7811205"><ele>66.0</ele><time>2026-04-12T06:36:25.174Z</time></trkpt><trkpt lat="44.9866038" lon="9.7809871"><ele>66.0</ele><time>2026-04-12T06:36:27.172Z</time></trkpt><trkpt lat="44.9866149" lon="9.7808576"><ele>65.8</ele><time>2026-04-12T06:36:29.174Z</time></trkpt><trkpt lat="44.9866206" lon="9.780726"><ele>65.6</ele><time>2026-04-12T06:36:31.173Z</time></trkpt><trkpt lat="44.9865901" lon="9.7805978"><ele>65.4</ele><time>2026-04-12T06:36:33.168Z</time></trkpt><trkpt lat="44.9865162" lon="9.7805086"><ele>65.2</ele><time>2026-04-12T06:36:35.176Z</time></trkpt><trkpt lat="44.9864288" lon="9.7804498"><ele>65.0</ele><time>2026-04-12T06:36:37.186Z</time></trkpt><trkpt lat="44.9863393" lon="9.780404"><ele>65.0</ele><time>2026-04-12T06:36:39.178Z</time></trkpt><trkpt lat="44.9862485" lon="9.7803575"><ele>65.0</ele><time>2026-04-12T06:36:41.172Z</time></trkpt><trkpt lat="44.9861617" lon="9.7803064"><ele>65.0</ele><time>2026-04-12T06:36:43.177Z</time></trkpt><trkpt lat="44.9860687" lon="9.7802632"><ele>65.0</ele><time>2026-04-12T06:36:45.169Z</time></trkpt><trkpt lat="44.9859815" lon="9.7802188"><ele>65.0</ele><time>2026-04-12T06:36:47.169Z</time></trkpt><trkpt lat="44.9858901" lon="9.7801764"><ele>65.2</ele><time>2026-04-12T06:36:49.172Z</time></trkpt><trkpt lat="44.9858059" lon="9.7801359"><ele>65.4</ele><time>2026-04-12T06:36:51.154Z</time></trkpt><trkpt lat="44.9857165" lon="9.7800907"><ele>65.6</ele><time>2026-04-12T06:36:53.167Z</time></trkpt><trkpt lat="44.9856319" lon="9.7800456"><ele>65.8</ele><time>2026-04-12T06:36:55.172Z</time></trkpt><trkpt lat="44.9855424" lon="9.7800053"><ele>66.0</ele><time>2026-04-12T06:36:57.166Z</time></trkpt><trkpt lat="44.985461" lon="9.7799597"><ele>66.0</ele><time>2026-04-12T06:36:59.171Z</time></trkpt><trkpt lat="44.9853721" lon="9.7799159"><ele>66.0</ele><time>2026-04-12T06:37:01.171Z</time></trkpt><trkpt lat="44.9852856" lon="9.7798718"><ele>66.0</ele><time>2026-04-12T06:37:03.168Z</time></trkpt><trkpt lat="44.9852051" lon="9.7798294"><ele>66.0</ele><time>2026-04-12T06:37:05.175Z</time></trkpt><trkpt lat="44.9851148" lon="9.7797802"><ele>66.0</ele><time>2026-04-12T06:37:07.171Z</time></trkpt><trkpt lat="44.9850284" lon="9.7797331"><ele>65.8</ele><time>2026-04-12T06:37:09.168Z</time></trkpt><trkpt lat="44.9849429" lon="9.7796929"><ele>65.6</ele><time>2026-04-12T06:37:11.171Z</time></trkpt><trkpt lat="44.9848568" lon="9.7796501"><ele>65.4</ele><time>2026-04-12T06:37:13.171Z</time></trkpt><trkpt lat="44.9847705" lon="9.7796122"><ele>65.2</ele><time>2026-04-12T06:37:15.173Z</time></trkpt><trkpt lat="44.984679" lon="9.779561"><ele>65.0</ele><time>2026-04-12T06:37:17.164Z</time></trkpt><trkpt lat="44.9845934" lon="9.7795094"><ele>65.0</ele><time>2026-04-12T06:37:19.167Z</time></trkpt><trkpt lat="44.9845032" lon="9.7794708"><ele>65.0</ele><time>2026-04-12T06:37:21.171Z</time></trkpt><trkpt lat="44.9844201" lon="9.7794234"><ele>65.0</ele><time>2026-04-12T06:37:23.172Z</time></trkpt><trkpt lat="44.9843297" lon="9.7793777"><ele>65.0</ele><time>2026-04-12T06:37:25.178Z</time></trkpt><trkpt lat="44.9842454" lon="9.7793375"><ele>65.0</ele><time>2026-04-12T06:37:27.171Z</time></trkpt><trkpt lat="44.98416" lon="9.7792995"><ele>65.6</ele><time>2026-04-12T06:37:29.169Z</time></trkpt><trkpt lat="44.9840728" lon="9.7792543"><ele>66.2</ele><time>2026-04-12T06:37:31.152Z</time></trkpt><trkpt lat="44.9839927" lon="9.7792131"><ele>66.8</ele><time>2026-04-12T06:37:33.166Z</time></trkpt><trkpt lat="44.9839066" lon="9.7791682"><ele>67.4</ele><time>2026-04-12T06:37:35.158Z</time></trkpt><trkpt lat="44.9838225" lon="9.7791204"><ele>68.0</ele><time>2026-04-12T06:37:37.17Z</time></trkpt><trkpt lat="44.9837321" lon="9.7790807"><ele>68.0</ele><time>2026-04-12T06:37:39.166Z</time></trkpt><trkpt lat="44.9836445" lon="9.7790366"><ele>68.0</ele><time>2026-04-12T06:37:41.174Z</time></trkpt><trkpt lat="44.9835555" lon="9.7789922"><ele>68.0</ele><time>2026-04-12T06:37:43.175Z</time></trkpt><trkpt lat="44.9834684" lon="9.778953"><ele>68.0</ele><time>2026-04-12T06:37:45.159Z</time></trkpt><trkpt lat="44.9833859" lon="9.7789124"><ele>68.0</ele><time>2026-04-12T06:37:47.164Z</time></trkpt><trkpt lat="44.9833029" lon="9.7788654"><ele>68.33333333333334</ele><time>2026-04-12T06:37:49.183Z</time></trkpt><trkpt lat="44.9832148" lon="9.7788144"><ele>68.66666666666667</ele><time>2026-04-12T06:37:51.17Z</time></trkpt><trkpt lat="44.9831351" lon="9.7787749"><ele>69.0</ele><time>2026-04-12T06:37:53.175Z</time></trkpt><trkpt lat="44.9830488" lon="9.7787331"><ele>69.33333333333333</ele><time>2026-04-12T06:37:55.177Z</time></trkpt><trkpt lat="44.9829686" lon="9.7786816"><ele>69.66666666666666</ele><time>2026-04-12T06:37:57.169Z</time></trkpt><trkpt lat="44.9828854" lon="9.7786364"><ele>70.0</ele><time>2026-04-12T06:37:59.179Z</time></trkpt><trkpt lat="44.9828003" lon="9.7786025"><ele>70.0</ele><time>2026-04-12T06:38:01.157Z</time></trkpt><trkpt lat="44.9827219" lon="9.7785675"><ele>70.0</ele><time>2026-04-12T06:38:03.16Z</time></trkpt><trkpt lat="44.982646" lon="9.7785454"><ele>70.0</ele><time>2026-04-12T06:38:05.156Z</time></trkpt><trkpt lat="44.9825746" lon="9.7785193"><ele>70.0</ele><time>2026-04-12T06:38:07.169Z</time></trkpt><trkpt lat="44.9825534" lon="9.7784106"><ele>70.0</ele><time>2026-04-12T06:38:09.168Z</time></trkpt><trkpt lat="44.9825758" lon="9.7782935"><ele>70.0</ele><time>2026-04-12T06:38:11.15Z</time></trkpt><trkpt lat="44.9825848" lon="9.7781671"><ele>70.0</ele><time>2026-04-12T06:38:13.144Z</time></trkpt><trkpt lat="44.9826047" lon="9.7780441"><ele>70.0</ele><time>2026-04-12T06:38:15.171Z</time></trkpt><trkpt lat="44.9826254" lon="9.7779206"><ele>70.0</ele><time>2026-04-12T06:38:17.167Z</time></trkpt><trkpt lat="44.9826458" lon="9.7777915"><ele>70.0</ele><time>2026-04-12T06:38:19.166Z</time></trkpt><trkpt lat="44.9826702" lon="9.7776616"><ele>70.0</ele><time>2026-04-12T06:38:21.166Z</time></trkpt><trkpt lat="44.9826927" lon="9.7775379"><ele>70.0</ele><time>2026-04-12T06:38:23.167Z</time></trkpt><trkpt lat="44.9827127" lon="9.7774209"><ele>70.0</ele><time>2026-04-12T06:38:25.171Z</time></trkpt><trkpt lat="44.9827345" lon="9.7773"><ele>70.0</ele><time>2026-04-12T06:38:27.17Z</time></trkpt><trkpt lat="44.9827629" lon="9.7771812"><ele>70.0</ele><time>2026-04-12T06:38:29.174Z</time></trkpt><trkpt lat="44.9827795" lon="9.7770611"><ele>70.0</ele><time>2026-04-12T06:38:31.184Z</time></trkpt><trkpt lat="44.9828044" lon="9.7769433"><ele>70.0</ele><time>2026-04-12T06:38:33.166Z</time></trkpt><trkpt lat="44.9828274" lon="9.776826"><ele>70.0</ele><time>2026-04-12T06:38:35.169Z</time></trkpt><trkpt lat="44.9828509" lon="9.7767017"><ele>70.0</ele><time>2026-04-12T06:38:37.168Z</time></trkpt><trkpt lat="44.982868" lon="9.7765754"><ele>70.0</ele><time>2026-04-12T06:38:39.179Z</time></trkpt><trkpt lat="44.9828907" lon="9.776454"><ele>70.0</ele><time>2026-04-12T06:38:41.167Z</time></trkpt><trkpt lat="44.9829137" lon="9.7763317"><ele>70.0</ele><time>2026-04-12T06:38:43.175Z</time></trkpt><trkpt lat="44.9829304" lon="9.776206"><ele>70.0</ele><time>2026-04-12T06:38:45.17Z</time></trkpt><trkpt lat="44.9829501" lon="9.7760734"><ele>70.0</ele><time>2026-04-12T06:38:47.167Z</time></trkpt><trkpt lat="44.9829676" lon="9.7759388"><ele>70.0</ele><time>2026-04-12T06:38:49.167Z</time></trkpt><trkpt lat="44.9829866" lon="9.7758046"><ele>70.0</ele><time>2026-04-12T06:38:51.169Z</time></trkpt><trkpt lat="44.9830151" lon="9.7756788"><ele>70.0</ele><time>2026-04-12T06:38:53.167Z</time></trkpt><trkpt lat="44.9830407" lon="9.7755558"><ele>70.0</ele><time>2026-04-12T06:38:55.172Z</time></trkpt><trkpt lat="44.9830643" lon="9.7754263"><ele>70.0</ele><time>2026-04-12T06:38:57.173Z</time></trkpt><trkpt lat="44.9830859" lon="9.7752986"><ele>70.0</ele><time>2026-04-12T06:38:59.176Z</time></trkpt><trkpt lat="44.9831107" lon="9.7751714"><ele>70.0</ele><time>2026-04-12T06:39:01.182Z</time></trkpt><trkpt lat="44.9831319" lon="9.7750453"><ele>70.0</ele><time>2026-04-12T06:39:03.177Z</time></trkpt><trkpt lat="44.9831595" lon="9.7749182"><ele>70.0</ele><time>2026-04-12T06:39:05.164Z</time></trkpt><trkpt lat="44.9831826" lon="9.7747909"><ele>70.0</ele><time>2026-04-12T06:39:07.175Z</time></trkpt><trkpt lat="44.9832082" lon="9.7746562"><ele>70.0</ele><time>2026-04-12T06:39:09.171Z</time></trkpt><trkpt lat="44.98323" lon="9.7745293"><ele>70.0</ele><time>2026-04-12T06:39:11.169Z</time></trkpt><trkpt lat="44.9832546" lon="9.7744026"><ele>70.0</ele><time>2026-04-12T06:39:13.176Z</time></trkpt><trkpt lat="44.9832732" lon="9.7742794"><ele>70.2</ele><time>2026-04-12T06:39:15.169Z</time></trkpt><trkpt lat="44.9832968" lon="9.7741535"><ele>70.4</ele><time>2026-04-12T06:39:17.171Z</time></trkpt><trkpt lat="44.9833209" lon="9.7740258"><ele>70.6</ele><time>2026-04-12T06:39:19.176Z</time></trkpt><trkpt lat="44.9833399" lon="9.7739018"><ele>70.8</ele><time>2026-04-12T06:39:21.174Z</time></trkpt><trkpt lat="44.983365" lon="9.7737671"><ele>71.0</ele><time>2026-04-12T06:39:23.168Z</time></trkpt><trkpt lat="44.9833965" lon="9.7736372"><ele>71.0</ele><time>2026-04-12T06:39:25.177Z</time></trkpt><trkpt lat="44.9834167" lon="9.7735053"><ele>71.0</ele><time>2026-04-12T06:39:27.173Z</time></trkpt><trkpt lat="44.98344" lon="9.7733809"><ele>71.0</ele><time>2026-04-12T06:39:29.17Z</time></trkpt><trkpt lat="44.9834569" lon="9.7732645"><ele>71.0</ele><time>2026-04-12T06:39:31.167Z</time></trkpt><trkpt lat="44.9834303" lon="9.7731672"><ele>71.0</ele><time>2026-04-12T06:39:33.171Z</time></trkpt><trkpt lat="44.9833489" lon="9.7731305"><ele>71.0</ele><time>2026-04-12T06:39:35.172Z</time></trkpt><trkpt lat="44.9832676" lon="9.7730828"><ele>71.0</ele><time>2026-04-12T06:39:37.172Z</time></trkpt><trkpt lat="44.9831816" lon="9.7730343"><ele>71.0</ele><time>2026-04-12T06:39:39.157Z</time></trkpt><trkpt lat="44.9830979" lon="9.7729887"><ele>71.0</ele><time>2026-04-12T06:39:41.171Z</time></trkpt><trkpt lat="44.983012" lon="9.7729424"><ele>71.0</ele><time>2026-04-12T06:39:43.176Z</time></trkpt><trkpt lat="44.9829258" lon="9.7728932"><ele>71.0</ele><time>2026-04-12T06:39:45.167Z</time></trkpt><trkpt lat="44.9828334" lon="9.7728432"><ele>71.0</ele><time>2026-04-12T06:39:47.168Z</time></trkpt><trkpt lat="44.982742" lon="9.7727992"><ele>71.0</ele><time>2026-04-12T06:39:49.178Z</time></trkpt><trkpt lat="44.9826549" lon="9.772746"><ele>71.0</ele><time>2026-04-12T06:39:51.169Z</time></trkpt><trkpt lat="44.9825712" lon="9.7727067"><ele>71.0</ele><time>2026-04-12T06:39:53.171Z</time></trkpt><trkpt lat="44.9824754" lon="9.7726586"><ele>71.0</ele><time>2026-04-12T06:39:55.17Z</time></trkpt><trkpt lat="44.9823895" lon="9.7726088"><ele>71.0</ele><time>2026-04-12T06:39:57.174Z</time></trkpt><trkpt lat="44.9823042" lon="9.77256"><ele>71.0</ele><time>2026-04-12T06:39:59.179Z</time></trkpt><trkpt lat="44.9822155" lon="9.7725141"><ele>71.0</ele><time>2026-04-12T06:40:01.162Z</time></trkpt><trkpt lat="44.982121" lon="9.7724681"><ele>71.0</ele><time>2026-04-12T06:40:03.176Z</time></trkpt><trkpt lat="44.9820318" lon="9.7724233"><ele>71.0</ele><time>2026-04-12T06:40:05.171Z</time></trkpt><trkpt lat="44.981947" lon="9.7723707"><ele>71.0</ele><time>2026-04-12T06:40:07.173Z</time></trkpt><trkpt lat="44.9818578" lon="9.7723219"><ele>71.0</ele><time>2026-04-12T06:40:09.177Z</time></trkpt><trkpt lat="44.9817799" lon="9.7722831"><ele>71.0</ele><time>2026-04-12T06:40:11.164Z</time></trkpt><trkpt lat="44.9816915" lon="9.7722301"><ele>71.0</ele><time>2026-04-12T06:40:13.143Z</time></trkpt><trkpt lat="44.9816011" lon="9.7721835"><ele>71.0</ele><time>2026-04-12T06:40:15.15Z</time></trkpt><trkpt lat="44.9815131" lon="9.7721364"><ele>71.0</ele><time>2026-04-12T06:40:17.177Z</time></trkpt><trkpt lat="44.9814166" lon="9.7720824"><ele>71.0</ele><time>2026-04-12T06:40:19.179Z</time></trkpt><trkpt lat="44.9813254" lon="9.772028"><ele>71.0</ele><time>2026-04-12T06:40:21.167Z</time></trkpt><trkpt lat="44.981242" lon="9.7719771"><ele>71.0</ele><time>2026-04-12T06:40:23.174Z</time></trkpt><trkpt lat="44.9811535" lon="9.7719375"><ele>71.0</ele><time>2026-04-12T06:40:25.173Z</time></trkpt><trkpt lat="44.9810713" lon="9.771892"><ele>71.0</ele><time>2026-04-12T06:40:27.174Z</time></trkpt><trkpt lat="44.9809836" lon="9.7718443"><ele>71.0</ele><time>2026-04-12T06:40:29.174Z</time></trkpt><trkpt lat="44.980898" lon="9.7717957"><ele>71.0</ele><time>2026-04-12T06:40:31.168Z</time></trkpt><trkpt lat="44.9808128" lon="9.7717486"><ele>71.0</ele><time>2026-04-12T06:40:33.18Z</time></trkpt><trkpt lat="44.9807235" lon="9.7717077"><ele>71.0</ele><time>2026-04-12T06:40:35.181Z</time></trkpt><trkpt lat="44.9806381" lon="9.7716614"><ele>71.0</ele><time>2026-04-12T06:40:37.171Z</time></trkpt><trkpt lat="44.9805542" lon="9.7716086"><ele>71.0</ele><time>2026-04-12T06:40:39.172Z</time></trkpt><trkpt lat="44.9804679" lon="9.7715664"><ele>71.0</ele><time>2026-04-12T06:40:41.163Z</time></trkpt><trkpt lat="44.9803813" lon="9.7715127"><ele>71.0</ele><time>2026-04-12T06:40:43.17Z</time></trkpt><trkpt lat="44.9802933" lon="9.7714718"><ele>71.0</ele><time>2026-04-12T06:40:45.168Z</time></trkpt><trkpt lat="44.9802042" lon="9.7714279"><ele>71.0</ele><time>2026-04-12T06:40:47.16Z</time></trkpt><trkpt lat="44.9801169" lon="9.7713729"><ele>71.0</ele><time>2026-04-12T06:40:49.175Z</time></trkpt><trkpt lat="44.9800284" lon="9.7713273"><ele>71.0</ele><time>2026-04-12T06:40:51.168Z</time></trkpt><trkpt lat="44.9799422" lon="9.7712822"><ele>71.0</ele><time>2026-04-12T06:40:53.169Z</time></trkpt><trkpt lat="44.979854" lon="9.7712354"><ele>71.0</ele><time>2026-04-12T06:40:55.171Z</time></trkpt><trkpt lat="44.9797756" lon="9.7711943"><ele>71.2</ele><time>2026-04-12T06:40:57.167Z</time></trkpt><trkpt lat="44.9796961" lon="9.771204"><ele>71.39999999999999</ele><time>2026-04-12T06:40:59.173Z</time></trkpt><trkpt lat="44.9796559" lon="9.7713092"><ele>71.6</ele><time>2026-04-12T06:41:01.167Z</time></trkpt><trkpt lat="44.9796267" lon="9.7714281"><ele>71.8</ele><time>2026-04-12T06:41:03.22Z</time></trkpt><trkpt lat="44.9796005" lon="9.7715614"><ele>72.0</ele><time>2026-04-12T06:41:05.167Z</time></trkpt><trkpt lat="44.9795619" lon="9.7716923"><ele>72.0</ele><time>2026-04-12T06:41:07.166Z</time></trkpt><trkpt lat="44.9795312" lon="9.7718209"><ele>72.0</ele><time>2026-04-12T06:41:09.178Z</time></trkpt><trkpt lat="44.9795078" lon="9.7719438"><ele>72.0</ele><time>2026-04-12T06:41:11.167Z</time></trkpt><trkpt lat="44.9794792" lon="9.7720781"><ele>72.0</ele><time>2026-04-12T06:41:13.169Z</time></trkpt><trkpt lat="44.9794458" lon="9.7721971"><ele>72.0</ele><time>2026-04-12T06:41:15.167Z</time></trkpt><trkpt lat="44.9793817" lon="9.7722804"><ele>72.2</ele><time>2026-04-12T06:41:17.165Z</time></trkpt><trkpt lat="44.9792822" lon="9.7722761"><ele>72.4</ele><time>2026-04-12T06:41:19.172Z</time></trkpt><trkpt lat="44.9791939" lon="9.7722447"><ele>72.6</ele><time>2026-04-12T06:41:21.179Z</time></trkpt><trkpt lat="44.9791111" lon="9.7722005"><ele>72.8</ele><time>2026-04-12T06:41:23.15Z</time></trkpt><trkpt lat="44.9790285" lon="9.7721518"><ele>73.0</ele><time>2026-04-12T06:41:25.171Z</time></trkpt><trkpt lat="44.9789468" lon="9.7721022"><ele>73.2</ele><time>2026-04-12T06:41:27.17Z</time></trkpt><trkpt lat="44.9788641" lon="9.772044"><ele>73.4</ele><time>2026-04-12T06:41:29.169Z</time></trkpt><trkpt lat="44.978781" lon="9.7719789"><ele>73.60000000000001</ele><time>2026-04-12T06:41:31.175Z</time></trkpt><trkpt lat="44.9786902" lon="9.7719245"><ele>73.8</ele><time>2026-04-12T06:41:33.171Z</time></trkpt><trkpt lat="44.9786033" lon="9.7718784"><ele>74.0</ele><time>2026-04-12T06:41:35.169Z</time></trkpt><trkpt lat="44.978516" lon="9.7718367"><ele>74.0</ele><time>2026-04-12T06:41:37.154Z</time></trkpt><trkpt lat="44.9784307" lon="9.7717949"><ele>74.0</ele><time>2026-04-12T06:41:39.171Z</time></trkpt><trkpt lat="44.9783408" lon="9.7717407"><ele>74.0</ele><time>2026-04-12T06:41:41.177Z</time></trkpt><trkpt lat="44.978257" lon="9.7716852"><ele>74.0</ele><time>2026-04-12T06:41:43.167Z</time></trkpt><trkpt lat="44.9781724" lon="9.7716476"><ele>74.0</ele><time>2026-04-12T06:41:45.172Z</time></trkpt><trkpt lat="44.9780864" lon="9.7716105"><ele>74.2</ele><time>2026-04-12T06:41:47.166Z</time></trkpt><trkpt lat="44.9779908" lon="9.7715663"><ele>74.4</ele><time>2026-04-12T06:41:49.153Z</time></trkpt><trkpt lat="44.9778986" lon="9.7715306"><ele>74.6</ele><time>2026-04-12T06:41:51.173Z</time></trkpt><trkpt lat="44.9778043" lon="9.7714869"><ele>74.8</ele><time>2026-04-12T06:41:53.167Z</time></trkpt><trkpt lat="44.9777111" lon="9.7714481"><ele>75.0</ele><time>2026-04-12T06:41:55.174Z</time></trkpt><trkpt lat="44.977612" lon="9.7714128"><ele>75.0</ele><time>2026-04-12T06:41:57.17Z</time></trkpt><trkpt lat="44.9775218" lon="9.7713759"><ele>75.0</ele><time>2026-04-12T06:41:59.165Z</time></trkpt><trkpt lat="44.9774377" lon="9.7713349"><ele>75.0</ele><time>2026-04-12T06:42:01.177Z</time></trkpt><trkpt lat="44.9773493" lon="9.7712911"><ele>75.0</ele><time>2026-04-12T06:42:03.185Z</time></trkpt><trkpt lat="44.977258" lon="9.7712539"><ele>75.0</ele><time>2026-04-12T06:42:05.159Z</time></trkpt><trkpt lat="44.9771705" lon="9.7712057"><ele>75.0</ele><time>2026-04-12T06:42:07.166Z</time></trkpt><trkpt lat="44.9770827" lon="9.7711598"><ele>75.0</ele><time>2026-04-12T06:42:09.165Z</time></trkpt><trkpt lat="44.9769866" lon="9.7711175"><ele>75.0</ele><time>2026-04-12T06:42:11.155Z</time></trkpt><trkpt lat="44.9769026" lon="9.7710781"><ele>75.0</ele><time>2026-04-12T06:42:13.17Z</time></trkpt><trkpt lat="44.9768124" lon="9.7710358"><ele>75.0</ele><time>2026-04-12T06:42:15.165Z</time></trkpt><trkpt lat="44.9767236" lon="9.7709928"><ele>74.8</ele><time>2026-04-12T06:42:17.172Z</time></trkpt><trkpt lat="44.9766328" lon="9.7709524"><ele>74.6</ele><time>2026-04-12T06:42:19.17Z</time></trkpt><trkpt lat="44.9765402" lon="9.7709108"><ele>74.4</ele><time>2026-04-12T06:42:21.172Z</time></trkpt><trkpt lat="44.9764562" lon="9.7708657"><ele>74.2</ele><time>2026-04-12T06:42:23.183Z</time></trkpt><trkpt lat="44.9763682" lon="9.770826"><ele>74.0</ele><time>2026-04-12T06:42:25.176Z</time></trkpt><trkpt lat="44.9762782" lon="9.7707919"><ele>74.0</ele><time>2026-04-12T06:42:27.166Z</time></trkpt><trkpt lat="44.9761899" lon="9.7707544"><ele>74.0</ele><time>2026-04-12T06:42:29.176Z</time></trkpt><trkpt lat="44.9761076" lon="9.7707139"><ele>74.0</ele><time>2026-04-12T06:42:31.175Z</time></trkpt><trkpt lat="44.9760202" lon="9.7706704"><ele>74.0</ele><time>2026-04-12T06:42:33.17Z</time></trkpt><trkpt lat="44.9759296" lon="9.7706263"><ele>74.0</ele><time>2026-04-12T06:42:35.17Z</time></trkpt><trkpt lat="44.9758397" lon="9.7705796"><ele>73.60000000000001</ele><time>2026-04-12T06:42:37.16Z</time></trkpt><trkpt lat="44.9757566" lon="9.7705388"><ele>73.2</ele><time>2026-04-12T06:42:39.146Z</time></trkpt><trkpt lat="44.9756649" lon="9.7704937"><ele>72.80000000000001</ele><time>2026-04-12T06:42:41.177Z</time></trkpt><trkpt lat="44.9755737" lon="9.7704619"><ele>72.4</ele><time>2026-04-12T06:42:43.174Z</time></trkpt><trkpt lat="44.9754913" lon="9.7704197"><ele>72.0</ele><time>2026-04-12T06:42:45.171Z</time></trkpt><trkpt lat="44.9754177" lon="9.770354"><ele>72.0</ele><time>2026-04-12T06:42:47.179Z</time></trkpt><trkpt lat="44.9753784" lon="9.7702433"><ele>72.0</ele><time>2026-04-12T06:42:49.158Z</time></trkpt><trkpt lat="44.9753808" lon="9.7701152"><ele>72.0</ele><time>2026-04-12T06:42:51.168Z</time></trkpt><trkpt lat="44.9753903" lon="9.7699931"><ele>72.0</ele><time>2026-04-12T06:42:53.164Z</time></trkpt><trkpt lat="44.9753489" lon="9.7698743"><ele>72.0</ele><time>2026-04-12T06:42:55.17Z</time></trkpt><trkpt lat="44.9752609" lon="9.7698188"><ele>72.2</ele><time>2026-04-12T06:42:57.171Z</time></trkpt><trkpt lat="44.9751677" lon="9.76978"><ele>72.4</ele><time>2026-04-12T06:42:59.171Z</time></trkpt><trkpt lat="44.97508" lon="9.7697455"><ele>72.6</ele><time>2026-04-12T06:43:01.173Z</time></trkpt><trkpt lat="44.974994" lon="9.7697141"><ele>72.8</ele><time>2026-04-12T06:43:03.171Z</time></trkpt><trkpt lat="44.974904" lon="9.7696838"><ele>73.0</ele><time>2026-04-12T06:43:05.161Z</time></trkpt><trkpt lat="44.974814" lon="9.76964"><ele>73.16666666666666</ele><time>2026-04-12T06:43:07.159Z</time></trkpt><trkpt lat="44.974722" lon="9.7696099"><ele>73.33333333333333</ele><time>2026-04-12T06:43:09.174Z</time></trkpt><trkpt lat="44.9746342" lon="9.7695756"><ele>73.5</ele><time>2026-04-12T06:43:11.169Z</time></trkpt><trkpt lat="44.9745553" lon="9.769545"><ele>73.66666666666667</ele><time>2026-04-12T06:43:13.165Z</time></trkpt><trkpt lat="44.9744799" lon="9.7695587"><ele>73.83333333333334</ele><time>2026-04-12T06:43:15.163Z</time></trkpt><trkpt lat="44.9744401" lon="9.7696577"><ele>74.0</ele><time>2026-04-12T06:43:17.174Z</time></trkpt><trkpt lat="44.9744144" lon="9.769786"><ele>74.0</ele><time>2026-04-12T06:43:19.18Z</time></trkpt><trkpt lat="44.9743777" lon="9.7699062"><ele>74.0</ele><time>2026-04-12T06:43:21.174Z</time></trkpt><trkpt lat="44.9743531" lon="9.7700288"><ele>74.0</ele><time>2026-04-12T06:43:23.174Z</time></trkpt><trkpt lat="44.9743258" lon="9.7701486"><ele>74.0</ele><time>2026-04-12T06:43:25.17Z</time></trkpt><trkpt lat="44.9742948" lon="9.7702737"><ele>74.0</ele><time>2026-04-12T06:43:27.165Z</time></trkpt><trkpt lat="44.9742685" lon="9.7704034"><ele>74.0</ele><time>2026-04-12T06:43:29.167Z</time></trkpt><trkpt lat="44.9742348" lon="9.7705315"><ele>74.0</ele><time>2026-04-12T06:43:31.156Z</time></trkpt><trkpt lat="44.9741997" lon="9.7706574"><ele>74.0</ele><time>2026-04-12T06:43:33.162Z</time></trkpt><trkpt lat="44.9741771" lon="9.770785"><ele>74.0</ele><time>2026-04-12T06:43:35.174Z</time></trkpt><trkpt lat="44.9741522" lon="9.7709108"><ele>74.0</ele><time>2026-04-12T06:43:37.17Z</time></trkpt><trkpt lat="44.9741309" lon="9.7710437"><ele>74.2</ele><time>2026-04-12T06:43:39.167Z</time></trkpt><trkpt lat="44.9741082" lon="9.7711707"><ele>74.4</ele><time>2026-04-12T06:43:41.143Z</time></trkpt><trkpt lat="44.9740851" lon="9.7712982"><ele>74.6</ele><time>2026-04-12T06:43:43.171Z</time></trkpt><trkpt lat="44.9740633" lon="9.7714373"><ele>74.8</ele><time>2026-04-12T06:43:45.17Z</time></trkpt><trkpt lat="44.9740392" lon="9.7715616"><ele>75.0</ele><time>2026-04-12T06:43:47.163Z</time></trkpt><trkpt lat="44.9740124" lon="9.7716947"><ele>75.0</ele><time>2026-04-12T06:43:49.177Z</time></trkpt><trkpt lat="44.9739873" lon="9.7718271"><ele>75.0</ele><time>2026-04-12T06:43:51.182Z</time></trkpt><trkpt lat="44.9739638" lon="9.7719566"><ele>75.0</ele><time>2026-04-12T06:43:53.171Z</time></trkpt><trkpt lat="44.9739345" lon="9.7720902"><ele>75.0</ele><time>2026-04-12T06:43:55.174Z</time></trkpt><trkpt lat="44.9739142" lon="9.7722189"><ele>75.0</ele><time>2026-04-12T06:43:57.159Z</time></trkpt><trkpt lat="44.973891" lon="9.7723401"><ele>74.8</ele><time>2026-04-12T06:43:59.165Z</time></trkpt><trkpt lat="44.9738695" lon="9.7724795"><ele>74.6</ele><time>2026-04-12T06:44:01.17Z</time></trkpt><trkpt lat="44.9738479" lon="9.7726027"><ele>74.4</ele><time>2026-04-12T06:44:03.171Z</time></trkpt><trkpt lat="44.9738289" lon="9.7727207"><ele>74.2</ele><time>2026-04-12T06:44:05.175Z</time></trkpt><trkpt lat="44.973815" lon="9.7728607"><ele>74.0</ele><time>2026-04-12T06:44:07.165Z</time></trkpt><trkpt lat="44.9737958" lon="9.7729986"><ele>74.0</ele><time>2026-04-12T06:44:09.166Z</time></trkpt><trkpt lat="44.9737733" lon="9.7731259"><ele>74.0</ele><time>2026-04-12T06:44:11.169Z</time></trkpt><trkpt lat="44.9737512" lon="9.7732644"><ele>74.0</ele><time>2026-04-12T06:44:13.164Z</time></trkpt><trkpt lat="44.9737254" lon="9.7733882"><ele>74.0</ele><time>2026-04-12T06:44:15.165Z</time></trkpt><trkpt lat="44.9737033" lon="9.7735144"><ele>74.0</ele><time>2026-04-12T06:44:17.169Z</time></trkpt><trkpt lat="44.9736802" lon="9.7736404"><ele>73.60000000000001</ele><time>2026-04-12T06:44:19.17Z</time></trkpt><trkpt lat="44.9736594" lon="9.7737715"><ele>73.2</ele><time>2026-04-12T06:44:21.149Z</time></trkpt><trkpt lat="44.9736362" lon="9.773898"><ele>72.80000000000001</ele><time>2026-04-12T06:44:23.173Z</time></trkpt><trkpt lat="44.9736111" lon="9.7740194"><ele>72.4</ele><time>2026-04-12T06:44:25.154Z</time></trkpt><trkpt lat="44.9735804" lon="9.7741448"><ele>72.0</ele><time>2026-04-12T06:44:27.169Z</time></trkpt><trkpt lat="44.9735586" lon="9.7742691"><ele>72.0</ele><time>2026-04-12T06:44:29.141Z</time></trkpt><trkpt lat="44.9735369" lon="9.7743902"><ele>72.0</ele><time>2026-04-12T06:44:31.163Z</time></trkpt><trkpt lat="44.973518" lon="9.774524"><ele>72.0</ele><time>2026-04-12T06:44:33.17Z</time></trkpt><trkpt lat="44.9734973" lon="9.7746482"><ele>72.0</ele><time>2026-04-12T06:44:35.171Z</time></trkpt><trkpt lat="44.9734781" lon="9.7747686"><ele>72.0</ele><time>2026-04-12T06:44:37.179Z</time></trkpt><trkpt lat="44.9734563" lon="9.774896"><ele>72.0</ele><time>2026-04-12T06:44:39.176Z</time></trkpt><trkpt lat="44.973435" lon="9.7750326"><ele>72.0</ele><time>2026-04-12T06:44:41.176Z</time></trkpt><trkpt lat="44.9734165" lon="9.7751624"><ele>72.0</ele><time>2026-04-12T06:44:43.174Z</time></trkpt><trkpt lat="44.973396" lon="9.7752911"><ele>72.0</ele><time>2026-04-12T06:44:45.179Z</time></trkpt><trkpt lat="44.9733809" lon="9.7754211"><ele>72.0</ele><time>2026-04-12T06:44:47.183Z</time></trkpt><trkpt lat="44.9733593" lon="9.775556"><ele>72.0</ele><time>2026-04-12T06:44:49.18Z</time></trkpt><trkpt lat="44.9733426" lon="9.7756853"><ele>72.0</ele><time>2026-04-12T06:44:51.169Z</time></trkpt><trkpt lat="44.9733187" lon="9.775806"><ele>72.0</ele><time>2026-04-12T06:44:53.184Z</time></trkpt><trkpt lat="44.9732952" lon="9.7759367"><ele>72.0</ele><time>2026-04-12T06:44:55.173Z</time></trkpt><trkpt lat="44.9732906" lon="9.7760694"><ele>72.0</ele><time>2026-04-12T06:44:57.171Z</time></trkpt><trkpt lat="44.9732708" lon="9.7762018"><ele>72.00000000000001</ele><time>2026-04-12T06:44:59.176Z</time></trkpt><trkpt lat="44.9732483" lon="9.7763207"><ele>72.0</ele><time>2026-04-12T06:45:01.166Z</time></trkpt><trkpt lat="44.9732316" lon="9.7764157"><ele>72.0</ele><time>2026-04-12T06:45:03.17Z</time></trkpt><trkpt lat="44.9732054" lon="9.776497"><ele>72.0</ele><time>2026-04-12T06:45:05.183Z</time></trkpt><trkpt lat="44.9731365" lon="9.7764929"><ele>72.0</ele><time>2026-04-12T06:45:07.165Z</time></trkpt><trkpt lat="44.9730698" lon="9.7764478"><ele>72.00000000000001</ele><time>2026-04-12T06:45:09.174Z</time></trkpt><trkpt lat="44.9729942" lon="9.7764099"><ele>72.0</ele><time>2026-04-12T06:45:11.183Z</time></trkpt><trkpt lat="44.9729133" lon="9.7763776"><ele>72.0</ele><time>2026-04-12T06:45:13.165Z</time></trkpt><trkpt lat="44.9728244" lon="9.7763449"><ele>72.0</ele><time>2026-04-12T06:45:15.177Z</time></trkpt><trkpt lat="44.9727334" lon="9.7763284"><ele>72.0</ele><time>2026-04-12T06:45:17.168Z</time></trkpt><trkpt lat="44.9726399" lon="9.7763082"><ele>72.0</ele><time>2026-04-12T06:45:19.167Z</time></trkpt><trkpt lat="44.9725538" lon="9.7762802"><ele>72.0</ele><time>2026-04-12T06:45:21.153Z</time></trkpt><trkpt lat="44.9724628" lon="9.776263"><ele>72.33333333333333</ele><time>2026-04-12T06:45:23.172Z</time></trkpt><trkpt lat="44.9723741" lon="9.7762393"><ele>72.66666666666667</ele><time>2026-04-12T06:45:25.172Z</time></trkpt><trkpt lat="44.9722863" lon="9.7762134"><ele>73.0</ele><time>2026-04-12T06:45:27.158Z</time></trkpt><trkpt lat="44.9722053" lon="9.7761859"><ele>73.33333333333334</ele><time>2026-04-12T06:45:29.164Z</time></trkpt><trkpt lat="44.972121" lon="9.776165"><ele>73.66666666666667</ele><time>2026-04-12T06:45:31.173Z</time></trkpt><trkpt lat="44.972035" lon="9.7761393"><ele>74.0</ele><time>2026-04-12T06:45:33.187Z</time></trkpt><trkpt lat="44.9719443" lon="9.7761288"><ele>74.0</ele><time>2026-04-12T06:45:35.172Z</time></trkpt><trkpt lat="44.9718536" lon="9.7761324"><ele>74.0</ele><time>2026-04-12T06:45:37.177Z</time></trkpt><trkpt lat="44.9717718" lon="9.7761455"><ele>74.0</ele><time>2026-04-12T06:45:39.179Z</time></trkpt><trkpt lat="44.9716906" lon="9.7761584"><ele>74.0</ele><time>2026-04-12T06:45:41.164Z</time></trkpt><trkpt lat="44.971603" lon="9.7761722"><ele>74.0</ele><time>2026-04-12T06:45:43.177Z</time></trkpt><trkpt lat="44.9715107" lon="9.7761897"><ele>74.0</ele><time>2026-04-12T06:45:45.17Z</time></trkpt><trkpt lat="44.9714179" lon="9.7761954"><ele>73.8</ele><time>2026-04-12T06:45:47.174Z</time></trkpt><trkpt lat="44.9713265" lon="9.7762039"><ele>73.60000000000001</ele><time>2026-04-12T06:45:49.176Z</time></trkpt><trkpt lat="44.9712347" lon="9.7762186"><ele>73.4</ele><time>2026-04-12T06:45:51.165Z</time></trkpt><trkpt lat="44.9711423" lon="9.7762506"><ele>73.2</ele><time>2026-04-12T06:45:53.17Z</time></trkpt><trkpt lat="44.9710496" lon="9.7762715"><ele>73.0</ele><time>2026-04-12T06:45:55.174Z</time></trkpt><trkpt lat="44.9709552" lon="9.7762886"><ele>73.0</ele><time>2026-04-12T06:45:57.168Z</time></trkpt><trkpt lat="44.9708624" lon="9.776307"><ele>73.0</ele><time>2026-04-12T06:45:59.175Z</time></trkpt><trkpt lat="44.970771" lon="9.7763324"><ele>73.0</ele><time>2026-04-12T06:46:01.174Z</time></trkpt><trkpt lat="44.9706731" lon="9.7763485"><ele>73.0</ele><time>2026-04-12T06:46:03.172Z</time></trkpt><trkpt lat="44.97058" lon="9.7763717"><ele>73.0</ele><time>2026-04-12T06:46:05.171Z</time></trkpt><trkpt lat="44.9704898" lon="9.7763945"><ele>72.8</ele><time>2026-04-12T06:46:07.17Z</time></trkpt><trkpt lat="44.9704013" lon="9.776412"><ele>72.6</ele><time>2026-04-12T06:46:09.173Z</time></trkpt><trkpt lat="44.9703013" lon="9.7764193"><ele>72.4</ele><time>2026-04-12T06:46:11.174Z</time></trkpt><trkpt lat="44.9702095" lon="9.7764286"><ele>72.2</ele><time>2026-04-12T06:46:13.17Z</time></trkpt><trkpt lat="44.9701166" lon="9.7764483"><ele>72.0</ele><time>2026-04-12T06:46:15.164Z</time></trkpt><trkpt lat="44.9700201" lon="9.7764695"><ele>72.0</ele><time>2026-04-12T06:46:17.17Z</time></trkpt><trkpt lat="44.9699209" lon="9.7764825"><ele>72.0</ele><time>2026-04-12T06:46:19.177Z</time></trkpt><trkpt lat="44.9698229" lon="9.7764943"><ele>72.0</ele><time>2026-04-12T06:46:21.169Z</time></trkpt><trkpt lat="44.9697309" lon="9.7765066"><ele>72.0</ele><time>2026-04-12T06:46:23.162Z</time></trkpt><trkpt lat="44.9696336" lon="9.7765245"><ele>72.0</ele><time>2026-04-12T06:46:25.151Z</time></trkpt><trkpt lat="44.9695408" lon="9.7765322"><ele>72.0</ele><time>2026-04-12T06:46:27.165Z</time></trkpt><trkpt lat="44.9694485" lon="9.7765374"><ele>72.0</ele><time>2026-04-12T06:46:29.131Z</time></trkpt><trkpt lat="44.9693582" lon="9.7765491"><ele>72.0</ele><time>2026-04-12T06:46:31.133Z</time></trkpt><trkpt lat="44.9692618" lon="9.7765639"><ele>72.0</ele><time>2026-04-12T06:46:33.144Z</time></trkpt><trkpt lat="44.9691631" lon="9.7765747"><ele>72.0</ele><time>2026-04-12T06:46:35.169Z</time></trkpt><trkpt lat="44.9690758" lon="9.7765815"><ele>72.6</ele><time>2026-04-12T06:46:37.173Z</time></trkpt><trkpt lat="44.968983" lon="9.7765983"><ele>73.2</ele><time>2026-04-12T06:46:39.151Z</time></trkpt><trkpt lat="44.9688946" lon="9.7766099"><ele>73.8</ele><time>2026-04-12T06:46:41.17Z</time></trkpt><trkpt lat="44.9688057" lon="9.7766193"><ele>74.4</ele><time>2026-04-12T06:46:43.165Z</time></trkpt><trkpt lat="44.9687156" lon="9.7766373"><ele>75.0</ele><time>2026-04-12T06:46:45.163Z</time></trkpt><trkpt lat="44.968622" lon="9.7766494"><ele>75.0</ele><time>2026-04-12T06:46:47.172Z</time></trkpt><trkpt lat="44.9685238" lon="9.7766599"><ele>75.0</ele><time>2026-04-12T06:46:49.173Z</time></trkpt><trkpt lat="44.9684346" lon="9.7766775"><ele>75.0</ele><time>2026-04-12T06:46:51.17Z</time></trkpt><trkpt lat="44.9683407" lon="9.7766858"><ele>75.0</ele><time>2026-04-12T06:46:53.175Z</time></trkpt><trkpt lat="44.9682456" lon="9.7766905"><ele>75.0</ele><time>2026-04-12T06:46:55.171Z</time></trkpt><trkpt lat="44.9681541" lon="9.7767121"><ele>75.2</ele><time>2026-04-12T06:46:57.162Z</time></trkpt><trkpt lat="44.9680579" lon="9.7767236"><ele>75.4</ele><time>2026-04-12T06:46:59.174Z</time></trkpt><trkpt lat="44.96797" lon="9.7767353"><ele>75.6</ele><time>2026-04-12T06:47:01.174Z</time></trkpt><trkpt lat="44.9678789" lon="9.7767438"><ele>75.8</ele><time>2026-04-12T06:47:03.173Z</time></trkpt><trkpt lat="44.9677831" lon="9.7767615"><ele>76.0</ele><time>2026-04-12T06:47:05.166Z</time></trkpt><trkpt lat="44.9676893" lon="9.7767801"><ele>76.0</ele><time>2026-04-12T06:47:07.166Z</time></trkpt><trkpt lat="44.9675917" lon="9.7767861"><ele>76.0</ele><time>2026-04-12T06:47:09.176Z</time></trkpt><trkpt lat="44.9675" lon="9.7767956"><ele>76.0</ele><time>2026-04-12T06:47:11.169Z</time></trkpt><trkpt lat="44.9674074" lon="9.776813"><ele>76.0</ele><time>2026-04-12T06:47:13.171Z</time></trkpt><trkpt lat="44.9673121" lon="9.7768331"><ele>76.0</ele><time>2026-04-12T06:47:15.178Z</time></trkpt><trkpt lat="44.9672153" lon="9.7768463"><ele>76.2</ele><time>2026-04-12T06:47:17.176Z</time></trkpt><trkpt lat="44.9671173" lon="9.7768474"><ele>76.39999999999999</ele><time>2026-04-12T06:47:19.177Z</time></trkpt><trkpt lat="44.9670227" lon="9.7768647"><ele>76.6</ele><time>2026-04-12T06:47:21.162Z</time></trkpt><trkpt lat="44.9669196" lon="9.7768918"><ele>76.8</ele><time>2026-04-12T06:47:23.176Z</time></trkpt><trkpt lat="44.9668209" lon="9.7768925"><ele>77.0</ele><time>2026-04-12T06:47:25.17Z</time></trkpt><trkpt lat="44.9667305" lon="9.7768947"><ele>77.4</ele><time>2026-04-12T06:47:27.166Z</time></trkpt><trkpt lat="44.9666302" lon="9.7769198"><ele>77.80000000000001</ele><time>2026-04-12T06:47:29.175Z</time></trkpt><trkpt lat="44.9665339" lon="9.7769337"><ele>78.2</ele><time>2026-04-12T06:47:31.172Z</time></trkpt><trkpt lat="44.9664289" lon="9.7769513"><ele>78.60000000000001</ele><time>2026-04-12T06:47:33.175Z</time></trkpt><trkpt lat="44.9663452" lon="9.7769659"><ele>79.0</ele><time>2026-04-12T06:47:35.172Z</time></trkpt><trkpt lat="44.9662539" lon="9.7769713"><ele>79.0</ele><time>2026-04-12T06:47:37.173Z</time></trkpt><trkpt lat="44.9661545" lon="9.7769871"><ele>79.0</ele><time>2026-04-12T06:47:39.178Z</time></trkpt><trkpt lat="44.966055" lon="9.7769976"><ele>79.0</ele><time>2026-04-12T06:47:41.179Z</time></trkpt><trkpt lat="44.9659565" lon="9.7770083"><ele>79.0</ele><time>2026-04-12T06:47:43.178Z</time></trkpt><trkpt lat="44.9658608" lon="9.7770185"><ele>79.0</ele><time>2026-04-12T06:47:45.17Z</time></trkpt><trkpt lat="44.9657661" lon="9.7770325"><ele>78.8</ele><time>2026-04-12T06:47:47.174Z</time></trkpt><trkpt lat="44.96567" lon="9.777038"><ele>78.60000000000001</ele><time>2026-04-12T06:47:49.163Z</time></trkpt><trkpt lat="44.9655752" lon="9.777024"><ele>78.4</ele><time>2026-04-12T06:47:51.165Z</time></trkpt><trkpt lat="44.9654861" lon="9.7769885"><ele>78.2</ele><time>2026-04-12T06:47:53.17Z</time></trkpt><trkpt lat="44.9653988" lon="9.7769505"><ele>78.0</ele><time>2026-04-12T06:47:55.173Z</time></trkpt><trkpt lat="44.9653085" lon="9.7769252"><ele>78.0</ele><time>2026-04-12T06:47:57.175Z</time></trkpt><trkpt lat="44.9652112" lon="9.7769121"><ele>78.0</ele><time>2026-04-12T06:47:59.174Z</time></trkpt><trkpt lat="44.9651195" lon="9.7768924"><ele>78.0</ele><time>2026-04-12T06:48:01.165Z</time></trkpt><trkpt lat="44.9650297" lon="9.7768738"><ele>78.0</ele><time>2026-04-12T06:48:03.182Z</time></trkpt><trkpt lat="44.9649296" lon="9.7768627"><ele>78.0</ele><time>2026-04-12T06:48:05.165Z</time></trkpt><trkpt lat="44.9648326" lon="9.7768493"><ele>78.2</ele><time>2026-04-12T06:48:07.141Z</time></trkpt><trkpt lat="44.9647388" lon="9.7768348"><ele>78.4</ele><time>2026-04-12T06:48:09.171Z</time></trkpt><trkpt lat="44.9646408" lon="9.7768258"><ele>78.60000000000001</ele><time>2026-04-12T06:48:11.163Z</time></trkpt><trkpt lat="44.9645469" lon="9.7768135"><ele>78.8</ele><time>2026-04-12T06:48:13.169Z</time></trkpt><trkpt lat="44.964449" lon="9.776799"><ele>79.0</ele><time>2026-04-12T06:48:15.178Z</time></trkpt><trkpt lat="44.9643603" lon="9.7767856"><ele>79.0</ele><time>2026-04-12T06:48:17.175Z</time></trkpt><trkpt lat="44.9642661" lon="9.776771"><ele>79.0</ele><time>2026-04-12T06:48:19.172Z</time></trkpt><trkpt lat="44.9641675" lon="9.7767642"><ele>79.0</ele><time>2026-04-12T06:48:21.174Z</time></trkpt><trkpt lat="44.9640672" lon="9.7767445"><ele>79.0</ele><time>2026-04-12T06:48:23.167Z</time></trkpt><trkpt lat="44.9639694" lon="9.7767468"><ele>79.0</ele><time>2026-04-12T06:48:25.175Z</time></trkpt><trkpt lat="44.9638772" lon="9.7767401"><ele>78.8</ele><time>2026-04-12T06:48:27.168Z</time></trkpt><trkpt lat="44.9637888" lon="9.7767273"><ele>78.60000000000001</ele><time>2026-04-12T06:48:29.175Z</time></trkpt><trkpt lat="44.9636893" lon="9.7767195"><ele>78.4</ele><time>2026-04-12T06:48:31.173Z</time></trkpt><trkpt lat="44.9635991" lon="9.7767041"><ele>78.2</ele><time>2026-04-12T06:48:33.174Z</time></trkpt><trkpt lat="44.963503" lon="9.7766908"><ele>78.0</ele><time>2026-04-12T06:48:35.172Z</time></trkpt><trkpt lat="44.9634067" lon="9.7766769"><ele>78.6</ele><time>2026-04-12T06:48:37.183Z</time></trkpt><trkpt lat="44.9633174" lon="9.776656"><ele>79.19999999999999</ele><time>2026-04-12T06:48:39.161Z</time></trkpt><trkpt lat="44.9632216" lon="9.7766462"><ele>79.8</ele><time>2026-04-12T06:48:41.167Z</time></trkpt><trkpt lat="44.9631234" lon="9.7766369"><ele>80.39999999999999</ele><time>2026-04-12T06:48:43.166Z</time></trkpt><trkpt lat="44.9630317" lon="9.7766219"><ele>81.0</ele><time>2026-04-12T06:48:45.15Z</time></trkpt><trkpt lat="44.9629314" lon="9.7766449"><ele>81.0</ele><time>2026-04-12T06:48:47.17Z</time></trkpt><trkpt lat="44.9628526" lon="9.7767196"><ele>81.0</ele><time>2026-04-12T06:48:49.17Z</time></trkpt><trkpt lat="44.9627952" lon="9.7768103"><ele>81.0</ele><time>2026-04-12T06:48:51.17Z</time></trkpt><trkpt lat="44.9627229" lon="9.7768995"><ele>81.0</ele><time>2026-04-12T06:48:53.161Z</time></trkpt><trkpt lat="44.9626232" lon="9.7769144"><ele>81.0</ele><time>2026-04-12T06:48:55.172Z</time></trkpt><trkpt lat="44.9625386" lon="9.7768886"><ele>81.0</ele><time>2026-04-12T06:48:57.177Z</time></trkpt><trkpt lat="44.9624492" lon="9.7768736"><ele>81.0</ele><time>2026-04-12T06:48:59.175Z</time></trkpt><trkpt lat="44.962356" lon="9.7768551"><ele>81.0</ele><time>2026-04-12T06:49:01.174Z</time></trkpt><trkpt lat="44.9622681" lon="9.7768328"><ele>81.0</ele><time>2026-04-12T06:49:03.169Z</time></trkpt><trkpt lat="44.9621747" lon="9.7768153"><ele>81.0</ele><time>2026-04-12T06:49:05.171Z</time></trkpt><trkpt lat="44.9620843" lon="9.7767995"><ele>81.0</ele><time>2026-04-12T06:49:07.149Z</time></trkpt><trkpt lat="44.9619879" lon="9.7767833"><ele>81.0</ele><time>2026-04-12T06:49:09.167Z</time></trkpt><trkpt lat="44.9618983" lon="9.776754"><ele>81.0</ele><time>2026-04-12T06:49:11.168Z</time></trkpt><trkpt lat="44.9618109" lon="9.7767213"><ele>81.0</ele><time>2026-04-12T06:49:13.146Z</time></trkpt><trkpt lat="44.9617261" lon="9.7766836"><ele>81.0</ele><time>2026-04-12T06:49:15.162Z</time></trkpt><trkpt lat="44.961629" lon="9.7766566"><ele>81.0</ele><time>2026-04-12T06:49:17.15Z</time></trkpt><trkpt lat="44.9615382" lon="9.7766143"><ele>81.0</ele><time>2026-04-12T06:49:19.172Z</time></trkpt><trkpt lat="44.9614517" lon="9.7765705"><ele>81.0</ele><time>2026-04-12T06:49:21.17Z</time></trkpt><trkpt lat="44.9613529" lon="9.776543"><ele>81.0</ele><time>2026-04-12T06:49:23.168Z</time></trkpt><trkpt lat="44.9612571" lon="9.7765172"><ele>81.0</ele><time>2026-04-12T06:49:25.169Z</time></trkpt><trkpt lat="44.9611626" lon="9.776502"><ele>81.0</ele><time>2026-04-12T06:49:27.168Z</time></trkpt><trkpt lat="44.9610653" lon="9.776484"><ele>81.0</ele><time>2026-04-12T06:49:29.164Z</time></trkpt><trkpt lat="44.9609676" lon="9.7764651"><ele>81.0</ele><time>2026-04-12T06:49:31.161Z</time></trkpt><trkpt lat="44.9608695" lon="9.776456"><ele>81.0</ele><time>2026-04-12T06:49:33.164Z</time></trkpt><trkpt lat="44.9607765" lon="9.776422"><ele>81.0</ele><time>2026-04-12T06:49:35.173Z</time></trkpt><trkpt lat="44.9606854" lon="9.7763984"><ele>80.8</ele><time>2026-04-12T06:49:37.174Z</time></trkpt><trkpt lat="44.9605886" lon="9.7763883"><ele>80.6</ele><time>2026-04-12T06:49:39.159Z</time></trkpt><trkpt lat="44.9604938" lon="9.776361"><ele>80.4</ele><time>2026-04-12T06:49:41.146Z</time></trkpt><trkpt lat="44.9603955" lon="9.776337"><ele>80.2</ele><time>2026-04-12T06:49:43.165Z</time></trkpt><trkpt lat="44.9602964" lon="9.7763147"><ele>80.0</ele><time>2026-04-12T06:49:45.18Z</time></trkpt><trkpt lat="44.9602013" lon="9.7762817"><ele>80.0</ele><time>2026-04-12T06:49:47.161Z</time></trkpt><trkpt lat="44.9601123" lon="9.7762484"><ele>80.0</ele><time>2026-04-12T06:49:49.157Z</time></trkpt><trkpt lat="44.960019" lon="9.7762209"><ele>80.0</ele><time>2026-04-12T06:49:51.166Z</time></trkpt><trkpt lat="44.9599229" lon="9.7761984"><ele>80.0</ele><time>2026-04-12T06:49:53.171Z</time></trkpt><trkpt lat="44.9598267" lon="9.7761779"><ele>80.0</ele><time>2026-04-12T06:49:55.169Z</time></trkpt><trkpt lat="44.9597349" lon="9.776159"><ele>80.2</ele><time>2026-04-12T06:49:57.16Z</time></trkpt><trkpt lat="44.9596463" lon="9.7761344"><ele>80.4</ele><time>2026-04-12T06:49:59.16Z</time></trkpt><trkpt lat="44.9595504" lon="9.7761071"><ele>80.6</ele><time>2026-04-12T06:50:01.169Z</time></trkpt><trkpt lat="44.9594567" lon="9.7760737"><ele>80.8</ele><time>2026-04-12T06:50:03.167Z</time></trkpt><trkpt lat="44.9593572" lon="9.7760402"><ele>81.0</ele><time>2026-04-12T06:50:05.178Z</time></trkpt><trkpt lat="44.9592549" lon="9.7760272"><ele>81.19999999999999</ele><time>2026-04-12T06:50:07.172Z</time></trkpt><trkpt lat="44.9591594" lon="9.7760005"><ele>81.39999999999999</ele><time>2026-04-12T06:50:09.138Z</time></trkpt><trkpt lat="44.9590669" lon="9.7759494"><ele>81.6</ele><time>2026-04-12T06:50:11.163Z</time></trkpt><trkpt lat="44.9589741" lon="9.7759103"><ele>81.8</ele><time>2026-04-12T06:50:13.168Z</time></trkpt><trkpt lat="44.9588794" lon="9.7758702"><ele>82.0</ele><time>2026-04-12T06:50:15.164Z</time></trkpt><trkpt lat="44.9587812" lon="9.7758539"><ele>82.0</ele><time>2026-04-12T06:50:17.162Z</time></trkpt><trkpt lat="44.958684" lon="9.7758157"><ele>82.0</ele><time>2026-04-12T06:50:19.165Z</time></trkpt><trkpt lat="44.9585947" lon="9.7757785"><ele>82.0</ele><time>2026-04-12T06:50:21.165Z</time></trkpt><trkpt lat="44.9585025" lon="9.775725"><ele>82.0</ele><time>2026-04-12T06:50:23.163Z</time></trkpt><trkpt lat="44.9584121" lon="9.7756914"><ele>82.0</ele><time>2026-04-12T06:50:25.164Z</time></trkpt><trkpt lat="44.9583248" lon="9.7756749"><ele>81.8</ele><time>2026-04-12T06:50:27.168Z</time></trkpt><trkpt lat="44.9582318" lon="9.7756478"><ele>81.6</ele><time>2026-04-12T06:50:29.168Z</time></trkpt><trkpt lat="44.9581396" lon="9.7756031"><ele>81.39999999999999</ele><time>2026-04-12T06:50:31.177Z</time></trkpt><trkpt lat="44.9580483" lon="9.7755769"><ele>81.19999999999999</ele><time>2026-04-12T06:50:33.171Z</time></trkpt><trkpt lat="44.9579585" lon="9.7755453"><ele>81.0</ele><time>2026-04-12T06:50:35.158Z</time></trkpt><trkpt lat="44.9578656" lon="9.7755097"><ele>81.0</ele><time>2026-04-12T06:50:37.172Z</time></trkpt><trkpt lat="44.9577745" lon="9.7754762"><ele>81.0</ele><time>2026-04-12T06:50:39.154Z</time></trkpt><trkpt lat="44.9576869" lon="9.7754467"><ele>81.0</ele><time>2026-04-12T06:50:41.167Z</time></trkpt><trkpt lat="44.9576093" lon="9.7753749"><ele>81.0</ele><time>2026-04-12T06:50:43.171Z</time></trkpt><trkpt lat="44.9575306" lon="9.7752867"><ele>81.0</ele><time>2026-04-12T06:50:45.171Z</time></trkpt><trkpt lat="44.9574603" lon="9.7751994"><ele>81.19999999999999</ele><time>2026-04-12T06:50:47.174Z</time></trkpt><trkpt lat="44.9573955" lon="9.7751033"><ele>81.39999999999999</ele><time>2026-04-12T06:50:49.161Z</time></trkpt><trkpt lat="44.9573295" lon="9.7750021"><ele>81.6</ele><time>2026-04-12T06:50:51.175Z</time></trkpt><trkpt lat="44.9572628" lon="9.7748984"><ele>81.8</ele><time>2026-04-12T06:50:53.175Z</time></trkpt><trkpt lat="44.957197" lon="9.7748015"><ele>82.0</ele><time>2026-04-12T06:50:55.166Z</time></trkpt><trkpt lat="44.9571315" lon="9.774705"><ele>82.0</ele><time>2026-04-12T06:50:57.153Z</time></trkpt><trkpt lat="44.9570594" lon="9.7746255"><ele>82.0</ele><time>2026-04-12T06:50:59.169Z</time></trkpt><trkpt lat="44.956973" lon="9.7745488"><ele>82.0</ele><time>2026-04-12T06:51:01.164Z</time></trkpt><trkpt lat="44.9568806" lon="9.774498"><ele>82.0</ele><time>2026-04-12T06:51:03.165Z</time></trkpt><trkpt lat="44.9567795" lon="9.7744611"><ele>82.0</ele><time>2026-04-12T06:51:05.185Z</time></trkpt><trkpt lat="44.9566895" lon="9.7744116"><ele>82.0</ele><time>2026-04-12T06:51:07.146Z</time></trkpt><trkpt lat="44.9566049" lon="9.7743691"><ele>82.0</ele><time>2026-04-12T06:51:09.169Z</time></trkpt><trkpt lat="44.9565155" lon="9.774328"><ele>82.0</ele><time>2026-04-12T06:51:11.164Z</time></trkpt><trkpt lat="44.9564307" lon="9.7742898"><ele>82.0</ele><time>2026-04-12T06:51:13.167Z</time></trkpt><trkpt lat="44.9563363" lon="9.774249"><ele>82.0</ele><time>2026-04-12T06:51:15.167Z</time></trkpt><trkpt lat="44.956245" lon="9.7742017"><ele>82.0</ele><time>2026-04-12T06:51:17.173Z</time></trkpt><trkpt lat="44.9561531" lon="9.7741524"><ele>82.0</ele><time>2026-04-12T06:51:19.18Z</time></trkpt><trkpt lat="44.9560666" lon="9.774108"><ele>82.0</ele><time>2026-04-12T06:51:21.171Z</time></trkpt><trkpt lat="44.9559713" lon="9.7740619"><ele>82.0</ele><time>2026-04-12T06:51:23.178Z</time></trkpt><trkpt lat="44.9558795" lon="9.7740233"><ele>82.0</ele><time>2026-04-12T06:51:25.167Z</time></trkpt><trkpt lat="44.9557902" lon="9.7739836"><ele>82.39999999999999</ele><time>2026-04-12T06:51:27.172Z</time></trkpt><trkpt lat="44.9556907" lon="9.7739466"><ele>82.8</ele><time>2026-04-12T06:51:29.173Z</time></trkpt><trkpt lat="44.9556001" lon="9.7739059"><ele>83.2</ele><time>2026-04-12T06:51:31.161Z</time></trkpt><trkpt lat="44.9555086" lon="9.773853"><ele>83.6</ele><time>2026-04-12T06:51:33.165Z</time></trkpt><trkpt lat="44.9554177" lon="9.7738113"><ele>84.0</ele><time>2026-04-12T06:51:35.171Z</time></trkpt><trkpt lat="44.9553403" lon="9.7737718"><ele>84.0</ele><time>2026-04-12T06:51:37.153Z</time></trkpt><trkpt lat="44.955263" lon="9.7737532"><ele>84.0</ele><time>2026-04-12T06:51:39.168Z</time></trkpt><trkpt lat="44.9551903" lon="9.7738027"><ele>84.0</ele><time>2026-04-12T06:51:41.163Z</time></trkpt><trkpt lat="44.9551658" lon="9.7739298"><ele>84.0</ele><time>2026-04-12T06:51:43.162Z</time></trkpt><trkpt lat="44.955144" lon="9.7740642"><ele>84.0</ele><time>2026-04-12T06:51:45.164Z</time></trkpt><trkpt lat="44.9551211" lon="9.7742135"><ele>84.0</ele><time>2026-04-12T06:51:47.165Z</time></trkpt><trkpt lat="44.9551021" lon="9.7743527"><ele>84.0</ele><time>2026-04-12T06:51:49.167Z</time></trkpt><trkpt lat="44.9550786" lon="9.7744807"><ele>84.0</ele><time>2026-04-12T06:51:51.17Z</time></trkpt><trkpt lat="44.9550545" lon="9.7746235"><ele>84.0</ele><time>2026-04-12T06:51:53.174Z</time></trkpt><trkpt lat="44.9550275" lon="9.7747502"><ele>84.0</ele><time>2026-04-12T06:51:55.176Z</time></trkpt><trkpt lat="44.9550046" lon="9.7748842"><ele>83.80000000000001</ele><time>2026-04-12T06:51:57.162Z</time></trkpt><trkpt lat="44.9549822" lon="9.7750216"><ele>83.60000000000001</ele><time>2026-04-12T06:51:59.167Z</time></trkpt><trkpt lat="44.954958" lon="9.7751557"><ele>83.4</ele><time>2026-04-12T06:52:01.156Z</time></trkpt><trkpt lat="44.9549383" lon="9.775288"><ele>83.2</ele><time>2026-04-12T06:52:03.165Z</time></trkpt><trkpt lat="44.9549167" lon="9.7754286"><ele>83.0</ele><time>2026-04-12T06:52:05.162Z</time></trkpt><trkpt lat="44.9549045" lon="9.7755594"><ele>82.80000000000001</ele><time>2026-04-12T06:52:07.173Z</time></trkpt><trkpt lat="44.9548852" lon="9.7757034"><ele>82.6</ele><time>2026-04-12T06:52:09.167Z</time></trkpt><trkpt lat="44.9548655" lon="9.7758276"><ele>82.4</ele><time>2026-04-12T06:52:11.164Z</time></trkpt><trkpt lat="44.9548293" lon="9.7759583"><ele>82.19999999999999</ele><time>2026-04-12T06:52:13.163Z</time></trkpt><trkpt lat="44.9547976" lon="9.7760947"><ele>82.0</ele><time>2026-04-12T06:52:15.172Z</time></trkpt><trkpt lat="44.954785" lon="9.7762279"><ele>82.0</ele><time>2026-04-12T06:52:17.174Z</time></trkpt><trkpt lat="44.9547717" lon="9.7763673"><ele>82.0</ele><time>2026-04-12T06:52:19.166Z</time></trkpt><trkpt lat="44.9547646" lon="9.776499"><ele>82.0</ele><time>2026-04-12T06:52:21.174Z</time></trkpt><trkpt lat="44.9547522" lon="9.7766302"><ele>82.0</ele><time>2026-04-12T06:52:23.174Z</time></trkpt><trkpt lat="44.954731" lon="9.776774"><ele>82.0</ele><time>2026-04-12T06:52:25.172Z</time></trkpt><trkpt lat="44.9547086" lon="9.7769114"><ele>82.0</ele><time>2026-04-12T06:52:27.174Z</time></trkpt><trkpt lat="44.9546834" lon="9.7770342"><ele>82.0</ele><time>2026-04-12T06:52:29.174Z</time></trkpt><trkpt lat="44.9546479" lon="9.7771654"><ele>82.0</ele><time>2026-04-12T06:52:31.169Z</time></trkpt><trkpt lat="44.9546178" lon="9.7772946"><ele>82.0</ele><time>2026-04-12T06:52:33.161Z</time></trkpt><trkpt lat="44.9545992" lon="9.7774262"><ele>82.0</ele><time>2026-04-12T06:52:35.168Z</time></trkpt><trkpt lat="44.9545901" lon="9.7775657"><ele>82.0</ele><time>2026-04-12T06:52:37.167Z</time></trkpt><trkpt lat="44.9545839" lon="9.7776935"><ele>82.0</ele><time>2026-04-12T06:52:39.159Z</time></trkpt><trkpt lat="44.9545676" lon="9.7778275"><ele>82.0</ele><time>2026-04-12T06:52:41.162Z</time></trkpt><trkpt lat="44.9545503" lon="9.7779534"><ele>82.0</ele><time>2026-04-12T06:52:43.18Z</time></trkpt><trkpt lat="44.9545343" lon="9.7780784"><ele>82.0</ele><time>2026-04-12T06:52:45.174Z</time></trkpt><trkpt lat="44.954516" lon="9.7781993"><ele>82.0</ele><time>2026-04-12T06:52:47.161Z</time></trkpt><trkpt lat="44.9544879" lon="9.7783217"><ele>82.0</ele><time>2026-04-12T06:52:49.179Z</time></trkpt><trkpt lat="44.9544685" lon="9.7784541"><ele>82.0</ele><time>2026-04-12T06:52:51.175Z</time></trkpt><trkpt lat="44.9544506" lon="9.7785902"><ele>82.0</ele><time>2026-04-12T06:52:53.165Z</time></trkpt><trkpt lat="44.9544314" lon="9.7787213"><ele>82.0</ele><time>2026-04-12T06:52:55.164Z</time></trkpt><trkpt lat="44.9544177" lon="9.7788513"><ele>82.0</ele><time>2026-04-12T06:52:57.17Z</time></trkpt><trkpt lat="44.9543951" lon="9.7789732"><ele>82.0</ele><time>2026-04-12T06:52:59.164Z</time></trkpt><trkpt lat="44.9543703" lon="9.7791047"><ele>82.0</ele><time>2026-04-12T06:53:01.174Z</time></trkpt><trkpt lat="44.9543456" lon="9.7792269"><ele>82.0</ele><time>2026-04-12T06:53:03.168Z</time></trkpt><trkpt lat="44.9543244" lon="9.7793556"><ele>82.0</ele><time>2026-04-12T06:53:05.161Z</time></trkpt><trkpt lat="44.9543047" lon="9.7794802"><ele>82.0</ele><time>2026-04-12T06:53:07.172Z</time></trkpt><trkpt lat="44.9542842" lon="9.7796116"><ele>82.0</ele><time>2026-04-12T06:53:09.169Z</time></trkpt><trkpt lat="44.9542689" lon="9.7797299"><ele>82.0</ele><time>2026-04-12T06:53:11.171Z</time></trkpt><trkpt lat="44.9542538" lon="9.7798552"><ele>82.0</ele><time>2026-04-12T06:53:13.165Z</time></trkpt><trkpt lat="44.9542385" lon="9.7799791"><ele>82.0</ele><time>2026-04-12T06:53:15.158Z</time></trkpt><trkpt lat="44.9542224" lon="9.7801053"><ele>82.0</ele><time>2026-04-12T06:53:17.17Z</time></trkpt><trkpt lat="44.9541968" lon="9.7802308"><ele>82.0</ele><time>2026-04-12T06:53:19.174Z</time></trkpt><trkpt lat="44.954179" lon="9.7803495"><ele>82.0</ele><time>2026-04-12T06:53:21.17Z</time></trkpt><trkpt lat="44.9541568" lon="9.7804733"><ele>82.0</ele><time>2026-04-12T06:53:23.171Z</time></trkpt><trkpt lat="44.954139" lon="9.7806067"><ele>82.0</ele><time>2026-04-12T06:53:25.16Z</time></trkpt><trkpt lat="44.9541208" lon="9.7807413"><ele>82.0</ele><time>2026-04-12T06:53:27.171Z</time></trkpt><trkpt lat="44.9541043" lon="9.7808625"><ele>82.0</ele><time>2026-04-12T06:53:29.166Z</time></trkpt><trkpt lat="44.9540832" lon="9.7809892"><ele>82.0</ele><time>2026-04-12T06:53:31.178Z</time></trkpt><trkpt lat="44.9540694" lon="9.7811006"><ele>82.0</ele><time>2026-04-12T06:53:33.159Z</time></trkpt><trkpt lat="44.9540452" lon="9.7812197"><ele>82.0</ele><time>2026-04-12T06:53:35.166Z</time></trkpt><trkpt lat="44.954025" lon="9.7813415"><ele>82.0</ele><time>2026-04-12T06:53:37.171Z</time></trkpt><trkpt lat="44.9540055" lon="9.7814707"><ele>81.83333333333333</ele><time>2026-04-12T06:53:39.172Z</time></trkpt><trkpt lat="44.9539865" lon="9.7815919"><ele>81.66666666666666</ele><time>2026-04-12T06:53:41.183Z</time></trkpt><trkpt lat="44.9539644" lon="9.7817144"><ele>81.5</ele><time>2026-04-12T06:53:43.165Z</time></trkpt><trkpt lat="44.9539458" lon="9.7818449"><ele>81.33333333333333</ele><time>2026-04-12T06:53:45.149Z</time></trkpt><trkpt lat="44.9539232" lon="9.7819657"><ele>81.16666666666667</ele><time>2026-04-12T06:53:47.149Z</time></trkpt><trkpt lat="44.9539148" lon="9.7820836"><ele>81.0</ele><time>2026-04-12T06:53:49.175Z</time></trkpt><trkpt lat="44.9538988" lon="9.7822076"><ele>81.0</ele><time>2026-04-12T06:53:51.16Z</time></trkpt><trkpt lat="44.9538735" lon="9.7823337"><ele>81.0</ele><time>2026-04-12T06:53:53.172Z</time></trkpt><trkpt lat="44.953851" lon="9.7824719"><ele>81.0</ele><time>2026-04-12T06:53:55.177Z</time></trkpt><trkpt lat="44.953831" lon="9.7825981"><ele>81.0</ele><time>2026-04-12T06:53:57.178Z</time></trkpt><trkpt lat="44.9538139" lon="9.7827293"><ele>81.0</ele><time>2026-04-12T06:53:59.17Z</time></trkpt><trkpt lat="44.9537952" lon="9.78285"><ele>81.19999999999999</ele><time>2026-04-12T06:54:01.163Z</time></trkpt><trkpt lat="44.9537751" lon="9.7829742"><ele>81.39999999999999</ele><time>2026-04-12T06:54:03.169Z</time></trkpt><trkpt lat="44.9537549" lon="9.7831009"><ele>81.6</ele><time>2026-04-12T06:54:05.165Z</time></trkpt><trkpt lat="44.9537374" lon="9.7832255"><ele>81.8</ele><time>2026-04-12T06:54:07.162Z</time></trkpt><trkpt lat="44.9537162" lon="9.7833552"><ele>82.0</ele><time>2026-04-12T06:54:09.164Z</time></trkpt><trkpt lat="44.9537007" lon="9.7834802"><ele>81.83333333333333</ele><time>2026-04-12T06:54:11.166Z</time></trkpt><trkpt lat="44.9536834" lon="9.7835922"><ele>81.66666666666666</ele><time>2026-04-12T06:54:13.176Z</time></trkpt><trkpt lat="44.9536696" lon="9.7837003"><ele>81.5</ele><time>2026-04-12T06:54:15.148Z</time></trkpt><trkpt lat="44.9536296" lon="9.7837756"><ele>81.33333333333333</ele><time>2026-04-12T06:54:17.16Z</time></trkpt><trkpt lat="44.9535475" lon="9.7837782"><ele>81.16666666666667</ele><time>2026-04-12T06:54:20.16Z</time></trkpt><trkpt lat="44.9534798" lon="9.7837507"><ele>81.0</ele><time>2026-04-12T06:54:22.167Z</time></trkpt><trkpt lat="44.953395" lon="9.7837222"><ele>81.0</ele><time>2026-04-12T06:54:24.172Z</time></trkpt><trkpt lat="44.9533115" lon="9.7837099"><ele>81.0</ele><time>2026-04-12T06:54:26.156Z</time></trkpt><trkpt lat="44.9532262" lon="9.7836947"><ele>81.0</ele><time>2026-04-12T06:54:28.152Z</time></trkpt><trkpt lat="44.9531401" lon="9.7836658"><ele>81.0</ele><time>2026-04-12T06:54:30.159Z</time></trkpt><trkpt lat="44.9530481" lon="9.7836475"><ele>81.0</ele><time>2026-04-12T06:54:32.167Z</time></trkpt><trkpt lat="44.9529653" lon="9.7836333"><ele>81.0</ele><time>2026-04-12T06:54:34.171Z</time></trkpt><trkpt lat="44.9528787" lon="9.7836184"><ele>81.0</ele><time>2026-04-12T06:54:36.162Z</time></trkpt><trkpt lat="44.9527904" lon="9.7836043"><ele>81.0</ele><time>2026-04-12T06:54:38.167Z</time></trkpt><trkpt lat="44.9526951" lon="9.7835816"><ele>81.0</ele><time>2026-04-12T06:54:40.164Z</time></trkpt><trkpt lat="44.9526083" lon="9.7835596"><ele>81.0</ele><time>2026-04-12T06:54:42.164Z</time></trkpt><trkpt lat="44.952515" lon="9.7835387"><ele>81.0</ele><time>2026-04-12T06:54:44.169Z</time></trkpt><trkpt lat="44.9524288" lon="9.78352"><ele>81.0</ele><time>2026-04-12T06:54:46.163Z</time></trkpt><trkpt lat="44.9523412" lon="9.7835025"><ele>81.0</ele><time>2026-04-12T06:54:48.166Z</time></trkpt><trkpt lat="44.952249" lon="9.7834764"><ele>81.0</ele><time>2026-04-12T06:54:50.163Z</time></trkpt><trkpt lat="44.9521528" lon="9.7834529"><ele>81.0</ele><time>2026-04-12T06:54:52.165Z</time></trkpt><trkpt lat="44.952064" lon="9.7834232"><ele>81.0</ele><time>2026-04-12T06:54:54.169Z</time></trkpt><trkpt lat="44.9519743" lon="9.7834016"><ele>81.0</ele><time>2026-04-12T06:54:56.176Z</time></trkpt><trkpt lat="44.9518792" lon="9.7833802"><ele>81.0</ele><time>2026-04-12T06:54:58.164Z</time></trkpt><trkpt lat="44.9517957" lon="9.783361"><ele>81.0</ele><time>2026-04-12T06:55:00.139Z</time></trkpt><trkpt lat="44.9517128" lon="9.7833573"><ele>81.0</ele><time>2026-04-12T06:55:02.172Z</time></trkpt><trkpt lat="44.9516196" lon="9.7833415"><ele>81.0</ele><time>2026-04-12T06:55:04.166Z</time></trkpt><trkpt lat="44.9515339" lon="9.7833239"><ele>81.0</ele><time>2026-04-12T06:55:06.164Z</time></trkpt><trkpt lat="44.9514375" lon="9.7833212"><ele>81.6</ele><time>2026-04-12T06:55:08.17Z</time></trkpt><trkpt lat="44.9513421" lon="9.7833182"><ele>82.19999999999999</ele><time>2026-04-12T06:55:10.161Z</time></trkpt><trkpt lat="44.9512475" lon="9.783307"><ele>82.80000000000001</ele><time>2026-04-12T06:55:12.162Z</time></trkpt><trkpt lat="44.9511524" lon="9.7833"><ele>83.4</ele><time>2026-04-12T06:55:14.155Z</time></trkpt><trkpt lat="44.9510598" lon="9.7832963"><ele>84.0</ele><time>2026-04-12T06:55:16.161Z</time></trkpt><trkpt lat="44.9509686" lon="9.7832853"><ele>84.0</ele><time>2026-04-12T06:55:18.165Z</time></trkpt><trkpt lat="44.9508809" lon="9.7832698"><ele>84.0</ele><time>2026-04-12T06:55:20.173Z</time></trkpt><trkpt lat="44.950784" lon="9.7832629"><ele>84.0</ele><time>2026-04-12T06:55:22.161Z</time></trkpt><trkpt lat="44.9506947" lon="9.7832539"><ele>84.0</ele><time>2026-04-12T06:55:24.158Z</time></trkpt><trkpt lat="44.9506035" lon="9.7832402"><ele>84.0</ele><time>2026-04-12T06:55:26.17Z</time></trkpt><trkpt lat="44.9505065" lon="9.7832203"><ele>83.80000000000001</ele><time>2026-04-12T06:55:28.165Z</time></trkpt><trkpt lat="44.9504088" lon="9.7831907"><ele>83.60000000000001</ele><time>2026-04-12T06:55:30.161Z</time></trkpt><trkpt lat="44.9503216" lon="9.783155"><ele>83.4</ele><time>2026-04-12T06:55:32.161Z</time></trkpt><trkpt lat="44.9502336" lon="9.7831247"><ele>83.2</ele><time>2026-04-12T06:55:34.165Z</time></trkpt><trkpt lat="44.9501445" lon="9.7830852"><ele>83.0</ele><time>2026-04-12T06:55:36.168Z</time></trkpt><trkpt lat="44.9500566" lon="9.7830524"><ele>83.0</ele><time>2026-04-12T06:55:38.173Z</time></trkpt><trkpt lat="44.9499643" lon="9.7830178"><ele>83.0</ele><time>2026-04-12T06:55:40.167Z</time></trkpt><trkpt lat="44.949873" lon="9.7829887"><ele>83.0</ele><time>2026-04-12T06:55:42.164Z</time></trkpt><trkpt lat="44.94978" lon="9.7829535"><ele>83.0</ele><time>2026-04-12T06:55:44.172Z</time></trkpt><trkpt lat="44.9496921" lon="9.7829183"><ele>83.0</ele><time>2026-04-12T06:55:46.166Z</time></trkpt><trkpt lat="44.9496017" lon="9.7828834"><ele>83.0</ele><time>2026-04-12T06:55:48.161Z</time></trkpt><trkpt lat="44.9495107" lon="9.7828518"><ele>83.0</ele><time>2026-04-12T06:55:50.169Z</time></trkpt><trkpt lat="44.9494204" lon="9.7828138"><ele>83.0</ele><time>2026-04-12T06:55:52.167Z</time></trkpt><trkpt lat="44.9493283" lon="9.7827763"><ele>83.0</ele><time>2026-04-12T06:55:54.172Z</time></trkpt><trkpt lat="44.9492358" lon="9.7827442"><ele>83.0</ele><time>2026-04-12T06:55:56.18Z</time></trkpt><trkpt lat="44.9491443" lon="9.7827117"><ele>83.0</ele><time>2026-04-12T06:55:58.175Z</time></trkpt><trkpt lat="44.9490548" lon="9.7826755"><ele>83.0</ele><time>2026-04-12T06:56:00.175Z</time></trkpt><trkpt lat="44.9489631" lon="9.7826385"><ele>83.0</ele><time>2026-04-12T06:56:02.168Z</time></trkpt><trkpt lat="44.9488716" lon="9.7826009"><ele>83.0</ele><time>2026-04-12T06:56:04.173Z</time></trkpt><trkpt lat="44.9487789" lon="9.782577"><ele>83.0</ele><time>2026-04-12T06:56:06.166Z</time></trkpt><trkpt lat="44.9486882" lon="9.7825386"><ele>83.0</ele><time>2026-04-12T06:56:08.167Z</time></trkpt><trkpt lat="44.9486004" lon="9.7825054"><ele>83.0</ele><time>2026-04-12T06:56:10.164Z</time></trkpt><trkpt lat="44.9485073" lon="9.7824776"><ele>83.0</ele><time>2026-04-12T06:56:12.171Z</time></trkpt><trkpt lat="44.948415" lon="9.7824424"><ele>83.0</ele><time>2026-04-12T06:56:14.166Z</time></trkpt><trkpt lat="44.9483222" lon="9.7824067"><ele>83.0</ele><time>2026-04-12T06:56:16.168Z</time></trkpt><trkpt lat="44.9482319" lon="9.782357"><ele>83.16666666666667</ele><time>2026-04-12T06:56:18.161Z</time></trkpt><trkpt lat="44.9481437" lon="9.7823224"><ele>83.33333333333334</ele><time>2026-04-12T06:56:20.158Z</time></trkpt><trkpt lat="44.9480546" lon="9.7822865"><ele>83.5</ele><time>2026-04-12T06:56:22.166Z</time></trkpt><trkpt lat="44.9479706" lon="9.7822582"><ele>83.66666666666667</ele><time>2026-04-12T06:56:24.163Z</time></trkpt><trkpt lat="44.9478863" lon="9.7822185"><ele>83.83333333333333</ele><time>2026-04-12T06:56:26.171Z</time></trkpt><trkpt lat="44.9478001" lon="9.7821859"><ele>84.0</ele><time>2026-04-12T06:56:28.162Z</time></trkpt><trkpt lat="44.9477388" lon="9.7821081"><ele>84.0</ele><time>2026-04-12T06:56:30.174Z</time></trkpt><trkpt lat="44.947751" lon="9.7820012"><ele>84.0</ele><time>2026-04-12T06:56:32.158Z</time></trkpt><trkpt lat="44.9477769" lon="9.7818789"><ele>84.0</ele><time>2026-04-12T06:56:34.177Z</time></trkpt><trkpt lat="44.9477934" lon="9.781751"><ele>84.0</ele><time>2026-04-12T06:56:36.169Z</time></trkpt><trkpt lat="44.9478102" lon="9.7816131"><ele>84.0</ele><time>2026-04-12T06:56:38.162Z</time></trkpt><trkpt lat="44.9478218" lon="9.7814849"><ele>84.0</ele><time>2026-04-12T06:56:40.173Z</time></trkpt><trkpt lat="44.9478358" lon="9.7813508"><ele>83.80000000000001</ele><time>2026-04-12T06:56:42.168Z</time></trkpt><trkpt lat="44.9478513" lon="9.7812199"><ele>83.60000000000001</ele><time>2026-04-12T06:56:44.159Z</time></trkpt><trkpt lat="44.9478685" lon="9.7810855"><ele>83.4</ele><time>2026-04-12T06:56:46.166Z</time></trkpt><trkpt lat="44.9478793" lon="9.7809478"><ele>83.2</ele><time>2026-04-12T06:56:48.162Z</time></trkpt><trkpt lat="44.9478948" lon="9.7808053"><ele>83.0</ele><time>2026-04-12T06:56:50.158Z</time></trkpt><trkpt lat="44.9479105" lon="9.780671"><ele>83.0</ele><time>2026-04-12T06:56:52.157Z</time></trkpt><trkpt lat="44.9479292" lon="9.7805391"><ele>83.0</ele><time>2026-04-12T06:56:54.167Z</time></trkpt><trkpt lat="44.9479457" lon="9.7804008"><ele>83.0</ele><time>2026-04-12T06:56:56.168Z</time></trkpt><trkpt lat="44.9479591" lon="9.7802743"><ele>83.0</ele><time>2026-04-12T06:56:58.171Z</time></trkpt><trkpt lat="44.947976" lon="9.780127"><ele>83.0</ele><time>2026-04-12T06:57:00.157Z</time></trkpt><trkpt lat="44.9479959" lon="9.7799957"><ele>83.4</ele><time>2026-04-12T06:57:02.163Z</time></trkpt><trkpt lat="44.9480054" lon="9.7798603"><ele>83.80000000000001</ele><time>2026-04-12T06:57:04.163Z</time></trkpt><trkpt lat="44.9480208" lon="9.7797217"><ele>84.2</ele><time>2026-04-12T06:57:06.159Z</time></trkpt><trkpt lat="44.9480356" lon="9.7795893"><ele>84.6</ele><time>2026-04-12T06:57:08.165Z</time></trkpt><trkpt lat="44.9480529" lon="9.7794485"><ele>85.0</ele><time>2026-04-12T06:57:10.173Z</time></trkpt><trkpt lat="44.9480694" lon="9.779322"><ele>85.0</ele><time>2026-04-12T06:57:12.165Z</time></trkpt><trkpt lat="44.9480847" lon="9.7791878"><ele>85.0</ele><time>2026-04-12T06:57:14.164Z</time></trkpt><trkpt lat="44.9481029" lon="9.7790452"><ele>85.0</ele><time>2026-04-12T06:57:16.17Z</time></trkpt><trkpt lat="44.9481218" lon="9.7789126"><ele>85.0</ele><time>2026-04-12T06:57:18.176Z</time></trkpt><trkpt lat="44.948139" lon="9.7787773"><ele>85.0</ele><time>2026-04-12T06:57:20.155Z</time></trkpt><trkpt lat="44.948151" lon="9.7786457"><ele>84.8</ele><time>2026-04-12T06:57:22.163Z</time></trkpt><trkpt lat="44.9481639" lon="9.7785138"><ele>84.6</ele><time>2026-04-12T06:57:24.163Z</time></trkpt><trkpt lat="44.9481591" lon="9.7783828"><ele>84.4</ele><time>2026-04-12T06:57:26.173Z</time></trkpt><trkpt lat="44.9480812" lon="9.778285"><ele>84.2</ele><time>2026-04-12T06:57:28.16Z</time></trkpt><trkpt lat="44.9479942" lon="9.7782469"><ele>84.0</ele><time>2026-04-12T06:57:30.169Z</time></trkpt><trkpt lat="44.9479022" lon="9.7781847"><ele>84.0</ele><time>2026-04-12T06:57:32.167Z</time></trkpt><trkpt lat="44.9478114" lon="9.7781394"><ele>84.0</ele><time>2026-04-12T06:57:34.165Z</time></trkpt><trkpt lat="44.9477189" lon="9.7780966"><ele>84.0</ele><time>2026-04-12T06:57:36.16Z</time></trkpt><trkpt lat="44.9476262" lon="9.7780472"><ele>84.0</ele><time>2026-04-12T06:57:38.168Z</time></trkpt><trkpt lat="44.9475409" lon="9.7779979"><ele>84.0</ele><time>2026-04-12T06:57:40.162Z</time></trkpt><trkpt lat="44.9474491" lon="9.7779475"><ele>84.4</ele><time>2026-04-12T06:57:42.164Z</time></trkpt><trkpt lat="44.9473656" lon="9.7779059"><ele>84.80000000000001</ele><time>2026-04-12T06:57:44.173Z</time></trkpt><trkpt lat="44.9472729" lon="9.7778611"><ele>85.19999999999999</ele><time>2026-04-12T06:57:46.15Z</time></trkpt><trkpt lat="44.9471805" lon="9.7778109"><ele>85.6</ele><time>2026-04-12T06:57:48.17Z</time></trkpt><trkpt lat="44.9470937" lon="9.7777683"><ele>86.0</ele><time>2026-04-12T06:57:50.163Z</time></trkpt><trkpt lat="44.9470046" lon="9.7777283"><ele>86.19999999999999</ele><time>2026-04-12T06:57:52.165Z</time></trkpt><trkpt lat="44.9469136" lon="9.777677"><ele>86.39999999999999</ele><time>2026-04-12T06:57:54.16Z</time></trkpt><trkpt lat="44.94682" lon="9.7776305"><ele>86.6</ele><time>2026-04-12T06:57:56.154Z</time></trkpt><trkpt lat="44.9467297" lon="9.77759"><ele>86.8</ele><time>2026-04-12T06:57:58.175Z</time></trkpt><trkpt lat="44.9466378" lon="9.777535"><ele>87.0</ele><time>2026-04-12T06:58:00.173Z</time></trkpt><trkpt lat="44.9465449" lon="9.7774911"><ele>87.19999999999999</ele><time>2026-04-12T06:58:02.166Z</time></trkpt><trkpt lat="44.9464559" lon="9.7774455"><ele>87.4</ele><time>2026-04-12T06:58:04.163Z</time></trkpt><trkpt lat="44.946359" lon="9.7773978"><ele>87.6</ele><time>2026-04-12T06:58:06.167Z</time></trkpt><trkpt lat="44.9462675" lon="9.7773471"><ele>87.80000000000001</ele><time>2026-04-12T06:58:08.173Z</time></trkpt><trkpt lat="44.9461698" lon="9.7772891"><ele>88.0</ele><time>2026-04-12T06:58:10.169Z</time></trkpt><trkpt lat="44.9460785" lon="9.777236"><ele>88.0</ele><time>2026-04-12T06:58:12.166Z</time></trkpt><trkpt lat="44.9459838" lon="9.777181"><ele>88.0</ele><time>2026-04-12T06:58:14.158Z</time></trkpt><trkpt lat="44.9458973" lon="9.7771207"><ele>88.0</ele><time>2026-04-12T06:58:16.175Z</time></trkpt><trkpt lat="44.9458135" lon="9.7770589"><ele>88.0</ele><time>2026-04-12T06:58:18.167Z</time></trkpt><trkpt lat="44.9457229" lon="9.7770001"><ele>88.0</ele><time>2026-04-12T06:58:20.168Z</time></trkpt><trkpt lat="44.9456336" lon="9.776956"><ele>88.0</ele><time>2026-04-12T06:58:22.163Z</time></trkpt><trkpt lat="44.9455403" lon="9.7769096"><ele>88.0</ele><time>2026-04-12T06:58:24.166Z</time></trkpt><trkpt lat="44.9454417" lon="9.7768779"><ele>88.0</ele><time>2026-04-12T06:58:26.169Z</time></trkpt><trkpt lat="44.9453455" lon="9.7768664"><ele>88.0</ele><time>2026-04-12T06:58:28.165Z</time></trkpt><trkpt lat="44.9452469" lon="9.7768576"><ele>88.0</ele><time>2026-04-12T06:58:30.162Z</time></trkpt><trkpt lat="44.9451463" lon="9.7768658"><ele>88.0</ele><time>2026-04-12T06:58:32.167Z</time></trkpt><trkpt lat="44.9450447" lon="9.77688"><ele>88.0</ele><time>2026-04-12T06:58:34.166Z</time></trkpt><trkpt lat="44.9449453" lon="9.7769099"><ele>88.0</ele><time>2026-04-12T06:58:36.172Z</time></trkpt><trkpt lat="44.9448407" lon="9.7769463"><ele>88.0</ele><time>2026-04-12T06:58:38.159Z</time></trkpt><trkpt lat="44.9447519" lon="9.7769927"><ele>88.0</ele><time>2026-04-12T06:58:40.158Z</time></trkpt><trkpt lat="44.9446574" lon="9.7770308"><ele>88.0</ele><time>2026-04-12T06:58:42.172Z</time></trkpt><trkpt lat="44.9445619" lon="9.7770632"><ele>88.0</ele><time>2026-04-12T06:58:44.168Z</time></trkpt><trkpt lat="44.9444673" lon="9.7770819"><ele>88.0</ele><time>2026-04-12T06:58:46.17Z</time></trkpt><trkpt lat="44.9443663" lon="9.7770788"><ele>88.0</ele><time>2026-04-12T06:58:48.17Z</time></trkpt><trkpt lat="44.944273" lon="9.7770572"><ele>88.0</ele><time>2026-04-12T06:58:50.171Z</time></trkpt><trkpt lat="44.9441802" lon="9.7770099"><ele>88.0</ele><time>2026-04-12T06:58:52.16Z</time></trkpt><trkpt lat="44.9440842" lon="9.7769599"><ele>88.0</ele><time>2026-04-12T06:58:54.167Z</time></trkpt><trkpt lat="44.9439925" lon="9.7769128"><ele>88.0</ele><time>2026-04-12T06:58:56.176Z</time></trkpt><trkpt lat="44.9439025" lon="9.7768718"><ele>88.0</ele><time>2026-04-12T06:58:58.169Z</time></trkpt><trkpt lat="44.9438117" lon="9.7768304"><ele>88.0</ele><time>2026-04-12T06:59:00.163Z</time></trkpt><trkpt lat="44.943718" lon="9.7768011"><ele>88.2</ele><time>2026-04-12T06:59:02.178Z</time></trkpt><trkpt lat="44.943624" lon="9.7767804"><ele>88.4</ele><time>2026-04-12T06:59:04.172Z</time></trkpt><trkpt lat="44.9435306" lon="9.7767765"><ele>88.60000000000001</ele><time>2026-04-12T06:59:06.17Z</time></trkpt><trkpt lat="44.9434302" lon="9.77678"><ele>88.80000000000001</ele><time>2026-04-12T06:59:08.16Z</time></trkpt><trkpt lat="44.9433286" lon="9.7767911"><ele>89.0</ele><time>2026-04-12T06:59:10.157Z</time></trkpt><trkpt lat="44.9432321" lon="9.7767903"><ele>89.0</ele><time>2026-04-12T06:59:12.171Z</time></trkpt><trkpt lat="44.9431299" lon="9.7767942"><ele>89.0</ele><time>2026-04-12T06:59:14.154Z</time></trkpt><trkpt lat="44.9430276" lon="9.7767875"><ele>89.0</ele><time>2026-04-12T06:59:16.166Z</time></trkpt><trkpt lat="44.9429385" lon="9.7767668"><ele>89.0</ele><time>2026-04-12T06:59:18.168Z</time></trkpt><trkpt lat="44.9428426" lon="9.7767352"><ele>89.0</ele><time>2026-04-12T06:59:20.163Z</time></trkpt><trkpt lat="44.9427525" lon="9.7766989"><ele>89.0</ele><time>2026-04-12T06:59:22.171Z</time></trkpt><trkpt lat="44.9426604" lon="9.7766662"><ele>89.0</ele><time>2026-04-12T06:59:24.168Z</time></trkpt><trkpt lat="44.942568" lon="9.776641"><ele>89.0</ele><time>2026-04-12T06:59:26.178Z</time></trkpt><trkpt lat="44.9424714" lon="9.7766188"><ele>89.0</ele><time>2026-04-12T06:59:28.161Z</time></trkpt><trkpt lat="44.9423784" lon="9.7766029"><ele>89.0</ele><time>2026-04-12T06:59:30.17Z</time></trkpt><trkpt lat="44.9422822" lon="9.7765955"><ele>88.80000000000001</ele><time>2026-04-12T06:59:32.172Z</time></trkpt><trkpt lat="44.9421893" lon="9.7765827"><ele>88.60000000000001</ele><time>2026-04-12T06:59:34.164Z</time></trkpt><trkpt lat="44.9420973" lon="9.7765649"><ele>88.4</ele><time>2026-04-12T06:59:36.169Z</time></trkpt><trkpt lat="44.9420055" lon="9.7765487"><ele>88.2</ele><time>2026-04-12T06:59:38.163Z</time></trkpt><trkpt lat="44.9419069" lon="9.7765342"><ele>88.0</ele><time>2026-04-12T06:59:40.158Z</time></trkpt><trkpt lat="44.9418099" lon="9.7765188"><ele>88.2</ele><time>2026-04-12T06:59:42.173Z</time></trkpt><trkpt lat="44.9417071" lon="9.7764992"><ele>88.4</ele><time>2026-04-12T06:59:44.164Z</time></trkpt><trkpt lat="44.9416148" lon="9.7764729"><ele>88.60000000000001</ele><time>2026-04-12T06:59:46.17Z</time></trkpt><trkpt lat="44.9415148" lon="9.7764461"><ele>88.80000000000001</ele><time>2026-04-12T06:59:48.166Z</time></trkpt><trkpt lat="44.9414205" lon="9.7764181"><ele>89.0</ele><time>2026-04-12T06:59:50.165Z</time></trkpt><trkpt lat="44.9413249" lon="9.7763862"><ele>89.0</ele><time>2026-04-12T06:59:52.168Z</time></trkpt><trkpt lat="44.941232" lon="9.7763504"><ele>89.0</ele><time>2026-04-12T06:59:54.172Z</time></trkpt><trkpt lat="44.9411413" lon="9.7763197"><ele>89.0</ele><time>2026-04-12T06:59:56.166Z</time></trkpt><trkpt lat="44.9410477" lon="9.7762845"><ele>89.0</ele><time>2026-04-12T06:59:58.167Z</time></trkpt><trkpt lat="44.9409551" lon="9.7762405"><ele>89.0</ele><time>2026-04-12T07:00:00.173Z</time></trkpt><trkpt lat="44.9408631" lon="9.7762082"><ele>89.2</ele><time>2026-04-12T07:00:02.181Z</time></trkpt><trkpt lat="44.9407696" lon="9.776167"><ele>89.4</ele><time>2026-04-12T07:00:04.174Z</time></trkpt><trkpt lat="44.9406672" lon="9.7761414"><ele>89.6</ele><time>2026-04-12T07:00:06.171Z</time></trkpt><trkpt lat="44.9405721" lon="9.7761139"><ele>89.8</ele><time>2026-04-12T07:00:08.158Z</time></trkpt><trkpt lat="44.9404762" lon="9.776095"><ele>90.0</ele><time>2026-04-12T07:00:10.175Z</time></trkpt><trkpt lat="44.9403728" lon="9.7760823"><ele>90.0</ele><time>2026-04-12T07:00:12.167Z</time></trkpt><trkpt lat="44.9402747" lon="9.7760684"><ele>90.0</ele><time>2026-04-12T07:00:14.165Z</time></trkpt><trkpt lat="44.9401738" lon="9.776061"><ele>90.0</ele><time>2026-04-12T07:00:16.165Z</time></trkpt><trkpt lat="44.9400767" lon="9.7760453"><ele>90.0</ele><time>2026-04-12T07:00:18.17Z</time></trkpt><trkpt lat="44.9399737" lon="9.7760453"><ele>90.0</ele><time>2026-04-12T07:00:20.16Z</time></trkpt><trkpt lat="44.9398807" lon="9.7760388"><ele>90.4</ele><time>2026-04-12T07:00:22.164Z</time></trkpt><trkpt lat="44.9397764" lon="9.7760175"><ele>90.8</ele><time>2026-04-12T07:00:24.179Z</time></trkpt><trkpt lat="44.9396822" lon="9.7759911"><ele>91.19999999999999</ele><time>2026-04-12T07:00:26.167Z</time></trkpt><trkpt lat="44.9395863" lon="9.7759718"><ele>91.6</ele><time>2026-04-12T07:00:28.165Z</time></trkpt><trkpt lat="44.9394938" lon="9.7759618"><ele>92.0</ele><time>2026-04-12T07:00:30.165Z</time></trkpt><trkpt lat="44.9394002" lon="9.775936"><ele>92.0</ele><time>2026-04-12T07:00:32.162Z</time></trkpt><trkpt lat="44.9393074" lon="9.775899"><ele>92.0</ele><time>2026-04-12T07:00:34.177Z</time></trkpt><trkpt lat="44.9392109" lon="9.7758776"><ele>92.0</ele><time>2026-04-12T07:00:36.164Z</time></trkpt><trkpt lat="44.9391159" lon="9.7758449"><ele>92.0</ele><time>2026-04-12T07:00:38.175Z</time></trkpt><trkpt lat="44.9390225" lon="9.7758143"><ele>92.0</ele><time>2026-04-12T07:00:40.156Z</time></trkpt><trkpt lat="44.9389218" lon="9.775792"><ele>92.19999999999999</ele><time>2026-04-12T07:00:42.167Z</time></trkpt><trkpt lat="44.9388249" lon="9.7757571"><ele>92.4</ele><time>2026-04-12T07:00:44.163Z</time></trkpt><trkpt lat="44.9387308" lon="9.7757345"><ele>92.6</ele><time>2026-04-12T07:00:46.174Z</time></trkpt><trkpt lat="44.9386326" lon="9.7757067"><ele>92.80000000000001</ele><time>2026-04-12T07:00:48.176Z</time></trkpt><trkpt lat="44.9385373" lon="9.7756805"><ele>93.0</ele><time>2026-04-12T07:00:50.166Z</time></trkpt><trkpt lat="44.9384341" lon="9.7756587"><ele>93.2</ele><time>2026-04-12T07:00:52.168Z</time></trkpt><trkpt lat="44.9383337" lon="9.7756333"><ele>93.4</ele><time>2026-04-12T07:00:54.165Z</time></trkpt><trkpt lat="44.9382315" lon="9.7756113"><ele>93.60000000000001</ele><time>2026-04-12T07:00:56.179Z</time></trkpt><trkpt lat="44.9381341" lon="9.7755904"><ele>93.80000000000001</ele><time>2026-04-12T07:00:58.167Z</time></trkpt><trkpt lat="44.9380368" lon="9.7755621"><ele>94.0</ele><time>2026-04-12T07:01:00.167Z</time></trkpt><trkpt lat="44.9379391" lon="9.775522"><ele>94.0</ele><time>2026-04-12T07:01:02.175Z</time></trkpt><trkpt lat="44.9378437" lon="9.775489"><ele>94.0</ele><time>2026-04-12T07:01:04.171Z</time></trkpt><trkpt lat="44.9377449" lon="9.775446"><ele>94.0</ele><time>2026-04-12T07:01:06.173Z</time></trkpt><trkpt lat="44.9376508" lon="9.775412"><ele>94.0</ele><time>2026-04-12T07:01:08.172Z</time></trkpt><trkpt lat="44.9375576" lon="9.7753781"><ele>94.0</ele><time>2026-04-12T07:01:10.173Z</time></trkpt><trkpt lat="44.9374637" lon="9.775338"><ele>94.0</ele><time>2026-04-12T07:01:12.166Z</time></trkpt><trkpt lat="44.93737" lon="9.7753035"><ele>94.0</ele><time>2026-04-12T07:01:14.176Z</time></trkpt><trkpt lat="44.9372677" lon="9.7752731"><ele>94.0</ele><time>2026-04-12T07:01:16.174Z</time></trkpt><trkpt lat="44.9371703" lon="9.7752355"><ele>94.0</ele><time>2026-04-12T07:01:18.168Z</time></trkpt><trkpt lat="44.9370732" lon="9.7752042"><ele>94.0</ele><time>2026-04-12T07:01:20.164Z</time></trkpt><trkpt lat="44.9369734" lon="9.7751664"><ele>94.0</ele><time>2026-04-12T07:01:22.173Z</time></trkpt><trkpt lat="44.9368768" lon="9.775134"><ele>94.0</ele><time>2026-04-12T07:01:24.168Z</time></trkpt><trkpt lat="44.9367718" lon="9.775103"><ele>94.0</ele><time>2026-04-12T07:01:26.167Z</time></trkpt><trkpt lat="44.9366718" lon="9.7750788"><ele>94.0</ele><time>2026-04-12T07:01:28.168Z</time></trkpt><trkpt lat="44.9365728" lon="9.7750479"><ele>94.0</ele><time>2026-04-12T07:01:30.178Z</time></trkpt><trkpt lat="44.9364732" lon="9.7750263"><ele>93.6</ele><time>2026-04-12T07:01:32.172Z</time></trkpt><trkpt lat="44.9363769" lon="9.7750019"><ele>93.2</ele><time>2026-04-12T07:01:34.174Z</time></trkpt><trkpt lat="44.9362793" lon="9.7749717"><ele>92.8</ele><time>2026-04-12T07:01:36.163Z</time></trkpt><trkpt lat="44.9361829" lon="9.7749512"><ele>92.39999999999999</ele><time>2026-04-12T07:01:38.134Z</time></trkpt><trkpt lat="44.9360857" lon="9.7749394"><ele>92.0</ele><time>2026-04-12T07:01:40.169Z</time></trkpt><trkpt lat="44.9359893" lon="9.7749146"><ele>92.0</ele><time>2026-04-12T07:01:42.177Z</time></trkpt><trkpt lat="44.9358934" lon="9.7749"><ele>92.0</ele><time>2026-04-12T07:01:44.171Z</time></trkpt><trkpt lat="44.9357953" lon="9.7748802"><ele>92.0</ele><time>2026-04-12T07:01:46.17Z</time></trkpt><trkpt lat="44.9356906" lon="9.7748689"><ele>92.0</ele><time>2026-04-12T07:01:48.177Z</time></trkpt><trkpt lat="44.9355864" lon="9.7748627"><ele>92.0</ele><time>2026-04-12T07:01:50.169Z</time></trkpt><trkpt lat="44.9354902" lon="9.7748494"><ele>92.0</ele><time>2026-04-12T07:01:52.164Z</time></trkpt><trkpt lat="44.9353922" lon="9.7748363"><ele>92.0</ele><time>2026-04-12T07:01:54.158Z</time></trkpt><trkpt lat="44.9352944" lon="9.7748258"><ele>92.0</ele><time>2026-04-12T07:01:56.162Z</time></trkpt><trkpt lat="44.9351925" lon="9.7748143"><ele>92.0</ele><time>2026-04-12T07:01:58.138Z</time></trkpt><trkpt lat="44.935093" lon="9.7748099"><ele>92.0</ele><time>2026-04-12T07:02:00.151Z</time></trkpt><trkpt lat="44.9349899" lon="9.7748"><ele>92.39999999999999</ele><time>2026-04-12T07:02:02.136Z</time></trkpt><trkpt lat="44.93489" lon="9.7747886"><ele>92.8</ele><time>2026-04-12T07:02:04.133Z</time></trkpt><trkpt lat="44.9347895" lon="9.7747679"><ele>93.2</ele><time>2026-04-12T07:02:06.135Z</time></trkpt><trkpt lat="44.9346877" lon="9.7747497"><ele>93.6</ele><time>2026-04-12T07:02:08.146Z</time></trkpt><trkpt lat="44.9345895" lon="9.7747343"><ele>94.0</ele><time>2026-04-12T07:02:10.147Z</time></trkpt><trkpt lat="44.9344893" lon="9.774719"><ele>94.0</ele><time>2026-04-12T07:02:12.152Z</time></trkpt><trkpt lat="44.934392" lon="9.7747056"><ele>94.0</ele><time>2026-04-12T07:02:14.141Z</time></trkpt><trkpt lat="44.9342912" lon="9.7746919"><ele>94.0</ele><time>2026-04-12T07:02:16.148Z</time></trkpt><trkpt lat="44.9341977" lon="9.7746789"><ele>94.0</ele><time>2026-04-12T07:02:18.146Z</time></trkpt><trkpt lat="44.9340994" lon="9.7746664"><ele>94.0</ele><time>2026-04-12T07:02:20.17Z</time></trkpt><trkpt lat="44.9339971" lon="9.77465"><ele>94.6</ele><time>2026-04-12T07:02:22.151Z</time></trkpt><trkpt lat="44.9339089" lon="9.7746249"><ele>95.2</ele><time>2026-04-12T07:02:24.157Z</time></trkpt><trkpt lat="44.9338089" lon="9.7746292"><ele>95.8</ele><time>2026-04-12T07:02:26.163Z</time></trkpt><trkpt lat="44.9337135" lon="9.7746172"><ele>96.39999999999999</ele><time>2026-04-12T07:02:28.165Z</time></trkpt><trkpt lat="44.9336115" lon="9.7746012"><ele>97.0</ele><time>2026-04-12T07:02:30.166Z</time></trkpt><trkpt lat="44.933509" lon="9.7745924"><ele>97.0</ele><time>2026-04-12T07:02:32.169Z</time></trkpt><trkpt lat="44.9334059" lon="9.7745801"><ele>97.0</ele><time>2026-04-12T07:02:34.173Z</time></trkpt><trkpt lat="44.9333048" lon="9.7745725"><ele>97.0</ele><time>2026-04-12T07:02:36.178Z</time></trkpt><trkpt lat="44.9332029" lon="9.7745633"><ele>97.0</ele><time>2026-04-12T07:02:38.158Z</time></trkpt><trkpt lat="44.9331045" lon="9.7745623"><ele>97.0</ele><time>2026-04-12T07:02:40.155Z</time></trkpt><trkpt lat="44.9330087" lon="9.7745592"><ele>96.8</ele><time>2026-04-12T07:02:42.169Z</time></trkpt><trkpt lat="44.9329027" lon="9.7745562"><ele>96.6</ele><time>2026-04-12T07:02:44.181Z</time></trkpt><trkpt lat="44.9328085" lon="9.7745364"><ele>96.39999999999999</ele><time>2026-04-12T07:02:46.164Z</time></trkpt><trkpt lat="44.9327059" lon="9.7745315"><ele>96.19999999999999</ele><time>2026-04-12T07:02:48.169Z</time></trkpt><trkpt lat="44.9326044" lon="9.7745262"><ele>96.0</ele><time>2026-04-12T07:02:50.173Z</time></trkpt><trkpt lat="44.9325032" lon="9.7745119"><ele>96.0</ele><time>2026-04-12T07:02:52.174Z</time></trkpt><trkpt lat="44.9324041" lon="9.774491"><ele>96.0</ele><time>2026-04-12T07:02:54.179Z</time></trkpt><trkpt lat="44.9322984" lon="9.7744684"><ele>96.0</ele><time>2026-04-12T07:02:56.174Z</time></trkpt><trkpt lat="44.9322026" lon="9.7744413"><ele>96.0</ele><time>2026-04-12T07:02:58.165Z</time></trkpt><trkpt lat="44.9321048" lon="9.7744141"><ele>96.0</ele><time>2026-04-12T07:03:00.164Z</time></trkpt><trkpt lat="44.9320125" lon="9.7743753"><ele>96.0</ele><time>2026-04-12T07:03:02.173Z</time></trkpt><trkpt lat="44.931921" lon="9.7743395"><ele>96.0</ele><time>2026-04-12T07:03:04.159Z</time></trkpt><trkpt lat="44.9318192" lon="9.7743124"><ele>96.0</ele><time>2026-04-12T07:03:06.177Z</time></trkpt><trkpt lat="44.9317279" lon="9.7742808"><ele>96.0</ele><time>2026-04-12T07:03:08.164Z</time></trkpt><trkpt lat="44.9316291" lon="9.7742447"><ele>96.0</ele><time>2026-04-12T07:03:10.179Z</time></trkpt><trkpt lat="44.9315284" lon="9.7742103"><ele>96.0</ele><time>2026-04-12T07:03:12.2Z</time></trkpt><trkpt lat="44.9314332" lon="9.7741789"><ele>96.0</ele><time>2026-04-12T07:03:14.179Z</time></trkpt><trkpt lat="44.9313392" lon="9.7741487"><ele>96.0</ele><time>2026-04-12T07:03:16.161Z</time></trkpt><trkpt lat="44.931245" lon="9.7741219"><ele>96.0</ele><time>2026-04-12T07:03:18.174Z</time></trkpt><trkpt lat="44.9311473" lon="9.7740999"><ele>96.0</ele><time>2026-04-12T07:03:20.164Z</time></trkpt><trkpt lat="44.9310514" lon="9.7740789"><ele>96.0</ele><time>2026-04-12T07:03:22.171Z</time></trkpt><trkpt lat="44.9309561" lon="9.774053"><ele>96.0</ele><time>2026-04-12T07:03:24.167Z</time></trkpt><trkpt lat="44.9308589" lon="9.7740221"><ele>96.0</ele><time>2026-04-12T07:03:26.17Z</time></trkpt><trkpt lat="44.9307565" lon="9.7739985"><ele>96.0</ele><time>2026-04-12T07:03:28.174Z</time></trkpt><trkpt lat="44.9306581" lon="9.7739779"><ele>96.0</ele><time>2026-04-12T07:03:30.158Z</time></trkpt><trkpt lat="44.9305627" lon="9.7739519"><ele>96.19999999999999</ele><time>2026-04-12T07:03:32.147Z</time></trkpt><trkpt lat="44.9304623" lon="9.7739267"><ele>96.39999999999999</ele><time>2026-04-12T07:03:34.177Z</time></trkpt><trkpt lat="44.9303651" lon="9.7739044"><ele>96.6</ele><time>2026-04-12T07:03:36.17Z</time></trkpt><trkpt lat="44.9302622" lon="9.7738762"><ele>96.8</ele><time>2026-04-12T07:03:38.155Z</time></trkpt><trkpt lat="44.9301675" lon="9.7738474"><ele>97.0</ele><time>2026-04-12T07:03:40.163Z</time></trkpt><trkpt lat="44.9300663" lon="9.7738239"><ele>97.19999999999999</ele><time>2026-04-12T07:03:42.175Z</time></trkpt><trkpt lat="44.9299679" lon="9.7737918"><ele>97.4</ele><time>2026-04-12T07:03:44.177Z</time></trkpt><trkpt lat="44.9298666" lon="9.7737621"><ele>97.6</ele><time>2026-04-12T07:03:46.155Z</time></trkpt><trkpt lat="44.9297672" lon="9.7737305"><ele>97.80000000000001</ele><time>2026-04-12T07:03:48.174Z</time></trkpt><trkpt lat="44.9296708" lon="9.773691"><ele>98.0</ele><time>2026-04-12T07:03:50.166Z</time></trkpt><trkpt lat="44.9295734" lon="9.7736381"><ele>98.0</ele><time>2026-04-12T07:03:52.171Z</time></trkpt><trkpt lat="44.9294812" lon="9.7735813"><ele>98.0</ele><time>2026-04-12T07:03:54.171Z</time></trkpt><trkpt lat="44.929401" lon="9.7735224"><ele>98.0</ele><time>2026-04-12T07:03:56.178Z</time></trkpt><trkpt lat="44.9293079" lon="9.77345"><ele>98.0</ele><time>2026-04-12T07:03:58.173Z</time></trkpt><trkpt lat="44.9292119" lon="9.7733548"><ele>98.0</ele><time>2026-04-12T07:04:00.171Z</time></trkpt><trkpt lat="44.9291315" lon="9.7732853"><ele>98.80000000000001</ele><time>2026-04-12T07:04:02.175Z</time></trkpt><trkpt lat="44.9290455" lon="9.7732221"><ele>99.6</ele><time>2026-04-12T07:04:04.182Z</time></trkpt><trkpt lat="44.9289615" lon="9.773179"><ele>100.4</ele><time>2026-04-12T07:04:06.167Z</time></trkpt><trkpt lat="44.9288684" lon="9.7731549"><ele>101.19999999999999</ele><time>2026-04-12T07:04:08.169Z</time></trkpt><trkpt lat="44.9287718" lon="9.7731273"><ele>102.0</ele><time>2026-04-12T07:04:10.159Z</time></trkpt><trkpt lat="44.9286742" lon="9.7731165"><ele>102.0</ele><time>2026-04-12T07:04:12.151Z</time></trkpt><trkpt lat="44.9285637" lon="9.7731098"><ele>102.0</ele><time>2026-04-12T07:04:14.178Z</time></trkpt><trkpt lat="44.9284531" lon="9.7731024"><ele>102.0</ele><time>2026-04-12T07:04:16.151Z</time></trkpt><trkpt lat="44.928339" lon="9.7730941"><ele>102.0</ele><time>2026-04-12T07:04:18.174Z</time></trkpt><trkpt lat="44.9282305" lon="9.773086"><ele>102.0</ele><time>2026-04-12T07:04:20.175Z</time></trkpt><trkpt lat="44.9281359" lon="9.7730664"><ele>101.39999999999999</ele><time>2026-04-12T07:04:22.172Z</time></trkpt><trkpt lat="44.9280368" lon="9.7730445"><ele>100.8</ele><time>2026-04-12T07:04:24.155Z</time></trkpt><trkpt lat="44.9279434" lon="9.7730129"><ele>100.2</ele><time>2026-04-12T07:04:26.175Z</time></trkpt><trkpt lat="44.9278525" lon="9.7729915"><ele>99.6</ele><time>2026-04-12T07:04:28.174Z</time></trkpt><trkpt lat="44.9277626" lon="9.7729608"><ele>99.0</ele><time>2026-04-12T07:04:30.174Z</time></trkpt><trkpt lat="44.9276613" lon="9.77294"><ele>99.0</ele><time>2026-04-12T07:04:32.163Z</time></trkpt><trkpt lat="44.9275616" lon="9.7729264"><ele>99.0</ele><time>2026-04-12T07:04:34.166Z</time></trkpt><trkpt lat="44.9274705" lon="9.7729008"><ele>99.0</ele><time>2026-04-12T07:04:36.173Z</time></trkpt><trkpt lat="44.9273718" lon="9.7728814"><ele>99.0</ele><time>2026-04-12T07:04:38.17Z</time></trkpt><trkpt lat="44.9272702" lon="9.7728611"><ele>99.0</ele><time>2026-04-12T07:04:40.156Z</time></trkpt><trkpt lat="44.9271755" lon="9.7728363"><ele>99.2</ele><time>2026-04-12T07:04:42.176Z</time></trkpt><trkpt lat="44.9270791" lon="9.7728155"><ele>99.4</ele><time>2026-04-12T07:04:44.172Z</time></trkpt><trkpt lat="44.9269822" lon="9.7728014"><ele>99.6</ele><time>2026-04-12T07:04:46.167Z</time></trkpt><trkpt lat="44.9268837" lon="9.7727768"><ele>99.8</ele><time>2026-04-12T07:04:48.17Z</time></trkpt><trkpt lat="44.926791" lon="9.7727561"><ele>100.0</ele><time>2026-04-12T07:04:50.163Z</time></trkpt><trkpt lat="44.9266951" lon="9.7727321"><ele>100.0</ele><time>2026-04-12T07:04:52.172Z</time></trkpt><trkpt lat="44.9265992" lon="9.7727093"><ele>100.0</ele><time>2026-04-12T07:04:54.169Z</time></trkpt><trkpt lat="44.9265" lon="9.7726918"><ele>100.0</ele><time>2026-04-12T07:04:56.17Z</time></trkpt><trkpt lat="44.9263985" lon="9.7726714"><ele>100.0</ele><time>2026-04-12T07:04:58.162Z</time></trkpt><trkpt lat="44.9262989" lon="9.7726491"><ele>100.0</ele><time>2026-04-12T07:05:00.167Z</time></trkpt><trkpt lat="44.9261991" lon="9.7726373"><ele>100.4</ele><time>2026-04-12T07:05:02.168Z</time></trkpt><trkpt lat="44.9261017" lon="9.7726205"><ele>100.8</ele><time>2026-04-12T07:05:04.173Z</time></trkpt><trkpt lat="44.9260062" lon="9.7725931"><ele>101.19999999999999</ele><time>2026-04-12T07:05:06.17Z</time></trkpt><trkpt lat="44.92591" lon="9.7725674"><ele>101.6</ele><time>2026-04-12T07:05:08.167Z</time></trkpt><trkpt lat="44.9258117" lon="9.7725468"><ele>102.0</ele><time>2026-04-12T07:05:10.181Z</time></trkpt><trkpt lat="44.9257078" lon="9.7725241"><ele>102.19999999999999</ele><time>2026-04-12T07:05:12.171Z</time></trkpt><trkpt lat="44.9256093" lon="9.7725013"><ele>102.4</ele><time>2026-04-12T07:05:14.167Z</time></trkpt><trkpt lat="44.9255135" lon="9.7724667"><ele>102.6</ele><time>2026-04-12T07:05:16.178Z</time></trkpt><trkpt lat="44.9254152" lon="9.7724386"><ele>102.80000000000001</ele><time>2026-04-12T07:05:18.165Z</time></trkpt><trkpt lat="44.9253179" lon="9.7724183"><ele>103.0</ele><time>2026-04-12T07:05:20.175Z</time></trkpt><trkpt lat="44.9252219" lon="9.7723933"><ele>103.0</ele><time>2026-04-12T07:05:22.159Z</time></trkpt><trkpt lat="44.9251214" lon="9.7723726"><ele>103.0</ele><time>2026-04-12T07:05:24.169Z</time></trkpt><trkpt lat="44.9250244" lon="9.7723545"><ele>103.0</ele><time>2026-04-12T07:05:26.166Z</time></trkpt><trkpt lat="44.9249269" lon="9.7723338"><ele>103.0</ele><time>2026-04-12T07:05:28.175Z</time></trkpt><trkpt lat="44.9248266" lon="9.7723087"><ele>103.0</ele><time>2026-04-12T07:05:30.167Z</time></trkpt><trkpt lat="44.9247287" lon="9.7722853"><ele>102.80000000000001</ele><time>2026-04-12T07:05:32.178Z</time></trkpt><trkpt lat="44.9246265" lon="9.7722694"><ele>102.6</ele><time>2026-04-12T07:05:34.164Z</time></trkpt><trkpt lat="44.9245319" lon="9.7722424"><ele>102.4</ele><time>2026-04-12T07:05:36.179Z</time></trkpt><trkpt lat="44.9244325" lon="9.7722205"><ele>102.19999999999999</ele><time>2026-04-12T07:05:38.183Z</time></trkpt><trkpt lat="44.9243335" lon="9.7721991"><ele>102.0</ele><time>2026-04-12T07:05:40.177Z</time></trkpt><trkpt lat="44.9242344" lon="9.7721773"><ele>101.6</ele><time>2026-04-12T07:05:42.168Z</time></trkpt><trkpt lat="44.9241346" lon="9.772149"><ele>101.19999999999999</ele><time>2026-04-12T07:05:44.179Z</time></trkpt><trkpt lat="44.9240368" lon="9.7721249"><ele>100.8</ele><time>2026-04-12T07:05:46.152Z</time></trkpt><trkpt lat="44.923932" lon="9.7721021"><ele>100.4</ele><time>2026-04-12T07:05:48.165Z</time></trkpt><trkpt lat="44.9238344" lon="9.7720769"><ele>100.0</ele><time>2026-04-12T07:05:50.168Z</time></trkpt><trkpt lat="44.9237307" lon="9.7720574"><ele>100.0</ele><time>2026-04-12T07:05:52.163Z</time></trkpt><trkpt lat="44.9236355" lon="9.7720333"><ele>100.0</ele><time>2026-04-12T07:05:54.162Z</time></trkpt><trkpt lat="44.9235346" lon="9.77201"><ele>100.0</ele><time>2026-04-12T07:05:56.172Z</time></trkpt><trkpt lat="44.9234366" lon="9.7719836"><ele>100.0</ele><time>2026-04-12T07:05:58.171Z</time></trkpt><trkpt lat="44.9233368" lon="9.7719637"><ele>100.0</ele><time>2026-04-12T07:06:00.181Z</time></trkpt><trkpt lat="44.9232378" lon="9.7719345"><ele>100.6</ele><time>2026-04-12T07:06:02.173Z</time></trkpt><trkpt lat="44.9231395" lon="9.7719175"><ele>101.2</ele><time>2026-04-12T07:06:04.167Z</time></trkpt><trkpt lat="44.9230421" lon="9.7718911"><ele>101.80000000000001</ele><time>2026-04-12T07:06:06.166Z</time></trkpt><trkpt lat="44.9229433" lon="9.7718676"><ele>102.4</ele><time>2026-04-12T07:06:08.168Z</time></trkpt><trkpt lat="44.9228414" lon="9.771851"><ele>103.0</ele><time>2026-04-12T07:06:10.175Z</time></trkpt><trkpt lat="44.9227354" lon="9.7718263"><ele>103.2</ele><time>2026-04-12T07:06:12.169Z</time></trkpt><trkpt lat="44.9226371" lon="9.7717978"><ele>103.4</ele><time>2026-04-12T07:06:14.17Z</time></trkpt><trkpt lat="44.9225352" lon="9.7717878"><ele>103.60000000000001</ele><time>2026-04-12T07:06:16.174Z</time></trkpt><trkpt lat="44.9224385" lon="9.7717971"><ele>103.80000000000001</ele><time>2026-04-12T07:06:18.169Z</time></trkpt><trkpt lat="44.9223448" lon="9.7718043"><ele>104.0</ele><time>2026-04-12T07:06:20.167Z</time></trkpt><trkpt lat="44.9222441" lon="9.7717868"><ele>104.4</ele><time>2026-04-12T07:06:22.174Z</time></trkpt><trkpt lat="44.9221384" lon="9.7717691"><ele>104.80000000000001</ele><time>2026-04-12T07:06:24.17Z</time></trkpt><trkpt lat="44.9220449" lon="9.7717516"><ele>105.19999999999999</ele><time>2026-04-12T07:06:26.173Z</time></trkpt><trkpt lat="44.9219491" lon="9.771728"><ele>105.6</ele><time>2026-04-12T07:06:28.167Z</time></trkpt><trkpt lat="44.9218532" lon="9.7716922"><ele>106.0</ele><time>2026-04-12T07:06:30.17Z</time></trkpt><trkpt lat="44.9217578" lon="9.7716539"><ele>106.0</ele><time>2026-04-12T07:06:32.166Z</time></trkpt><trkpt lat="44.9216583" lon="9.7716279"><ele>106.0</ele><time>2026-04-12T07:06:34.176Z</time></trkpt><trkpt lat="44.9215589" lon="9.7715954"><ele>106.0</ele><time>2026-04-12T07:06:36.175Z</time></trkpt><trkpt lat="44.9214578" lon="9.7715687"><ele>106.0</ele><time>2026-04-12T07:06:38.174Z</time></trkpt><trkpt lat="44.9213617" lon="9.7715434"><ele>106.0</ele><time>2026-04-12T07:06:40.171Z</time></trkpt><trkpt lat="44.9212605" lon="9.7715136"><ele>106.0</ele><time>2026-04-12T07:06:42.167Z</time></trkpt><trkpt lat="44.921162" lon="9.7714809"><ele>106.0</ele><time>2026-04-12T07:06:44.178Z</time></trkpt><trkpt lat="44.921061" lon="9.7714614"><ele>106.0</ele><time>2026-04-12T07:06:46.167Z</time></trkpt><trkpt lat="44.9209537" lon="9.7714284"><ele>106.0</ele><time>2026-04-12T07:06:48.16Z</time></trkpt><trkpt lat="44.9208536" lon="9.7714096"><ele>106.0</ele><time>2026-04-12T07:06:50.17Z</time></trkpt><trkpt lat="44.9207562" lon="9.7713796"><ele>106.6</ele><time>2026-04-12T07:06:52.159Z</time></trkpt><trkpt lat="44.9206561" lon="9.7713612"><ele>107.19999999999999</ele><time>2026-04-12T07:06:54.174Z</time></trkpt><trkpt lat="44.9205638" lon="9.7713299"><ele>107.80000000000001</ele><time>2026-04-12T07:06:56.172Z</time></trkpt><trkpt lat="44.920469" lon="9.7712961"><ele>108.4</ele><time>2026-04-12T07:06:58.165Z</time></trkpt><trkpt lat="44.9203676" lon="9.7712534"><ele>109.0</ele><time>2026-04-12T07:07:00.177Z</time></trkpt><trkpt lat="44.9202638" lon="9.7712228"><ele>109.0</ele><time>2026-04-12T07:07:02.164Z</time></trkpt><trkpt lat="44.9201568" lon="9.7712001"><ele>109.0</ele><time>2026-04-12T07:07:04.168Z</time></trkpt><trkpt lat="44.9200614" lon="9.7711673"><ele>109.0</ele><time>2026-04-12T07:07:06.14Z</time></trkpt><trkpt lat="44.9199661" lon="9.7711339"><ele>109.0</ele><time>2026-04-12T07:07:08.165Z</time></trkpt><trkpt lat="44.9198748" lon="9.7711138"><ele>109.0</ele><time>2026-04-12T07:07:10.172Z</time></trkpt><trkpt lat="44.9197793" lon="9.771089"><ele>109.2</ele><time>2026-04-12T07:07:12.168Z</time></trkpt><trkpt lat="44.9196818" lon="9.771055"><ele>109.4</ele><time>2026-04-12T07:07:14.169Z</time></trkpt><trkpt lat="44.9195872" lon="9.7710146"><ele>109.6</ele><time>2026-04-12T07:07:16.175Z</time></trkpt><trkpt lat="44.9194949" lon="9.770974"><ele>109.8</ele><time>2026-04-12T07:07:18.188Z</time></trkpt><trkpt lat="44.9194024" lon="9.77095"><ele>110.0</ele><time>2026-04-12T07:07:20.174Z</time></trkpt><trkpt lat="44.9193183" lon="9.7709434"><ele>109.99999999999999</ele><time>2026-04-12T07:07:22.162Z</time></trkpt><trkpt lat="44.9192407" lon="9.7709429"><ele>110.0</ele><time>2026-04-12T07:07:24.169Z</time></trkpt><trkpt lat="44.9191574" lon="9.7709193"><ele>110.0</ele><time>2026-04-12T07:07:27.167Z</time></trkpt><trkpt lat="44.9190956" lon="9.7708811"><ele>110.0</ele><time>2026-04-12T07:07:30.164Z</time></trkpt><trkpt lat="44.9190248" lon="9.7708887"><ele>109.99999999999999</ele><time>2026-04-12T07:07:36.173Z</time></trkpt><trkpt lat="44.9189805" lon="9.7709857"><ele>110.0</ele><time>2026-04-12T07:07:40.163Z</time></trkpt><trkpt lat="44.9189354" lon="9.7710887"><ele>109.2</ele><time>2026-04-12T07:07:42.165Z</time></trkpt><trkpt lat="44.9189082" lon="9.7712113"><ele>108.4</ele><time>2026-04-12T07:07:44.168Z</time></trkpt><trkpt lat="44.9188806" lon="9.7713418"><ele>107.6</ele><time>2026-04-12T07:07:46.16Z</time></trkpt><trkpt lat="44.9188626" lon="9.7714593"><ele>106.8</ele><time>2026-04-12T07:07:48.166Z</time></trkpt><trkpt lat="44.9188341" lon="9.7715744"><ele>106.0</ele><time>2026-04-12T07:07:50.161Z</time></trkpt><trkpt lat="44.9188093" lon="9.7717006"><ele>106.0</ele><time>2026-04-12T07:07:52.166Z</time></trkpt><trkpt lat="44.9187898" lon="9.7718184"><ele>106.0</ele><time>2026-04-12T07:07:54.161Z</time></trkpt><trkpt lat="44.9187687" lon="9.7719368"><ele>106.0</ele><time>2026-04-12T07:07:56.165Z</time></trkpt><trkpt lat="44.9187447" lon="9.7720711"><ele>106.0</ele><time>2026-04-12T07:07:58.168Z</time></trkpt><trkpt lat="44.9187177" lon="9.7722019"><ele>106.0</ele><time>2026-04-12T07:08:00.164Z</time></trkpt><trkpt lat="44.9186952" lon="9.7723214"><ele>105.8</ele><time>2026-04-12T07:08:02.164Z</time></trkpt><trkpt lat="44.9186722" lon="9.7724461"><ele>105.6</ele><time>2026-04-12T07:08:04.173Z</time></trkpt><trkpt lat="44.9186576" lon="9.7725778"><ele>105.4</ele><time>2026-04-12T07:08:06.167Z</time></trkpt><trkpt lat="44.9186368" lon="9.7726991"><ele>105.2</ele><time>2026-04-12T07:08:08.176Z</time></trkpt><trkpt lat="44.9186095" lon="9.7728301"><ele>105.0</ele><time>2026-04-12T07:08:10.161Z</time></trkpt><trkpt lat="44.9185563" lon="9.772943"><ele>104.8</ele><time>2026-04-12T07:08:12.167Z</time></trkpt><trkpt lat="44.9184776" lon="9.7730333"><ele>104.6</ele><time>2026-04-12T07:08:14.176Z</time></trkpt><trkpt lat="44.9183775" lon="9.7730623"><ele>104.4</ele><time>2026-04-12T07:08:16.175Z</time></trkpt><trkpt lat="44.9182715" lon="9.7730597"><ele>104.2</ele><time>2026-04-12T07:08:18.17Z</time></trkpt><trkpt lat="44.9181767" lon="9.7730467"><ele>104.0</ele><time>2026-04-12T07:08:20.168Z</time></trkpt><trkpt lat="44.9180846" lon="9.7730222"><ele>104.80000000000001</ele><time>2026-04-12T07:08:22.142Z</time></trkpt><trkpt lat="44.9179905" lon="9.7730017"><ele>105.60000000000001</ele><time>2026-04-12T07:08:24.175Z</time></trkpt><trkpt lat="44.9178936" lon="9.7729719"><ele>106.4</ele><time>2026-04-12T07:08:26.178Z</time></trkpt><trkpt lat="44.9177976" lon="9.7729468"><ele>107.2</ele><time>2026-04-12T07:08:28.171Z</time></trkpt><trkpt lat="44.9176981" lon="9.7729254"><ele>108.0</ele><time>2026-04-12T07:08:30.172Z</time></trkpt><trkpt lat="44.9175996" lon="9.7729041"><ele>108.0</ele><time>2026-04-12T07:08:32.174Z</time></trkpt><trkpt lat="44.917498" lon="9.7728668"><ele>108.00000000000001</ele><time>2026-04-12T07:08:34.17Z</time></trkpt><trkpt lat="44.9173979" lon="9.7728574"><ele>108.00000000000001</ele><time>2026-04-12T07:08:36.167Z</time></trkpt><trkpt lat="44.9172993" lon="9.7728329"><ele>108.0</ele><time>2026-04-12T07:08:38.169Z</time></trkpt><trkpt lat="44.9172031" lon="9.7728052"><ele>108.0</ele><time>2026-04-12T07:08:40.167Z</time></trkpt><trkpt lat="44.9171073" lon="9.7727812"><ele>108.0</ele><time>2026-04-12T07:08:42.168Z</time></trkpt><trkpt lat="44.9170152" lon="9.7727601"><ele>108.00000000000001</ele><time>2026-04-12T07:08:44.172Z</time></trkpt><trkpt lat="44.9169226" lon="9.7727405"><ele>108.00000000000001</ele><time>2026-04-12T07:08:46.159Z</time></trkpt><trkpt lat="44.9168262" lon="9.7727194"><ele>108.0</ele><time>2026-04-12T07:08:48.172Z</time></trkpt><trkpt lat="44.9167348" lon="9.7726971"><ele>108.0</ele><time>2026-04-12T07:08:50.171Z</time></trkpt><trkpt lat="44.91664" lon="9.7726748"><ele>108.0</ele><time>2026-04-12T07:08:52.18Z</time></trkpt><trkpt lat="44.9165496" lon="9.7726512"><ele>108.00000000000001</ele><time>2026-04-12T07:08:54.173Z</time></trkpt><trkpt lat="44.9164564" lon="9.7726236"><ele>108.00000000000001</ele><time>2026-04-12T07:08:56.178Z</time></trkpt><trkpt lat="44.9163573" lon="9.7725914"><ele>108.0</ele><time>2026-04-12T07:08:58.172Z</time></trkpt><trkpt lat="44.9162561" lon="9.7725625"><ele>108.0</ele><time>2026-04-12T07:09:00.176Z</time></trkpt><trkpt lat="44.9161604" lon="9.7725436"><ele>108.0</ele><time>2026-04-12T07:09:02.174Z</time></trkpt><trkpt lat="44.916063" lon="9.7725205"><ele>108.00000000000001</ele><time>2026-04-12T07:09:04.174Z</time></trkpt><trkpt lat="44.9159606" lon="9.7724956"><ele>108.00000000000001</ele><time>2026-04-12T07:09:06.17Z</time></trkpt><trkpt lat="44.9158688" lon="9.7724709"><ele>108.0</ele><time>2026-04-12T07:09:08.174Z</time></trkpt><trkpt lat="44.9157674" lon="9.7724493"><ele>108.0</ele><time>2026-04-12T07:09:10.166Z</time></trkpt><trkpt lat="44.91567" lon="9.7724292"><ele>108.60000000000001</ele><time>2026-04-12T07:09:12.174Z</time></trkpt><trkpt lat="44.915575" lon="9.7723937"><ele>109.20000000000002</ele><time>2026-04-12T07:09:14.167Z</time></trkpt><trkpt lat="44.9154823" lon="9.7723704"><ele>109.8</ele><time>2026-04-12T07:09:16.168Z</time></trkpt><trkpt lat="44.9153852" lon="9.7723421"><ele>110.4</ele><time>2026-04-12T07:09:18.174Z</time></trkpt><trkpt lat="44.9152828" lon="9.7723212"><ele>111.0</ele><time>2026-04-12T07:09:20.176Z</time></trkpt><trkpt lat="44.9151864" lon="9.7723023"><ele>111.0</ele><time>2026-04-12T07:09:22.174Z</time></trkpt><trkpt lat="44.9150876" lon="9.7722703"><ele>111.0</ele><time>2026-04-12T07:09:24.173Z</time></trkpt><trkpt lat="44.9149901" lon="9.7722425"><ele>111.0</ele><time>2026-04-12T07:09:26.174Z</time></trkpt><trkpt lat="44.9148986" lon="9.7722123"><ele>111.0</ele><time>2026-04-12T07:09:28.161Z</time></trkpt><trkpt lat="44.9148013" lon="9.7721903"><ele>111.0</ele><time>2026-04-12T07:09:30.173Z</time></trkpt><trkpt lat="44.9146992" lon="9.7721713"><ele>111.0</ele><time>2026-04-12T07:09:32.16Z</time></trkpt><trkpt lat="44.9146023" lon="9.7721524"><ele>111.0</ele><time>2026-04-12T07:09:34.166Z</time></trkpt><trkpt lat="44.9145027" lon="9.7721303"><ele>111.0</ele><time>2026-04-12T07:09:36.167Z</time></trkpt><trkpt lat="44.9144069" lon="9.7720993"><ele>111.0</ele><time>2026-04-12T07:09:38.174Z</time></trkpt><trkpt lat="44.9143045" lon="9.7720752"><ele>111.0</ele><time>2026-04-12T07:09:40.15Z</time></trkpt><trkpt lat="44.9142047" lon="9.7720529"><ele>110.8</ele><time>2026-04-12T07:09:42.176Z</time></trkpt><trkpt lat="44.9141099" lon="9.772025"><ele>110.6</ele><time>2026-04-12T07:09:44.175Z</time></trkpt><trkpt lat="44.9140147" lon="9.7720009"><ele>110.4</ele><time>2026-04-12T07:09:46.168Z</time></trkpt><trkpt lat="44.9139175" lon="9.7719773"><ele>110.2</ele><time>2026-04-12T07:09:48.162Z</time></trkpt><trkpt lat="44.9138175" lon="9.771948"><ele>110.0</ele><time>2026-04-12T07:09:50.167Z</time></trkpt><trkpt lat="44.9137184" lon="9.7719254"><ele>110.0</ele><time>2026-04-12T07:09:52.179Z</time></trkpt><trkpt lat="44.9136171" lon="9.7719018"><ele>110.0</ele><time>2026-04-12T07:09:54.172Z</time></trkpt><trkpt lat="44.9135175" lon="9.7718801"><ele>110.0</ele><time>2026-04-12T07:09:56.171Z</time></trkpt><trkpt lat="44.9134175" lon="9.7718468"><ele>110.0</ele><time>2026-04-12T07:09:58.169Z</time></trkpt><trkpt lat="44.9133221" lon="9.7718239"><ele>110.0</ele><time>2026-04-12T07:10:00.166Z</time></trkpt><trkpt lat="44.9132235" lon="9.7717956"><ele>110.2</ele><time>2026-04-12T07:10:02.167Z</time></trkpt><trkpt lat="44.9131235" lon="9.7717734"><ele>110.4</ele><time>2026-04-12T07:10:04.173Z</time></trkpt><trkpt lat="44.913024" lon="9.771756"><ele>110.6</ele><time>2026-04-12T07:10:06.158Z</time></trkpt><trkpt lat="44.9129261" lon="9.7717234"><ele>110.8</ele><time>2026-04-12T07:10:08.176Z</time></trkpt><trkpt lat="44.9128273" lon="9.7716999"><ele>111.0</ele><time>2026-04-12T07:10:10.172Z</time></trkpt><trkpt lat="44.9127267" lon="9.7716771"><ele>111.0</ele><time>2026-04-12T07:10:12.17Z</time></trkpt><trkpt lat="44.9126278" lon="9.7716592"><ele>111.0</ele><time>2026-04-12T07:10:14.167Z</time></trkpt><trkpt lat="44.9125332" lon="9.771629"><ele>111.0</ele><time>2026-04-12T07:10:16.167Z</time></trkpt><trkpt lat="44.9124386" lon="9.7716003"><ele>111.0</ele><time>2026-04-12T07:10:18.168Z</time></trkpt><trkpt lat="44.9123408" lon="9.7715755"><ele>111.0</ele><time>2026-04-12T07:10:20.167Z</time></trkpt><trkpt lat="44.912244" lon="9.7715606"><ele>110.8</ele><time>2026-04-12T07:10:22.172Z</time></trkpt><trkpt lat="44.9121493" lon="9.771538"><ele>110.6</ele><time>2026-04-12T07:10:24.173Z</time></trkpt><trkpt lat="44.9120559" lon="9.771505"><ele>110.4</ele><time>2026-04-12T07:10:26.184Z</time></trkpt><trkpt lat="44.9119547" lon="9.7714839"><ele>110.2</ele><time>2026-04-12T07:10:28.183Z</time></trkpt><trkpt lat="44.9118521" lon="9.7714656"><ele>110.0</ele><time>2026-04-12T07:10:30.171Z</time></trkpt><trkpt lat="44.9117497" lon="9.7714496"><ele>110.6</ele><time>2026-04-12T07:10:32.175Z</time></trkpt><trkpt lat="44.9116553" lon="9.7714206"><ele>111.2</ele><time>2026-04-12T07:10:34.184Z</time></trkpt><trkpt lat="44.9115547" lon="9.7713933"><ele>111.80000000000001</ele><time>2026-04-12T07:10:36.173Z</time></trkpt><trkpt lat="44.9114538" lon="9.7713653"><ele>112.4</ele><time>2026-04-12T07:10:38.165Z</time></trkpt><trkpt lat="44.9113564" lon="9.7713415"><ele>113.0</ele><time>2026-04-12T07:10:40.161Z</time></trkpt><trkpt lat="44.9112584" lon="9.7713089"><ele>113.0</ele><time>2026-04-12T07:10:42.171Z</time></trkpt><trkpt lat="44.9111615" lon="9.771283"><ele>113.00000000000001</ele><time>2026-04-12T07:10:44.168Z</time></trkpt><trkpt lat="44.911065" lon="9.7712572"><ele>113.00000000000001</ele><time>2026-04-12T07:10:46.179Z</time></trkpt><trkpt lat="44.9109716" lon="9.7712433"><ele>113.0</ele><time>2026-04-12T07:10:48.176Z</time></trkpt><trkpt lat="44.9108691" lon="9.7712165"><ele>113.0</ele><time>2026-04-12T07:10:50.178Z</time></trkpt><trkpt lat="44.9107704" lon="9.7711903"><ele>113.60000000000001</ele><time>2026-04-12T07:10:52.169Z</time></trkpt><trkpt lat="44.9106698" lon="9.7711659"><ele>114.20000000000002</ele><time>2026-04-12T07:10:54.174Z</time></trkpt><trkpt lat="44.9105737" lon="9.7711355"><ele>114.8</ele><time>2026-04-12T07:10:56.171Z</time></trkpt><trkpt lat="44.910484" lon="9.7711039"><ele>115.4</ele><time>2026-04-12T07:10:58.162Z</time></trkpt><trkpt lat="44.9103878" lon="9.771077"><ele>116.0</ele><time>2026-04-12T07:11:00.174Z</time></trkpt><trkpt lat="44.9102893" lon="9.7710522"><ele>116.0</ele><time>2026-04-12T07:11:02.175Z</time></trkpt><trkpt lat="44.9101897" lon="9.7710254"><ele>116.0</ele><time>2026-04-12T07:11:04.17Z</time></trkpt><trkpt lat="44.9100934" lon="9.7710065"><ele>116.0</ele><time>2026-04-12T07:11:06.175Z</time></trkpt><trkpt lat="44.909994" lon="9.7709854"><ele>116.0</ele><time>2026-04-12T07:11:08.165Z</time></trkpt><trkpt lat="44.9098927" lon="9.7709665"><ele>116.0</ele><time>2026-04-12T07:11:10.167Z</time></trkpt><trkpt lat="44.9097921" lon="9.7709381"><ele>117.0</ele><time>2026-04-12T07:11:12.169Z</time></trkpt><trkpt lat="44.9096916" lon="9.7709134"><ele>118.0</ele><time>2026-04-12T07:11:14.181Z</time></trkpt><trkpt lat="44.9095948" lon="9.7708789"><ele>119.0</ele><time>2026-04-12T07:11:16.168Z</time></trkpt><trkpt lat="44.9095005" lon="9.7708619"><ele>120.0</ele><time>2026-04-12T07:11:18.175Z</time></trkpt><trkpt lat="44.9094039" lon="9.7708367"><ele>121.0</ele><time>2026-04-12T07:11:20.167Z</time></trkpt><trkpt lat="44.9093005" lon="9.7708151"><ele>121.4</ele><time>2026-04-12T07:11:22.166Z</time></trkpt><trkpt lat="44.9092068" lon="9.7707901"><ele>121.8</ele><time>2026-04-12T07:11:24.169Z</time></trkpt><trkpt lat="44.9091102" lon="9.7707535"><ele>122.20000000000002</ele><time>2026-04-12T07:11:26.162Z</time></trkpt><trkpt lat="44.9090166" lon="9.7707248"><ele>122.60000000000001</ele><time>2026-04-12T07:11:28.17Z</time></trkpt><trkpt lat="44.9089254" lon="9.7706911"><ele>123.0</ele><time>2026-04-12T07:11:30.166Z</time></trkpt><trkpt lat="44.9088253" lon="9.7706653"><ele>123.0</ele><time>2026-04-12T07:11:32.168Z</time></trkpt><trkpt lat="44.908723" lon="9.7706394"><ele>123.00000000000001</ele><time>2026-04-12T07:11:34.173Z</time></trkpt><trkpt lat="44.9086253" lon="9.7706161"><ele>123.00000000000001</ele><time>2026-04-12T07:11:36.163Z</time></trkpt><trkpt lat="44.9085285" lon="9.770597"><ele>123.0</ele><time>2026-04-12T07:11:38.171Z</time></trkpt><trkpt lat="44.9084298" lon="9.7705846"><ele>123.0</ele><time>2026-04-12T07:11:40.177Z</time></trkpt><trkpt lat="44.908333" lon="9.7705586"><ele>122.80000000000001</ele><time>2026-04-12T07:11:42.148Z</time></trkpt><trkpt lat="44.9082322" lon="9.7705311"><ele>122.60000000000001</ele><time>2026-04-12T07:11:44.162Z</time></trkpt><trkpt lat="44.9081382" lon="9.7705025"><ele>122.39999999999999</ele><time>2026-04-12T07:11:46.17Z</time></trkpt><trkpt lat="44.9080412" lon="9.770483"><ele>122.19999999999999</ele><time>2026-04-12T07:11:48.159Z</time></trkpt><trkpt lat="44.907948" lon="9.7704527"><ele>122.0</ele><time>2026-04-12T07:11:50.158Z</time></trkpt><trkpt lat="44.9078504" lon="9.77043"><ele>122.0</ele><time>2026-04-12T07:11:52.163Z</time></trkpt><trkpt lat="44.9077548" lon="9.7704025"><ele>121.99999999999999</ele><time>2026-04-12T07:11:54.181Z</time></trkpt><trkpt lat="44.9076616" lon="9.770383"><ele>121.99999999999999</ele><time>2026-04-12T07:11:56.167Z</time></trkpt><trkpt lat="44.9075698" lon="9.7703635"><ele>122.0</ele><time>2026-04-12T07:11:58.132Z</time></trkpt><trkpt lat="44.9074788" lon="9.7703296"><ele>122.0</ele><time>2026-04-12T07:12:00.173Z</time></trkpt><trkpt lat="44.9073808" lon="9.7703044"><ele>121.83333333333333</ele><time>2026-04-12T07:12:02.165Z</time></trkpt><trkpt lat="44.9072911" lon="9.7702803"><ele>121.66666666666666</ele><time>2026-04-12T07:12:04.163Z</time></trkpt><trkpt lat="44.9071969" lon="9.770252"><ele>121.5</ele><time>2026-04-12T07:12:06.175Z</time></trkpt><trkpt lat="44.9071137" lon="9.7702298"><ele>121.33333333333334</ele><time>2026-04-12T07:12:08.149Z</time></trkpt><trkpt lat="44.907034" lon="9.7702162"><ele>121.16666666666667</ele><time>2026-04-12T07:12:10.176Z</time></trkpt><trkpt lat="44.9069464" lon="9.7702311"><ele>121.0</ele><time>2026-04-12T07:12:12.173Z</time></trkpt><trkpt lat="44.9068653" lon="9.7702491"><ele>121.0</ele><time>2026-04-12T07:12:14.171Z</time></trkpt><trkpt lat="44.9067836" lon="9.7703061"><ele>121.0</ele><time>2026-04-12T07:12:16.171Z</time></trkpt><trkpt lat="44.9067276" lon="9.7704197"><ele>121.0</ele><time>2026-04-12T07:12:18.169Z</time></trkpt><trkpt lat="44.9067056" lon="9.770548"><ele>121.0</ele><time>2026-04-12T07:12:20.164Z</time></trkpt><trkpt lat="44.9066888" lon="9.7706846"><ele>121.0</ele><time>2026-04-12T07:12:22.148Z</time></trkpt><trkpt lat="44.9066747" lon="9.7708185"><ele>121.19999999999999</ele><time>2026-04-12T07:12:24.167Z</time></trkpt><trkpt lat="44.9066575" lon="9.7709517"><ele>121.39999999999999</ele><time>2026-04-12T07:12:26.184Z</time></trkpt><trkpt lat="44.906637" lon="9.7710883"><ele>121.6</ele><time>2026-04-12T07:12:28.167Z</time></trkpt><trkpt lat="44.9066101" lon="9.7712175"><ele>121.8</ele><time>2026-04-12T07:12:30.17Z</time></trkpt><trkpt lat="44.9065884" lon="9.7713533"><ele>122.0</ele><time>2026-04-12T07:12:32.166Z</time></trkpt><trkpt lat="44.9065603" lon="9.7714909"><ele>122.0</ele><time>2026-04-12T07:12:34.171Z</time></trkpt><trkpt lat="44.9065401" lon="9.7716402"><ele>121.99999999999999</ele><time>2026-04-12T07:12:36.182Z</time></trkpt><trkpt lat="44.9065244" lon="9.7717955"><ele>121.99999999999999</ele><time>2026-04-12T07:12:38.175Z</time></trkpt><trkpt lat="44.9065207" lon="9.7719463"><ele>122.0</ele><time>2026-04-12T07:12:40.168Z</time></trkpt><trkpt lat="44.9065376" lon="9.7720928"><ele>122.0</ele><time>2026-04-12T07:12:42.165Z</time></trkpt><trkpt lat="44.9065523" lon="9.7722431"><ele>122.0</ele><time>2026-04-12T07:12:44.152Z</time></trkpt><trkpt lat="44.9065766" lon="9.772383"><ele>121.99999999999999</ele><time>2026-04-12T07:12:46.148Z</time></trkpt><trkpt lat="44.9066153" lon="9.7725223"><ele>121.99999999999999</ele><time>2026-04-12T07:12:48.168Z</time></trkpt><trkpt lat="44.9066552" lon="9.7726559"><ele>122.0</ele><time>2026-04-12T07:12:50.144Z</time></trkpt><trkpt lat="44.9066881" lon="9.7727783"><ele>122.0</ele><time>2026-04-12T07:12:52.169Z</time></trkpt><trkpt lat="44.9067175" lon="9.7728939"><ele>121.66666666666666</ele><time>2026-04-12T07:12:54.156Z</time></trkpt><trkpt lat="44.9067403" lon="9.773026"><ele>121.33333333333333</ele><time>2026-04-12T07:12:56.165Z</time></trkpt><trkpt lat="44.9067607" lon="9.7731414"><ele>121.0</ele><time>2026-04-12T07:12:58.16Z</time></trkpt><trkpt lat="44.9067788" lon="9.7732431"><ele>120.66666666666666</ele><time>2026-04-12T07:13:00.161Z</time></trkpt><trkpt lat="44.9068033" lon="9.7733465"><ele>120.33333333333333</ele><time>2026-04-12T07:13:02.175Z</time></trkpt><trkpt lat="44.9068209" lon="9.7734377"><ele>120.0</ele><time>2026-04-12T07:13:05.162Z</time></trkpt><trkpt lat="44.9068509" lon="9.7735216"><ele>120.0</ele><time>2026-04-12T07:14:36.168Z</time></trkpt><trkpt lat="44.9068987" lon="9.7736268"><ele>120.0</ele><time>2026-04-12T07:14:39.168Z</time></trkpt><trkpt lat="44.9069346" lon="9.7737219"><ele>120.0</ele><time>2026-04-12T07:14:41.178Z</time></trkpt><trkpt lat="44.906961" lon="9.7738036"><ele>120.0</ele><time>2026-04-12T07:14:43.166Z</time></trkpt><trkpt lat="44.906875" lon="9.7738531"><ele>120.0</ele><time>2026-04-12T07:14:46.171Z</time></trkpt><trkpt lat="44.9067932" lon="9.7738181"><ele>120.0</ele><time>2026-04-12T07:14:48.169Z</time></trkpt><trkpt lat="44.906718" lon="9.7737954"><ele>119.5</ele><time>2026-04-12T07:14:50.182Z</time></trkpt><trkpt lat="44.9066257" lon="9.7737601"><ele>119.0</ele><time>2026-04-12T07:14:52.175Z</time></trkpt><trkpt lat="44.9065312" lon="9.7737341"><ele>118.5</ele><time>2026-04-12T07:14:54.169Z</time></trkpt><trkpt lat="44.9064431" lon="9.7737174"><ele>118.0</ele><time>2026-04-12T07:14:56.165Z</time></trkpt><trkpt lat="44.906374" lon="9.7736879"><ele>117.5</ele><time>2026-04-12T07:14:58.16Z</time></trkpt><trkpt lat="44.9062999" lon="9.7736545"><ele>117.0</ele><time>2026-04-12T07:15:00.17Z</time></trkpt><trkpt lat="44.906221" lon="9.7736342"><ele>117.0</ele><time>2026-04-12T07:15:02.166Z</time></trkpt><trkpt lat="44.9061464" lon="9.7736156"><ele>117.0</ele><time>2026-04-12T07:15:04.181Z</time></trkpt><trkpt lat="44.9060736" lon="9.7736108"><ele>117.0</ele><time>2026-04-12T07:15:06.166Z</time></trkpt><trkpt lat="44.9059939" lon="9.7736143"><ele>117.0</ele><time>2026-04-12T07:15:08.172Z</time></trkpt><trkpt lat="44.9058931" lon="9.7735802"><ele>117.0</ele><time>2026-04-12T07:15:10.164Z</time></trkpt><trkpt lat="44.9057973" lon="9.7735641"><ele>117.0</ele><time>2026-04-12T07:15:12.175Z</time></trkpt><trkpt lat="44.9056999" lon="9.7735475"><ele>117.33333333333333</ele><time>2026-04-12T07:15:14.168Z</time></trkpt><trkpt lat="44.9056111" lon="9.7735247"><ele>117.66666666666666</ele><time>2026-04-12T07:15:16.17Z</time></trkpt><trkpt lat="44.9055236" lon="9.7734992"><ele>118.0</ele><time>2026-04-12T07:15:18.177Z</time></trkpt><trkpt lat="44.9054404" lon="9.7734781"><ele>118.33333333333333</ele><time>2026-04-12T07:15:20.184Z</time></trkpt><trkpt lat="44.9053618" lon="9.7734449"><ele>118.66666666666666</ele><time>2026-04-12T07:15:22.169Z</time></trkpt><trkpt lat="44.9052836" lon="9.7734311"><ele>119.0</ele><time>2026-04-12T07:15:24.168Z</time></trkpt><trkpt lat="44.9052137" lon="9.7734226"><ele>119.49999999999999</ele><time>2026-04-12T07:15:26.161Z</time></trkpt><trkpt lat="44.9051345" lon="9.7733964"><ele>120.0</ele><time>2026-04-12T07:15:28.173Z</time></trkpt><trkpt lat="44.9050539" lon="9.7733715"><ele>120.5</ele><time>2026-04-12T07:15:30.179Z</time></trkpt><trkpt lat="44.9049675" lon="9.7733527"><ele>121.0</ele><time>2026-04-12T07:15:32.167Z</time></trkpt><trkpt lat="44.9048947" lon="9.7733273"><ele>121.49999999999999</ele><time>2026-04-12T07:15:34.176Z</time></trkpt><trkpt lat="44.9048074" lon="9.7733095"><ele>122.0</ele><time>2026-04-12T07:15:36.174Z</time></trkpt><trkpt lat="44.9047266" lon="9.7732787"><ele>122.33333333333333</ele><time>2026-04-12T07:15:38.188Z</time></trkpt><trkpt lat="44.9046473" lon="9.7732531"><ele>122.66666666666666</ele><time>2026-04-12T07:15:40.176Z</time></trkpt><trkpt lat="44.9045677" lon="9.7732257"><ele>123.0</ele><time>2026-04-12T07:15:42.169Z</time></trkpt><trkpt lat="44.9044921" lon="9.7732037"><ele>123.33333333333334</ele><time>2026-04-12T07:15:44.168Z</time></trkpt><trkpt lat="44.9044137" lon="9.7731776"><ele>123.66666666666667</ele><time>2026-04-12T07:15:46.176Z</time></trkpt><trkpt lat="44.9043376" lon="9.7731402"><ele>124.0</ele><time>2026-04-12T07:15:48.168Z</time></trkpt><trkpt lat="44.9042847" lon="9.7730805"><ele>124.16666666666667</ele><time>2026-04-12T07:15:50.163Z</time></trkpt><trkpt lat="44.90422" lon="9.7730278"><ele>124.33333333333334</ele><time>2026-04-12T07:15:52.168Z</time></trkpt><trkpt lat="44.9041602" lon="9.7729824"><ele>124.5</ele><time>2026-04-12T07:15:54.168Z</time></trkpt><trkpt lat="44.9040981" lon="9.7729676"><ele>124.66666666666666</ele><time>2026-04-12T07:15:56.168Z</time></trkpt><trkpt lat="44.9040024" lon="9.7729892"><ele>124.83333333333333</ele><time>2026-04-12T07:15:59.164Z</time></trkpt><trkpt lat="44.903926" lon="9.7729542"><ele>125.0</ele><time>2026-04-12T07:16:01.17Z</time></trkpt><trkpt lat="44.9038367" lon="9.7729501"><ele>124.99999999999999</ele><time>2026-04-12T07:16:03.161Z</time></trkpt><trkpt lat="44.9037644" lon="9.7729691"><ele>125.0</ele><time>2026-04-12T07:16:05.165Z</time></trkpt><trkpt lat="44.9036866" lon="9.7729566"><ele>125.0</ele><time>2026-04-12T07:16:08.168Z</time></trkpt><trkpt lat="44.903618" lon="9.7729691"><ele>125.0</ele><time>2026-04-12T07:16:10.176Z</time></trkpt><trkpt lat="44.9035416" lon="9.7728917"><ele>124.99999999999999</ele><time>2026-04-12T07:16:13.172Z</time></trkpt><trkpt lat="44.9034702" lon="9.772816"><ele>125.0</ele><time>2026-04-12T07:16:15.175Z</time></trkpt><trkpt lat="44.9034317" lon="9.7727314"><ele>124.99999999999999</ele><time>2026-04-12T07:16:17.171Z</time></trkpt><trkpt lat="44.9033704" lon="9.7726777"><ele>125.0</ele><time>2026-04-12T07:16:19.172Z</time></trkpt><trkpt lat="44.9032876" lon="9.7726259"><ele>125.0</ele><time>2026-04-12T07:16:21.171Z</time></trkpt><trkpt lat="44.9032048" lon="9.7726065"><ele>125.0</ele><time>2026-04-12T07:16:23.169Z</time></trkpt><trkpt lat="44.9031136" lon="9.7726069"><ele>124.99999999999999</ele><time>2026-04-12T07:16:25.174Z</time></trkpt><trkpt lat="44.903036" lon="9.7726077"><ele>125.0</ele><time>2026-04-12T07:16:27.178Z</time></trkpt><trkpt lat="44.9029548" lon="9.7726114"><ele>124.99999999999999</ele><time>2026-04-12T07:16:29.168Z</time></trkpt><trkpt lat="44.9028734" lon="9.7726384"><ele>125.0</ele><time>2026-04-12T07:16:31.161Z</time></trkpt><trkpt lat="44.902807" lon="9.7726722"><ele>125.0</ele><time>2026-04-12T07:16:33.173Z</time></trkpt><trkpt lat="44.9027378" lon="9.7727181"><ele>125.0</ele><time>2026-04-12T07:16:35.178Z</time></trkpt><trkpt lat="44.9026727" lon="9.7727124"><ele>124.99999999999999</ele><time>2026-04-12T07:16:37.173Z</time></trkpt><trkpt lat="44.9026066" lon="9.7727026"><ele>125.0</ele><time>2026-04-12T07:16:39.164Z</time></trkpt><trkpt lat="44.902516" lon="9.7727449"><ele>125.14285714285714</ele><time>2026-04-12T07:16:42.171Z</time></trkpt><trkpt lat="44.9024556" lon="9.772822"><ele>125.28571428571429</ele><time>2026-04-12T07:16:44.14Z</time></trkpt><trkpt lat="44.9023841" lon="9.7728486"><ele>125.42857142857143</ele><time>2026-04-12T07:16:46.169Z</time></trkpt><trkpt lat="44.902299" lon="9.7728214"><ele>125.57142857142857</ele><time>2026-04-12T07:16:48.137Z</time></trkpt><trkpt lat="44.9022316" lon="9.7728368"><ele>125.71428571428572</ele><time>2026-04-12T07:16:50.139Z</time></trkpt><trkpt lat="44.9021742" lon="9.7728817"><ele>125.85714285714286</ele><time>2026-04-12T07:16:52.168Z</time></trkpt><trkpt lat="44.9021073" lon="9.7729093"><ele>126.0</ele><time>2026-04-12T07:16:54.162Z</time></trkpt><trkpt lat="44.9020459" lon="9.772975"><ele>126.0</ele><time>2026-04-12T07:16:56.165Z</time></trkpt><trkpt lat="44.9019921" lon="9.7730548"><ele>126.0</ele><time>2026-04-12T07:16:58.155Z</time></trkpt><trkpt lat="44.901933" lon="9.773134"><ele>126.0</ele><time>2026-04-12T07:17:00.17Z</time></trkpt><trkpt lat="44.9018704" lon="9.7731683"><ele>126.0</ele><time>2026-04-12T07:17:02.177Z</time></trkpt><trkpt lat="44.9018264" lon="9.7732534"><ele>126.0</ele><time>2026-04-12T07:17:04.165Z</time></trkpt><trkpt lat="44.9017731" lon="9.7733605"><ele>126.0</ele><time>2026-04-12T07:17:06.152Z</time></trkpt><trkpt lat="44.9017131" lon="9.7734587"><ele>126.33333333333333</ele><time>2026-04-12T07:17:09.16Z</time></trkpt><trkpt lat="44.9016788" lon="9.7735373"><ele>126.66666666666666</ele><time>2026-04-12T07:17:11.172Z</time></trkpt><trkpt lat="44.9016245" lon="9.7735989"><ele>127.0</ele><time>2026-04-12T07:17:14.14Z</time></trkpt><trkpt lat="44.9015314" lon="9.7736184"><ele>127.33333333333333</ele><time>2026-04-12T07:17:17.138Z</time></trkpt><trkpt lat="44.9014431" lon="9.7736312"><ele>127.66666666666666</ele><time>2026-04-12T07:17:19.139Z</time></trkpt><trkpt lat="44.9013692" lon="9.7737045"><ele>128.0</ele><time>2026-04-12T07:17:21.15Z</time></trkpt><trkpt lat="44.9013111" lon="9.7736432"><ele>127.99999999999999</ele><time>2026-04-12T07:17:24.169Z</time></trkpt><trkpt lat="44.9012256" lon="9.7736198"><ele>128.0</ele><time>2026-04-12T07:17:27.161Z</time></trkpt><trkpt lat="44.9011605" lon="9.773648"><ele>128.0</ele><time>2026-04-12T07:17:29.157Z</time></trkpt><trkpt lat="44.901133" lon="9.7737397"><ele>128.0</ele><time>2026-04-12T07:17:31.18Z</time></trkpt><trkpt lat="44.9010505" lon="9.7736939"><ele>127.99999999999999</ele><time>2026-04-12T07:17:34.175Z</time></trkpt><trkpt lat="44.901055" lon="9.7735777"><ele>128.0</ele><time>2026-04-12T07:17:37.16Z</time></trkpt><trkpt lat="44.9010935" lon="9.773458"><ele>127.99999999999999</ele><time>2026-04-12T07:17:40.165Z</time></trkpt><trkpt lat="44.9010723" lon="9.7733551"><ele>128.0</ele><time>2026-04-12T07:17:43.171Z</time></trkpt><trkpt lat="44.9009886" lon="9.7733994"><ele>128.0</ele><time>2026-04-12T07:17:46.166Z</time></trkpt><trkpt lat="44.9008973" lon="9.7734363"><ele>128.0</ele><time>2026-04-12T07:17:49.179Z</time></trkpt><trkpt lat="44.9008274" lon="9.773481"><ele>127.99999999999999</ele><time>2026-04-12T07:17:52.167Z</time></trkpt><trkpt lat="44.9007535" lon="9.7734509"><ele>128.0</ele><time>2026-04-12T07:17:55.174Z</time></trkpt><trkpt lat="44.9007282" lon="9.7733243"><ele>127.99999999999999</ele><time>2026-04-12T07:17:58.168Z</time></trkpt><trkpt lat="44.9007294" lon="9.7732026"><ele>128.0</ele><time>2026-04-12T07:18:01.168Z</time></trkpt><trkpt lat="44.9006618" lon="9.7731298"><ele>128.0</ele><time>2026-04-12T07:18:04.167Z</time></trkpt><trkpt lat="44.900604" lon="9.7730587"><ele>128.0</ele><time>2026-04-12T07:18:07.147Z</time></trkpt><trkpt lat="44.9005941" lon="9.7729586"><ele>127.99999999999999</ele><time>2026-04-12T07:18:10.166Z</time></trkpt><trkpt lat="44.9005892" lon="9.7728387"><ele>128.0</ele><time>2026-04-12T07:18:13.15Z</time></trkpt><trkpt lat="44.9005995" lon="9.7727352"><ele>128.14285714285714</ele><time>2026-04-12T07:18:15.167Z</time></trkpt><trkpt lat="44.9006133" lon="9.772637"><ele>128.28571428571428</ele><time>2026-04-12T07:18:17.177Z</time></trkpt><trkpt lat="44.9006333" lon="9.7725354"><ele>128.42857142857142</ele><time>2026-04-12T07:18:19.157Z</time></trkpt><trkpt lat="44.9006537" lon="9.7724442"><ele>128.57142857142856</ele><time>2026-04-12T07:18:21.173Z</time></trkpt><trkpt lat="44.9007248" lon="9.7723843"><ele>128.71428571428572</ele><time>2026-04-12T07:18:24.175Z</time></trkpt><trkpt lat="44.900785" lon="9.7723485"><ele>128.85714285714283</ele><time>2026-04-12T07:18:26.169Z</time></trkpt><trkpt lat="44.9008564" lon="9.7722908"><ele>129.0</ele><time>2026-04-12T07:18:29.175Z</time></trkpt><trkpt lat="44.9009009" lon="9.7721782"><ele>129.0</ele><time>2026-04-12T07:18:32.171Z</time></trkpt><trkpt lat="44.9009443" lon="9.7721055"><ele>129.0</ele><time>2026-04-12T07:18:35.166Z</time></trkpt><trkpt lat="44.9010174" lon="9.7720449"><ele>129.0</ele><time>2026-04-12T07:18:38.167Z</time></trkpt><trkpt lat="44.9010586" lon="9.7719229"><ele>129.0</ele><time>2026-04-12T07:18:41.167Z</time></trkpt><trkpt lat="44.9010975" lon="9.7718513"><ele>129.0</ele><time>2026-04-12T07:18:43.175Z</time></trkpt><trkpt lat="44.9011054" lon="9.7717285"><ele>129.0</ele><time>2026-04-12T07:18:46.17Z</time></trkpt><trkpt lat="44.9011503" lon="9.7716325"><ele>129.0</ele><time>2026-04-12T07:18:50.178Z</time></trkpt><trkpt lat="44.9012074" lon="9.7715583"><ele>129.0</ele><time>2026-04-12T07:18:54.161Z</time></trkpt><trkpt lat="44.901257" lon="9.7714843"><ele>129.0</ele><time>2026-04-12T07:18:57.176Z</time></trkpt><trkpt lat="44.9013048" lon="9.7713751"><ele>129.0</ele><time>2026-04-12T07:19:00.174Z</time></trkpt><trkpt lat="44.9013525" lon="9.7713171"><ele>129.0</ele><time>2026-04-12T07:19:02.17Z</time></trkpt><trkpt lat="44.9013517" lon="9.771209"><ele>129.0</ele><time>2026-04-12T07:19:05.168Z</time></trkpt><trkpt lat="44.9013036" lon="9.7711098"><ele>128.83333333333334</ele><time>2026-04-12T07:19:08.17Z</time></trkpt><trkpt lat="44.9012782" lon="9.7709818"><ele>128.66666666666666</ele><time>2026-04-12T07:19:11.172Z</time></trkpt><trkpt lat="44.9012466" lon="9.7709034"><ele>128.5</ele><time>2026-04-12T07:19:13.168Z</time></trkpt><trkpt lat="44.901193" lon="9.7708058"><ele>128.33333333333331</ele><time>2026-04-12T07:19:16.167Z</time></trkpt><trkpt lat="44.9011326" lon="9.7707392"><ele>128.16666666666666</ele><time>2026-04-12T07:19:19.178Z</time></trkpt><trkpt lat="44.9010626" lon="9.7707382"><ele>128.0</ele><time>2026-04-12T07:19:22.17Z</time></trkpt><trkpt lat="44.9010055" lon="9.7706838"><ele>128.0</ele><time>2026-04-12T07:19:24.171Z</time></trkpt><trkpt lat="44.9009495" lon="9.7706153"><ele>127.99999999999999</ele><time>2026-04-12T07:19:26.167Z</time></trkpt><trkpt lat="44.9008854" lon="9.7705777"><ele>128.0</ele><time>2026-04-12T07:19:28.161Z</time></trkpt><trkpt lat="44.9008308" lon="9.7706333"><ele>128.0</ele><time>2026-04-12T07:19:30.152Z</time></trkpt><trkpt lat="44.9007612" lon="9.7706365"><ele>127.99999999999999</ele><time>2026-04-12T07:19:33.169Z</time></trkpt><trkpt lat="44.9006897" lon="9.7706597"><ele>128.0</ele><time>2026-04-12T07:19:36.179Z</time></trkpt><trkpt lat="44.9006693" lon="9.7707501"><ele>128.0</ele><time>2026-04-12T07:19:38.164Z</time></trkpt><trkpt lat="44.9006068" lon="9.7707612"><ele>128.66666666666666</ele><time>2026-04-12T07:19:40.165Z</time></trkpt><trkpt lat="44.9005458" lon="9.7707026"><ele>129.33333333333331</ele><time>2026-04-12T07:19:42.148Z</time></trkpt><trkpt lat="44.9004779" lon="9.7707127"><ele>130.0</ele><time>2026-04-12T07:19:44.164Z</time></trkpt><trkpt lat="44.9004027" lon="9.7707994"><ele>130.66666666666666</ele><time>2026-04-12T07:19:46.151Z</time></trkpt><trkpt lat="44.9003594" lon="9.770875"><ele>131.33333333333334</ele><time>2026-04-12T07:19:48.17Z</time></trkpt><trkpt lat="44.9003079" lon="9.7709292"><ele>132.0</ele><time>2026-04-12T07:19:50.156Z</time></trkpt><trkpt lat="44.9002552" lon="9.7710223"><ele>131.57142857142856</ele><time>2026-04-12T07:19:53.165Z</time></trkpt><trkpt lat="44.9002107" lon="9.7711182"><ele>131.14285714285714</ele><time>2026-04-12T07:19:56.179Z</time></trkpt><trkpt lat="44.9001729" lon="9.7711894"><ele>130.71428571428572</ele><time>2026-04-12T07:19:59.172Z</time></trkpt><trkpt lat="44.9001238" lon="9.7712519"><ele>130.28571428571428</ele><time>2026-04-12T07:20:02.171Z</time></trkpt><trkpt lat="44.9000527" lon="9.7713057"><ele>129.85714285714286</ele><time>2026-04-12T07:20:05.174Z</time></trkpt><trkpt lat="44.8999791" lon="9.7713125"><ele>129.42857142857142</ele><time>2026-04-12T07:20:08.179Z</time></trkpt><trkpt lat="44.8998955" lon="9.7712936"><ele>129.0</ele><time>2026-04-12T07:20:11.167Z</time></trkpt><trkpt lat="44.8998431" lon="9.7712181"><ele>129.0</ele><time>2026-04-12T07:20:15.177Z</time></trkpt><trkpt lat="44.8997545" lon="9.7711751"><ele>129.0</ele><time>2026-04-12T07:20:18.172Z</time></trkpt><trkpt lat="44.8996923" lon="9.7711597"><ele>129.0</ele><time>2026-04-12T07:20:20.167Z</time></trkpt><trkpt lat="44.8996027" lon="9.7711574"><ele>129.0</ele><time>2026-04-12T07:20:23.175Z</time></trkpt><trkpt lat="44.8995294" lon="9.7711252"><ele>129.0</ele><time>2026-04-12T07:20:26.167Z</time></trkpt><trkpt lat="44.899449" lon="9.771131"><ele>129.0</ele><time>2026-04-12T07:20:29.169Z</time></trkpt><trkpt lat="44.8993815" lon="9.7711632"><ele>129.0</ele><time>2026-04-12T07:20:32.17Z</time></trkpt><trkpt lat="44.8993202" lon="9.7711161"><ele>129.0</ele><time>2026-04-12T07:20:34.171Z</time></trkpt><trkpt lat="44.899267" lon="9.7710496"><ele>129.0</ele><time>2026-04-12T07:20:36.154Z</time></trkpt><trkpt lat="44.8992148" lon="9.7709944"><ele>129.0</ele><time>2026-04-12T07:20:38.173Z</time></trkpt><trkpt lat="44.8991602" lon="9.770892"><ele>129.0</ele><time>2026-04-12T07:20:41.17Z</time></trkpt><trkpt lat="44.8990956" lon="9.7708022"><ele>129.0</ele><time>2026-04-12T07:20:44.162Z</time></trkpt><trkpt lat="44.899038" lon="9.7707517"><ele>129.83333333333334</ele><time>2026-04-12T07:20:46.177Z</time></trkpt><trkpt lat="44.8989858" lon="9.7706872"><ele>130.66666666666666</ele><time>2026-04-12T07:20:48.171Z</time></trkpt><trkpt lat="44.8989197" lon="9.7706586"><ele>131.5</ele><time>2026-04-12T07:20:51.154Z</time></trkpt><trkpt lat="44.8988348" lon="9.7706433"><ele>132.33333333333331</ele><time>2026-04-12T07:20:54.165Z</time></trkpt><trkpt lat="44.8987548" lon="9.7706862"><ele>133.16666666666666</ele><time>2026-04-12T07:20:57.174Z</time></trkpt><trkpt lat="44.8986669" lon="9.7706463"><ele>134.0</ele><time>2026-04-12T07:21:00.167Z</time></trkpt><trkpt lat="44.8985884" lon="9.770642"><ele>134.0</ele><time>2026-04-12T07:21:03.172Z</time></trkpt><trkpt lat="44.8985626" lon="9.7705292"><ele>134.0</ele><time>2026-04-12T07:21:06.174Z</time></trkpt><trkpt lat="44.8984569" lon="9.7705076"><ele>134.0</ele><time>2026-04-12T07:21:09.161Z</time></trkpt><trkpt lat="44.8983626" lon="9.7705166"><ele>134.0</ele><time>2026-04-12T07:21:11.156Z</time></trkpt><trkpt lat="44.8982637" lon="9.7705423"><ele>134.0</ele><time>2026-04-12T07:21:15.172Z</time></trkpt><trkpt lat="44.898198" lon="9.7705642"><ele>133.66666666666666</ele><time>2026-04-12T07:21:16.166Z</time></trkpt><trkpt lat="44.8980886" lon="9.7705448"><ele>133.33333333333331</ele><time>2026-04-12T07:21:18.153Z</time></trkpt><trkpt lat="44.8980203" lon="9.7705995"><ele>133.0</ele><time>2026-04-12T07:21:20.168Z</time></trkpt><trkpt lat="44.8979362" lon="9.770644"><ele>132.66666666666666</ele><time>2026-04-12T07:21:23.179Z</time></trkpt><trkpt lat="44.8978741" lon="9.7707058"><ele>132.33333333333334</ele><time>2026-04-12T07:21:26.171Z</time></trkpt><trkpt lat="44.8978058" lon="9.7707538"><ele>132.0</ele><time>2026-04-12T07:21:29.172Z</time></trkpt><trkpt lat="44.8977201" lon="9.7707866"><ele>132.0</ele><time>2026-04-12T07:21:32.174Z</time></trkpt><trkpt lat="44.8976612" lon="9.7708532"><ele>132.0</ele><time>2026-04-12T07:21:34.161Z</time></trkpt><trkpt lat="44.8975689" lon="9.7708362"><ele>132.0</ele><time>2026-04-12T07:21:36.17Z</time></trkpt><trkpt lat="44.8974932" lon="9.7708725"><ele>132.0</ele><time>2026-04-12T07:21:39.175Z</time></trkpt><trkpt lat="44.8974044" lon="9.7708817"><ele>132.0</ele><time>2026-04-12T07:21:43.17Z</time></trkpt><trkpt lat="44.8973328" lon="9.7709332"><ele>132.0</ele><time>2026-04-12T07:21:46.17Z</time></trkpt><trkpt lat="44.8972607" lon="9.7709091"><ele>132.0</ele><time>2026-04-12T07:21:49.172Z</time></trkpt><trkpt lat="44.8971951" lon="9.7709692"><ele>132.0</ele><time>2026-04-12T07:21:52.167Z</time></trkpt><trkpt lat="44.8971102" lon="9.7710064"><ele>132.0</ele><time>2026-04-12T07:21:55.17Z</time></trkpt><trkpt lat="44.8970363" lon="9.7710372"><ele>132.0</ele><time>2026-04-12T07:21:58.164Z</time></trkpt><trkpt lat="44.8969726" lon="9.7710432"><ele>132.0</ele><time>2026-04-12T07:22:01.174Z</time></trkpt><trkpt lat="44.8968976" lon="9.7710873"><ele>132.0</ele><time>2026-04-12T07:22:04.177Z</time></trkpt><trkpt lat="44.8968562" lon="9.7711621"><ele>132.0</ele><time>2026-04-12T07:22:07.167Z</time></trkpt><trkpt lat="44.8968292" lon="9.7712545"><ele>132.0</ele><time>2026-04-12T07:22:09.166Z</time></trkpt><trkpt lat="44.8967578" lon="9.7712967"><ele>132.0</ele><time>2026-04-12T07:22:11.179Z</time></trkpt><trkpt lat="44.8966815" lon="9.7713379"><ele>132.0</ele><time>2026-04-12T07:22:14.166Z</time></trkpt><trkpt lat="44.8966076" lon="9.7713722"><ele>132.0</ele><time>2026-04-12T07:22:17.174Z</time></trkpt><trkpt lat="44.8965365" lon="9.7713565"><ele>132.0</ele><time>2026-04-12T07:22:20.171Z</time></trkpt><trkpt lat="44.8964609" lon="9.7713173"><ele>132.0</ele><time>2026-04-12T07:22:23.152Z</time></trkpt><trkpt lat="44.8963853" lon="9.7713041"><ele>132.0</ele><time>2026-04-12T07:22:26.164Z</time></trkpt><trkpt lat="44.8963429" lon="9.7713894"><ele>132.0</ele><time>2026-04-12T07:22:29.163Z</time></trkpt><trkpt lat="44.8962733" lon="9.7713986"><ele>132.0</ele><time>2026-04-12T07:22:32.16Z</time></trkpt><trkpt lat="44.8961986" lon="9.7714527"><ele>132.0</ele><time>2026-04-12T07:22:35.165Z</time></trkpt><trkpt lat="44.8961325" lon="9.7715511"><ele>132.0</ele><time>2026-04-12T07:22:38.142Z</time></trkpt><trkpt lat="44.896086" lon="9.7716422"><ele>132.0</ele><time>2026-04-12T07:22:40.175Z</time></trkpt><trkpt lat="44.8960342" lon="9.7717151"><ele>132.0</ele><time>2026-04-12T07:22:42.181Z</time></trkpt><trkpt lat="44.8959811" lon="9.7718323"><ele>132.0</ele><time>2026-04-12T07:22:45.167Z</time></trkpt><trkpt lat="44.8959444" lon="9.7719618"><ele>132.0</ele><time>2026-04-12T07:22:48.156Z</time></trkpt><trkpt lat="44.8958975" lon="9.7720525"><ele>132.0</ele><time>2026-04-12T07:22:50.163Z</time></trkpt><trkpt lat="44.8958467" lon="9.7721181"><ele>132.0</ele><time>2026-04-12T07:22:52.167Z</time></trkpt><trkpt lat="44.8957843" lon="9.7721455"><ele>132.33333333333334</ele><time>2026-04-12T07:22:54.172Z</time></trkpt><trkpt lat="44.895708" lon="9.7721221"><ele>132.66666666666666</ele><time>2026-04-12T07:22:57.167Z</time></trkpt><trkpt lat="44.8956485" lon="9.7721938"><ele>133.0</ele><time>2026-04-12T07:23:01.169Z</time></trkpt><trkpt lat="44.8955557" lon="9.7721876"><ele>133.33333333333331</ele><time>2026-04-12T07:23:05.17Z</time></trkpt><trkpt lat="44.8954884" lon="9.7721602"><ele>133.66666666666666</ele><time>2026-04-12T07:23:07.16Z</time></trkpt><trkpt lat="44.8954079" lon="9.7721722"><ele>134.0</ele><time>2026-04-12T07:23:09.155Z</time></trkpt><trkpt lat="44.8953449" lon="9.7721501"><ele>134.0</ele><time>2026-04-12T07:23:11.177Z</time></trkpt><trkpt lat="44.895277" lon="9.772145"><ele>134.0</ele><time>2026-04-12T07:23:13.181Z</time></trkpt><trkpt lat="44.8952301" lon="9.7722063"><ele>134.0</ele><time>2026-04-12T07:23:15.168Z</time></trkpt><trkpt lat="44.8951755" lon="9.7722628"><ele>134.0</ele><time>2026-04-12T07:23:17.154Z</time></trkpt><trkpt lat="44.8951004" lon="9.7722723"><ele>134.0</ele><time>2026-04-12T07:23:19.173Z</time></trkpt><trkpt lat="44.8950384" lon="9.7721924"><ele>134.0</ele><time>2026-04-12T07:23:22.164Z</time></trkpt><trkpt lat="44.8949647" lon="9.7721562"><ele>134.0</ele><time>2026-04-12T07:23:26.17Z</time></trkpt><trkpt lat="44.8948666" lon="9.7721703"><ele>134.57142857142858</ele><time>2026-04-12T07:23:29.178Z</time></trkpt><trkpt lat="44.8948066" lon="9.7722152"><ele>135.14285714285714</ele><time>2026-04-12T07:23:31.178Z</time></trkpt><trkpt lat="44.8947397" lon="9.7722683"><ele>135.71428571428572</ele><time>2026-04-12T07:23:33.172Z</time></trkpt><trkpt lat="44.8947025" lon="9.77235"><ele>136.28571428571428</ele><time>2026-04-12T07:23:35.173Z</time></trkpt><trkpt lat="44.8946539" lon="9.7724135"><ele>136.85714285714286</ele><time>2026-04-12T07:23:37.162Z</time></trkpt><trkpt lat="44.894572" lon="9.7724079"><ele>137.42857142857144</ele><time>2026-04-12T07:23:39.139Z</time></trkpt><trkpt lat="44.8945046" lon="9.772406"><ele>138.0</ele><time>2026-04-12T07:23:41.17Z</time></trkpt><trkpt lat="44.8944242" lon="9.7724589"><ele>138.0</ele><time>2026-04-12T07:23:43.168Z</time></trkpt><trkpt lat="44.8943629" lon="9.772514"><ele>138.0</ele><time>2026-04-12T07:23:45.166Z</time></trkpt><trkpt lat="44.8943096" lon="9.7725717"><ele>138.0</ele><time>2026-04-12T07:23:47.181Z</time></trkpt><trkpt lat="44.8942651" lon="9.7726597"><ele>138.0</ele><time>2026-04-12T07:23:50.169Z</time></trkpt><trkpt lat="44.8942233" lon="9.7727321"><ele>138.0</ele><time>2026-04-12T07:23:52.176Z</time></trkpt><trkpt lat="44.8941709" lon="9.7728343"><ele>138.0</ele><time>2026-04-12T07:23:55.193Z</time></trkpt><trkpt lat="44.8941236" lon="9.772912"><ele>138.0</ele><time>2026-04-12T07:23:58.174Z</time></trkpt><trkpt lat="44.8940851" lon="9.7729841"><ele>138.0</ele><time>2026-04-12T07:24:00.182Z</time></trkpt><trkpt lat="44.8940063" lon="9.7729916"><ele>138.0</ele><time>2026-04-12T07:24:02.172Z</time></trkpt><trkpt lat="44.8939242" lon="9.7729828"><ele>138.0</ele><time>2026-04-12T07:24:04.175Z</time></trkpt><trkpt lat="44.8938539" lon="9.7730342"><ele>138.0</ele><time>2026-04-12T07:24:07.146Z</time></trkpt><trkpt lat="44.8938104" lon="9.7731353"><ele>138.0</ele><time>2026-04-12T07:24:10.166Z</time></trkpt><trkpt lat="44.8937469" lon="9.7731523"><ele>138.0</ele><time>2026-04-12T07:24:12.17Z</time></trkpt><trkpt lat="44.8936771" lon="9.7731535"><ele>138.0</ele><time>2026-04-12T07:24:14.174Z</time></trkpt><trkpt lat="44.8935903" lon="9.7731953"><ele>138.0</ele><time>2026-04-12T07:24:16.167Z</time></trkpt><trkpt lat="44.8935169" lon="9.7732125"><ele>138.0</ele><time>2026-04-12T07:24:18.153Z</time></trkpt><trkpt lat="44.8934356" lon="9.7731531"><ele>138.0</ele><time>2026-04-12T07:24:21.164Z</time></trkpt><trkpt lat="44.8933726" lon="9.7730937"><ele>138.0</ele><time>2026-04-12T07:24:23.178Z</time></trkpt><trkpt lat="44.8933213" lon="9.7730219"><ele>138.0</ele><time>2026-04-12T07:24:25.183Z</time></trkpt><trkpt lat="44.8932897" lon="9.7729352"><ele>138.0</ele><time>2026-04-12T07:24:27.179Z</time></trkpt><trkpt lat="44.8932548" lon="9.7728532"><ele>138.0</ele><time>2026-04-12T07:24:29.153Z</time></trkpt><trkpt lat="44.8932081" lon="9.7727679"><ele>138.0</ele><time>2026-04-12T07:24:31.175Z</time></trkpt><trkpt lat="44.8931937" lon="9.7726744"><ele>138.0</ele><time>2026-04-12T07:24:33.147Z</time></trkpt><trkpt lat="44.8931962" lon="9.7725475"><ele>138.0</ele><time>2026-04-12T07:24:36.178Z</time></trkpt><trkpt lat="44.8932" lon="9.7724389"><ele>138.0</ele><time>2026-04-12T07:24:38.172Z</time></trkpt><trkpt lat="44.8932204" lon="9.7723322"><ele>137.83333333333334</ele><time>2026-04-12T07:24:40.173Z</time></trkpt><trkpt lat="44.8932159" lon="9.772214"><ele>137.66666666666666</ele><time>2026-04-12T07:24:44.177Z</time></trkpt><trkpt lat="44.8931943" lon="9.7720885"><ele>137.5</ele><time>2026-04-12T07:24:47.169Z</time></trkpt><trkpt lat="44.8931489" lon="9.7719852"><ele>137.33333333333331</ele><time>2026-04-12T07:24:50.165Z</time></trkpt><trkpt lat="44.8930809" lon="9.7719909"><ele>137.16666666666666</ele><time>2026-04-12T07:24:53.165Z</time></trkpt><trkpt lat="44.8930211" lon="9.7719629"><ele>137.0</ele><time>2026-04-12T07:24:55.174Z</time></trkpt><trkpt lat="44.892951" lon="9.7718731"><ele>137.0</ele><time>2026-04-12T07:24:57.168Z</time></trkpt><trkpt lat="44.8928802" lon="9.7718007"><ele>137.0</ele><time>2026-04-12T07:24:59.163Z</time></trkpt><trkpt lat="44.8928084" lon="9.771736"><ele>137.0</ele><time>2026-04-12T07:25:01.168Z</time></trkpt><trkpt lat="44.8927449" lon="9.7716645"><ele>137.0</ele><time>2026-04-12T07:25:03.163Z</time></trkpt><trkpt lat="44.8926775" lon="9.7715936"><ele>137.0</ele><time>2026-04-12T07:25:05.184Z</time></trkpt><trkpt lat="44.8926379" lon="9.7714973"><ele>137.0</ele><time>2026-04-12T07:25:07.171Z</time></trkpt><trkpt lat="44.892627" lon="9.7714039"><ele>137.0</ele><time>2026-04-12T07:25:09.169Z</time></trkpt><trkpt lat="44.8926058" lon="9.7713094"><ele>137.0</ele><time>2026-04-12T07:25:11.179Z</time></trkpt><trkpt lat="44.8925783" lon="9.7712201"><ele>137.0</ele><time>2026-04-12T07:25:13.173Z</time></trkpt><trkpt lat="44.892578" lon="9.7710871"><ele>137.0</ele><time>2026-04-12T07:25:16.162Z</time></trkpt><trkpt lat="44.892531" lon="9.7709666"><ele>137.0</ele><time>2026-04-12T07:25:19.171Z</time></trkpt><trkpt lat="44.8924714" lon="9.7708958"><ele>137.0</ele><time>2026-04-12T07:25:21.151Z</time></trkpt><trkpt lat="44.8924562" lon="9.7708094"><ele>137.5</ele><time>2026-04-12T07:25:23.164Z</time></trkpt><trkpt lat="44.8923992" lon="9.7707229"><ele>138.0</ele><time>2026-04-12T07:25:26.163Z</time></trkpt><trkpt lat="44.8923526" lon="9.7706492"><ele>138.5</ele><time>2026-04-12T07:25:28.179Z</time></trkpt><trkpt lat="44.8923026" lon="9.7705908"><ele>139.0</ele><time>2026-04-12T07:25:30.174Z</time></trkpt><trkpt lat="44.8922607" lon="9.7705169"><ele>139.5</ele><time>2026-04-12T07:25:32.165Z</time></trkpt><trkpt lat="44.8922003" lon="9.7704389"><ele>140.0</ele><time>2026-04-12T07:25:35.182Z</time></trkpt><trkpt lat="44.8921132" lon="9.7703964"><ele>140.0</ele><time>2026-04-12T07:25:38.183Z</time></trkpt><trkpt lat="44.8920691" lon="9.7703323"><ele>140.0</ele><time>2026-04-12T07:25:40.17Z</time></trkpt><trkpt lat="44.8920249" lon="9.7702178"><ele>140.0</ele><time>2026-04-12T07:25:43.188Z</time></trkpt><trkpt lat="44.8919611" lon="9.7701156"><ele>140.0</ele><time>2026-04-12T07:25:46.165Z</time></trkpt><trkpt lat="44.8919273" lon="9.770014"><ele>140.0</ele><time>2026-04-12T07:25:48.171Z</time></trkpt><trkpt lat="44.8918907" lon="9.7699144"><ele>140.0</ele><time>2026-04-12T07:25:50.169Z</time></trkpt><trkpt lat="44.8918553" lon="9.7698285"><ele>140.0</ele><time>2026-04-12T07:25:52.166Z</time></trkpt><trkpt lat="44.8918048" lon="9.769765"><ele>140.0</ele><time>2026-04-12T07:25:54.161Z</time></trkpt><trkpt lat="44.8917459" lon="9.7697175"><ele>140.0</ele><time>2026-04-12T07:25:56.156Z</time></trkpt><trkpt lat="44.8917136" lon="9.7696251"><ele>140.0</ele><time>2026-04-12T07:25:58.162Z</time></trkpt><trkpt lat="44.8916799" lon="9.7695018"><ele>140.0</ele><time>2026-04-12T07:26:01.174Z</time></trkpt><trkpt lat="44.8916377" lon="9.7694348"><ele>140.0</ele><time>2026-04-12T07:26:03.166Z</time></trkpt><trkpt lat="44.8915773" lon="9.7693709"><ele>140.0</ele><time>2026-04-12T07:26:05.178Z</time></trkpt><trkpt lat="44.8915282" lon="9.7692954"><ele>140.0</ele><time>2026-04-12T07:26:07.162Z</time></trkpt><trkpt lat="44.8914715" lon="9.7692413"><ele>140.0</ele><time>2026-04-12T07:26:09.147Z</time></trkpt><trkpt lat="44.8913955" lon="9.7692134"><ele>140.0</ele><time>2026-04-12T07:26:11.16Z</time></trkpt><trkpt lat="44.8913352" lon="9.7692641"><ele>140.0</ele><time>2026-04-12T07:26:14.163Z</time></trkpt><trkpt lat="44.8912977" lon="9.7693565"><ele>140.0</ele><time>2026-04-12T07:26:16.167Z</time></trkpt><trkpt lat="44.8912396" lon="9.7694722"><ele>140.0</ele><time>2026-04-12T07:26:18.172Z</time></trkpt><trkpt lat="44.8911895" lon="9.7695611"><ele>140.16666666666666</ele><time>2026-04-12T07:26:20.171Z</time></trkpt><trkpt lat="44.8911266" lon="9.7696439"><ele>140.33333333333331</ele><time>2026-04-12T07:26:22.183Z</time></trkpt><trkpt lat="44.8910417" lon="9.7696648"><ele>140.5</ele><time>2026-04-12T07:26:24.174Z</time></trkpt><trkpt lat="44.8909804" lon="9.7696214"><ele>140.66666666666666</ele><time>2026-04-12T07:26:27.171Z</time></trkpt><trkpt lat="44.8909025" lon="9.7695889"><ele>140.83333333333334</ele><time>2026-04-12T07:26:30.175Z</time></trkpt><trkpt lat="44.8908301" lon="9.76958"><ele>141.0</ele><time>2026-04-12T07:26:32.176Z</time></trkpt><trkpt lat="44.8907564" lon="9.7695605"><ele>141.33333333333334</ele><time>2026-04-12T07:26:34.221Z</time></trkpt><trkpt lat="44.8906763" lon="9.7695363"><ele>141.66666666666666</ele><time>2026-04-12T07:26:36.179Z</time></trkpt><trkpt lat="44.8905985" lon="9.7695043"><ele>142.0</ele><time>2026-04-12T07:26:38.183Z</time></trkpt><trkpt lat="44.8905263" lon="9.7694717"><ele>142.33333333333331</ele><time>2026-04-12T07:26:40.171Z</time></trkpt><trkpt lat="44.890442" lon="9.7694342"><ele>142.66666666666666</ele><time>2026-04-12T07:26:42.178Z</time></trkpt><trkpt lat="44.8903604" lon="9.7694036"><ele>143.0</ele><time>2026-04-12T07:26:44.182Z</time></trkpt><trkpt lat="44.8902877" lon="9.7694256"><ele>142.99999999999997</ele><time>2026-04-12T07:26:46.17Z</time></trkpt><trkpt lat="44.8902133" lon="9.7694492"><ele>143.0</ele><time>2026-04-12T07:26:48.174Z</time></trkpt><trkpt lat="44.8901382" lon="9.7694673"><ele>143.0</ele><time>2026-04-12T07:26:50.173Z</time></trkpt><trkpt lat="44.8900643" lon="9.769479"><ele>143.0</ele><time>2026-04-12T07:26:52.174Z</time></trkpt><trkpt lat="44.8899918" lon="9.7694881"><ele>143.0</ele><time>2026-04-12T07:26:54.173Z</time></trkpt><trkpt lat="44.8899162" lon="9.7695154"><ele>142.99999999999997</ele><time>2026-04-12T07:26:56.188Z</time></trkpt><trkpt lat="44.8898488" lon="9.769535"><ele>143.0</ele><time>2026-04-12T07:26:58.18Z</time></trkpt><trkpt lat="44.8897748" lon="9.769535"><ele>143.33333333333331</ele><time>2026-04-12T07:27:00.174Z</time></trkpt><trkpt lat="44.8896766" lon="9.769536"><ele>143.66666666666666</ele><time>2026-04-12T07:27:02.17Z</time></trkpt><trkpt lat="44.8895999" lon="9.7695778"><ele>144.0</ele><time>2026-04-12T07:27:04.175Z</time></trkpt><trkpt lat="44.8895315" lon="9.7696144"><ele>144.33333333333334</ele><time>2026-04-12T07:27:06.176Z</time></trkpt><trkpt lat="44.8894448" lon="9.7696444"><ele>144.66666666666669</ele><time>2026-04-12T07:27:08.171Z</time></trkpt><trkpt lat="44.8893932" lon="9.7697205"><ele>145.0</ele><time>2026-04-12T07:27:10.172Z</time></trkpt><trkpt lat="44.8893309" lon="9.7697479"><ele>145.0</ele><time>2026-04-12T07:27:12.167Z</time></trkpt><trkpt lat="44.8892657" lon="9.7697725"><ele>145.0</ele><time>2026-04-12T07:27:14.172Z</time></trkpt><trkpt lat="44.8892002" lon="9.7698178"><ele>145.0</ele><time>2026-04-12T07:27:16.166Z</time></trkpt><trkpt lat="44.8891519" lon="9.7698946"><ele>145.0</ele><time>2026-04-12T07:27:18.168Z</time></trkpt><trkpt lat="44.8890878" lon="9.7699273"><ele>145.0</ele><time>2026-04-12T07:27:20.148Z</time></trkpt><trkpt lat="44.8889992" lon="9.7699017"><ele>145.0</ele><time>2026-04-12T07:27:22.159Z</time></trkpt><trkpt lat="44.8889091" lon="9.7698846"><ele>145.5</ele><time>2026-04-12T07:27:24.177Z</time></trkpt><trkpt lat="44.8888333" lon="9.7698598"><ele>146.0</ele><time>2026-04-12T07:27:26.177Z</time></trkpt><trkpt lat="44.8887685" lon="9.7698525"><ele>146.5</ele><time>2026-04-12T07:27:28.174Z</time></trkpt><trkpt lat="44.888698" lon="9.7698446"><ele>147.0</ele><time>2026-04-12T07:27:30.17Z</time></trkpt><trkpt lat="44.8886251" lon="9.769834"><ele>147.5</ele><time>2026-04-12T07:27:32.172Z</time></trkpt><trkpt lat="44.8885289" lon="9.7698162"><ele>148.0</ele><time>2026-04-12T07:27:34.179Z</time></trkpt><trkpt lat="44.8884407" lon="9.7697858"><ele>149.20000000000002</ele><time>2026-04-12T07:27:36.172Z</time></trkpt><trkpt lat="44.8883919" lon="9.7697116"><ele>150.4</ele><time>2026-04-12T07:27:38.165Z</time></trkpt><trkpt lat="44.888321" lon="9.7696249"><ele>151.60000000000002</ele><time>2026-04-12T07:27:40.193Z</time></trkpt><trkpt lat="44.8882427" lon="9.769522"><ele>152.8</ele><time>2026-04-12T07:27:42.16Z</time></trkpt><trkpt lat="44.888157" lon="9.7694557"><ele>154.0</ele><time>2026-04-12T07:27:44.172Z</time></trkpt><trkpt lat="44.8881005" lon="9.7693756"><ele>152.5</ele><time>2026-04-12T07:27:46.162Z</time></trkpt><trkpt lat="44.8880482" lon="9.7692812"><ele>151.0</ele><time>2026-04-12T07:27:48.173Z</time></trkpt><trkpt lat="44.8880056" lon="9.7691931"><ele>149.5</ele><time>2026-04-12T07:27:50.156Z</time></trkpt><trkpt lat="44.8879567" lon="9.7690967"><ele>148.0</ele><time>2026-04-12T07:27:52.155Z</time></trkpt><trkpt lat="44.8879062" lon="9.769"><ele>146.5</ele><time>2026-04-12T07:27:54.171Z</time></trkpt><trkpt lat="44.8878737" lon="9.7688997"><ele>145.0</ele><time>2026-04-12T07:27:56.184Z</time></trkpt><trkpt lat="44.8878338" lon="9.7687989"><ele>145.0</ele><time>2026-04-12T07:27:58.175Z</time></trkpt><trkpt lat="44.8877915" lon="9.7686886"><ele>145.0</ele><time>2026-04-12T07:28:00.17Z</time></trkpt><trkpt lat="44.8877416" lon="9.7685824"><ele>145.0</ele><time>2026-04-12T07:28:02.177Z</time></trkpt><trkpt lat="44.8877066" lon="9.768485"><ele>145.0</ele><time>2026-04-12T07:28:04.169Z</time></trkpt><trkpt lat="44.8876657" lon="9.768377"><ele>145.0</ele><time>2026-04-12T07:28:06.175Z</time></trkpt><trkpt lat="44.8876317" lon="9.7682767"><ele>145.0</ele><time>2026-04-12T07:28:08.175Z</time></trkpt><trkpt lat="44.8876202" lon="9.7681519"><ele>145.28571428571428</ele><time>2026-04-12T07:28:10.168Z</time></trkpt><trkpt lat="44.8876148" lon="9.7680433"><ele>145.57142857142858</ele><time>2026-04-12T07:28:12.159Z</time></trkpt><trkpt lat="44.8876411" lon="9.7679485"><ele>145.85714285714286</ele><time>2026-04-12T07:28:14.17Z</time></trkpt><trkpt lat="44.8876232" lon="9.7678627"><ele>146.14285714285714</ele><time>2026-04-12T07:28:16.178Z</time></trkpt><trkpt lat="44.8875951" lon="9.7677742"><ele>146.42857142857144</ele><time>2026-04-12T07:28:18.171Z</time></trkpt><trkpt lat="44.8875508" lon="9.7676932"><ele>146.71428571428572</ele><time>2026-04-12T07:28:20.167Z</time></trkpt><trkpt lat="44.8874974" lon="9.7676139"><ele>147.0</ele><time>2026-04-12T07:28:22.167Z</time></trkpt><trkpt lat="44.8874443" lon="9.7675184"><ele>147.0</ele><time>2026-04-12T07:28:25.174Z</time></trkpt><trkpt lat="44.8874229" lon="9.7674009"><ele>147.0</ele><time>2026-04-12T07:28:28.164Z</time></trkpt><trkpt lat="44.8873636" lon="9.767324"><ele>147.0</ele><time>2026-04-12T07:28:30.174Z</time></trkpt><trkpt lat="44.8873191" lon="9.7672553"><ele>147.0</ele><time>2026-04-12T07:28:32.163Z</time></trkpt><trkpt lat="44.8872847" lon="9.7671252"><ele>147.0</ele><time>2026-04-12T07:28:35.162Z</time></trkpt><trkpt lat="44.8872368" lon="9.7670281"><ele>147.0</ele><time>2026-04-12T07:28:37.174Z</time></trkpt><trkpt lat="44.8872119" lon="9.7669387"><ele>147.16666666666666</ele><time>2026-04-12T07:28:39.175Z</time></trkpt><trkpt lat="44.8871606" lon="9.7668584"><ele>147.33333333333334</ele><time>2026-04-12T07:28:41.178Z</time></trkpt><trkpt lat="44.8871126" lon="9.7667878"><ele>147.5</ele><time>2026-04-12T07:28:43.182Z</time></trkpt><trkpt lat="44.887013" lon="9.7667666"><ele>147.66666666666669</ele><time>2026-04-12T07:28:45.165Z</time></trkpt><trkpt lat="44.8869397" lon="9.766712"><ele>147.83333333333334</ele><time>2026-04-12T07:28:48.172Z</time></trkpt><trkpt lat="44.886886" lon="9.7666368"><ele>148.0</ele><time>2026-04-12T07:28:50.179Z</time></trkpt><trkpt lat="44.886835" lon="9.766551"><ele>148.0</ele><time>2026-04-12T07:28:52.175Z</time></trkpt><trkpt lat="44.8867847" lon="9.7664724"><ele>148.0</ele><time>2026-04-12T07:28:54.171Z</time></trkpt><trkpt lat="44.8867285" lon="9.7663835"><ele>148.0</ele><time>2026-04-12T07:28:56.168Z</time></trkpt><trkpt lat="44.8866845" lon="9.7662866"><ele>148.0</ele><time>2026-04-12T07:28:58.166Z</time></trkpt><trkpt lat="44.8866348" lon="9.7661937"><ele>148.0</ele><time>2026-04-12T07:29:00.175Z</time></trkpt><trkpt lat="44.8865947" lon="9.7661076"><ele>148.0</ele><time>2026-04-12T07:29:02.154Z</time></trkpt><trkpt lat="44.8865481" lon="9.7660184"><ele>148.16666666666669</ele><time>2026-04-12T07:29:04.175Z</time></trkpt><trkpt lat="44.8865088" lon="9.7659334"><ele>148.33333333333334</ele><time>2026-04-12T07:29:06.167Z</time></trkpt><trkpt lat="44.8864659" lon="9.7658425"><ele>148.5</ele><time>2026-04-12T07:29:08.169Z</time></trkpt><trkpt lat="44.8864114" lon="9.765753"><ele>148.66666666666666</ele><time>2026-04-12T07:29:10.171Z</time></trkpt><trkpt lat="44.8863597" lon="9.7656498"><ele>148.83333333333331</ele><time>2026-04-12T07:29:12.172Z</time></trkpt><trkpt lat="44.8863126" lon="9.765568"><ele>149.0</ele><time>2026-04-12T07:29:14.181Z</time></trkpt><trkpt lat="44.8862664" lon="9.7655033"><ele>149.0</ele><time>2026-04-12T07:29:16.162Z</time></trkpt><trkpt lat="44.8862068" lon="9.7654491"><ele>149.0</ele><time>2026-04-12T07:29:18.179Z</time></trkpt><trkpt lat="44.8861262" lon="9.7654494"><ele>149.0</ele><time>2026-04-12T07:29:20.164Z</time></trkpt><trkpt lat="44.8860465" lon="9.7654743"><ele>149.0</ele><time>2026-04-12T07:29:22.178Z</time></trkpt><trkpt lat="44.8859695" lon="9.7654951"><ele>149.0</ele><time>2026-04-12T07:29:24.155Z</time></trkpt><trkpt lat="44.8858959" lon="9.7655443"><ele>149.0</ele><time>2026-04-12T07:29:26.167Z</time></trkpt><trkpt lat="44.8858306" lon="9.7656059"><ele>149.33333333333331</ele><time>2026-04-12T07:29:28.184Z</time></trkpt><trkpt lat="44.8857657" lon="9.7656663"><ele>149.66666666666666</ele><time>2026-04-12T07:29:30.157Z</time></trkpt><trkpt lat="44.8856931" lon="9.7657371"><ele>150.0</ele><time>2026-04-12T07:29:32.169Z</time></trkpt><trkpt lat="44.8856284" lon="9.7658096"><ele>150.33333333333334</ele><time>2026-04-12T07:29:34.184Z</time></trkpt><trkpt lat="44.8855674" lon="9.765874"><ele>150.66666666666669</ele><time>2026-04-12T07:29:36.173Z</time></trkpt><trkpt lat="44.8854986" lon="9.7659412"><ele>151.0</ele><time>2026-04-12T07:29:38.182Z</time></trkpt><trkpt lat="44.8854204" lon="9.7660127"><ele>150.66666666666669</ele><time>2026-04-12T07:29:40.161Z</time></trkpt><trkpt lat="44.8853403" lon="9.76608"><ele>150.33333333333334</ele><time>2026-04-12T07:29:42.173Z</time></trkpt><trkpt lat="44.885259" lon="9.7661087"><ele>150.0</ele><time>2026-04-12T07:29:44.168Z</time></trkpt><trkpt lat="44.8851819" lon="9.7660921"><ele>149.66666666666666</ele><time>2026-04-12T07:29:46.172Z</time></trkpt><trkpt lat="44.8850914" lon="9.7660954"><ele>149.33333333333331</ele><time>2026-04-12T07:29:48.189Z</time></trkpt><trkpt lat="44.8850007" lon="9.7660866"><ele>149.0</ele><time>2026-04-12T07:29:50.176Z</time></trkpt><trkpt lat="44.884911" lon="9.7660902"><ele>149.0</ele><time>2026-04-12T07:29:52.171Z</time></trkpt><trkpt lat="44.8848153" lon="9.7660941"><ele>149.0</ele><time>2026-04-12T07:29:54.171Z</time></trkpt><trkpt lat="44.8847305" lon="9.766091"><ele>149.0</ele><time>2026-04-12T07:29:56.179Z</time></trkpt><trkpt lat="44.8846439" lon="9.7660886"><ele>149.0</ele><time>2026-04-12T07:29:58.186Z</time></trkpt><trkpt lat="44.8845531" lon="9.7660821"><ele>149.0</ele><time>2026-04-12T07:30:00.18Z</time></trkpt><trkpt lat="44.884465" lon="9.7660721"><ele>149.0</ele><time>2026-04-12T07:30:02.176Z</time></trkpt><trkpt lat="44.8843685" lon="9.7660599"><ele>149.0</ele><time>2026-04-12T07:30:04.152Z</time></trkpt><trkpt lat="44.8842731" lon="9.7660458"><ele>149.0</ele><time>2026-04-12T07:30:06.166Z</time></trkpt><trkpt lat="44.8841797" lon="9.7660203"><ele>149.0</ele><time>2026-04-12T07:30:08.167Z</time></trkpt><trkpt lat="44.8840963" lon="9.7659762"><ele>149.0</ele><time>2026-04-12T07:30:10.171Z</time></trkpt><trkpt lat="44.8840224" lon="9.765925"><ele>149.0</ele><time>2026-04-12T07:30:12.177Z</time></trkpt><trkpt lat="44.883937" lon="9.7658861"><ele>149.5</ele><time>2026-04-12T07:30:14.156Z</time></trkpt><trkpt lat="44.8838582" lon="9.7658555"><ele>150.0</ele><time>2026-04-12T07:30:16.173Z</time></trkpt><trkpt lat="44.8837684" lon="9.7658221"><ele>150.5</ele><time>2026-04-12T07:30:18.171Z</time></trkpt><trkpt lat="44.883699" lon="9.7657721"><ele>151.0</ele><time>2026-04-12T07:30:20.171Z</time></trkpt><trkpt lat="44.8836528" lon="9.7656635"><ele>151.5</ele><time>2026-04-12T07:30:22.171Z</time></trkpt><trkpt lat="44.8835902" lon="9.7655587"><ele>152.0</ele><time>2026-04-12T07:30:24.177Z</time></trkpt><trkpt lat="44.8835185" lon="9.7654692"><ele>152.0</ele><time>2026-04-12T07:30:26.182Z</time></trkpt><trkpt lat="44.8834509" lon="9.7653756"><ele>152.0</ele><time>2026-04-12T07:30:28.181Z</time></trkpt><trkpt lat="44.8833647" lon="9.7652857"><ele>152.0</ele><time>2026-04-12T07:30:30.164Z</time></trkpt><trkpt lat="44.8832908" lon="9.7651963"><ele>152.0</ele><time>2026-04-12T07:30:32.166Z</time></trkpt><trkpt lat="44.8832347" lon="9.7650993"><ele>152.0</ele><time>2026-04-12T07:30:34.158Z</time></trkpt><trkpt lat="44.883178" lon="9.7649999"><ele>152.0</ele><time>2026-04-12T07:30:36.172Z</time></trkpt><trkpt lat="44.8831253" lon="9.7648966"><ele>152.0</ele><time>2026-04-12T07:30:38.168Z</time></trkpt><trkpt lat="44.8830955" lon="9.7647856"><ele>152.0</ele><time>2026-04-12T07:30:40.174Z</time></trkpt><trkpt lat="44.8830666" lon="9.7646615"><ele>152.0</ele><time>2026-04-12T07:30:42.169Z</time></trkpt><trkpt lat="44.8830303" lon="9.7645346"><ele>152.0</ele><time>2026-04-12T07:30:44.17Z</time></trkpt><trkpt lat="44.8829996" lon="9.7644129"><ele>151.79999999999998</ele><time>2026-04-12T07:30:46.17Z</time></trkpt><trkpt lat="44.8829686" lon="9.7642891"><ele>151.6</ele><time>2026-04-12T07:30:48.178Z</time></trkpt><trkpt lat="44.8829334" lon="9.7641688"><ele>151.39999999999998</ele><time>2026-04-12T07:30:50.179Z</time></trkpt><trkpt lat="44.8828655" lon="9.7640812"><ele>151.2</ele><time>2026-04-12T07:30:52.178Z</time></trkpt><trkpt lat="44.8827525" lon="9.7640817"><ele>151.0</ele><time>2026-04-12T07:30:54.179Z</time></trkpt><trkpt lat="44.8826716" lon="9.7641321"><ele>151.6</ele><time>2026-04-12T07:30:56.171Z</time></trkpt><trkpt lat="44.8825781" lon="9.7641793"><ele>152.2</ele><time>2026-04-12T07:30:58.168Z</time></trkpt><trkpt lat="44.8824822" lon="9.7642016"><ele>152.8</ele><time>2026-04-12T07:31:00.17Z</time></trkpt><trkpt lat="44.8823821" lon="9.7641968"><ele>153.4</ele><time>2026-04-12T07:31:02.177Z</time></trkpt><trkpt lat="44.8822848" lon="9.7641783"><ele>154.0</ele><time>2026-04-12T07:31:04.172Z</time></trkpt><trkpt lat="44.8821939" lon="9.7641513"><ele>154.0</ele><time>2026-04-12T07:31:06.173Z</time></trkpt><trkpt lat="44.8821075" lon="9.7641254"><ele>154.0</ele><time>2026-04-12T07:31:08.172Z</time></trkpt><trkpt lat="44.8820151" lon="9.7640965"><ele>154.0</ele><time>2026-04-12T07:31:10.171Z</time></trkpt><trkpt lat="44.8819251" lon="9.7640508"><ele>154.0</ele><time>2026-04-12T07:31:12.181Z</time></trkpt><trkpt lat="44.8818352" lon="9.7639953"><ele>154.0</ele><time>2026-04-12T07:31:14.179Z</time></trkpt><trkpt lat="44.8817428" lon="9.7639595"><ele>154.2</ele><time>2026-04-12T07:31:16.175Z</time></trkpt><trkpt lat="44.881661" lon="9.7639187"><ele>154.4</ele><time>2026-04-12T07:31:18.177Z</time></trkpt><trkpt lat="44.8815707" lon="9.7638793"><ele>154.6</ele><time>2026-04-12T07:31:20.18Z</time></trkpt><trkpt lat="44.8814831" lon="9.76384"><ele>154.8</ele><time>2026-04-12T07:31:22.175Z</time></trkpt><trkpt lat="44.8813923" lon="9.7637987"><ele>155.0</ele><time>2026-04-12T07:31:24.181Z</time></trkpt><trkpt lat="44.8813006" lon="9.7637505"><ele>155.0</ele><time>2026-04-12T07:31:26.171Z</time></trkpt><trkpt lat="44.8812105" lon="9.7637118"><ele>155.0</ele><time>2026-04-12T07:31:28.151Z</time></trkpt><trkpt lat="44.8811248" lon="9.7636738"><ele>155.0</ele><time>2026-04-12T07:31:30.181Z</time></trkpt><trkpt lat="44.8810344" lon="9.7636307"><ele>155.0</ele><time>2026-04-12T07:31:32.176Z</time></trkpt><trkpt lat="44.880956" lon="9.7635823"><ele>155.0</ele><time>2026-04-12T07:31:34.181Z</time></trkpt><trkpt lat="44.8808768" lon="9.7635131"><ele>155.8</ele><time>2026-04-12T07:31:36.177Z</time></trkpt><trkpt lat="44.8808066" lon="9.76344"><ele>156.6</ele><time>2026-04-12T07:31:38.177Z</time></trkpt><trkpt lat="44.8807389" lon="9.7633547"><ele>157.4</ele><time>2026-04-12T07:31:40.178Z</time></trkpt><trkpt lat="44.8806656" lon="9.7632748"><ele>158.2</ele><time>2026-04-12T07:31:42.176Z</time></trkpt><trkpt lat="44.8805866" lon="9.7631976"><ele>159.0</ele><time>2026-04-12T07:31:44.176Z</time></trkpt><trkpt lat="44.8805027" lon="9.7631353"><ele>159.0</ele><time>2026-04-12T07:31:46.176Z</time></trkpt><trkpt lat="44.8804114" lon="9.7630897"><ele>159.0</ele><time>2026-04-12T07:31:48.175Z</time></trkpt><trkpt lat="44.8803173" lon="9.7630584"><ele>159.0</ele><time>2026-04-12T07:31:50.177Z</time></trkpt><trkpt lat="44.8802222" lon="9.7630368"><ele>159.0</ele><time>2026-04-12T07:31:52.18Z</time></trkpt><trkpt lat="44.8801346" lon="9.7630088"><ele>159.0</ele><time>2026-04-12T07:31:54.177Z</time></trkpt><trkpt lat="44.8800402" lon="9.7629796"><ele>159.0</ele><time>2026-04-12T07:31:56.179Z</time></trkpt><trkpt lat="44.8799437" lon="9.7629524"><ele>159.0</ele><time>2026-04-12T07:31:58.159Z</time></trkpt><trkpt lat="44.8798591" lon="9.7629208"><ele>159.0</ele><time>2026-04-12T07:32:00.172Z</time></trkpt><trkpt lat="44.8797684" lon="9.7628879"><ele>159.0</ele><time>2026-04-12T07:32:02.174Z</time></trkpt><trkpt lat="44.8796738" lon="9.7628539"><ele>159.0</ele><time>2026-04-12T07:32:04.195Z</time></trkpt><trkpt lat="44.8795813" lon="9.7628237"><ele>159.0</ele><time>2026-04-12T07:32:06.166Z</time></trkpt><trkpt lat="44.8794964" lon="9.7627842"><ele>159.0</ele><time>2026-04-12T07:32:08.193Z</time></trkpt><trkpt lat="44.8794048" lon="9.7627568"><ele>159.0</ele><time>2026-04-12T07:32:10.178Z</time></trkpt><trkpt lat="44.879306" lon="9.7627238"><ele>159.0</ele><time>2026-04-12T07:32:12.186Z</time></trkpt><trkpt lat="44.8792188" lon="9.7626908"><ele>159.0</ele><time>2026-04-12T07:32:14.173Z</time></trkpt><trkpt lat="44.8791277" lon="9.7626594"><ele>159.2</ele><time>2026-04-12T07:32:16.171Z</time></trkpt><trkpt lat="44.8790374" lon="9.7626294"><ele>159.4</ele><time>2026-04-12T07:32:18.177Z</time></trkpt><trkpt lat="44.8789488" lon="9.7626015"><ele>159.6</ele><time>2026-04-12T07:32:20.175Z</time></trkpt><trkpt lat="44.8788571" lon="9.7625769"><ele>159.8</ele><time>2026-04-12T07:32:22.145Z</time></trkpt><trkpt lat="44.8787651" lon="9.7625443"><ele>160.0</ele><time>2026-04-12T07:32:24.144Z</time></trkpt><trkpt lat="44.8786714" lon="9.7625051"><ele>160.0</ele><time>2026-04-12T07:32:26.144Z</time></trkpt><trkpt lat="44.8785739" lon="9.7624766"><ele>160.0</ele><time>2026-04-12T07:32:28.156Z</time></trkpt><trkpt lat="44.8784842" lon="9.7624415"><ele>160.0</ele><time>2026-04-12T07:32:30.175Z</time></trkpt><trkpt lat="44.8783951" lon="9.7624066"><ele>160.0</ele><time>2026-04-12T07:32:32.175Z</time></trkpt><trkpt lat="44.8783032" lon="9.7623717"><ele>160.0</ele><time>2026-04-12T07:32:34.174Z</time></trkpt><trkpt lat="44.878216" lon="9.7623493"><ele>160.0</ele><time>2026-04-12T07:32:36.168Z</time></trkpt><trkpt lat="44.8781312" lon="9.7623239"><ele>160.0</ele><time>2026-04-12T07:32:38.186Z</time></trkpt><trkpt lat="44.8780556" lon="9.762272"><ele>160.0</ele><time>2026-04-12T07:32:40.181Z</time></trkpt><trkpt lat="44.8780072" lon="9.7621687"><ele>160.0</ele><time>2026-04-12T07:32:42.18Z</time></trkpt><trkpt lat="44.8779506" lon="9.7620619"><ele>160.0</ele><time>2026-04-12T07:32:44.147Z</time></trkpt><trkpt lat="44.8778678" lon="9.761978"><ele>160.0</ele><time>2026-04-12T07:32:46.173Z</time></trkpt><trkpt lat="44.8777812" lon="9.7619215"><ele>160.0</ele><time>2026-04-12T07:32:48.171Z</time></trkpt><trkpt lat="44.877689" lon="9.7618671"><ele>160.0</ele><time>2026-04-12T07:32:50.185Z</time></trkpt><trkpt lat="44.8776017" lon="9.7618098"><ele>160.0</ele><time>2026-04-12T07:32:52.179Z</time></trkpt><trkpt lat="44.8775114" lon="9.7617509"><ele>160.0</ele><time>2026-04-12T07:32:54.183Z</time></trkpt><trkpt lat="44.8774242" lon="9.7617075"><ele>160.2</ele><time>2026-04-12T07:32:56.187Z</time></trkpt><trkpt lat="44.8773413" lon="9.7616575"><ele>160.4</ele><time>2026-04-12T07:32:58.184Z</time></trkpt><trkpt lat="44.877251" lon="9.7616074"><ele>160.60000000000002</ele><time>2026-04-12T07:33:00.17Z</time></trkpt><trkpt lat="44.8771642" lon="9.7615485"><ele>160.8</ele><time>2026-04-12T07:33:02.164Z</time></trkpt><trkpt lat="44.877081" lon="9.7614965"><ele>161.0</ele><time>2026-04-12T07:33:04.178Z</time></trkpt><trkpt lat="44.8769899" lon="9.7614376"><ele>161.0</ele><time>2026-04-12T07:33:06.179Z</time></trkpt><trkpt lat="44.8769084" lon="9.7613874"><ele>161.0</ele><time>2026-04-12T07:33:08.176Z</time></trkpt><trkpt lat="44.876821" lon="9.7613328"><ele>161.0</ele><time>2026-04-12T07:33:10.177Z</time></trkpt><trkpt lat="44.8767389" lon="9.7612865"><ele>161.0</ele><time>2026-04-12T07:33:12.181Z</time></trkpt><trkpt lat="44.8766534" lon="9.7612349"><ele>161.0</ele><time>2026-04-12T07:33:14.165Z</time></trkpt><trkpt lat="44.8765729" lon="9.7611747"><ele>161.4</ele><time>2026-04-12T07:33:16.181Z</time></trkpt><trkpt lat="44.8764917" lon="9.7611107"><ele>161.8</ele><time>2026-04-12T07:33:18.172Z</time></trkpt><trkpt lat="44.8764151" lon="9.7610711"><ele>162.20000000000002</ele><time>2026-04-12T07:33:20.172Z</time></trkpt><trkpt lat="44.8763336" lon="9.7610142"><ele>162.60000000000002</ele><time>2026-04-12T07:33:22.185Z</time></trkpt><trkpt lat="44.8762495" lon="9.7609677"><ele>163.0</ele><time>2026-04-12T07:33:24.178Z</time></trkpt><trkpt lat="44.8761641" lon="9.7609066"><ele>163.4</ele><time>2026-04-12T07:33:26.19Z</time></trkpt><trkpt lat="44.876084" lon="9.7608353"><ele>163.8</ele><time>2026-04-12T07:33:28.186Z</time></trkpt><trkpt lat="44.876" lon="9.7607703"><ele>164.2</ele><time>2026-04-12T07:33:30.171Z</time></trkpt><trkpt lat="44.875919" lon="9.7607179"><ele>164.6</ele><time>2026-04-12T07:33:32.178Z</time></trkpt><trkpt lat="44.8758453" lon="9.7606697"><ele>165.0</ele><time>2026-04-12T07:33:34.188Z</time></trkpt><trkpt lat="44.8757731" lon="9.7605924"><ele>165.0</ele><time>2026-04-12T07:33:36.184Z</time></trkpt><trkpt lat="44.8757004" lon="9.7605381"><ele>165.0</ele><time>2026-04-12T07:33:38.174Z</time></trkpt><trkpt lat="44.8756137" lon="9.7604849"><ele>165.0</ele><time>2026-04-12T07:33:40.176Z</time></trkpt><trkpt lat="44.8755323" lon="9.7604261"><ele>165.0</ele><time>2026-04-12T07:33:42.164Z</time></trkpt><trkpt lat="44.8754617" lon="9.7603556"><ele>165.0</ele><time>2026-04-12T07:33:44.156Z</time></trkpt><trkpt lat="44.8753814" lon="9.7602874"><ele>165.0</ele><time>2026-04-12T07:33:46.156Z</time></trkpt><trkpt lat="44.8753023" lon="9.7602315"><ele>165.0</ele><time>2026-04-12T07:33:48.18Z</time></trkpt><trkpt lat="44.8752342" lon="9.7601868"><ele>165.0</ele><time>2026-04-12T07:33:50.182Z</time></trkpt><trkpt lat="44.8751598" lon="9.76014"><ele>165.0</ele><time>2026-04-12T07:33:52.18Z</time></trkpt><trkpt lat="44.875072" lon="9.7601056"><ele>165.0</ele><time>2026-04-12T07:33:54.187Z</time></trkpt><trkpt lat="44.8749832" lon="9.760088"><ele>165.0</ele><time>2026-04-12T07:33:56.179Z</time></trkpt><trkpt lat="44.8748888" lon="9.7600723"><ele>165.0</ele><time>2026-04-12T07:33:58.176Z</time></trkpt><trkpt lat="44.8748123" lon="9.7600647"><ele>165.5</ele><time>2026-04-12T07:34:00.19Z</time></trkpt><trkpt lat="44.874736" lon="9.7600429"><ele>166.0</ele><time>2026-04-12T07:34:02.179Z</time></trkpt><trkpt lat="44.8746542" lon="9.7600249"><ele>166.5</ele><time>2026-04-12T07:34:04.183Z</time></trkpt><trkpt lat="44.8745732" lon="9.7599916"><ele>167.0</ele><time>2026-04-12T07:34:06.178Z</time></trkpt><trkpt lat="44.8745007" lon="9.7599386"><ele>167.5</ele><time>2026-04-12T07:34:08.175Z</time></trkpt><trkpt lat="44.874426" lon="9.7599024"><ele>168.0</ele><time>2026-04-12T07:34:10.155Z</time></trkpt><trkpt lat="44.8743433" lon="9.7598771"><ele>168.0</ele><time>2026-04-12T07:34:13.171Z</time></trkpt><trkpt lat="44.8742822" lon="9.7598169"><ele>168.0</ele><time>2026-04-12T07:34:17.164Z</time></trkpt><trkpt lat="44.874224" lon="9.7597803"><ele>168.0</ele><time>2026-04-12T07:34:20.18Z</time></trkpt><trkpt lat="44.8741578" lon="9.7597428"><ele>168.0</ele><time>2026-04-12T07:34:24.17Z</time></trkpt><trkpt lat="44.8740811" lon="9.7596682"><ele>168.0</ele><time>2026-04-12T07:34:28.173Z</time></trkpt><trkpt lat="44.8740233" lon="9.7596063"><ele>168.0</ele><time>2026-04-12T07:34:30.185Z</time></trkpt><trkpt lat="44.8739681" lon="9.7595371"><ele>168.0</ele><time>2026-04-12T07:34:32.166Z</time></trkpt><trkpt lat="44.8738824" lon="9.7594804"><ele>167.83333333333334</ele><time>2026-04-12T07:34:34.187Z</time></trkpt><trkpt lat="44.8738059" lon="9.7594111"><ele>167.66666666666666</ele><time>2026-04-12T07:34:36.176Z</time></trkpt><trkpt lat="44.8737238" lon="9.7593355"><ele>167.5</ele><time>2026-04-12T07:34:38.17Z</time></trkpt><trkpt lat="44.8736543" lon="9.7592659"><ele>167.33333333333331</ele><time>2026-04-12T07:34:40.174Z</time></trkpt><trkpt lat="44.8735915" lon="9.7591846"><ele>167.16666666666666</ele><time>2026-04-12T07:34:42.165Z</time></trkpt><trkpt lat="44.8735301" lon="9.7591077"><ele>167.0</ele><time>2026-04-12T07:34:44.169Z</time></trkpt><trkpt lat="44.8734788" lon="9.7590288"><ele>167.33333333333331</ele><time>2026-04-12T07:34:46.155Z</time></trkpt><trkpt lat="44.8734202" lon="9.7589434"><ele>167.66666666666666</ele><time>2026-04-12T07:34:48.172Z</time></trkpt><trkpt lat="44.8733756" lon="9.7588491"><ele>168.0</ele><time>2026-04-12T07:34:50.162Z</time></trkpt><trkpt lat="44.8733463" lon="9.7587483"><ele>168.33333333333334</ele><time>2026-04-12T07:34:52.173Z</time></trkpt><trkpt lat="44.8733332" lon="9.7586464"><ele>168.66666666666669</ele><time>2026-04-12T07:34:54.171Z</time></trkpt><trkpt lat="44.8733194" lon="9.7585459"><ele>169.0</ele><time>2026-04-12T07:34:56.167Z</time></trkpt><trkpt lat="44.8733112" lon="9.7584468"><ele>169.0</ele><time>2026-04-12T07:34:58.177Z</time></trkpt><trkpt lat="44.8732697" lon="9.7583502"><ele>169.0</ele><time>2026-04-12T07:35:01.159Z</time></trkpt><trkpt lat="44.8731704" lon="9.7583709"><ele>169.0</ele><time>2026-04-12T07:35:04.179Z</time></trkpt><trkpt lat="44.873087" lon="9.7583688"><ele>169.0</ele><time>2026-04-12T07:35:06.168Z</time></trkpt><trkpt lat="44.8730335" lon="9.7582698"><ele>169.0</ele><time>2026-04-12T07:35:08.167Z</time></trkpt><trkpt lat="44.8730148" lon="9.7581507"><ele>169.0</ele><time>2026-04-12T07:35:10.171Z</time></trkpt><trkpt lat="44.8729955" lon="9.7580396"><ele>169.0</ele><time>2026-04-12T07:35:12.175Z</time></trkpt><trkpt lat="44.8729666" lon="9.7579212"><ele>169.0</ele><time>2026-04-12T07:35:14.159Z</time></trkpt><trkpt lat="44.8729269" lon="9.7578112"><ele>169.0</ele><time>2026-04-12T07:35:16.169Z</time></trkpt><trkpt lat="44.8728671" lon="9.7577244"><ele>169.0</ele><time>2026-04-12T07:35:18.17Z</time></trkpt><trkpt lat="44.8727927" lon="9.7576544"><ele>169.0</ele><time>2026-04-12T07:35:20.169Z</time></trkpt><trkpt lat="44.8727481" lon="9.7575564"><ele>169.0</ele><time>2026-04-12T07:35:22.167Z</time></trkpt><trkpt lat="44.8727583" lon="9.7574431"><ele>169.5</ele><time>2026-04-12T07:35:24.175Z</time></trkpt><trkpt lat="44.8727378" lon="9.7573278"><ele>170.0</ele><time>2026-04-12T07:35:26.168Z</time></trkpt><trkpt lat="44.8726811" lon="9.7572389"><ele>170.5</ele><time>2026-04-12T07:35:28.174Z</time></trkpt><trkpt lat="44.8726308" lon="9.7571453"><ele>171.0</ele><time>2026-04-12T07:35:30.178Z</time></trkpt><trkpt lat="44.8725778" lon="9.757057"><ele>171.5</ele><time>2026-04-12T07:35:32.182Z</time></trkpt><trkpt lat="44.8725202" lon="9.756965"><ele>172.0</ele><time>2026-04-12T07:35:34.17Z</time></trkpt><trkpt lat="44.8724728" lon="9.7568733"><ele>172.33333333333334</ele><time>2026-04-12T07:35:36.182Z</time></trkpt><trkpt lat="44.8724166" lon="9.7567871"><ele>172.66666666666669</ele><time>2026-04-12T07:35:38.177Z</time></trkpt><trkpt lat="44.8723603" lon="9.7566991"><ele>173.0</ele><time>2026-04-12T07:35:40.179Z</time></trkpt><trkpt lat="44.8723004" lon="9.7566198"><ele>173.33333333333334</ele><time>2026-04-12T07:35:42.178Z</time></trkpt><trkpt lat="44.8722403" lon="9.7565374"><ele>173.66666666666666</ele><time>2026-04-12T07:35:44.181Z</time></trkpt><trkpt lat="44.8721749" lon="9.7564656"><ele>174.0</ele><time>2026-04-12T07:35:46.167Z</time></trkpt><trkpt lat="44.872111" lon="9.756409"><ele>174.0</ele><time>2026-04-12T07:35:48.177Z</time></trkpt><trkpt lat="44.8720395" lon="9.7563447"><ele>174.0</ele><time>2026-04-12T07:35:50.164Z</time></trkpt><trkpt lat="44.8719723" lon="9.7562691"><ele>174.0</ele><time>2026-04-12T07:35:52.179Z</time></trkpt><trkpt lat="44.8719126" lon="9.7561914"><ele>174.0</ele><time>2026-04-12T07:35:54.178Z</time></trkpt><trkpt lat="44.8718488" lon="9.7561241"><ele>174.0</ele><time>2026-04-12T07:35:56.187Z</time></trkpt><trkpt lat="44.8717897" lon="9.7560613"><ele>174.0</ele><time>2026-04-12T07:35:58.178Z</time></trkpt><trkpt lat="44.8717231" lon="9.756006"><ele>174.5</ele><time>2026-04-12T07:36:00.178Z</time></trkpt><trkpt lat="44.8716553" lon="9.7559546"><ele>175.0</ele><time>2026-04-12T07:36:02.176Z</time></trkpt><trkpt lat="44.8715871" lon="9.7558901"><ele>175.5</ele><time>2026-04-12T07:36:04.181Z</time></trkpt><trkpt lat="44.8715252" lon="9.7558295"><ele>176.0</ele><time>2026-04-12T07:36:06.197Z</time></trkpt><trkpt lat="44.8714665" lon="9.7557694"><ele>176.5</ele><time>2026-04-12T07:36:08.178Z</time></trkpt><trkpt lat="44.8714007" lon="9.7557046"><ele>177.0</ele><time>2026-04-12T07:36:10.183Z</time></trkpt><trkpt lat="44.8713393" lon="9.7556502"><ele>177.0</ele><time>2026-04-12T07:36:12.166Z</time></trkpt><trkpt lat="44.8712814" lon="9.7555934"><ele>177.0</ele><time>2026-04-12T07:36:14.177Z</time></trkpt><trkpt lat="44.8712096" lon="9.7555341"><ele>177.0</ele><time>2026-04-12T07:36:16.186Z</time></trkpt><trkpt lat="44.8711411" lon="9.7554716"><ele>177.0</ele><time>2026-04-12T07:36:18.152Z</time></trkpt><trkpt lat="44.8710772" lon="9.7554179"><ele>177.0</ele><time>2026-04-12T07:36:20.167Z</time></trkpt><trkpt lat="44.8710092" lon="9.7553508"><ele>177.0</ele><time>2026-04-12T07:36:22.17Z</time></trkpt><trkpt lat="44.8709453" lon="9.7552761"><ele>177.0</ele><time>2026-04-12T07:36:24.169Z</time></trkpt><trkpt lat="44.8708885" lon="9.7552143"><ele>177.0</ele><time>2026-04-12T07:36:26.18Z</time></trkpt><trkpt lat="44.8708342" lon="9.7551486"><ele>177.0</ele><time>2026-04-12T07:36:28.176Z</time></trkpt><trkpt lat="44.8707755" lon="9.7550887"><ele>177.0</ele><time>2026-04-12T07:36:30.182Z</time></trkpt><trkpt lat="44.8707187" lon="9.7550176"><ele>177.0</ele><time>2026-04-12T07:36:32.176Z</time></trkpt><trkpt lat="44.8706708" lon="9.7549364"><ele>177.0</ele><time>2026-04-12T07:36:34.18Z</time></trkpt><trkpt lat="44.8706232" lon="9.754825"><ele>177.0</ele><time>2026-04-12T07:36:36.166Z</time></trkpt><trkpt lat="44.8705555" lon="9.754739"><ele>177.0</ele><time>2026-04-12T07:36:38.16Z</time></trkpt><trkpt lat="44.8704946" lon="9.7546561"><ele>177.0</ele><time>2026-04-12T07:36:40.181Z</time></trkpt><trkpt lat="44.8704295" lon="9.7545823"><ele>177.0</ele><time>2026-04-12T07:36:42.176Z</time></trkpt><trkpt lat="44.8703598" lon="9.7545206"><ele>177.0</ele><time>2026-04-12T07:36:44.171Z</time></trkpt><trkpt lat="44.8702955" lon="9.7544745"><ele>177.0</ele><time>2026-04-12T07:36:46.175Z</time></trkpt><trkpt lat="44.8702142" lon="9.7544474"><ele>177.0</ele><time>2026-04-12T07:36:48.169Z</time></trkpt><trkpt lat="44.8701385" lon="9.7544408"><ele>177.0</ele><time>2026-04-12T07:36:50.169Z</time></trkpt><trkpt lat="44.870053" lon="9.7544407"><ele>177.0</ele><time>2026-04-12T07:36:52.175Z</time></trkpt><trkpt lat="44.8699729" lon="9.7544567"><ele>177.0</ele><time>2026-04-12T07:36:54.186Z</time></trkpt><trkpt lat="44.8699036" lon="9.7544777"><ele>177.0</ele><time>2026-04-12T07:36:56.169Z</time></trkpt><trkpt lat="44.8698352" lon="9.7545074"><ele>177.0</ele><time>2026-04-12T07:36:58.175Z</time></trkpt><trkpt lat="44.8697682" lon="9.7545344"><ele>177.0</ele><time>2026-04-12T07:37:00.174Z</time></trkpt><trkpt lat="44.8696918" lon="9.7545736"><ele>177.0</ele><time>2026-04-12T07:37:02.175Z</time></trkpt><trkpt lat="44.8696058" lon="9.7546146"><ele>177.0</ele><time>2026-04-12T07:37:04.186Z</time></trkpt><trkpt lat="44.8695173" lon="9.7546718"><ele>177.0</ele><time>2026-04-12T07:37:06.17Z</time></trkpt><trkpt lat="44.8694353" lon="9.7546953"><ele>177.0</ele><time>2026-04-12T07:37:08.168Z</time></trkpt><trkpt lat="44.8693518" lon="9.7547163"><ele>177.0</ele><time>2026-04-12T07:37:10.17Z</time></trkpt><trkpt lat="44.8692683" lon="9.7547394"><ele>177.16666666666666</ele><time>2026-04-12T07:37:12.169Z</time></trkpt><trkpt lat="44.8691852" lon="9.7547514"><ele>177.33333333333334</ele><time>2026-04-12T07:37:14.161Z</time></trkpt><trkpt lat="44.8691036" lon="9.7547656"><ele>177.5</ele><time>2026-04-12T07:37:16.162Z</time></trkpt><trkpt lat="44.8690157" lon="9.754766"><ele>177.66666666666669</ele><time>2026-04-12T07:37:18.155Z</time></trkpt><trkpt lat="44.8689389" lon="9.7547485"><ele>177.83333333333334</ele><time>2026-04-12T07:37:20.174Z</time></trkpt><trkpt lat="44.8688549" lon="9.7547275"><ele>178.0</ele><time>2026-04-12T07:37:22.17Z</time></trkpt><trkpt lat="44.8687758" lon="9.7547127"><ele>178.0</ele><time>2026-04-12T07:37:24.174Z</time></trkpt><trkpt lat="44.8686891" lon="9.7546936"><ele>178.0</ele><time>2026-04-12T07:37:26.174Z</time></trkpt><trkpt lat="44.8686052" lon="9.7546834"><ele>178.0</ele><time>2026-04-12T07:37:28.175Z</time></trkpt><trkpt lat="44.8685298" lon="9.7546692"><ele>178.0</ele><time>2026-04-12T07:37:30.174Z</time></trkpt><trkpt lat="44.8684442" lon="9.7546573"><ele>178.0</ele><time>2026-04-12T07:37:32.165Z</time></trkpt><trkpt lat="44.8683704" lon="9.7546304"><ele>178.0</ele><time>2026-04-12T07:37:34.167Z</time></trkpt><trkpt lat="44.8682968" lon="9.7546013"><ele>178.57142857142856</ele><time>2026-04-12T07:37:36.183Z</time></trkpt><trkpt lat="44.8682296" lon="9.7545664"><ele>179.14285714285714</ele><time>2026-04-12T07:37:38.165Z</time></trkpt><trkpt lat="44.8681591" lon="9.7545225"><ele>179.71428571428572</ele><time>2026-04-12T07:37:40.17Z</time></trkpt><trkpt lat="44.8680957" lon="9.7544949"><ele>180.28571428571428</ele><time>2026-04-12T07:37:42.166Z</time></trkpt><trkpt lat="44.8680322" lon="9.754501"><ele>180.85714285714286</ele><time>2026-04-12T07:37:44.167Z</time></trkpt><trkpt lat="44.8679749" lon="9.7545532"><ele>181.42857142857142</ele><time>2026-04-12T07:38:50.153Z</time></trkpt><trkpt lat="44.867923" lon="9.7546186"><ele>182.0</ele><time>2026-04-12T07:38:59.166Z</time></trkpt><trkpt lat="44.867853" lon="9.7546482"><ele>182.0</ele><time>2026-04-12T07:39:02.164Z</time></trkpt><trkpt lat="44.867757" lon="9.7546264"><ele>182.0</ele><time>2026-04-12T07:39:05.168Z</time></trkpt><trkpt lat="44.8676969" lon="9.7545546"><ele>182.0</ele><time>2026-04-12T07:39:07.17Z</time></trkpt><trkpt lat="44.8676281" lon="9.7544881"><ele>182.0</ele><time>2026-04-12T07:39:09.168Z</time></trkpt><trkpt lat="44.8675453" lon="9.7544604"><ele>182.0</ele><time>2026-04-12T07:39:11.174Z</time></trkpt><trkpt lat="44.867456" lon="9.7544769"><ele>182.0</ele><time>2026-04-12T07:39:13.16Z</time></trkpt><trkpt lat="44.8673714" lon="9.7544845"><ele>182.33333333333331</ele><time>2026-04-12T07:39:15.175Z</time></trkpt><trkpt lat="44.8672871" lon="9.7544826"><ele>182.66666666666666</ele><time>2026-04-12T07:39:17.166Z</time></trkpt><trkpt lat="44.8672033" lon="9.7544598"><ele>183.0</ele><time>2026-04-12T07:39:19.174Z</time></trkpt><trkpt lat="44.8671287" lon="9.7544329"><ele>183.33333333333334</ele><time>2026-04-12T07:39:21.169Z</time></trkpt><trkpt lat="44.8670534" lon="9.754413"><ele>183.66666666666669</ele><time>2026-04-12T07:39:23.176Z</time></trkpt><trkpt lat="44.8669766" lon="9.7544017"><ele>184.0</ele><time>2026-04-12T07:39:25.166Z</time></trkpt><trkpt lat="44.8669002" lon="9.7543835"><ele>184.0</ele><time>2026-04-12T07:39:27.181Z</time></trkpt><trkpt lat="44.8668238" lon="9.7543757"><ele>184.0</ele><time>2026-04-12T07:39:29.171Z</time></trkpt><trkpt lat="44.8667422" lon="9.7543968"><ele>184.0</ele><time>2026-04-12T07:39:31.164Z</time></trkpt><trkpt lat="44.8666779" lon="9.7544309"><ele>184.0</ele><time>2026-04-12T07:39:33.163Z</time></trkpt><trkpt lat="44.8666081" lon="9.7544614"><ele>184.0</ele><time>2026-04-12T07:39:35.178Z</time></trkpt><trkpt lat="44.8665376" lon="9.7544494"><ele>184.0</ele><time>2026-04-12T07:39:37.16Z</time></trkpt><trkpt lat="44.866472" lon="9.754394"><ele>184.0</ele><time>2026-04-12T07:39:39.169Z</time></trkpt><trkpt lat="44.8664114" lon="9.7542951"><ele>184.0</ele><time>2026-04-12T07:39:41.138Z</time></trkpt><trkpt lat="44.8663811" lon="9.7541705"><ele>184.0</ele><time>2026-04-12T07:39:43.141Z</time></trkpt><trkpt lat="44.8663511" lon="9.7540595"><ele>184.0</ele><time>2026-04-12T07:39:45.171Z</time></trkpt><trkpt lat="44.8663246" lon="9.7539525"><ele>184.0</ele><time>2026-04-12T07:39:47.172Z</time></trkpt><trkpt lat="44.8663055" lon="9.7538507"><ele>184.0</ele><time>2026-04-12T07:39:49.179Z</time></trkpt><trkpt lat="44.8662893" lon="9.753739"><ele>184.0</ele><time>2026-04-12T07:39:51.169Z</time></trkpt><trkpt lat="44.8662729" lon="9.7536331"><ele>183.83333333333334</ele><time>2026-04-12T07:39:53.165Z</time></trkpt><trkpt lat="44.8662387" lon="9.753526"><ele>183.66666666666669</ele><time>2026-04-12T07:39:55.175Z</time></trkpt><trkpt lat="44.8662102" lon="9.7534131"><ele>183.5</ele><time>2026-04-12T07:39:57.175Z</time></trkpt><trkpt lat="44.8661985" lon="9.7533158"><ele>183.33333333333334</ele><time>2026-04-12T07:39:59.163Z</time></trkpt><trkpt lat="44.8661881" lon="9.7532047"><ele>183.16666666666666</ele><time>2026-04-12T07:40:01.179Z</time></trkpt><trkpt lat="44.8661697" lon="9.7530893"><ele>183.0</ele><time>2026-04-12T07:40:03.173Z</time></trkpt><trkpt lat="44.8661366" lon="9.7529667"><ele>183.0</ele><time>2026-04-12T07:40:05.162Z</time></trkpt><trkpt lat="44.866098" lon="9.7528587"><ele>183.0</ele><time>2026-04-12T07:40:07.176Z</time></trkpt><trkpt lat="44.8660593" lon="9.7527636"><ele>183.0</ele><time>2026-04-12T07:40:09.171Z</time></trkpt><trkpt lat="44.8660018" lon="9.7526785"><ele>183.0</ele><time>2026-04-12T07:40:11.174Z</time></trkpt><trkpt lat="44.8659382" lon="9.7526166"><ele>183.0</ele><time>2026-04-12T07:40:13.172Z</time></trkpt><trkpt lat="44.8658628" lon="9.7525545"><ele>183.0</ele><time>2026-04-12T07:40:15.149Z</time></trkpt><trkpt lat="44.8657943" lon="9.7524854"><ele>183.0</ele><time>2026-04-12T07:40:17.179Z</time></trkpt><trkpt lat="44.8657266" lon="9.7524127"><ele>183.0</ele><time>2026-04-12T07:40:19.175Z</time></trkpt><trkpt lat="44.8656625" lon="9.7523426"><ele>183.0</ele><time>2026-04-12T07:40:21.176Z</time></trkpt><trkpt lat="44.8656009" lon="9.752268"><ele>183.0</ele><time>2026-04-12T07:40:23.174Z</time></trkpt><trkpt lat="44.8655373" lon="9.7521922"><ele>183.0</ele><time>2026-04-12T07:40:25.172Z</time></trkpt><trkpt lat="44.8654897" lon="9.7521125"><ele>183.0</ele><time>2026-04-12T07:40:27.18Z</time></trkpt><trkpt lat="44.865428" lon="9.7520381"><ele>183.0</ele><time>2026-04-12T07:40:29.173Z</time></trkpt><trkpt lat="44.8653614" lon="9.7519627"><ele>183.0</ele><time>2026-04-12T07:40:31.182Z</time></trkpt><trkpt lat="44.8652985" lon="9.7518858"><ele>183.0</ele><time>2026-04-12T07:40:33.171Z</time></trkpt><trkpt lat="44.865221" lon="9.7518286"><ele>183.0</ele><time>2026-04-12T07:40:35.168Z</time></trkpt><trkpt lat="44.8651491" lon="9.7517881"><ele>183.0</ele><time>2026-04-12T07:40:37.175Z</time></trkpt><trkpt lat="44.8650741" lon="9.7517869"><ele>183.0</ele><time>2026-04-12T07:40:39.173Z</time></trkpt><trkpt lat="44.8650006" lon="9.7518267"><ele>183.33333333333334</ele><time>2026-04-12T07:40:41.165Z</time></trkpt><trkpt lat="44.8649313" lon="9.7518812"><ele>183.66666666666666</ele><time>2026-04-12T07:40:43.179Z</time></trkpt><trkpt lat="44.8648586" lon="9.7519292"><ele>184.0</ele><time>2026-04-12T07:40:45.177Z</time></trkpt><trkpt lat="44.8647901" lon="9.7519838"><ele>184.33333333333331</ele><time>2026-04-12T07:40:47.177Z</time></trkpt><trkpt lat="44.8647129" lon="9.7520364"><ele>184.66666666666666</ele><time>2026-04-12T07:40:49.17Z</time></trkpt><trkpt lat="44.8646388" lon="9.7520959"><ele>185.0</ele><time>2026-04-12T07:40:51.171Z</time></trkpt><trkpt lat="44.8645748" lon="9.7521507"><ele>184.99999999999997</ele><time>2026-04-12T07:40:53.181Z</time></trkpt><trkpt lat="44.864508" lon="9.7522071"><ele>185.0</ele><time>2026-04-12T07:40:55.175Z</time></trkpt><trkpt lat="44.8644524" lon="9.7522533"><ele>185.0</ele><time>2026-04-12T07:40:57.178Z</time></trkpt><trkpt lat="44.8643992" lon="9.7523042"><ele>185.0</ele><time>2026-04-12T07:40:59.173Z</time></trkpt><trkpt lat="44.8643395" lon="9.7523647"><ele>185.0</ele><time>2026-04-12T07:41:01.162Z</time></trkpt><trkpt lat="44.8642715" lon="9.7524245"><ele>184.99999999999997</ele><time>2026-04-12T07:41:03.169Z</time></trkpt><trkpt lat="44.8641991" lon="9.7524617"><ele>185.0</ele><time>2026-04-12T07:41:05.168Z</time></trkpt><trkpt lat="44.8641344" lon="9.7525135"><ele>185.16666666666666</ele><time>2026-04-12T07:41:07.179Z</time></trkpt><trkpt lat="44.8640672" lon="9.7525545"><ele>185.33333333333331</ele><time>2026-04-12T07:41:09.178Z</time></trkpt><trkpt lat="44.8639957" lon="9.7526172"><ele>185.5</ele><time>2026-04-12T07:41:11.176Z</time></trkpt><trkpt lat="44.8639208" lon="9.7526646"><ele>185.66666666666666</ele><time>2026-04-12T07:41:13.165Z</time></trkpt><trkpt lat="44.8638528" lon="9.7526987"><ele>185.83333333333334</ele><time>2026-04-12T07:41:15.167Z</time></trkpt><trkpt lat="44.8637745" lon="9.7527175"><ele>186.0</ele><time>2026-04-12T07:41:17.171Z</time></trkpt><trkpt lat="44.8636913" lon="9.7527281"><ele>187.16666666666666</ele><time>2026-04-12T07:41:19.146Z</time></trkpt><trkpt lat="44.8636137" lon="9.7527467"><ele>188.33333333333331</ele><time>2026-04-12T07:41:21.168Z</time></trkpt><trkpt lat="44.8635339" lon="9.7527579"><ele>189.5</ele><time>2026-04-12T07:41:23.179Z</time></trkpt><trkpt lat="44.8634567" lon="9.7527471"><ele>190.66666666666666</ele><time>2026-04-12T07:41:25.174Z</time></trkpt><trkpt lat="44.8633797" lon="9.7527069"><ele>191.83333333333331</ele><time>2026-04-12T07:41:27.168Z</time></trkpt><trkpt lat="44.8633078" lon="9.7526323"><ele>193.0</ele><time>2026-04-12T07:41:29.161Z</time></trkpt><trkpt lat="44.8632398" lon="9.7525499"><ele>192.99999999999997</ele><time>2026-04-12T07:41:31.175Z</time></trkpt><trkpt lat="44.8631903" lon="9.7524651"><ele>193.0</ele><time>2026-04-12T07:41:33.166Z</time></trkpt><trkpt lat="44.8631399" lon="9.7523857"><ele>193.0</ele><time>2026-04-12T07:41:35.17Z</time></trkpt><trkpt lat="44.8630932" lon="9.7522975"><ele>193.0</ele><time>2026-04-12T07:41:37.169Z</time></trkpt><trkpt lat="44.8630434" lon="9.7522025"><ele>192.99999999999997</ele><time>2026-04-12T07:41:39.17Z</time></trkpt><trkpt lat="44.8630026" lon="9.7521187"><ele>193.0</ele><time>2026-04-12T07:41:41.175Z</time></trkpt><trkpt lat="44.8629722" lon="9.7520345"><ele>192.99999999999997</ele><time>2026-04-12T07:41:43.17Z</time></trkpt><trkpt lat="44.8629409" lon="9.7519435"><ele>193.0</ele><time>2026-04-12T07:41:45.174Z</time></trkpt><trkpt lat="44.8629088" lon="9.751825"><ele>193.0</ele><time>2026-04-12T07:41:47.176Z</time></trkpt><trkpt lat="44.8628729" lon="9.7517114"><ele>193.0</ele><time>2026-04-12T07:41:49.177Z</time></trkpt><trkpt lat="44.862841" lon="9.7516128"><ele>192.99999999999997</ele><time>2026-04-12T07:41:51.177Z</time></trkpt><trkpt lat="44.8627945" lon="9.7515383"><ele>193.0</ele><time>2026-04-12T07:41:53.167Z</time></trkpt><trkpt lat="44.8627461" lon="9.7514518"><ele>192.99999999999997</ele><time>2026-04-12T07:41:55.17Z</time></trkpt><trkpt lat="44.8626981" lon="9.7513746"><ele>193.0</ele><time>2026-04-12T07:41:57.165Z</time></trkpt><trkpt lat="44.8626297" lon="9.751296"><ele>193.0</ele><time>2026-04-12T07:41:59.174Z</time></trkpt><trkpt lat="44.862557" lon="9.7512378"><ele>193.0</ele><time>2026-04-12T07:42:01.172Z</time></trkpt><trkpt lat="44.8624791" lon="9.7511981"><ele>192.99999999999997</ele><time>2026-04-12T07:42:03.173Z</time></trkpt><trkpt lat="44.8623969" lon="9.7511566"><ele>193.0</ele><time>2026-04-12T07:42:05.171Z</time></trkpt><trkpt lat="44.8623113" lon="9.7511114"><ele>192.99999999999997</ele><time>2026-04-12T07:42:07.173Z</time></trkpt><trkpt lat="44.8622249" lon="9.7510866"><ele>193.0</ele><time>2026-04-12T07:42:09.189Z</time></trkpt><trkpt lat="44.8621494" lon="9.7510741"><ele>193.0</ele><time>2026-04-12T07:42:11.172Z</time></trkpt><trkpt lat="44.862078" lon="9.7510421"><ele>193.0</ele><time>2026-04-12T07:42:13.171Z</time></trkpt><trkpt lat="44.8620071" lon="9.7510114"><ele>192.99999999999997</ele><time>2026-04-12T07:42:15.155Z</time></trkpt><trkpt lat="44.8619284" lon="9.7509922"><ele>193.0</ele><time>2026-04-12T07:42:17.155Z</time></trkpt><trkpt lat="44.8618521" lon="9.75097"><ele>192.83333333333331</ele><time>2026-04-12T07:42:19.173Z</time></trkpt><trkpt lat="44.8617683" lon="9.7509586"><ele>192.66666666666666</ele><time>2026-04-12T07:42:21.171Z</time></trkpt><trkpt lat="44.8616928" lon="9.7509355"><ele>192.5</ele><time>2026-04-12T07:42:23.174Z</time></trkpt><trkpt lat="44.861608" lon="9.7509165"><ele>192.33333333333331</ele><time>2026-04-12T07:42:25.17Z</time></trkpt><trkpt lat="44.861531" lon="9.7508886"><ele>192.16666666666666</ele><time>2026-04-12T07:42:27.168Z</time></trkpt><trkpt lat="44.8614585" lon="9.7508607"><ele>192.0</ele><time>2026-04-12T07:42:29.169Z</time></trkpt><trkpt lat="44.8613836" lon="9.7508093"><ele>192.0</ele><time>2026-04-12T07:42:31.163Z</time></trkpt><trkpt lat="44.8613148" lon="9.7507616"><ele>192.0</ele><time>2026-04-12T07:42:33.169Z</time></trkpt><trkpt lat="44.8612507" lon="9.7507016"><ele>192.0</ele><time>2026-04-12T07:42:35.176Z</time></trkpt><trkpt lat="44.8611893" lon="9.7506361"><ele>192.0</ele><time>2026-04-12T07:42:37.168Z</time></trkpt><trkpt lat="44.8611275" lon="9.7505633"><ele>192.0</ele><time>2026-04-12T07:42:39.162Z</time></trkpt><trkpt lat="44.8610547" lon="9.7504836"><ele>192.0</ele><time>2026-04-12T07:42:41.167Z</time></trkpt><trkpt lat="44.8609835" lon="9.7504225"><ele>192.33333333333334</ele><time>2026-04-12T07:42:43.171Z</time></trkpt><trkpt lat="44.8609227" lon="9.7503609"><ele>192.66666666666669</ele><time>2026-04-12T07:42:45.165Z</time></trkpt><trkpt lat="44.8608601" lon="9.750309"><ele>193.0</ele><time>2026-04-12T07:42:47.173Z</time></trkpt><trkpt lat="44.860797" lon="9.750245"><ele>193.33333333333334</ele><time>2026-04-12T07:42:49.15Z</time></trkpt><trkpt lat="44.8607439" lon="9.7501682"><ele>193.66666666666669</ele><time>2026-04-12T07:42:51.167Z</time></trkpt><trkpt lat="44.8606878" lon="9.7500936"><ele>194.0</ele><time>2026-04-12T07:42:53.163Z</time></trkpt><trkpt lat="44.8606298" lon="9.7500146"><ele>194.00000000000003</ele><time>2026-04-12T07:42:55.16Z</time></trkpt><trkpt lat="44.8605769" lon="9.7499336"><ele>194.0</ele><time>2026-04-12T07:42:57.169Z</time></trkpt><trkpt lat="44.8605293" lon="9.7498507"><ele>194.0</ele><time>2026-04-12T07:42:59.169Z</time></trkpt><trkpt lat="44.860482" lon="9.7497721"><ele>194.0</ele><time>2026-04-12T07:43:01.174Z</time></trkpt><trkpt lat="44.8604343" lon="9.7496636"><ele>194.00000000000003</ele><time>2026-04-12T07:43:03.167Z</time></trkpt><trkpt lat="44.8603869" lon="9.7495706"><ele>194.0</ele><time>2026-04-12T07:43:05.169Z</time></trkpt><trkpt lat="44.8603399" lon="9.7494763"><ele>194.0</ele><time>2026-04-12T07:43:07.178Z</time></trkpt><trkpt lat="44.8603071" lon="9.7493884"><ele>194.0</ele><time>2026-04-12T07:43:09.171Z</time></trkpt><trkpt lat="44.8602787" lon="9.7493079"><ele>194.0</ele><time>2026-04-12T07:43:11.168Z</time></trkpt><trkpt lat="44.8602498" lon="9.7491993"><ele>194.0</ele><time>2026-04-12T07:43:13.169Z</time></trkpt><trkpt lat="44.8602209" lon="9.7491105"><ele>194.0</ele><time>2026-04-12T07:43:15.179Z</time></trkpt><trkpt lat="44.8601967" lon="9.7490078"><ele>194.0</ele><time>2026-04-12T07:43:17.154Z</time></trkpt><trkpt lat="44.8601776" lon="9.7488987"><ele>194.0</ele><time>2026-04-12T07:43:19.164Z</time></trkpt><trkpt lat="44.8601457" lon="9.7488001"><ele>194.14285714285714</ele><time>2026-04-12T07:43:21.179Z</time></trkpt><trkpt lat="44.8601262" lon="9.7487112"><ele>194.2857142857143</ele><time>2026-04-12T07:43:23.171Z</time></trkpt><trkpt lat="44.8601384" lon="9.7485917"><ele>194.42857142857144</ele><time>2026-04-12T07:43:26.168Z</time></trkpt><trkpt lat="44.8601301" lon="9.7484962"><ele>194.57142857142856</ele><time>2026-04-12T07:43:28.176Z</time></trkpt><trkpt lat="44.8601279" lon="9.7483951"><ele>194.71428571428572</ele><time>2026-04-12T07:43:30.169Z</time></trkpt><trkpt lat="44.8601187" lon="9.7482919"><ele>194.85714285714286</ele><time>2026-04-12T07:43:32.172Z</time></trkpt><trkpt lat="44.8601233" lon="9.7481824"><ele>195.0</ele><time>2026-04-12T07:43:34.164Z</time></trkpt><trkpt lat="44.8601325" lon="9.748081"><ele>195.33333333333334</ele><time>2026-04-12T07:43:36.164Z</time></trkpt><trkpt lat="44.8601452" lon="9.7479821"><ele>195.66666666666669</ele><time>2026-04-12T07:43:38.168Z</time></trkpt><trkpt lat="44.8601336" lon="9.7478671"><ele>196.0</ele><time>2026-04-12T07:43:40.17Z</time></trkpt><trkpt lat="44.860126" lon="9.7477537"><ele>196.33333333333334</ele><time>2026-04-12T07:43:42.141Z</time></trkpt><trkpt lat="44.8601168" lon="9.7476467"><ele>196.66666666666669</ele><time>2026-04-12T07:43:44.172Z</time></trkpt><trkpt lat="44.8601037" lon="9.7475346"><ele>197.0</ele><time>2026-04-12T07:43:46.177Z</time></trkpt><trkpt lat="44.8600874" lon="9.7474332"><ele>197.0</ele><time>2026-04-12T07:43:48.171Z</time></trkpt><trkpt lat="44.8600531" lon="9.7473527"><ele>197.0</ele><time>2026-04-12T07:43:50.168Z</time></trkpt><trkpt lat="44.8599819" lon="9.7473378"><ele>197.0</ele><time>2026-04-12T07:43:52.152Z</time></trkpt><trkpt lat="44.8599002" lon="9.7473577"><ele>197.0</ele><time>2026-04-12T07:43:54.168Z</time></trkpt><trkpt lat="44.859824" lon="9.747342"><ele>197.0</ele><time>2026-04-12T07:43:56.182Z</time></trkpt><trkpt lat="44.8597483" lon="9.7473277"><ele>197.0</ele><time>2026-04-12T07:43:58.165Z</time></trkpt><trkpt lat="44.8596771" lon="9.7473217"><ele>197.0</ele><time>2026-04-12T07:44:00.17Z</time></trkpt><trkpt lat="44.8596001" lon="9.74734"><ele>197.00000000000003</ele><time>2026-04-12T07:44:02.161Z</time></trkpt><trkpt lat="44.8595199" lon="9.7473582"><ele>197.0</ele><time>2026-04-12T07:44:04.172Z</time></trkpt><trkpt lat="44.8594278" lon="9.7473751"><ele>197.0</ele><time>2026-04-12T07:44:06.164Z</time></trkpt><trkpt lat="44.8593575" lon="9.74736"><ele>197.0</ele><time>2026-04-12T07:44:08.17Z</time></trkpt><trkpt lat="44.8592795" lon="9.7472923"><ele>197.00000000000003</ele><time>2026-04-12T07:44:11.181Z</time></trkpt><trkpt lat="44.859218" lon="9.7472358"><ele>197.0</ele><time>2026-04-12T07:44:13.168Z</time></trkpt><trkpt lat="44.8591461" lon="9.7472058"><ele>197.66666666666669</ele><time>2026-04-12T07:44:15.172Z</time></trkpt><trkpt lat="44.8590839" lon="9.7472429"><ele>198.33333333333334</ele><time>2026-04-12T07:44:17.173Z</time></trkpt><trkpt lat="44.8590211" lon="9.7472719"><ele>199.0</ele><time>2026-04-12T07:44:19.157Z</time></trkpt><trkpt lat="44.8589366" lon="9.7472696"><ele>199.66666666666669</ele><time>2026-04-12T07:44:21.17Z</time></trkpt><trkpt lat="44.8588648" lon="9.7472407"><ele>200.33333333333334</ele><time>2026-04-12T07:44:23.165Z</time></trkpt><trkpt lat="44.8587891" lon="9.747216"><ele>201.0</ele><time>2026-04-12T07:44:25.182Z</time></trkpt><trkpt lat="44.8587121" lon="9.7471791"><ele>201.0</ele><time>2026-04-12T07:44:27.169Z</time></trkpt><trkpt lat="44.8586477" lon="9.7471275"><ele>201.0</ele><time>2026-04-12T07:44:29.175Z</time></trkpt><trkpt lat="44.8585831" lon="9.747067"><ele>201.0</ele><time>2026-04-12T07:44:31.147Z</time></trkpt><trkpt lat="44.8585246" lon="9.7470073"><ele>201.0</ele><time>2026-04-12T07:44:33.152Z</time></trkpt><trkpt lat="44.858472" lon="9.7469245"><ele>201.0</ele><time>2026-04-12T07:44:35.172Z</time></trkpt><trkpt lat="44.8584165" lon="9.7468492"><ele>201.0</ele><time>2026-04-12T07:44:37.164Z</time></trkpt><trkpt lat="44.8583616" lon="9.7467803"><ele>201.0</ele><time>2026-04-12T07:44:39.186Z</time></trkpt><trkpt lat="44.8582876" lon="9.7467009"><ele>201.0</ele><time>2026-04-12T07:44:41.186Z</time></trkpt><trkpt lat="44.8582199" lon="9.746641"><ele>201.0</ele><time>2026-04-12T07:44:43.155Z</time></trkpt><trkpt lat="44.8581664" lon="9.7465679"><ele>201.0</ele><time>2026-04-12T07:44:45.169Z</time></trkpt><trkpt lat="44.8581052" lon="9.7464846"><ele>201.0</ele><time>2026-04-12T07:44:47.176Z</time></trkpt><trkpt lat="44.8580544" lon="9.7464125"><ele>201.0</ele><time>2026-04-12T07:44:49.171Z</time></trkpt><trkpt lat="44.8579937" lon="9.7463382"><ele>201.0</ele><time>2026-04-12T07:44:51.17Z</time></trkpt><trkpt lat="44.8579461" lon="9.7462615"><ele>201.0</ele><time>2026-04-12T07:44:53.172Z</time></trkpt><trkpt lat="44.8578899" lon="9.7461751"><ele>201.0</ele><time>2026-04-12T07:44:55.18Z</time></trkpt><trkpt lat="44.8578352" lon="9.7460867"><ele>201.0</ele><time>2026-04-12T07:44:57.169Z</time></trkpt><trkpt lat="44.8577817" lon="9.7459992"><ele>201.0</ele><time>2026-04-12T07:44:59.156Z</time></trkpt><trkpt lat="44.8577354" lon="9.7459102"><ele>201.0</ele><time>2026-04-12T07:45:01.155Z</time></trkpt><trkpt lat="44.8576874" lon="9.7458202"><ele>201.16666666666666</ele><time>2026-04-12T07:45:03.174Z</time></trkpt><trkpt lat="44.857642" lon="9.7457275"><ele>201.33333333333331</ele><time>2026-04-12T07:45:05.171Z</time></trkpt><trkpt lat="44.8575895" lon="9.7456413"><ele>201.5</ele><time>2026-04-12T07:45:07.169Z</time></trkpt><trkpt lat="44.8575409" lon="9.7455426"><ele>201.66666666666666</ele><time>2026-04-12T07:45:09.17Z</time></trkpt><trkpt lat="44.8574986" lon="9.7454529"><ele>201.83333333333331</ele><time>2026-04-12T07:45:11.169Z</time></trkpt><trkpt lat="44.8574464" lon="9.7453557"><ele>202.0</ele><time>2026-04-12T07:45:13.171Z</time></trkpt><trkpt lat="44.8573855" lon="9.7452615"><ele>202.33333333333331</ele><time>2026-04-12T07:45:15.172Z</time></trkpt><trkpt lat="44.857332" lon="9.7451866"><ele>202.66666666666666</ele><time>2026-04-12T07:45:17.171Z</time></trkpt><trkpt lat="44.8572681" lon="9.7451122"><ele>203.0</ele><time>2026-04-12T07:45:19.178Z</time></trkpt><trkpt lat="44.8572049" lon="9.7450361"><ele>203.33333333333331</ele><time>2026-04-12T07:45:21.174Z</time></trkpt><trkpt lat="44.8571419" lon="9.7449756"><ele>203.66666666666666</ele><time>2026-04-12T07:45:23.182Z</time></trkpt><trkpt lat="44.8570897" lon="9.7448978"><ele>204.0</ele><time>2026-04-12T07:45:25.171Z</time></trkpt><trkpt lat="44.8570349" lon="9.7448223"><ele>204.0</ele><time>2026-04-12T07:45:27.186Z</time></trkpt><trkpt lat="44.8569651" lon="9.744756"><ele>204.0</ele><time>2026-04-12T07:45:29.179Z</time></trkpt><trkpt lat="44.8568998" lon="9.744704"><ele>204.0</ele><time>2026-04-12T07:45:31.172Z</time></trkpt><trkpt lat="44.8568298" lon="9.7446476"><ele>204.0</ele><time>2026-04-12T07:45:33.176Z</time></trkpt><trkpt lat="44.8567642" lon="9.7446088"><ele>204.0</ele><time>2026-04-12T07:45:35.165Z</time></trkpt><trkpt lat="44.8566946" lon="9.7445768"><ele>204.0</ele><time>2026-04-12T07:45:37.175Z</time></trkpt><trkpt lat="44.8566263" lon="9.7445457"><ele>204.16666666666666</ele><time>2026-04-12T07:45:39.166Z</time></trkpt><trkpt lat="44.8565615" lon="9.7445099"><ele>204.33333333333331</ele><time>2026-04-12T07:45:41.179Z</time></trkpt><trkpt lat="44.8565005" lon="9.7444634"><ele>204.5</ele><time>2026-04-12T07:45:43.167Z</time></trkpt><trkpt lat="44.8564271" lon="9.7444073"><ele>204.66666666666666</ele><time>2026-04-12T07:45:45.169Z</time></trkpt><trkpt lat="44.8563492" lon="9.7443307"><ele>204.83333333333331</ele><time>2026-04-12T07:45:47.177Z</time></trkpt><trkpt lat="44.856282" lon="9.7442463"><ele>205.0</ele><time>2026-04-12T07:45:49.179Z</time></trkpt><trkpt lat="44.8562338" lon="9.7441644"><ele>205.33333333333331</ele><time>2026-04-12T07:45:51.164Z</time></trkpt><trkpt lat="44.8561881" lon="9.7440917"><ele>205.66666666666666</ele><time>2026-04-12T07:45:53.17Z</time></trkpt><trkpt lat="44.8561446" lon="9.7440173"><ele>206.0</ele><time>2026-04-12T07:45:55.174Z</time></trkpt><trkpt lat="44.8560736" lon="9.7439445"><ele>206.33333333333331</ele><time>2026-04-12T07:45:57.168Z</time></trkpt><trkpt lat="44.8559919" lon="9.7438844"><ele>206.66666666666666</ele><time>2026-04-12T07:45:59.173Z</time></trkpt><trkpt lat="44.855914" lon="9.7438265"><ele>207.0</ele><time>2026-04-12T07:46:01.175Z</time></trkpt><trkpt lat="44.8558471" lon="9.7437822"><ele>207.0</ele><time>2026-04-12T07:46:03.181Z</time></trkpt><trkpt lat="44.8557765" lon="9.7437302"><ele>207.0</ele><time>2026-04-12T07:46:05.17Z</time></trkpt><trkpt lat="44.8557127" lon="9.7436583"><ele>207.0</ele><time>2026-04-12T07:46:07.173Z</time></trkpt><trkpt lat="44.8556625" lon="9.7435745"><ele>207.0</ele><time>2026-04-12T07:46:09.165Z</time></trkpt><trkpt lat="44.8556054" lon="9.7434948"><ele>207.0</ele><time>2026-04-12T07:46:11.175Z</time></trkpt><trkpt lat="44.8555506" lon="9.7434151"><ele>207.0</ele><time>2026-04-12T07:46:13.169Z</time></trkpt><trkpt lat="44.8554888" lon="9.7433472"><ele>207.0</ele><time>2026-04-12T07:46:15.179Z</time></trkpt><trkpt lat="44.8554342" lon="9.7432926"><ele>207.0</ele><time>2026-04-12T07:46:17.168Z</time></trkpt><trkpt lat="44.8553651" lon="9.7432542"><ele>207.0</ele><time>2026-04-12T07:46:19.171Z</time></trkpt><trkpt lat="44.8552805" lon="9.7432422"><ele>207.0</ele><time>2026-04-12T07:46:21.159Z</time></trkpt><trkpt lat="44.8552026" lon="9.7432544"><ele>207.0</ele><time>2026-04-12T07:46:23.171Z</time></trkpt><trkpt lat="44.8551256" lon="9.7432648"><ele>207.0</ele><time>2026-04-12T07:46:25.17Z</time></trkpt><trkpt lat="44.8550451" lon="9.7432636"><ele>207.33333333333334</ele><time>2026-04-12T07:46:27.171Z</time></trkpt><trkpt lat="44.8549696" lon="9.7432771"><ele>207.66666666666669</ele><time>2026-04-12T07:46:29.184Z</time></trkpt><trkpt lat="44.8548919" lon="9.7432988"><ele>208.0</ele><time>2026-04-12T07:46:31.171Z</time></trkpt><trkpt lat="44.8548126" lon="9.7433214"><ele>208.33333333333334</ele><time>2026-04-12T07:46:33.181Z</time></trkpt><trkpt lat="44.8547321" lon="9.7433413"><ele>208.66666666666669</ele><time>2026-04-12T07:46:35.172Z</time></trkpt><trkpt lat="44.8546677" lon="9.7433515"><ele>209.0</ele><time>2026-04-12T07:46:37.175Z</time></trkpt><trkpt lat="44.8546067" lon="9.7433117"><ele>209.00000000000003</ele><time>2026-04-12T07:46:40.159Z</time></trkpt><trkpt lat="44.8546426" lon="9.7431871"><ele>209.0</ele><time>2026-04-12T07:46:43.171Z</time></trkpt><trkpt lat="44.8546749" lon="9.7430749"><ele>209.0</ele><time>2026-04-12T07:46:46.17Z</time></trkpt><trkpt lat="44.8547064" lon="9.7429706"><ele>209.0</ele><time>2026-04-12T07:46:49.174Z</time></trkpt><trkpt lat="44.8547229" lon="9.7428578"><ele>209.00000000000003</ele><time>2026-04-12T07:46:52.163Z</time></trkpt><trkpt lat="44.8547355" lon="9.7427318"><ele>209.0</ele><time>2026-04-12T07:46:55.161Z</time></trkpt><trkpt lat="44.8547492" lon="9.7426194"><ele>209.42857142857142</ele><time>2026-04-12T07:46:58.148Z</time></trkpt><trkpt lat="44.8547213" lon="9.7425343"><ele>209.85714285714283</ele><time>2026-04-12T07:47:02.154Z</time></trkpt><trkpt lat="44.8546448" lon="9.7425176"><ele>210.28571428571428</ele><time>2026-04-12T07:47:07.17Z</time></trkpt><trkpt lat="44.8545765" lon="9.7424968"><ele>210.71428571428572</ele><time>2026-04-12T07:47:12.178Z</time></trkpt><trkpt lat="44.854515" lon="9.7424644"><ele>211.14285714285714</ele><time>2026-04-12T07:47:17.171Z</time></trkpt><trkpt lat="44.8544426" lon="9.742439"><ele>211.57142857142858</ele><time>2026-04-12T07:47:22.166Z</time></trkpt><trkpt lat="44.8543796" lon="9.7424073"><ele>212.0</ele><time>2026-04-12T07:47:26.16Z</time></trkpt><trkpt lat="44.8543233" lon="9.7423323"><ele>212.85714285714286</ele><time>2026-04-12T07:47:32.167Z</time></trkpt><trkpt lat="44.8542862" lon="9.7422474"><ele>213.7142857142857</ele><time>2026-04-12T07:47:37.174Z</time></trkpt><trkpt lat="44.8542587" lon="9.7421628"><ele>214.57142857142856</ele><time>2026-04-12T07:47:42.173Z</time></trkpt><trkpt lat="44.8542382" lon="9.7420697"><ele>215.42857142857144</ele><time>2026-04-12T07:47:47.171Z</time></trkpt><trkpt lat="44.8542163" lon="9.7419841"><ele>216.28571428571428</ele><time>2026-04-12T07:47:52.168Z</time></trkpt><trkpt lat="44.8541675" lon="9.7419203"><ele>217.14285714285714</ele><time>2026-04-12T07:47:57.137Z</time></trkpt><trkpt lat="44.8540989" lon="9.7419182"><ele>218.0</ele><time>2026-04-12T07:48:02.137Z</time></trkpt><trkpt lat="44.8540306" lon="9.7419059"><ele>218.0</ele><time>2026-04-12T07:48:06.152Z</time></trkpt><trkpt lat="44.853962" lon="9.7418922"><ele>218.0</ele><time>2026-04-12T07:48:10.139Z</time></trkpt><trkpt lat="44.8538915" lon="9.7418801"><ele>218.0</ele><time>2026-04-12T07:48:14.156Z</time></trkpt><trkpt lat="44.8538195" lon="9.7418633"><ele>218.0</ele><time>2026-04-12T07:48:18.166Z</time></trkpt><trkpt lat="44.8537564" lon="9.7418677"><ele>218.0</ele><time>2026-04-12T07:48:22.165Z</time></trkpt><trkpt lat="44.8536881" lon="9.741867"><ele>218.0</ele><time>2026-04-12T07:48:26.137Z</time></trkpt><trkpt lat="44.8536235" lon="9.7418795"><ele>218.0</ele><time>2026-04-12T07:48:30.147Z</time></trkpt><trkpt lat="44.8535538" lon="9.7419089"><ele>218.00000000000003</ele><time>2026-04-12T07:48:34.163Z</time></trkpt><trkpt lat="44.853478" lon="9.7419409"><ele>218.0</ele><time>2026-04-12T07:48:38.151Z</time></trkpt><trkpt lat="44.8533943" lon="9.7419489"><ele>218.0</ele><time>2026-04-12T07:48:42.167Z</time></trkpt><trkpt lat="44.8533179" lon="9.741946"><ele>218.0</ele><time>2026-04-12T07:48:46.164Z</time></trkpt><trkpt lat="44.8532422" lon="9.7419483"><ele>218.00000000000003</ele><time>2026-04-12T07:48:50.171Z</time></trkpt><trkpt lat="44.8531693" lon="9.7419426"><ele>218.0</ele><time>2026-04-12T07:48:54.176Z</time></trkpt><trkpt lat="44.8531041" lon="9.7419364"><ele>218.0</ele><time>2026-04-12T07:48:58.161Z</time></trkpt><trkpt lat="44.8530351" lon="9.7419143"><ele>218.0</ele><time>2026-04-12T07:49:02.167Z</time></trkpt><trkpt lat="44.852966" lon="9.7418867"><ele>218.0</ele><time>2026-04-12T07:49:06.181Z</time></trkpt><trkpt lat="44.852898" lon="9.7418423"><ele>218.0</ele><time>2026-04-12T07:49:10.175Z</time></trkpt><trkpt lat="44.8528207" lon="9.741811"><ele>218.0</ele><time>2026-04-12T07:49:15.175Z</time></trkpt><trkpt lat="44.8527586" lon="9.7417765"><ele>218.0</ele><time>2026-04-12T07:49:19.169Z</time></trkpt><trkpt lat="44.852686" lon="9.7417585"><ele>218.0</ele><time>2026-04-12T07:49:23.165Z</time></trkpt><trkpt lat="44.8526106" lon="9.7417217"><ele>220.57142857142858</ele><time>2026-04-12T07:49:28.173Z</time></trkpt><trkpt lat="44.8525567" lon="9.7416747"><ele>223.14285714285717</ele><time>2026-04-12T07:49:32.165Z</time></trkpt><trkpt lat="44.8524994" lon="9.7416287"><ele>225.71428571428572</ele><time>2026-04-12T07:49:36.177Z</time></trkpt><trkpt lat="44.8524396" lon="9.7415729"><ele>228.28571428571428</ele><time>2026-04-12T07:49:40.171Z</time></trkpt><trkpt lat="44.8523798" lon="9.7415198"><ele>230.85714285714286</ele><time>2026-04-12T07:49:45.164Z</time></trkpt><trkpt lat="44.8523189" lon="9.7414606"><ele>233.42857142857142</ele><time>2026-04-12T07:49:51.176Z</time></trkpt><trkpt lat="44.8522511" lon="9.7414064"><ele>236.0</ele><time>2026-04-12T07:49:56.166Z</time></trkpt><trkpt lat="44.8521991" lon="9.7413433"><ele>236.0</ele><time>2026-04-12T07:50:01.168Z</time></trkpt><trkpt lat="44.8521439" lon="9.7412994"><ele>236.0</ele><time>2026-04-12T07:50:05.185Z</time></trkpt><trkpt lat="44.8520851" lon="9.7412373"><ele>236.0</ele><time>2026-04-12T07:50:10.176Z</time></trkpt><trkpt lat="44.8520278" lon="9.74117"><ele>236.0</ele><time>2026-04-12T07:50:15.171Z</time></trkpt><trkpt lat="44.8519813" lon="9.7410988"><ele>236.0</ele><time>2026-04-12T07:50:20.162Z</time></trkpt><trkpt lat="44.8519412" lon="9.7410267"><ele>236.0</ele><time>2026-04-12T07:50:25.165Z</time></trkpt><trkpt lat="44.8518848" lon="9.7409738"><ele>236.0</ele><time>2026-04-12T07:50:30.175Z</time></trkpt><trkpt lat="44.8518268" lon="9.7409111"><ele>238.71428571428572</ele><time>2026-04-12T07:50:35.184Z</time></trkpt><trkpt lat="44.8517736" lon="9.7408552"><ele>241.42857142857144</ele><time>2026-04-12T07:50:39.177Z</time></trkpt><trkpt lat="44.8517196" lon="9.7407937"><ele>244.14285714285717</ele><time>2026-04-12T07:50:44.168Z</time></trkpt><trkpt lat="44.8516637" lon="9.740734"><ele>246.85714285714286</ele><time>2026-04-12T07:50:49.164Z</time></trkpt><trkpt lat="44.8515978" lon="9.7406767"><ele>249.5714285714286</ele><time>2026-04-12T07:50:54.158Z</time></trkpt><trkpt lat="44.8515495" lon="9.740601"><ele>252.2857142857143</ele><time>2026-04-12T07:50:59.161Z</time></trkpt><trkpt lat="44.8515075" lon="9.7405175"><ele>255.0</ele><time>2026-04-12T07:51:05.173Z</time></trkpt><trkpt lat="44.851462" lon="9.7404425"><ele>255.0</ele><time>2026-04-12T07:51:10.186Z</time></trkpt><trkpt lat="44.8514171" lon="9.7403599"><ele>255.00000000000003</ele><time>2026-04-12T07:51:15.179Z</time></trkpt><trkpt lat="44.8513692" lon="9.7402858"><ele>255.0</ele><time>2026-04-12T07:51:21.153Z</time></trkpt><trkpt lat="44.8513265" lon="9.740219"><ele>255.0</ele><time>2026-04-12T07:51:26.151Z</time></trkpt><trkpt lat="44.8512805" lon="9.7401437"><ele>255.00000000000003</ele><time>2026-04-12T07:51:31.17Z</time></trkpt><trkpt lat="44.8512209" lon="9.7400752"><ele>255.0</ele><time>2026-04-12T07:51:37.181Z</time></trkpt><trkpt lat="44.8511733" lon="9.7400112"><ele>255.0</ele><time>2026-04-12T07:51:42.167Z</time></trkpt><trkpt lat="44.8511207" lon="9.739951"><ele>255.71428571428572</ele><time>2026-04-12T07:51:47.15Z</time></trkpt><trkpt lat="44.8510639" lon="9.7398916"><ele>256.42857142857144</ele><time>2026-04-12T07:51:52.171Z</time></trkpt><trkpt lat="44.8510003" lon="9.7398478"><ele>257.14285714285717</ele><time>2026-04-12T07:51:57.174Z</time></trkpt><trkpt lat="44.850932" lon="9.7398065"><ele>257.8571428571429</ele><time>2026-04-12T07:52:02.187Z</time></trkpt><trkpt lat="44.8508634" lon="9.7398027"><ele>258.57142857142856</ele><time>2026-04-12T07:52:07.166Z</time></trkpt><trkpt lat="44.8507952" lon="9.7397882"><ele>259.28571428571433</ele><time>2026-04-12T07:52:11.173Z</time></trkpt><trkpt lat="44.8507279" lon="9.7397643"><ele>260.0</ele><time>2026-04-12T07:52:16.168Z</time></trkpt><trkpt lat="44.8506594" lon="9.7397396"><ele>261.14285714285717</ele><time>2026-04-12T07:52:21.158Z</time></trkpt><trkpt lat="44.850595" lon="9.7397209"><ele>262.2857142857143</ele><time>2026-04-12T07:52:26.166Z</time></trkpt><trkpt lat="44.8505212" lon="9.7397053"><ele>263.42857142857144</ele><time>2026-04-12T07:52:31.175Z</time></trkpt><trkpt lat="44.8504485" lon="9.7396686"><ele>264.57142857142856</ele><time>2026-04-12T07:52:36.17Z</time></trkpt><trkpt lat="44.850388" lon="9.7396178"><ele>265.7142857142857</ele><time>2026-04-12T07:52:41.176Z</time></trkpt><trkpt lat="44.8503172" lon="9.7395998"><ele>266.8571428571429</ele><time>2026-04-12T07:52:45.173Z</time></trkpt><trkpt lat="44.8502552" lon="9.739554"><ele>268.0</ele><time>2026-04-12T07:52:49.178Z</time></trkpt><trkpt lat="44.8501956" lon="9.7395132"><ele>268.0</ele><time>2026-04-12T07:52:53.178Z</time></trkpt><trkpt lat="44.8501314" lon="9.739469"><ele>268.0</ele><time>2026-04-12T07:52:59.17Z</time></trkpt><trkpt lat="44.8500697" lon="9.7394355"><ele>268.0</ele><time>2026-04-12T07:53:05.174Z</time></trkpt><trkpt lat="44.8500129" lon="9.7393927"><ele>268.0</ele><time>2026-04-12T07:53:09.178Z</time></trkpt><trkpt lat="44.8499556" lon="9.7393479"><ele>268.0</ele><time>2026-04-12T07:53:13.177Z</time></trkpt><trkpt lat="44.8498953" lon="9.7393086"><ele>268.0</ele><time>2026-04-12T07:53:17.162Z</time></trkpt><trkpt lat="44.8498209" lon="9.7392749"><ele>268.0</ele><time>2026-04-12T07:53:22.165Z</time></trkpt><trkpt lat="44.849758" lon="9.7392537"><ele>269.8571428571429</ele><time>2026-04-12T07:53:27.158Z</time></trkpt><trkpt lat="44.8497054" lon="9.7391837"><ele>271.7142857142857</ele><time>2026-04-12T07:53:32.168Z</time></trkpt><trkpt lat="44.8496493" lon="9.7391162"><ele>273.57142857142856</ele><time>2026-04-12T07:53:37.187Z</time></trkpt><trkpt lat="44.849593" lon="9.7390594"><ele>275.42857142857144</ele><time>2026-04-12T07:53:42.17Z</time></trkpt><trkpt lat="44.8495259" lon="9.7390055"><ele>277.2857142857143</ele><time>2026-04-12T07:53:47.171Z</time></trkpt><trkpt lat="44.8494766" lon="9.7389335"><ele>279.14285714285717</ele><time>2026-04-12T07:53:52.154Z</time></trkpt><trkpt lat="44.8494268" lon="9.738875"><ele>281.0</ele><time>2026-04-12T07:53:57.179Z</time></trkpt><trkpt lat="44.849371" lon="9.7388166"><ele>281.00000000000006</ele><time>2026-04-12T07:54:02.168Z</time></trkpt><trkpt lat="44.8493262" lon="9.7387514"><ele>281.0</ele><time>2026-04-12T07:54:06.176Z</time></trkpt><trkpt lat="44.8492801" lon="9.7386766"><ele>281.0</ele><time>2026-04-12T07:54:11.182Z</time></trkpt><trkpt lat="44.8492209" lon="9.7386062"><ele>281.0</ele><time>2026-04-12T07:54:16.171Z</time></trkpt><trkpt lat="44.8491684" lon="9.738529"><ele>281.0</ele><time>2026-04-12T07:54:21.187Z</time></trkpt><trkpt lat="44.8491199" lon="9.7384579"><ele>281.00000000000006</ele><time>2026-04-12T07:54:26.187Z</time></trkpt><trkpt lat="44.8490727" lon="9.7383767"><ele>281.0</ele><time>2026-04-12T07:54:31.167Z</time></trkpt><trkpt lat="44.8490358" lon="9.7382974"><ele>282.8571428571429</ele><time>2026-04-12T07:54:36.162Z</time></trkpt><trkpt lat="44.8489975" lon="9.7382176"><ele>284.7142857142857</ele><time>2026-04-12T07:54:41.166Z</time></trkpt><trkpt lat="44.8489635" lon="9.7381214"><ele>286.57142857142856</ele><time>2026-04-12T07:54:46.173Z</time></trkpt><trkpt lat="44.8489215" lon="9.7380549"><ele>288.42857142857144</ele><time>2026-04-12T07:54:50.176Z</time></trkpt><trkpt lat="44.8488964" lon="9.7379705"><ele>290.2857142857143</ele><time>2026-04-12T07:54:54.167Z</time></trkpt><trkpt lat="44.8488499" lon="9.7379048"><ele>292.14285714285717</ele><time>2026-04-12T07:54:58.166Z</time></trkpt><trkpt lat="44.8487867" lon="9.7378553"><ele>294.0</ele><time>2026-04-12T07:55:03.176Z</time></trkpt><trkpt lat="44.8487148" lon="9.7378506"><ele>294.0</ele><time>2026-04-12T07:55:07.172Z</time></trkpt><trkpt lat="44.8486483" lon="9.7378603"><ele>294.0</ele><time>2026-04-12T07:55:11.177Z</time></trkpt><trkpt lat="44.8485749" lon="9.7378676"><ele>294.0</ele><time>2026-04-12T07:55:16.173Z</time></trkpt><trkpt lat="44.8485047" lon="9.737884"><ele>294.0</ele><time>2026-04-12T07:55:21.164Z</time></trkpt><trkpt lat="44.8484322" lon="9.7378852"><ele>294.0</ele><time>2026-04-12T07:55:26.174Z</time></trkpt><trkpt lat="44.8483611" lon="9.7378722"><ele>294.0</ele><time>2026-04-12T07:55:31.175Z</time></trkpt><trkpt lat="44.8482875" lon="9.7378703"><ele>294.0</ele><time>2026-04-12T07:55:36.17Z</time></trkpt><trkpt lat="44.8482223" lon="9.7378566"><ele>295.57142857142856</ele><time>2026-04-12T07:55:41.175Z</time></trkpt><trkpt lat="44.8481415" lon="9.7378548"><ele>297.1428571428571</ele><time>2026-04-12T07:55:46.178Z</time></trkpt><trkpt lat="44.8480716" lon="9.7378561"><ele>298.7142857142857</ele><time>2026-04-12T07:55:51.171Z</time></trkpt><trkpt lat="44.847998" lon="9.7378743"><ele>300.2857142857143</ele><time>2026-04-12T07:55:56.173Z</time></trkpt><trkpt lat="44.8479244" lon="9.7378748"><ele>301.85714285714283</ele><time>2026-04-12T07:56:01.164Z</time></trkpt><trkpt lat="44.8478518" lon="9.7378964"><ele>303.42857142857144</ele><time>2026-04-12T07:56:07.167Z</time></trkpt><trkpt lat="44.8477905" lon="9.7379289"><ele>305.0</ele><time>2026-04-12T07:56:12.165Z</time></trkpt><trkpt lat="44.8477116" lon="9.7379615"><ele>305.0</ele><time>2026-04-12T07:56:17.172Z</time></trkpt><trkpt lat="44.8476394" lon="9.7379606"><ele>305.0</ele><time>2026-04-12T07:56:21.178Z</time></trkpt><trkpt lat="44.8475762" lon="9.7379476"><ele>305.0</ele><time>2026-04-12T07:56:25.183Z</time></trkpt><trkpt lat="44.8475146" lon="9.7379115"><ele>305.0</ele><time>2026-04-12T07:56:30.185Z</time></trkpt><trkpt lat="44.8474459" lon="9.7378527"><ele>305.0</ele><time>2026-04-12T07:56:35.168Z</time></trkpt><trkpt lat="44.8473929" lon="9.7377925"><ele>305.0</ele><time>2026-04-12T07:56:40.175Z</time></trkpt><trkpt lat="44.8473399" lon="9.7377337"><ele>305.0</ele><time>2026-04-12T07:56:43.181Z</time></trkpt><trkpt lat="44.8472968" lon="9.7376518"><ele>306.7142857142857</ele><time>2026-04-12T07:56:45.178Z</time></trkpt><trkpt lat="44.8472591" lon="9.737574"><ele>308.4285714285714</ele><time>2026-04-12T07:56:47.178Z</time></trkpt><trkpt lat="44.847212" lon="9.7374767"><ele>310.1428571428571</ele><time>2026-04-12T07:56:50.171Z</time></trkpt><trkpt lat="44.8471687" lon="9.7373932"><ele>311.8571428571429</ele><time>2026-04-12T07:56:53.173Z</time></trkpt><trkpt lat="44.8471301" lon="9.7372901"><ele>313.57142857142856</ele><time>2026-04-12T07:56:57.168Z</time></trkpt><trkpt lat="44.8471005" lon="9.7372065"><ele>315.2857142857143</ele><time>2026-04-12T07:57:00.179Z</time></trkpt><trkpt lat="44.8470664" lon="9.7371241"><ele>317.0</ele><time>2026-04-12T07:57:04.175Z</time></trkpt><trkpt lat="44.8470433" lon="9.7370222"><ele>317.0</ele><time>2026-04-12T07:57:08.163Z</time></trkpt><trkpt lat="44.8470213" lon="9.7369129"><ele>317.0</ele><time>2026-04-12T07:57:12.167Z</time></trkpt><trkpt lat="44.8470168" lon="9.7368107"><ele>317.0</ele><time>2026-04-12T07:57:15.181Z</time></trkpt><trkpt lat="44.8470528" lon="9.7367172"><ele>317.0</ele><time>2026-04-12T07:57:17.145Z</time></trkpt><trkpt lat="44.8470914" lon="9.7366112"><ele>317.0</ele><time>2026-04-12T07:57:20.159Z</time></trkpt><trkpt lat="44.8471311" lon="9.7365353"><ele>317.0</ele><time>2026-04-12T07:57:23.15Z</time></trkpt><trkpt lat="44.8471664" lon="9.7364423"><ele>316.7142857142857</ele><time>2026-04-12T07:57:27.172Z</time></trkpt><trkpt lat="44.8471872" lon="9.736353"><ele>316.42857142857144</ele><time>2026-04-12T07:57:32.179Z</time></trkpt><trkpt lat="44.8471737" lon="9.7362517"><ele>316.1428571428571</ele><time>2026-04-12T07:57:37.156Z</time></trkpt><trkpt lat="44.8471293" lon="9.7361683"><ele>315.8571428571429</ele><time>2026-04-12T07:57:42.167Z</time></trkpt><trkpt lat="44.8470847" lon="9.7360963"><ele>315.57142857142856</ele><time>2026-04-12T07:57:46.172Z</time></trkpt><trkpt lat="44.8470418" lon="9.7359995"><ele>315.2857142857143</ele><time>2026-04-12T07:57:51.177Z</time></trkpt><trkpt lat="44.8469972" lon="9.7359254"><ele>315.0</ele><time>2026-04-12T07:57:55.176Z</time></trkpt><trkpt lat="44.8469484" lon="9.7358483"><ele>314.85714285714283</ele><time>2026-04-12T07:58:00.172Z</time></trkpt><trkpt lat="44.8468928" lon="9.7357716"><ele>314.7142857142857</ele><time>2026-04-12T07:58:04.162Z</time></trkpt><trkpt lat="44.8468318" lon="9.7357148"><ele>314.57142857142856</ele><time>2026-04-12T07:58:08.182Z</time></trkpt><trkpt lat="44.8467714" lon="9.7356481"><ele>314.42857142857144</ele><time>2026-04-12T07:58:12.178Z</time></trkpt><trkpt lat="44.846715" lon="9.7355965"><ele>314.2857142857143</ele><time>2026-04-12T07:58:16.18Z</time></trkpt><trkpt lat="44.8466504" lon="9.73555"><ele>314.1428571428571</ele><time>2026-04-12T07:58:21.175Z</time></trkpt><trkpt lat="44.8466016" lon="9.7354741"><ele>314.0</ele><time>2026-04-12T07:58:25.185Z</time></trkpt><trkpt lat="44.8465603" lon="9.7354061"><ele>316.99999999999994</ele><time>2026-04-12T07:58:29.169Z</time></trkpt><trkpt lat="44.8465248" lon="9.7353189"><ele>320.0</ele><time>2026-04-12T07:58:33.187Z</time></trkpt><trkpt lat="44.8464828" lon="9.7352475"><ele>323.0</ele><time>2026-04-12T07:58:37.176Z</time></trkpt><trkpt lat="44.8464326" lon="9.7351677"><ele>326.0</ele><time>2026-04-12T07:58:42.178Z</time></trkpt><trkpt lat="44.8463839" lon="9.7350861"><ele>329.0</ele><time>2026-04-12T07:58:47.178Z</time></trkpt><trkpt lat="44.8463365" lon="9.7350105"><ele>331.99999999999994</ele><time>2026-04-12T07:58:51.17Z</time></trkpt><trkpt lat="44.8462807" lon="9.7349295"><ele>335.0</ele><time>2026-04-12T07:58:56.177Z</time></trkpt><trkpt lat="44.8462402" lon="9.7348345"><ele>334.99999999999994</ele><time>2026-04-12T07:59:01.179Z</time></trkpt><trkpt lat="44.8462139" lon="9.7347482"><ele>335.0</ele><time>2026-04-12T07:59:05.172Z</time></trkpt><trkpt lat="44.8461804" lon="9.7346579"><ele>335.0</ele><time>2026-04-12T07:59:10.17Z</time></trkpt><trkpt lat="44.8461536" lon="9.7345698"><ele>335.0</ele><time>2026-04-12T07:59:14.174Z</time></trkpt><trkpt lat="44.8461243" lon="9.7344843"><ele>335.0</ele><time>2026-04-12T07:59:18.182Z</time></trkpt><trkpt lat="44.8460778" lon="9.734405"><ele>334.99999999999994</ele><time>2026-04-12T07:59:22.175Z</time></trkpt><trkpt lat="44.8460469" lon="9.7342998"><ele>335.0</ele><time>2026-04-12T07:59:26.179Z</time></trkpt><trkpt lat="44.8460165" lon="9.734216"><ele>334.99999999999994</ele><time>2026-04-12T07:59:29.186Z</time></trkpt><trkpt lat="44.8459723" lon="9.7341312"><ele>335.0</ele><time>2026-04-12T07:59:32.175Z</time></trkpt><trkpt lat="44.8459202" lon="9.7340609"><ele>335.0</ele><time>2026-04-12T07:59:36.179Z</time></trkpt><trkpt lat="44.8458568" lon="9.7340903"><ele>335.0</ele><time>2026-04-12T07:59:39.172Z</time></trkpt><trkpt lat="44.8458024" lon="9.7341698"><ele>335.0</ele><time>2026-04-12T07:59:43.181Z</time></trkpt><trkpt lat="44.8457485" lon="9.7342247"><ele>334.99999999999994</ele><time>2026-04-12T07:59:47.171Z</time></trkpt><trkpt lat="44.8456927" lon="9.7342894"><ele>335.0</ele><time>2026-04-12T07:59:51.173Z</time></trkpt><trkpt lat="44.8456271" lon="9.7343273"><ele>336.4285714285714</ele><time>2026-04-12T07:59:56.184Z</time></trkpt><trkpt lat="44.8455525" lon="9.7343709"><ele>337.85714285714283</ele><time>2026-04-12T08:00:01.179Z</time></trkpt><trkpt lat="44.8454844" lon="9.7344254"><ele>339.2857142857143</ele><time>2026-04-12T08:00:06.171Z</time></trkpt><trkpt lat="44.8454437" lon="9.7345099"><ele>340.71428571428567</ele><time>2026-04-12T08:00:11.156Z</time></trkpt><trkpt lat="44.8454316" lon="9.734601"><ele>342.1428571428571</ele><time>2026-04-12T08:00:15.179Z</time></trkpt><trkpt lat="44.8453973" lon="9.7346859"><ele>343.57142857142856</ele><time>2026-04-12T08:00:19.168Z</time></trkpt><trkpt lat="44.8453565" lon="9.7347588"><ele>345.0</ele><time>2026-04-12T08:00:23.164Z</time></trkpt><trkpt lat="44.8452945" lon="9.7347818"><ele>345.0</ele><time>2026-04-12T08:00:27.178Z</time></trkpt><trkpt lat="44.8452246" lon="9.7347575"><ele>345.0</ele><time>2026-04-12T08:00:31.177Z</time></trkpt><trkpt lat="44.8451596" lon="9.734718"><ele>345.0</ele><time>2026-04-12T08:00:35.167Z</time></trkpt><trkpt lat="44.8450982" lon="9.7346826"><ele>345.0</ele><time>2026-04-12T08:00:40.166Z</time></trkpt><trkpt lat="44.8450309" lon="9.7346786"><ele>345.0</ele><time>2026-04-12T08:00:44.173Z</time></trkpt><trkpt lat="44.8449643" lon="9.7346674"><ele>345.0</ele><time>2026-04-12T08:00:48.189Z</time></trkpt><trkpt lat="44.8449004" lon="9.7346346"><ele>345.0</ele><time>2026-04-12T08:00:52.159Z</time></trkpt><trkpt lat="44.844851" lon="9.7345762"><ele>345.42857142857144</ele><time>2026-04-12T08:00:56.162Z</time></trkpt><trkpt lat="44.844813" lon="9.7344824"><ele>345.85714285714283</ele><time>2026-04-12T08:01:01.177Z</time></trkpt><trkpt lat="44.8447915" lon="9.7343878"><ele>346.2857142857143</ele><time>2026-04-12T08:01:05.175Z</time></trkpt><trkpt lat="44.8447679" lon="9.7342874"><ele>346.7142857142857</ele><time>2026-04-12T08:01:09.188Z</time></trkpt><trkpt lat="44.8447407" lon="9.7342032"><ele>347.14285714285717</ele><time>2026-04-12T08:01:13.181Z</time></trkpt><trkpt lat="44.8447112" lon="9.7341114"><ele>347.57142857142856</ele><time>2026-04-12T08:01:17.175Z</time></trkpt><trkpt lat="44.8446742" lon="9.7340288"><ele>348.0</ele><time>2026-04-12T08:01:21.184Z</time></trkpt><trkpt lat="44.8446347" lon="9.7339444"><ele>349.2857142857143</ele><time>2026-04-12T08:01:26.176Z</time></trkpt><trkpt lat="44.844596" lon="9.7338683"><ele>350.57142857142856</ele><time>2026-04-12T08:01:30.172Z</time></trkpt><trkpt lat="44.8445506" lon="9.7337886"><ele>351.8571428571429</ele><time>2026-04-12T08:01:34.168Z</time></trkpt><trkpt lat="44.8445119" lon="9.733711"><ele>353.1428571428571</ele><time>2026-04-12T08:01:38.174Z</time></trkpt><trkpt lat="44.84447" lon="9.7336186"><ele>354.42857142857144</ele><time>2026-04-12T08:01:43.174Z</time></trkpt><trkpt lat="44.8444188" lon="9.7335379"><ele>355.7142857142857</ele><time>2026-04-12T08:01:48.168Z</time></trkpt><trkpt lat="44.8443635" lon="9.7334742"><ele>357.0</ele><time>2026-04-12T08:01:52.174Z</time></trkpt><trkpt lat="44.8442981" lon="9.7334154"><ele>357.57142857142856</ele><time>2026-04-12T08:01:56.173Z</time></trkpt><trkpt lat="44.8442323" lon="9.7333517"><ele>358.1428571428571</ele><time>2026-04-12T08:02:01.174Z</time></trkpt><trkpt lat="44.8442012" lon="9.7332609"><ele>358.7142857142857</ele><time>2026-04-12T08:02:05.177Z</time></trkpt><trkpt lat="44.8441851" lon="9.7331574"><ele>359.2857142857143</ele><time>2026-04-12T08:02:10.183Z</time></trkpt><trkpt lat="44.8441553" lon="9.7330603"><ele>359.85714285714283</ele><time>2026-04-12T08:02:15.177Z</time></trkpt><trkpt lat="44.8441231" lon="9.7329772"><ele>360.42857142857144</ele><time>2026-04-12T08:02:19.174Z</time></trkpt><trkpt lat="44.8440885" lon="9.7328895"><ele>361.0</ele><time>2026-04-12T08:02:23.168Z</time></trkpt><trkpt lat="44.8440588" lon="9.7328053"><ele>362.7142857142857</ele><time>2026-04-12T08:02:27.172Z</time></trkpt><trkpt lat="44.8440288" lon="9.7327191"><ele>364.4285714285714</ele><time>2026-04-12T08:02:31.189Z</time></trkpt><trkpt lat="44.8439966" lon="9.7326333"><ele>366.1428571428571</ele><time>2026-04-12T08:02:35.184Z</time></trkpt><trkpt lat="44.8439608" lon="9.7325468"><ele>367.8571428571429</ele><time>2026-04-12T08:02:40.178Z</time></trkpt><trkpt lat="44.8439341" lon="9.7324506"><ele>369.57142857142856</ele><time>2026-04-12T08:02:45.159Z</time></trkpt><trkpt lat="44.8439157" lon="9.7323582"><ele>371.2857142857143</ele><time>2026-04-12T08:02:49.179Z</time></trkpt><trkpt lat="44.8438879" lon="9.7322665"><ele>373.0</ele><time>2026-04-12T08:02:54.19Z</time></trkpt><trkpt lat="44.8438653" lon="9.732172"><ele>373.0</ele><time>2026-04-12T08:02:59.179Z</time></trkpt><trkpt lat="44.8438479" lon="9.7320857"><ele>373.0</ele><time>2026-04-12T08:03:03.17Z</time></trkpt><trkpt lat="44.8438223" lon="9.7320015"><ele>373.0</ele><time>2026-04-12T08:03:07.174Z</time></trkpt><trkpt lat="44.8438009" lon="9.731907"><ele>373.0</ele><time>2026-04-12T08:03:12.177Z</time></trkpt><trkpt lat="44.8437633" lon="9.7318204"><ele>373.0</ele><time>2026-04-12T08:03:17.181Z</time></trkpt><trkpt lat="44.8437122" lon="9.7317427"><ele>373.0</ele><time>2026-04-12T08:03:22.181Z</time></trkpt><trkpt lat="44.8436527" lon="9.7316736"><ele>373.0</ele><time>2026-04-12T08:03:27.17Z</time></trkpt><trkpt lat="44.8435979" lon="9.7316253"><ele>373.0</ele><time>2026-04-12T08:03:31.174Z</time></trkpt><trkpt lat="44.8435413" lon="9.7315796"><ele>373.0</ele><time>2026-04-12T08:03:35.177Z</time></trkpt><trkpt lat="44.8434685" lon="9.7315379"><ele>373.0</ele><time>2026-04-12T08:03:40.176Z</time></trkpt><trkpt lat="44.8434123" lon="9.7314888"><ele>373.0</ele><time>2026-04-12T08:03:44.142Z</time></trkpt><trkpt lat="44.8433724" lon="9.73142"><ele>373.0</ele><time>2026-04-12T08:03:48.182Z</time></trkpt><trkpt lat="44.8433368" lon="9.7313255"><ele>373.0</ele><time>2026-04-12T08:03:52.175Z</time></trkpt><trkpt lat="44.8432756" lon="9.7312568"><ele>373.0</ele><time>2026-04-12T08:03:57.179Z</time></trkpt><trkpt lat="44.8432191" lon="9.7311907"><ele>373.0</ele><time>2026-04-12T08:04:02.181Z</time></trkpt><trkpt lat="44.843158" lon="9.7311293"><ele>373.0</ele><time>2026-04-12T08:04:07.184Z</time></trkpt><trkpt lat="44.8431086" lon="9.7310627"><ele>373.0</ele><time>2026-04-12T08:04:11.176Z</time></trkpt><trkpt lat="44.8430495" lon="9.7310121"><ele>373.0</ele><time>2026-04-12T08:04:15.158Z</time></trkpt><trkpt lat="44.8429949" lon="9.7309458"><ele>373.0</ele><time>2026-04-12T08:04:19.163Z</time></trkpt><trkpt lat="44.8429362" lon="9.7308966"><ele>373.0</ele><time>2026-04-12T08:04:23.169Z</time></trkpt><trkpt lat="44.8428766" lon="9.7308277"><ele>373.0</ele><time>2026-04-12T08:04:27.174Z</time></trkpt><trkpt lat="44.842818" lon="9.7307556"><ele>374.57142857142856</ele><time>2026-04-12T08:04:31.174Z</time></trkpt><trkpt lat="44.8427672" lon="9.7306833"><ele>376.14285714285717</ele><time>2026-04-12T08:04:35.173Z</time></trkpt><trkpt lat="44.8427173" lon="9.7306245"><ele>377.71428571428567</ele><time>2026-04-12T08:04:38.182Z</time></trkpt><trkpt lat="44.8426406" lon="9.730586"><ele>379.2857142857143</ele><time>2026-04-12T08:04:42.174Z</time></trkpt><trkpt lat="44.8425755" lon="9.730582"><ele>380.85714285714283</ele><time>2026-04-12T08:04:45.167Z</time></trkpt><trkpt lat="44.8424965" lon="9.7305599"><ele>382.4285714285714</ele><time>2026-04-12T08:04:49.175Z</time></trkpt><trkpt lat="44.8424187" lon="9.7305314"><ele>384.0</ele><time>2026-04-12T08:04:53.17Z</time></trkpt><trkpt lat="44.8423556" lon="9.7305081"><ele>384.4285714285714</ele><time>2026-04-12T08:04:57.176Z</time></trkpt><trkpt lat="44.8422888" lon="9.7304661"><ele>384.85714285714283</ele><time>2026-04-12T08:05:01.173Z</time></trkpt><trkpt lat="44.8422162" lon="9.7304428"><ele>385.2857142857143</ele><time>2026-04-12T08:05:05.188Z</time></trkpt><trkpt lat="44.8421403" lon="9.7304245"><ele>385.71428571428567</ele><time>2026-04-12T08:05:09.186Z</time></trkpt><trkpt lat="44.8420743" lon="9.7303883"><ele>386.14285714285717</ele><time>2026-04-12T08:05:12.164Z</time></trkpt><trkpt lat="44.8419915" lon="9.7303574"><ele>386.57142857142856</ele><time>2026-04-12T08:05:16.174Z</time></trkpt><trkpt lat="44.8419316" lon="9.7303173"><ele>387.0</ele><time>2026-04-12T08:05:19.169Z</time></trkpt><trkpt lat="44.8418564" lon="9.7302802"><ele>387.0</ele><time>2026-04-12T08:05:22.177Z</time></trkpt><trkpt lat="44.8417925" lon="9.7302507"><ele>387.0</ele><time>2026-04-12T08:05:25.157Z</time></trkpt><trkpt lat="44.8417292" lon="9.7302098"><ele>387.0</ele><time>2026-04-12T08:05:28.193Z</time></trkpt><trkpt lat="44.8416653" lon="9.7301643"><ele>387.0</ele><time>2026-04-12T08:05:31.176Z</time></trkpt><trkpt lat="44.8415969" lon="9.7301186"><ele>387.0</ele><time>2026-04-12T08:05:34.17Z</time></trkpt><trkpt lat="44.8415234" lon="9.730084"><ele>387.0</ele><time>2026-04-12T08:05:37.171Z</time></trkpt><trkpt lat="44.8414607" lon="9.7300353"><ele>387.0</ele><time>2026-04-12T08:05:40.173Z</time></trkpt><trkpt lat="44.8413921" lon="9.7299938"><ele>387.0</ele><time>2026-04-12T08:05:43.174Z</time></trkpt><trkpt lat="44.8413315" lon="9.7299453"><ele>387.0</ele><time>2026-04-12T08:05:46.172Z</time></trkpt><trkpt lat="44.8412667" lon="9.7299073"><ele>387.0</ele><time>2026-04-12T08:05:49.189Z</time></trkpt><trkpt lat="44.8412027" lon="9.7298717"><ele>387.0</ele><time>2026-04-12T08:05:52.175Z</time></trkpt><trkpt lat="44.8411248" lon="9.7298227"><ele>387.0</ele><time>2026-04-12T08:05:55.169Z</time></trkpt><trkpt lat="44.8410519" lon="9.7297832"><ele>387.0</ele><time>2026-04-12T08:05:58.186Z</time></trkpt><trkpt lat="44.8409747" lon="9.7297397"><ele>387.7142857142857</ele><time>2026-04-12T08:06:02.17Z</time></trkpt><trkpt lat="44.8408978" lon="9.7297069"><ele>388.42857142857144</ele><time>2026-04-12T08:06:06.17Z</time></trkpt><trkpt lat="44.8408337" lon="9.7296699"><ele>389.1428571428571</ele><time>2026-04-12T08:06:09.169Z</time></trkpt><trkpt lat="44.8407632" lon="9.7296197"><ele>389.8571428571429</ele><time>2026-04-12T08:06:13.165Z</time></trkpt><trkpt lat="44.8406925" lon="9.729567"><ele>390.57142857142856</ele><time>2026-04-12T08:06:16.175Z</time></trkpt><trkpt lat="44.8406348" lon="9.7295118"><ele>391.2857142857143</ele><time>2026-04-12T08:06:19.171Z</time></trkpt><trkpt lat="44.840578" lon="9.7294602"><ele>392.0</ele><time>2026-04-12T08:06:22.181Z</time></trkpt><trkpt lat="44.8405039" lon="9.729411"><ele>391.66666666666663</ele><time>2026-04-12T08:06:26.172Z</time></trkpt><trkpt lat="44.8404488" lon="9.7293597"><ele>391.3333333333333</ele><time>2026-04-12T08:06:29.174Z</time></trkpt><trkpt lat="44.8403922" lon="9.729271"><ele>391.0</ele><time>2026-04-12T08:06:33.187Z</time></trkpt><trkpt lat="44.8403477" lon="9.7292069"><ele>390.66666666666663</ele><time>2026-04-12T08:06:36.182Z</time></trkpt><trkpt lat="44.8403068" lon="9.7291113"><ele>390.3333333333333</ele><time>2026-04-12T08:06:40.17Z</time></trkpt><trkpt lat="44.8402991" lon="9.7290029"><ele>390.0</ele><time>2026-04-12T08:06:44.175Z</time></trkpt><trkpt lat="44.840271" lon="9.7288959"><ele>390.0</ele><time>2026-04-12T08:06:48.155Z</time></trkpt><trkpt lat="44.8402356" lon="9.7288028"><ele>390.0</ele><time>2026-04-12T08:06:52.174Z</time></trkpt><trkpt lat="44.8401987" lon="9.7287247"><ele>390.0</ele><time>2026-04-12T08:06:56.163Z</time></trkpt><trkpt lat="44.8401442" lon="9.7286451"><ele>390.0</ele><time>2026-04-12T08:07:01.171Z</time></trkpt><trkpt lat="44.8401005" lon="9.7285559"><ele>390.0</ele><time>2026-04-12T08:07:06.166Z</time></trkpt><trkpt lat="44.8400758" lon="9.7284591"><ele>390.0</ele><time>2026-04-12T08:07:11.162Z</time></trkpt><trkpt lat="44.8400512" lon="9.7283761"><ele>390.0</ele><time>2026-04-12T08:07:15.163Z</time></trkpt><trkpt lat="44.8400348" lon="9.7282901"><ele>392.2857142857143</ele><time>2026-04-12T08:07:19.172Z</time></trkpt><trkpt lat="44.840016" lon="9.7281965"><ele>394.57142857142856</ele><time>2026-04-12T08:07:23.169Z</time></trkpt><trkpt lat="44.8400241" lon="9.7280906"><ele>396.8571428571429</ele><time>2026-04-12T08:07:28.173Z</time></trkpt><trkpt lat="44.8400198" lon="9.7279854"><ele>399.1428571428571</ele><time>2026-04-12T08:07:33.186Z</time></trkpt><trkpt lat="44.8400499" lon="9.7278844"><ele>401.42857142857144</ele><time>2026-04-12T08:07:38.171Z</time></trkpt><trkpt lat="44.840095" lon="9.7278046"><ele>403.7142857142857</ele><time>2026-04-12T08:07:43.163Z</time></trkpt><trkpt lat="44.840103" lon="9.727714"><ele>406.0</ele><time>2026-04-12T08:07:47.163Z</time></trkpt><trkpt lat="44.8401193" lon="9.7276108"><ele>406.2857142857143</ele><time>2026-04-12T08:07:53.157Z</time></trkpt><trkpt lat="44.8401636" lon="9.7275406"><ele>406.57142857142856</ele><time>2026-04-12T08:07:58.175Z</time></trkpt><trkpt lat="44.8402126" lon="9.7274726"><ele>406.8571428571429</ele><time>2026-04-12T08:08:02.171Z</time></trkpt><trkpt lat="44.8402818" lon="9.7274227"><ele>407.1428571428571</ele><time>2026-04-12T08:08:07.17Z</time></trkpt><trkpt lat="44.8403398" lon="9.7273871"><ele>407.42857142857144</ele><time>2026-04-12T08:08:11.169Z</time></trkpt><trkpt lat="44.840413" lon="9.7273667"><ele>407.7142857142857</ele><time>2026-04-12T08:08:16.175Z</time></trkpt><trkpt lat="44.8404802" lon="9.7273684"><ele>408.0</ele><time>2026-04-12T08:08:19.169Z</time></trkpt><trkpt lat="44.8405389" lon="9.7272997"><ele>408.0</ele><time>2026-04-12T08:08:23.164Z</time></trkpt><trkpt lat="44.8405647" lon="9.727191"><ele>408.0</ele><time>2026-04-12T08:08:26.163Z</time></trkpt><trkpt lat="44.8405553" lon="9.727084"><ele>408.0</ele><time>2026-04-12T08:08:31.166Z</time></trkpt><trkpt lat="44.8405384" lon="9.7269809"><ele>408.0</ele><time>2026-04-12T08:08:36.175Z</time></trkpt><trkpt lat="44.8405131" lon="9.7268307"><ele>408.0</ele><time>2026-04-12T08:09:06.168Z</time></trkpt><trkpt lat="44.8405293" lon="9.7267313"><ele>408.0</ele><time>2026-04-12T08:09:12.175Z</time></trkpt><trkpt lat="44.8405366" lon="9.726638"><ele>408.8571428571429</ele><time>2026-04-12T08:09:21.174Z</time></trkpt><trkpt lat="44.8405486" lon="9.7265319"><ele>409.7142857142857</ele><time>2026-04-12T08:09:27.178Z</time></trkpt><trkpt lat="44.8405615" lon="9.7264329"><ele>410.57142857142856</ele><time>2026-04-12T08:09:32.179Z</time></trkpt><trkpt lat="44.8405643" lon="9.726344"><ele>411.42857142857144</ele><time>2026-04-12T08:09:36.173Z</time></trkpt><trkpt lat="44.8405056" lon="9.7262911"><ele>412.2857142857143</ele><time>2026-04-12T08:09:41.172Z</time></trkpt><trkpt lat="44.8404337" lon="9.7262916"><ele>413.14285714285717</ele><time>2026-04-12T08:09:46.156Z</time></trkpt><trkpt lat="44.8403574" lon="9.7263034"><ele>414.0</ele><time>2026-04-12T08:09:51.164Z</time></trkpt><trkpt lat="44.840289" lon="9.7263295"><ele>414.00000000000006</ele><time>2026-04-12T08:09:56.174Z</time></trkpt><trkpt lat="44.8402213" lon="9.7263425"><ele>414.0</ele><time>2026-04-12T08:10:01.156Z</time></trkpt><trkpt lat="44.8401497" lon="9.7263408"><ele>414.0</ele><time>2026-04-12T08:10:06.168Z</time></trkpt><trkpt lat="44.8400784" lon="9.726377"><ele>414.0</ele><time>2026-04-12T08:10:11.174Z</time></trkpt><trkpt lat="44.8400183" lon="9.7264262"><ele>414.0</ele><time>2026-04-12T08:10:16.168Z</time></trkpt><trkpt lat="44.839963" lon="9.7264994"><ele>414.00000000000006</ele><time>2026-04-12T08:10:21.169Z</time></trkpt><trkpt lat="44.8399031" lon="9.7265515"><ele>414.0</ele><time>2026-04-12T08:10:25.167Z</time></trkpt><trkpt lat="44.8398341" lon="9.7265852"><ele>416.5</ele><time>2026-04-12T08:10:29.172Z</time></trkpt><trkpt lat="44.8397726" lon="9.7265619"><ele>419.0</ele><time>2026-04-12T08:10:33.171Z</time></trkpt><trkpt lat="44.8397008" lon="9.7265425"><ele>421.5</ele><time>2026-04-12T08:10:37.167Z</time></trkpt><trkpt lat="44.8396317" lon="9.7265186"><ele>424.0</ele><time>2026-04-12T08:10:41.167Z</time></trkpt><trkpt lat="44.8395558" lon="9.726479"><ele>426.5</ele><time>2026-04-12T08:10:45.176Z</time></trkpt><trkpt lat="44.8394804" lon="9.7264484"><ele>429.0</ele><time>2026-04-12T08:10:50.162Z</time></trkpt><trkpt lat="44.8394065" lon="9.7263948"><ele>429.0</ele><time>2026-04-12T08:10:54.18Z</time></trkpt><trkpt lat="44.8393349" lon="9.7263388"><ele>429.0</ele><time>2026-04-12T08:10:58.171Z</time></trkpt><trkpt lat="44.8392706" lon="9.7262848"><ele>429.0</ele><time>2026-04-12T08:11:02.182Z</time></trkpt><trkpt lat="44.8392084" lon="9.7262294"><ele>429.0</ele><time>2026-04-12T08:11:06.15Z</time></trkpt><trkpt lat="44.8391491" lon="9.7261597"><ele>429.0</ele><time>2026-04-12T08:11:10.167Z</time></trkpt><trkpt lat="44.839091" lon="9.7260894"><ele>429.0</ele><time>2026-04-12T08:11:14.18Z</time></trkpt><trkpt lat="44.8390322" lon="9.7260343"><ele>429.14285714285717</ele><time>2026-04-12T08:11:18.175Z</time></trkpt><trkpt lat="44.8389727" lon="9.7259579"><ele>429.28571428571433</ele><time>2026-04-12T08:11:22.175Z</time></trkpt><trkpt lat="44.8389221" lon="9.7258758"><ele>429.42857142857144</ele><time>2026-04-12T08:11:26.175Z</time></trkpt><trkpt lat="44.8388583" lon="9.7258114"><ele>429.57142857142856</ele><time>2026-04-12T08:11:30.166Z</time></trkpt><trkpt lat="44.8387847" lon="9.7258015"><ele>429.7142857142857</ele><time>2026-04-12T08:11:34.18Z</time></trkpt><trkpt lat="44.8387221" lon="9.7258472"><ele>429.85714285714283</ele><time>2026-04-12T08:11:38.177Z</time></trkpt><trkpt lat="44.8386648" lon="9.7258946"><ele>430.0</ele><time>2026-04-12T08:11:42.166Z</time></trkpt><trkpt lat="44.8385953" lon="9.72593"><ele>430.0</ele><time>2026-04-12T08:11:46.169Z</time></trkpt><trkpt lat="44.8385181" lon="9.7259579"><ele>430.0</ele><time>2026-04-12T08:11:50.175Z</time></trkpt><trkpt lat="44.8384712" lon="9.7258874"><ele>430.0</ele><time>2026-04-12T08:11:54.174Z</time></trkpt><trkpt lat="44.8384193" lon="9.7258229"><ele>430.0</ele><time>2026-04-12T08:11:58.181Z</time></trkpt><trkpt lat="44.8383746" lon="9.7257434"><ele>430.0</ele><time>2026-04-12T08:12:02.171Z</time></trkpt><trkpt lat="44.8383198" lon="9.7256928"><ele>430.0</ele><time>2026-04-12T08:12:06.166Z</time></trkpt><trkpt lat="44.8382706" lon="9.725628"><ele>430.0</ele><time>2026-04-12T08:12:10.169Z</time></trkpt><trkpt lat="44.8382107" lon="9.7255564"><ele>430.7142857142857</ele><time>2026-04-12T08:12:14.178Z</time></trkpt><trkpt lat="44.8381461" lon="9.725492"><ele>431.42857142857144</ele><time>2026-04-12T08:12:19.164Z</time></trkpt><trkpt lat="44.8380913" lon="9.7254383"><ele>432.14285714285717</ele><time>2026-04-12T08:12:23.168Z</time></trkpt><trkpt lat="44.8380421" lon="9.7253761"><ele>432.8571428571429</ele><time>2026-04-12T08:15:55.172Z</time></trkpt><trkpt lat="44.8379856" lon="9.7253179"><ele>433.57142857142856</ele><time>2026-04-12T08:16:01.164Z</time></trkpt><trkpt lat="44.8379212" lon="9.7252714"><ele>434.28571428571433</ele><time>2026-04-12T08:16:05.183Z</time></trkpt><trkpt lat="44.8378657" lon="9.7251996"><ele>435.0</ele><time>2026-04-12T08:16:09.179Z</time></trkpt><trkpt lat="44.8378139" lon="9.7251457"><ele>435.0</ele><time>2026-04-12T08:16:12.173Z</time></trkpt><trkpt lat="44.8377606" lon="9.7250949"><ele>435.0</ele><time>2026-04-12T08:16:15.172Z</time></trkpt><trkpt lat="44.8377089" lon="9.7250281"><ele>435.0</ele><time>2026-04-12T08:16:18.159Z</time></trkpt><trkpt lat="44.8376956" lon="9.7249374"><ele>435.0</ele><time>2026-04-12T08:16:21.168Z</time></trkpt><trkpt lat="44.8376573" lon="9.7248499"><ele>435.0</ele><time>2026-04-12T08:16:24.175Z</time></trkpt><trkpt lat="44.8376144" lon="9.7247276"><ele>435.0</ele><time>2026-04-12T08:16:27.192Z</time></trkpt><trkpt lat="44.8375771" lon="9.7246189"><ele>435.2</ele><time>2026-04-12T08:16:29.176Z</time></trkpt><trkpt lat="44.8375434" lon="9.724495"><ele>435.4</ele><time>2026-04-12T08:16:31.186Z</time></trkpt><trkpt lat="44.8375034" lon="9.7243878"><ele>435.6</ele><time>2026-04-12T08:16:33.171Z</time></trkpt><trkpt lat="44.8374544" lon="9.7242466"><ele>435.8</ele><time>2026-04-12T08:16:35.197Z</time></trkpt><trkpt lat="44.8374019" lon="9.7241013"><ele>436.0</ele><time>2026-04-12T08:16:37.176Z</time></trkpt><trkpt lat="44.8373618" lon="9.7239747"><ele>436.0</ele><time>2026-04-12T08:16:39.182Z</time></trkpt><trkpt lat="44.8373192" lon="9.7238474"><ele>436.0</ele><time>2026-04-12T08:16:41.184Z</time></trkpt><trkpt lat="44.8372882" lon="9.7237305"><ele>436.0</ele><time>2026-04-12T08:16:43.182Z</time></trkpt><trkpt lat="44.8372543" lon="9.7236144"><ele>436.0</ele><time>2026-04-12T08:16:45.192Z</time></trkpt><trkpt lat="44.8371956" lon="9.7235066"><ele>436.0</ele><time>2026-04-12T08:16:47.164Z</time></trkpt><trkpt lat="44.8371315" lon="9.7234431"><ele>434.1666666666667</ele><time>2026-04-12T08:16:49.168Z</time></trkpt><trkpt lat="44.8370641" lon="9.7234446"><ele>432.33333333333337</ele><time>2026-04-12T08:16:51.164Z</time></trkpt><trkpt lat="44.8369867" lon="9.7234423"><ele>430.5</ele><time>2026-04-12T08:16:53.173Z</time></trkpt><trkpt lat="44.8369084" lon="9.7234114"><ele>428.66666666666663</ele><time>2026-04-12T08:16:55.167Z</time></trkpt><trkpt lat="44.8368264" lon="9.7234024"><ele>426.8333333333333</ele><time>2026-04-12T08:16:57.174Z</time></trkpt><trkpt lat="44.8367312" lon="9.7234089"><ele>425.0</ele><time>2026-04-12T08:16:59.151Z</time></trkpt><trkpt lat="44.8366403" lon="9.7234222"><ele>425.0</ele><time>2026-04-12T08:17:01.167Z</time></trkpt><trkpt lat="44.83656" lon="9.723425"><ele>425.0</ele><time>2026-04-12T08:17:03.173Z</time></trkpt><trkpt lat="44.8364931" lon="9.7233706"><ele>425.0</ele><time>2026-04-12T08:17:05.178Z</time></trkpt><trkpt lat="44.8364271" lon="9.7232461"><ele>425.0</ele><time>2026-04-12T08:17:07.152Z</time></trkpt><trkpt lat="44.836347" lon="9.7231376"><ele>425.0</ele><time>2026-04-12T08:17:09.156Z</time></trkpt><trkpt lat="44.8362509" lon="9.7230601"><ele>424.99999999999994</ele><time>2026-04-12T08:17:11.17Z</time></trkpt><trkpt lat="44.8361513" lon="9.7230241"><ele>425.0</ele><time>2026-04-12T08:17:13.177Z</time></trkpt><trkpt lat="44.8360723" lon="9.723008"><ele>425.0</ele><time>2026-04-12T08:17:15.165Z</time></trkpt><trkpt lat="44.8360029" lon="9.7229659"><ele>425.0</ele><time>2026-04-12T08:17:18.182Z</time></trkpt><trkpt lat="44.8359335" lon="9.7229053"><ele>424.99999999999994</ele><time>2026-04-12T08:17:21.168Z</time></trkpt><trkpt lat="44.8358436" lon="9.7228325"><ele>425.0</ele><time>2026-04-12T08:17:23.173Z</time></trkpt><trkpt lat="44.8357405" lon="9.7227297"><ele>422.16666666666663</ele><time>2026-04-12T08:17:25.171Z</time></trkpt><trkpt lat="44.8356816" lon="9.7226848"><ele>419.3333333333333</ele><time>2026-04-12T08:17:26.175Z</time></trkpt><trkpt lat="44.8356194" lon="9.72265"><ele>416.5</ele><time>2026-04-12T08:17:27.176Z</time></trkpt><trkpt lat="44.8355562" lon="9.7226208"><ele>413.66666666666663</ele><time>2026-04-12T08:17:28.172Z</time></trkpt><trkpt lat="44.8354309" lon="9.7225652"><ele>410.8333333333333</ele><time>2026-04-12T08:17:30.177Z</time></trkpt><trkpt lat="44.8353623" lon="9.7225362"><ele>408.0</ele><time>2026-04-12T08:17:31.179Z</time></trkpt><trkpt lat="44.8352964" lon="9.7225059"><ele>408.0</ele><time>2026-04-12T08:17:32.168Z</time></trkpt><trkpt lat="44.8352338" lon="9.7224805"><ele>408.0</ele><time>2026-04-12T08:17:33.172Z</time></trkpt><trkpt lat="44.8351726" lon="9.7224427"><ele>408.0</ele><time>2026-04-12T08:17:34.166Z</time></trkpt><trkpt lat="44.8351138" lon="9.722408"><ele>408.0</ele><time>2026-04-12T08:17:35.188Z</time></trkpt><trkpt lat="44.8349977" lon="9.7223453"><ele>408.0</ele><time>2026-04-12T08:17:37.198Z</time></trkpt><trkpt lat="44.8348823" lon="9.7222963"><ele>408.0</ele><time>2026-04-12T08:17:39.181Z</time></trkpt><trkpt lat="44.8347797" lon="9.7222456"><ele>407.7142857142857</ele><time>2026-04-12T08:17:41.172Z</time></trkpt><trkpt lat="44.8346909" lon="9.7222369"><ele>407.42857142857144</ele><time>2026-04-12T08:17:43.179Z</time></trkpt><trkpt lat="44.8346233" lon="9.7222785"><ele>407.1428571428571</ele><time>2026-04-12T08:17:45.183Z</time></trkpt><trkpt lat="44.834561" lon="9.7223081"><ele>406.8571428571429</ele><time>2026-04-12T08:17:48.164Z</time></trkpt><trkpt lat="44.8344915" lon="9.7222805"><ele>406.57142857142856</ele><time>2026-04-12T08:17:52.17Z</time></trkpt><trkpt lat="44.8344384" lon="9.7222247"><ele>406.2857142857143</ele><time>2026-04-12T08:17:55.187Z</time></trkpt><trkpt lat="44.8343914" lon="9.7221608"><ele>406.0</ele><time>2026-04-12T08:17:58.174Z</time></trkpt><trkpt lat="44.8343405" lon="9.7221016"><ele>406.42857142857144</ele><time>2026-04-12T08:18:01.184Z</time></trkpt><trkpt lat="44.8342956" lon="9.7220314"><ele>406.8571428571429</ele><time>2026-04-12T08:18:04.178Z</time></trkpt><trkpt lat="44.8342454" lon="9.7219524"><ele>407.2857142857143</ele><time>2026-04-12T08:18:07.181Z</time></trkpt><trkpt lat="44.8341839" lon="9.7218933"><ele>407.7142857142857</ele><time>2026-04-12T08:18:10.145Z</time></trkpt><trkpt lat="44.8341193" lon="9.7218516"><ele>408.14285714285717</ele><time>2026-04-12T08:18:13.165Z</time></trkpt><trkpt lat="44.8340554" lon="9.7218179"><ele>408.57142857142856</ele><time>2026-04-12T08:18:16.172Z</time></trkpt><trkpt lat="44.833991" lon="9.7217744"><ele>409.0</ele><time>2026-04-12T08:18:19.177Z</time></trkpt><trkpt lat="44.8339166" lon="9.7217336"><ele>409.0</ele><time>2026-04-12T08:18:23.18Z</time></trkpt><trkpt lat="44.8338447" lon="9.7216866"><ele>409.0</ele><time>2026-04-12T08:18:27.179Z</time></trkpt><trkpt lat="44.8337746" lon="9.7216608"><ele>409.0</ele><time>2026-04-12T08:18:31.176Z</time></trkpt><trkpt lat="44.8336997" lon="9.7216224"><ele>409.0</ele><time>2026-04-12T08:18:35.165Z</time></trkpt><trkpt lat="44.8336313" lon="9.7215864"><ele>409.0</ele><time>2026-04-12T08:18:39.17Z</time></trkpt><trkpt lat="44.833562" lon="9.7215678"><ele>409.0</ele><time>2026-04-12T08:18:43.186Z</time></trkpt><trkpt lat="44.8334898" lon="9.7215434"><ele>409.0</ele><time>2026-04-12T08:18:47.173Z</time></trkpt><trkpt lat="44.8334157" lon="9.7215056"><ele>411.0</ele><time>2026-04-12T08:18:52.19Z</time></trkpt><trkpt lat="44.8333455" lon="9.7214662"><ele>413.0</ele><time>2026-04-12T08:18:56.177Z</time></trkpt><trkpt lat="44.8332797" lon="9.7214392"><ele>415.0</ele><time>2026-04-12T08:19:00.182Z</time></trkpt><trkpt lat="44.8332049" lon="9.7213987"><ele>417.0</ele><time>2026-04-12T08:19:05.167Z</time></trkpt><trkpt lat="44.8331366" lon="9.721352"><ele>419.0</ele><time>2026-04-12T08:19:09.16Z</time></trkpt><trkpt lat="44.8330778" lon="9.7213186"><ele>421.0</ele><time>2026-04-12T08:19:13.179Z</time></trkpt><trkpt lat="44.8330165" lon="9.721271"><ele>423.0</ele><time>2026-04-12T08:19:17.181Z</time></trkpt><trkpt lat="44.8329533" lon="9.721221"><ele>423.0</ele><time>2026-04-12T08:19:21.182Z</time></trkpt><trkpt lat="44.8328841" lon="9.7211724"><ele>423.0</ele><time>2026-04-12T08:19:25.177Z</time></trkpt><trkpt lat="44.8328258" lon="9.7211256"><ele>423.0</ele><time>2026-04-12T08:19:29.179Z</time></trkpt><trkpt lat="44.8327651" lon="9.7210589"><ele>423.0</ele><time>2026-04-12T08:19:33.173Z</time></trkpt><trkpt lat="44.832721" lon="9.7209938"><ele>423.0</ele><time>2026-04-12T08:19:36.17Z</time></trkpt><trkpt lat="44.8326799" lon="9.7209218"><ele>423.0</ele><time>2026-04-12T08:19:39.178Z</time></trkpt><trkpt lat="44.8326397" lon="9.7208518"><ele>423.0</ele><time>2026-04-12T08:19:42.177Z</time></trkpt><trkpt lat="44.8325935" lon="9.7207633"><ele>424.1666666666667</ele><time>2026-04-12T08:19:46.181Z</time></trkpt><trkpt lat="44.8325599" lon="9.7206656"><ele>425.33333333333337</ele><time>2026-04-12T08:19:50.172Z</time></trkpt><trkpt lat="44.8325235" lon="9.7205656"><ele>426.5</ele><time>2026-04-12T08:19:54.169Z</time></trkpt><trkpt lat="44.8324666" lon="9.7204823"><ele>427.6666666666667</ele><time>2026-04-12T08:19:58.157Z</time></trkpt><trkpt lat="44.832415" lon="9.7204307"><ele>428.83333333333337</ele><time>2026-04-12T08:20:01.178Z</time></trkpt><trkpt lat="44.8323478" lon="9.7203941"><ele>430.0</ele><time>2026-04-12T08:20:05.176Z</time></trkpt><trkpt lat="44.8322701" lon="9.7203815"><ele>430.00000000000006</ele><time>2026-04-12T08:20:09.176Z</time></trkpt><trkpt lat="44.8321995" lon="9.7203727"><ele>430.0</ele><time>2026-04-12T08:20:13.182Z</time></trkpt><trkpt lat="44.8321272" lon="9.7203628"><ele>430.0</ele><time>2026-04-12T08:20:17.182Z</time></trkpt><trkpt lat="44.8320603" lon="9.720344"><ele>430.0</ele><time>2026-04-12T08:20:21.174Z</time></trkpt><trkpt lat="44.8319917" lon="9.7202923"><ele>430.00000000000006</ele><time>2026-04-12T08:20:25.18Z</time></trkpt><trkpt lat="44.8319229" lon="9.7202212"><ele>430.0</ele><time>2026-04-12T08:20:29.177Z</time></trkpt><trkpt lat="44.8318641" lon="9.720155"><ele>430.33333333333337</ele><time>2026-04-12T08:20:33.179Z</time></trkpt><trkpt lat="44.8318147" lon="9.7200741"><ele>430.6666666666667</ele><time>2026-04-12T08:20:37.173Z</time></trkpt><trkpt lat="44.8317823" lon="9.7199692"><ele>431.0</ele><time>2026-04-12T08:20:41.18Z</time></trkpt><trkpt lat="44.8317552" lon="9.7198629"><ele>431.33333333333337</ele><time>2026-04-12T08:20:45.176Z</time></trkpt><trkpt lat="44.831726" lon="9.7197573"><ele>431.6666666666667</ele><time>2026-04-12T08:20:49.179Z</time></trkpt><trkpt lat="44.8316685" lon="9.7196739"><ele>432.0</ele><time>2026-04-12T08:20:53.167Z</time></trkpt><trkpt lat="44.8316209" lon="9.719611"><ele>432.0</ele><time>2026-04-12T08:20:57.184Z</time></trkpt><trkpt lat="44.831569" lon="9.7195476"><ele>432.0</ele><time>2026-04-12T08:21:01.18Z</time></trkpt><trkpt lat="44.8315238" lon="9.719472"><ele>432.0</ele><time>2026-04-12T08:21:05.174Z</time></trkpt><trkpt lat="44.8314875" lon="9.7193883"><ele>432.0</ele><time>2026-04-12T08:21:10.178Z</time></trkpt><trkpt lat="44.8314451" lon="9.7193134"><ele>432.0</ele><time>2026-04-12T08:21:14.181Z</time></trkpt><trkpt lat="44.831422" lon="9.7192266"><ele>432.0</ele><time>2026-04-12T08:21:18.177Z</time></trkpt><trkpt lat="44.8314091" lon="9.7191348"><ele>432.0</ele><time>2026-04-12T08:21:22.189Z</time></trkpt><trkpt lat="44.8313932" lon="9.7190459"><ele>432.85714285714283</ele><time>2026-04-12T08:21:26.178Z</time></trkpt><trkpt lat="44.8313774" lon="9.7189447"><ele>433.71428571428567</ele><time>2026-04-12T08:21:31.187Z</time></trkpt><trkpt lat="44.8313529" lon="9.7188435"><ele>434.57142857142856</ele><time>2026-04-12T08:21:35.168Z</time></trkpt><trkpt lat="44.8313351" lon="9.7187501"><ele>435.42857142857144</ele><time>2026-04-12T08:21:39.203Z</time></trkpt><trkpt lat="44.8313264" lon="9.7186508"><ele>436.2857142857143</ele><time>2026-04-12T08:21:43.181Z</time></trkpt><trkpt lat="44.8313228" lon="9.71856"><ele>437.14285714285717</ele><time>2026-04-12T08:21:47.178Z</time></trkpt><trkpt lat="44.8313221" lon="9.7184638"><ele>438.0</ele><time>2026-04-12T08:21:51.173Z</time></trkpt><trkpt lat="44.8313248" lon="9.7183698"><ele>438.2857142857143</ele><time>2026-04-12T08:21:55.15Z</time></trkpt><trkpt lat="44.8313342" lon="9.7182734"><ele>438.57142857142856</ele><time>2026-04-12T08:21:59.147Z</time></trkpt><trkpt lat="44.8313416" lon="9.7181743"><ele>438.85714285714283</ele><time>2026-04-12T08:22:03.166Z</time></trkpt><trkpt lat="44.8313426" lon="9.7180818"><ele>439.1428571428571</ele><time>2026-04-12T08:22:07.17Z</time></trkpt><trkpt lat="44.8313235" lon="9.7179754"><ele>439.42857142857144</ele><time>2026-04-12T08:22:12.158Z</time></trkpt><trkpt lat="44.8313145" lon="9.7178837"><ele>439.71428571428567</ele><time>2026-04-12T08:22:16.153Z</time></trkpt><trkpt lat="44.831302" lon="9.7177858"><ele>440.0</ele><time>2026-04-12T08:22:20.181Z</time></trkpt><trkpt lat="44.8312971" lon="9.7176962"><ele>440.2857142857143</ele><time>2026-04-12T08:22:24.184Z</time></trkpt><trkpt lat="44.8312958" lon="9.7175901"><ele>440.57142857142856</ele><time>2026-04-12T08:22:29.181Z</time></trkpt><trkpt lat="44.8313117" lon="9.7174884"><ele>440.8571428571429</ele><time>2026-04-12T08:22:34.184Z</time></trkpt><trkpt lat="44.8313339" lon="9.7173856"><ele>441.1428571428571</ele><time>2026-04-12T08:22:39.178Z</time></trkpt><trkpt lat="44.8313478" lon="9.7172984"><ele>441.42857142857144</ele><time>2026-04-12T08:22:43.181Z</time></trkpt><trkpt lat="44.8313709" lon="9.7171952"><ele>441.7142857142857</ele><time>2026-04-12T08:22:48.179Z</time></trkpt><trkpt lat="44.8313694" lon="9.7170901"><ele>442.0</ele><time>2026-04-12T08:22:52.181Z</time></trkpt><trkpt lat="44.83134" lon="9.7169988"><ele>442.00000000000006</ele><time>2026-04-12T08:22:56.157Z</time></trkpt><trkpt lat="44.8313147" lon="9.7169072"><ele>442.0</ele><time>2026-04-12T08:23:00.168Z</time></trkpt><trkpt lat="44.8312844" lon="9.7168055"><ele>442.0</ele><time>2026-04-12T08:23:04.17Z</time></trkpt><trkpt lat="44.8312491" lon="9.7167045"><ele>442.0</ele><time>2026-04-12T08:23:08.183Z</time></trkpt><trkpt lat="44.831195" lon="9.716643"><ele>442.0</ele><time>2026-04-12T08:23:12.184Z</time></trkpt><trkpt lat="44.831149" lon="9.7165736"><ele>442.00000000000006</ele><time>2026-04-12T08:23:17.177Z</time></trkpt><trkpt lat="44.8311015" lon="9.7165038"><ele>442.0</ele><time>2026-04-12T08:23:21.179Z</time></trkpt><trkpt lat="44.8310576" lon="9.7164156"><ele>441.5714285714286</ele><time>2026-04-12T08:23:25.161Z</time></trkpt><trkpt lat="44.8310116" lon="9.7163215"><ele>441.14285714285717</ele><time>2026-04-12T08:23:29.185Z</time></trkpt><trkpt lat="44.8309683" lon="9.716245"><ele>440.7142857142857</ele><time>2026-04-12T08:23:33.195Z</time></trkpt><trkpt lat="44.8309267" lon="9.7161595"><ele>440.28571428571433</ele><time>2026-04-12T08:23:37.185Z</time></trkpt><trkpt lat="44.8308955" lon="9.7160772"><ele>439.85714285714283</ele><time>2026-04-12T08:23:41.182Z</time></trkpt><trkpt lat="44.8308775" lon="9.7159867"><ele>439.42857142857144</ele><time>2026-04-12T08:23:45.174Z</time></trkpt><trkpt lat="44.8308618" lon="9.7158893"><ele>439.0</ele><time>2026-04-12T08:23:49.186Z</time></trkpt><trkpt lat="44.8308504" lon="9.7157964"><ele>441.2857142857143</ele><time>2026-04-12T08:23:53.179Z</time></trkpt><trkpt lat="44.8308464" lon="9.7157031"><ele>443.57142857142856</ele><time>2026-04-12T08:23:57.171Z</time></trkpt><trkpt lat="44.8308565" lon="9.7156134"><ele>445.8571428571429</ele><time>2026-04-12T08:24:01.183Z</time></trkpt><trkpt lat="44.8308649" lon="9.7155077"><ele>448.1428571428571</ele><time>2026-04-12T08:24:05.187Z</time></trkpt><trkpt lat="44.8308516" lon="9.7154019"><ele>450.42857142857144</ele><time>2026-04-12T08:24:09.176Z</time></trkpt><trkpt lat="44.8308287" lon="9.7153143"><ele>452.7142857142857</ele><time>2026-04-12T08:24:13.177Z</time></trkpt><trkpt lat="44.8308056" lon="9.7152243"><ele>455.0</ele><time>2026-04-12T08:24:17.16Z</time></trkpt><trkpt lat="44.8307812" lon="9.7151338"><ele>455.7142857142857</ele><time>2026-04-12T08:24:21.183Z</time></trkpt><trkpt lat="44.8307368" lon="9.7150471"><ele>456.42857142857144</ele><time>2026-04-12T08:24:26.18Z</time></trkpt><trkpt lat="44.8306945" lon="9.7149712"><ele>457.1428571428571</ele><time>2026-04-12T08:24:30.177Z</time></trkpt><trkpt lat="44.830674" lon="9.7148822"><ele>457.85714285714283</ele><time>2026-04-12T08:24:34.174Z</time></trkpt><trkpt lat="44.8306605" lon="9.7147779"><ele>458.57142857142856</ele><time>2026-04-12T08:24:39.175Z</time></trkpt><trkpt lat="44.8306448" lon="9.7146774"><ele>459.2857142857142</ele><time>2026-04-12T08:24:44.19Z</time></trkpt><trkpt lat="44.8306359" lon="9.7145855"><ele>459.99999999999994</ele><time>2026-04-12T08:24:48.172Z</time></trkpt><trkpt lat="44.8306204" lon="9.7144964"><ele>460.42857142857133</ele><time>2026-04-12T08:24:52.197Z</time></trkpt><trkpt lat="44.830618" lon="9.7143953"><ele>460.85714285714283</ele><time>2026-04-12T08:24:56.177Z</time></trkpt><trkpt lat="44.8306226" lon="9.7142937"><ele>461.2857142857142</ele><time>2026-04-12T08:25:01.184Z</time></trkpt><trkpt lat="44.8306298" lon="9.7141948"><ele>461.71428571428567</ele><time>2026-04-12T08:25:06.173Z</time></trkpt><trkpt lat="44.8306471" lon="9.7140881"><ele>462.1428571428571</ele><time>2026-04-12T08:25:11.176Z</time></trkpt><trkpt lat="44.8306493" lon="9.7139993"><ele>462.57142857142856</ele><time>2026-04-12T08:25:15.177Z</time></trkpt><trkpt lat="44.8306513" lon="9.7139065"><ele>463.0</ele><time>2026-04-12T08:25:19.162Z</time></trkpt><trkpt lat="44.8306502" lon="9.7138174"><ele>463.00000000000006</ele><time>2026-04-12T08:25:23.18Z</time></trkpt><trkpt lat="44.8306555" lon="9.7137241"><ele>463.0</ele><time>2026-04-12T08:25:27.177Z</time></trkpt><trkpt lat="44.8306664" lon="9.713616"><ele>463.0</ele><time>2026-04-12T08:25:31.19Z</time></trkpt><trkpt lat="44.8306773" lon="9.7135037"><ele>463.0</ele><time>2026-04-12T08:25:35.174Z</time></trkpt><trkpt lat="44.8306746" lon="9.7134057"><ele>463.00000000000006</ele><time>2026-04-12T08:25:39.176Z</time></trkpt><trkpt lat="44.8306656" lon="9.7132976"><ele>463.0</ele><time>2026-04-12T08:25:43.19Z</time></trkpt><trkpt lat="44.8306515" lon="9.7131853"><ele>464.0</ele><time>2026-04-12T08:25:47.177Z</time></trkpt><trkpt lat="44.8306211" lon="9.713089"><ele>464.99999999999994</ele><time>2026-04-12T08:25:51.178Z</time></trkpt><trkpt lat="44.8305755" lon="9.7130055"><ele>466.0</ele><time>2026-04-12T08:25:55.184Z</time></trkpt><trkpt lat="44.8305342" lon="9.71292"><ele>467.0</ele><time>2026-04-12T08:25:59.176Z</time></trkpt><trkpt lat="44.8304967" lon="9.7128462"><ele>467.99999999999994</ele><time>2026-04-12T08:26:02.171Z</time></trkpt><trkpt lat="44.8304535" lon="9.7127608"><ele>469.0</ele><time>2026-04-12T08:26:06.178Z</time></trkpt><trkpt lat="44.8304565" lon="9.7126405"><ele>470.0</ele><time>2026-04-12T08:26:09.164Z</time></trkpt><trkpt lat="44.8304712" lon="9.7125238"><ele>470.8</ele><time>2026-04-12T08:26:12.181Z</time></trkpt><trkpt lat="44.8304672" lon="9.7124032"><ele>471.6</ele><time>2026-04-12T08:26:15.181Z</time></trkpt><trkpt lat="44.8304249" lon="9.7123008"><ele>472.4</ele><time>2026-04-12T08:26:17.165Z</time></trkpt><trkpt lat="44.8303626" lon="9.7121741"><ele>473.2</ele><time>2026-04-12T08:26:19.191Z</time></trkpt><trkpt lat="44.8302885" lon="9.7120347"><ele>474.0</ele><time>2026-04-12T08:26:21.169Z</time></trkpt><trkpt lat="44.8302408" lon="9.7119606"><ele>474.1428571428571</ele><time>2026-04-12T08:26:22.177Z</time></trkpt><trkpt lat="44.8301987" lon="9.7118773"><ele>474.2857142857143</ele><time>2026-04-12T08:26:23.184Z</time></trkpt><trkpt lat="44.8301525" lon="9.7117933"><ele>474.42857142857144</ele><time>2026-04-12T08:26:24.187Z</time></trkpt><trkpt lat="44.8301071" lon="9.7117182"><ele>474.57142857142856</ele><time>2026-04-12T08:26:25.191Z</time></trkpt><trkpt lat="44.8300609" lon="9.7116365"><ele>474.7142857142858</ele><time>2026-04-12T08:26:26.181Z</time></trkpt><trkpt lat="44.8300208" lon="9.7115458"><ele>474.8571428571429</ele><time>2026-04-12T08:26:27.181Z</time></trkpt><trkpt lat="44.8299747" lon="9.7114531"><ele>475.0</ele><time>2026-04-12T08:26:28.172Z</time></trkpt><trkpt lat="44.8299231" lon="9.7113607"><ele>475.00000000000006</ele><time>2026-04-12T08:26:29.178Z</time></trkpt><trkpt lat="44.8298692" lon="9.7112663"><ele>475.0</ele><time>2026-04-12T08:26:30.181Z</time></trkpt><trkpt lat="44.8298226" lon="9.7111718"><ele>475.0</ele><time>2026-04-12T08:26:31.186Z</time></trkpt><trkpt lat="44.8297773" lon="9.7110807"><ele>475.0</ele><time>2026-04-12T08:26:32.189Z</time></trkpt><trkpt lat="44.8297294" lon="9.7109948"><ele>475.00000000000006</ele><time>2026-04-12T08:26:33.181Z</time></trkpt><trkpt lat="44.8296786" lon="9.7109159"><ele>475.0</ele><time>2026-04-12T08:26:34.169Z</time></trkpt><trkpt lat="44.8296283" lon="9.7108357"><ele>475.1666666666667</ele><time>2026-04-12T08:26:35.18Z</time></trkpt><trkpt lat="44.8295781" lon="9.71076"><ele>475.33333333333337</ele><time>2026-04-12T08:26:36.172Z</time></trkpt><trkpt lat="44.8295247" lon="9.7106862"><ele>475.5</ele><time>2026-04-12T08:26:37.19Z</time></trkpt><trkpt lat="44.8294385" lon="9.7105735"><ele>475.66666666666663</ele><time>2026-04-12T08:26:39.196Z</time></trkpt><trkpt lat="44.829366" lon="9.7104905"><ele>475.8333333333333</ele><time>2026-04-12T08:26:41.168Z</time></trkpt><trkpt lat="44.8292973" lon="9.7104262"><ele>476.0</ele><time>2026-04-12T08:26:43.182Z</time></trkpt><trkpt lat="44.8292374" lon="9.7103635"><ele>475.99999999999994</ele><time>2026-04-12T08:26:45.181Z</time></trkpt><trkpt lat="44.8291782" lon="9.7103026"><ele>476.0</ele><time>2026-04-12T08:26:47.195Z</time></trkpt><trkpt lat="44.829109" lon="9.7102523"><ele>476.0</ele><time>2026-04-12T08:26:49.189Z</time></trkpt><trkpt lat="44.829025" lon="9.710184"><ele>476.0</ele><time>2026-04-12T08:26:51.173Z</time></trkpt><trkpt lat="44.828919" lon="9.7101221"><ele>475.99999999999994</ele><time>2026-04-12T08:26:53.181Z</time></trkpt><trkpt lat="44.8288579" lon="9.7100843"><ele>476.0</ele><time>2026-04-12T08:26:54.182Z</time></trkpt><trkpt lat="44.8287959" lon="9.7100338"><ele>475.99999999999994</ele><time>2026-04-12T08:26:55.181Z</time></trkpt><trkpt lat="44.8287263" lon="9.7099959"><ele>476.0</ele><time>2026-04-12T08:26:56.182Z</time></trkpt><trkpt lat="44.8286598" lon="9.7099678"><ele>476.0</ele><time>2026-04-12T08:26:57.179Z</time></trkpt><trkpt lat="44.8285968" lon="9.7099359"><ele>476.0</ele><time>2026-04-12T08:26:58.184Z</time></trkpt><trkpt lat="44.8285321" lon="9.7099022"><ele>475.99999999999994</ele><time>2026-04-12T08:26:59.178Z</time></trkpt><trkpt lat="44.8284725" lon="9.709868"><ele>476.0</ele><time>2026-04-12T08:27:00.193Z</time></trkpt><trkpt lat="44.8283688" lon="9.7097888"><ele>475.99999999999994</ele><time>2026-04-12T08:27:02.173Z</time></trkpt><trkpt lat="44.8282828" lon="9.7097146"><ele>476.0</ele><time>2026-04-12T08:27:04.193Z</time></trkpt><trkpt lat="44.8282056" lon="9.7096429"><ele>476.0</ele><time>2026-04-12T08:27:06.177Z</time></trkpt><trkpt lat="44.8281382" lon="9.7095636"><ele>476.0</ele><time>2026-04-12T08:27:08.179Z</time></trkpt><trkpt lat="44.8280776" lon="9.7094793"><ele>475.99999999999994</ele><time>2026-04-12T08:27:10.185Z</time></trkpt><trkpt lat="44.828018" lon="9.7094044"><ele>476.0</ele><time>2026-04-12T08:27:12.19Z</time></trkpt><trkpt lat="44.8279661" lon="9.7093285"><ele>476.16666666666663</ele><time>2026-04-12T08:27:14.181Z</time></trkpt><trkpt lat="44.8279136" lon="9.7092624"><ele>476.3333333333333</ele><time>2026-04-12T08:27:16.182Z</time></trkpt><trkpt lat="44.827855" lon="9.7091938"><ele>476.5</ele><time>2026-04-12T08:27:18.185Z</time></trkpt><trkpt lat="44.8278007" lon="9.7091256"><ele>476.66666666666663</ele><time>2026-04-12T08:27:20.177Z</time></trkpt><trkpt lat="44.8277457" lon="9.7090594"><ele>476.8333333333333</ele><time>2026-04-12T08:27:22.178Z</time></trkpt><trkpt lat="44.8276751" lon="9.7089774"><ele>477.0</ele><time>2026-04-12T08:27:25.173Z</time></trkpt><trkpt lat="44.827608" lon="9.7088855"><ele>477.3333333333333</ele><time>2026-04-12T08:27:28.183Z</time></trkpt><trkpt lat="44.8275436" lon="9.7088023"><ele>477.66666666666663</ele><time>2026-04-12T08:27:31.181Z</time></trkpt><trkpt lat="44.8274944" lon="9.7087443"><ele>478.0</ele><time>2026-04-12T08:27:33.188Z</time></trkpt><trkpt lat="44.8274184" lon="9.7086596"><ele>478.3333333333333</ele><time>2026-04-12T08:27:36.179Z</time></trkpt><trkpt lat="44.827346" lon="9.7085745"><ele>478.66666666666663</ele><time>2026-04-12T08:27:39.183Z</time></trkpt><trkpt lat="44.827277" lon="9.7084909"><ele>479.0</ele><time>2026-04-12T08:27:42.187Z</time></trkpt><trkpt lat="44.8272077" lon="9.7084062"><ele>479.3333333333333</ele><time>2026-04-12T08:27:45.179Z</time></trkpt><trkpt lat="44.8271446" lon="9.7083139"><ele>479.66666666666663</ele><time>2026-04-12T08:27:48.183Z</time></trkpt><trkpt lat="44.8271016" lon="9.7082173"><ele>480.0</ele><time>2026-04-12T08:27:51.183Z</time></trkpt><trkpt lat="44.8270559" lon="9.7081142"><ele>480.33333333333337</ele><time>2026-04-12T08:27:54.18Z</time></trkpt><trkpt lat="44.8270209" lon="9.7080099"><ele>480.6666666666667</ele><time>2026-04-12T08:27:57.187Z</time></trkpt><trkpt lat="44.8269761" lon="9.7079001"><ele>481.0</ele><time>2026-04-12T08:28:00.181Z</time></trkpt><trkpt lat="44.8269455" lon="9.7078195"><ele>480.00000000000006</ele><time>2026-04-12T08:28:02.176Z</time></trkpt><trkpt lat="44.8269119" lon="9.7077084"><ele>479.0</ele><time>2026-04-12T08:28:05.183Z</time></trkpt><trkpt lat="44.8268699" lon="9.7076026"><ele>478.0</ele><time>2026-04-12T08:28:08.182Z</time></trkpt><trkpt lat="44.826821" lon="9.7075021"><ele>477.0</ele><time>2026-04-12T08:28:11.172Z</time></trkpt><trkpt lat="44.8267769" lon="9.707398"><ele>476.00000000000006</ele><time>2026-04-12T08:28:14.183Z</time></trkpt><trkpt lat="44.8267288" lon="9.707293"><ele>475.0</ele><time>2026-04-12T08:28:17.182Z</time></trkpt><trkpt lat="44.8266707" lon="9.7072097"><ele>476.6666666666667</ele><time>2026-04-12T08:28:20.188Z</time></trkpt><trkpt lat="44.8266296" lon="9.7071409"><ele>478.33333333333337</ele><time>2026-04-12T08:28:22.177Z</time></trkpt><trkpt lat="44.8265597" lon="9.7070588"><ele>480.0</ele><time>2026-04-12T08:28:25.182Z</time></trkpt><trkpt lat="44.8265001" lon="9.7069765"><ele>481.66666666666663</ele><time>2026-04-12T08:28:28.178Z</time></trkpt><trkpt lat="44.8264367" lon="9.7068926"><ele>483.3333333333333</ele><time>2026-04-12T08:28:31.187Z</time></trkpt><trkpt lat="44.8263641" lon="9.706814"><ele>485.0</ele><time>2026-04-12T08:28:34.179Z</time></trkpt><trkpt lat="44.8262921" lon="9.7067312"><ele>484.99999999999994</ele><time>2026-04-12T08:28:37.163Z</time></trkpt><trkpt lat="44.8262251" lon="9.7066659"><ele>485.0</ele><time>2026-04-12T08:28:40.178Z</time></trkpt><trkpt lat="44.8261603" lon="9.7065904"><ele>485.0</ele><time>2026-04-12T08:28:43.187Z</time></trkpt><trkpt lat="44.8260911" lon="9.7065149"><ele>485.0</ele><time>2026-04-12T08:28:46.181Z</time></trkpt><trkpt lat="44.8260205" lon="9.7064386"><ele>484.99999999999994</ele><time>2026-04-12T08:28:49.186Z</time></trkpt><trkpt lat="44.8259689" lon="9.7063813"><ele>485.0</ele><time>2026-04-12T08:28:51.175Z</time></trkpt><trkpt lat="44.8258983" lon="9.7063063"><ele>485.8333333333333</ele><time>2026-04-12T08:28:54.173Z</time></trkpt><trkpt lat="44.8258289" lon="9.7062336"><ele>486.66666666666663</ele><time>2026-04-12T08:28:57.189Z</time></trkpt><trkpt lat="44.8257793" lon="9.7061762"><ele>487.5</ele><time>2026-04-12T08:28:59.185Z</time></trkpt><trkpt lat="44.8257111" lon="9.7060937"><ele>488.33333333333337</ele><time>2026-04-12T08:29:02.183Z</time></trkpt><trkpt lat="44.8256517" lon="9.7060007"><ele>489.1666666666667</ele><time>2026-04-12T08:29:05.177Z</time></trkpt><trkpt lat="44.8256114" lon="9.7059266"><ele>490.0</ele><time>2026-04-12T08:29:07.194Z</time></trkpt><trkpt lat="44.825564" lon="9.7058257"><ele>490.00000000000006</ele><time>2026-04-12T08:29:10.172Z</time></trkpt><trkpt lat="44.8255336" lon="9.7057038"><ele>490.0</ele><time>2026-04-12T08:29:13.158Z</time></trkpt><trkpt lat="44.8255108" lon="9.7056185"><ele>490.0</ele><time>2026-04-12T08:29:15.19Z</time></trkpt><trkpt lat="44.8254802" lon="9.7054974"><ele>490.0</ele><time>2026-04-12T08:29:18.179Z</time></trkpt><trkpt lat="44.8254567" lon="9.7053763"><ele>490.00000000000006</ele><time>2026-04-12T08:29:21.183Z</time></trkpt><trkpt lat="44.8254388" lon="9.7052565"><ele>490.0</ele><time>2026-04-12T08:29:24.176Z</time></trkpt><trkpt lat="44.8254236" lon="9.7051316"><ele>490.50000000000006</ele><time>2026-04-12T08:29:27.18Z</time></trkpt><trkpt lat="44.8254167" lon="9.7050222"><ele>491.0</ele><time>2026-04-12T08:29:30.177Z</time></trkpt><trkpt lat="44.8254053" lon="9.7049022"><ele>491.5</ele><time>2026-04-12T08:29:33.187Z</time></trkpt><trkpt lat="44.8253979" lon="9.7047846"><ele>492.0</ele><time>2026-04-12T08:29:36.182Z</time></trkpt><trkpt lat="44.8253927" lon="9.704671"><ele>492.50000000000006</ele><time>2026-04-12T08:29:39.186Z</time></trkpt><trkpt lat="44.825382" lon="9.7045568"><ele>493.0</ele><time>2026-04-12T08:29:42.184Z</time></trkpt><trkpt lat="44.8253712" lon="9.7044462"><ele>493.1666666666667</ele><time>2026-04-12T08:29:45.186Z</time></trkpt><trkpt lat="44.8253653" lon="9.7043382"><ele>493.33333333333337</ele><time>2026-04-12T08:29:48.182Z</time></trkpt><trkpt lat="44.8253525" lon="9.7042303"><ele>493.5</ele><time>2026-04-12T08:29:51.184Z</time></trkpt><trkpt lat="44.8253281" lon="9.7041175"><ele>493.66666666666663</ele><time>2026-04-12T08:29:54.169Z</time></trkpt><trkpt lat="44.8252742" lon="9.7040204"><ele>493.8333333333333</ele><time>2026-04-12T08:29:57.187Z</time></trkpt><trkpt lat="44.8252241" lon="9.7039383"><ele>494.0</ele><time>2026-04-12T08:30:00.184Z</time></trkpt><trkpt lat="44.8251665" lon="9.7038532"><ele>495.8333333333333</ele><time>2026-04-12T08:30:03.183Z</time></trkpt><trkpt lat="44.8251042" lon="9.7037689"><ele>497.66666666666663</ele><time>2026-04-12T08:30:06.171Z</time></trkpt><trkpt lat="44.8250548" lon="9.7036957"><ele>499.5</ele><time>2026-04-12T08:30:09.18Z</time></trkpt><trkpt lat="44.8249952" lon="9.7036248"><ele>501.33333333333337</ele><time>2026-04-12T08:30:12.176Z</time></trkpt><trkpt lat="44.8249352" lon="9.7035415"><ele>503.1666666666667</ele><time>2026-04-12T08:30:15.175Z</time></trkpt><trkpt lat="44.8248792" lon="9.7034713"><ele>505.0</ele><time>2026-04-12T08:30:18.184Z</time></trkpt><trkpt lat="44.8248391" lon="9.7033887"><ele>505.6666666666667</ele><time>2026-04-12T08:30:21.185Z</time></trkpt><trkpt lat="44.8248305" lon="9.703283"><ele>506.33333333333337</ele><time>2026-04-12T08:30:24.177Z</time></trkpt><trkpt lat="44.824882" lon="9.7031924"><ele>507.0</ele><time>2026-04-12T08:30:27.188Z</time></trkpt><trkpt lat="44.8249326" lon="9.7030801"><ele>507.66666666666663</ele><time>2026-04-12T08:30:30.174Z</time></trkpt><trkpt lat="44.8249699" lon="9.7030082"><ele>508.3333333333333</ele><time>2026-04-12T08:30:32.168Z</time></trkpt><trkpt lat="44.8250118" lon="9.7029347"><ele>509.0</ele><time>2026-04-12T08:30:34.181Z</time></trkpt><trkpt lat="44.8250583" lon="9.7028569"><ele>509.0</ele><time>2026-04-12T08:30:36.183Z</time></trkpt><trkpt lat="44.8251004" lon="9.7027826"><ele>509.0</ele><time>2026-04-12T08:30:38.182Z</time></trkpt><trkpt lat="44.8251514" lon="9.7026965"><ele>509.0</ele><time>2026-04-12T08:30:40.181Z</time></trkpt><trkpt lat="44.8251983" lon="9.7025967"><ele>509.0</ele><time>2026-04-12T08:30:42.185Z</time></trkpt><trkpt lat="44.8252561" lon="9.7024606"><ele>509.0</ele><time>2026-04-12T08:30:44.174Z</time></trkpt><trkpt lat="44.8252905" lon="9.7023158"><ele>507.4</ele><time>2026-04-12T08:30:46.177Z</time></trkpt><trkpt lat="44.8253261" lon="9.7021629"><ele>505.79999999999995</ele><time>2026-04-12T08:30:48.184Z</time></trkpt><trkpt lat="44.8253443" lon="9.702021"><ele>504.20000000000005</ele><time>2026-04-12T08:30:50.181Z</time></trkpt><trkpt lat="44.8253492" lon="9.7018962"><ele>502.6</ele><time>2026-04-12T08:30:52.181Z</time></trkpt><trkpt lat="44.8253649" lon="9.7017577"><ele>501.0</ele><time>2026-04-12T08:30:54.182Z</time></trkpt><trkpt lat="44.8253857" lon="9.701605"><ele>500.6666666666667</ele><time>2026-04-12T08:30:56.184Z</time></trkpt><trkpt lat="44.825394" lon="9.7015153"><ele>500.33333333333337</ele><time>2026-04-12T08:30:57.165Z</time></trkpt><trkpt lat="44.8254069" lon="9.7014252"><ele>500.0</ele><time>2026-04-12T08:30:58.183Z</time></trkpt><trkpt lat="44.8254337" lon="9.7013404"><ele>499.6666666666667</ele><time>2026-04-12T08:30:59.161Z</time></trkpt><trkpt lat="44.8254843" lon="9.7012794"><ele>499.33333333333337</ele><time>2026-04-12T08:31:00.177Z</time></trkpt><trkpt lat="44.8255465" lon="9.701242"><ele>499.0</ele><time>2026-04-12T08:31:01.191Z</time></trkpt><trkpt lat="44.8256714" lon="9.7011779"><ele>499.00000000000006</ele><time>2026-04-12T08:31:03.185Z</time></trkpt><trkpt lat="44.8257363" lon="9.7011426"><ele>499.0</ele><time>2026-04-12T08:31:04.19Z</time></trkpt><trkpt lat="44.825808" lon="9.7011074"><ele>499.00000000000006</ele><time>2026-04-12T08:31:05.18Z</time></trkpt><trkpt lat="44.8258809" lon="9.7010764"><ele>499.00000000000006</ele><time>2026-04-12T08:31:06.164Z</time></trkpt><trkpt lat="44.82595" lon="9.701039"><ele>499.0</ele><time>2026-04-12T08:31:07.178Z</time></trkpt><trkpt lat="44.826017" lon="9.7010028"><ele>499.00000000000006</ele><time>2026-04-12T08:31:08.184Z</time></trkpt><trkpt lat="44.8260819" lon="9.7009675"><ele>499.00000000000006</ele><time>2026-04-12T08:31:09.183Z</time></trkpt><trkpt lat="44.826148" lon="9.7009299"><ele>497.1428571428572</ele><time>2026-04-12T08:31:10.183Z</time></trkpt><trkpt lat="44.8262075" lon="9.7008909"><ele>495.28571428571433</ele><time>2026-04-12T08:31:11.181Z</time></trkpt><trkpt lat="44.8262784" lon="9.7008532"><ele>493.42857142857144</ele><time>2026-04-12T08:31:12.189Z</time></trkpt><trkpt lat="44.8263502" lon="9.7008185"><ele>491.5714285714286</ele><time>2026-04-12T08:31:13.18Z</time></trkpt><trkpt lat="44.8264218" lon="9.7007774"><ele>489.7142857142858</ele><time>2026-04-12T08:31:14.179Z</time></trkpt><trkpt lat="44.8264888" lon="9.7007398"><ele>487.85714285714283</ele><time>2026-04-12T08:31:15.179Z</time></trkpt><trkpt lat="44.8265566" lon="9.7006939"><ele>486.0</ele><time>2026-04-12T08:31:16.173Z</time></trkpt><trkpt lat="44.8266246" lon="9.7006453"><ele>486.0</ele><time>2026-04-12T08:31:17.187Z</time></trkpt><trkpt lat="44.8266888" lon="9.7005909"><ele>486.0</ele><time>2026-04-12T08:31:18.172Z</time></trkpt><trkpt lat="44.8267516" lon="9.700548"><ele>486.0</ele><time>2026-04-12T08:31:19.19Z</time></trkpt><trkpt lat="44.8268184" lon="9.7005054"><ele>486.0</ele><time>2026-04-12T08:31:20.18Z</time></trkpt><trkpt lat="44.8268821" lon="9.7004655"><ele>486.0</ele><time>2026-04-12T08:31:21.181Z</time></trkpt><trkpt lat="44.8269517" lon="9.7004313"><ele>486.0</ele><time>2026-04-12T08:31:22.187Z</time></trkpt><trkpt lat="44.8270208" lon="9.700396"><ele>486.0</ele><time>2026-04-12T08:31:23.186Z</time></trkpt><trkpt lat="44.827085" lon="9.7003581"><ele>485.0</ele><time>2026-04-12T08:31:24.165Z</time></trkpt><trkpt lat="44.827147" lon="9.7003264"><ele>484.0</ele><time>2026-04-12T08:31:25.188Z</time></trkpt><trkpt lat="44.827264" lon="9.7002944"><ele>483.0</ele><time>2026-04-12T08:31:27.184Z</time></trkpt><trkpt lat="44.8273262" lon="9.7002764"><ele>482.0</ele><time>2026-04-12T08:31:28.183Z</time></trkpt><trkpt lat="44.827395" lon="9.7002592"><ele>481.0</ele><time>2026-04-12T08:31:29.186Z</time></trkpt><trkpt lat="44.8274674" lon="9.700254"><ele>480.0</ele><time>2026-04-12T08:31:30.183Z</time></trkpt><trkpt lat="44.8275378" lon="9.7002582"><ele>480.0</ele><time>2026-04-12T08:31:31.19Z</time></trkpt><trkpt lat="44.8276049" lon="9.7002869"><ele>480.0</ele><time>2026-04-12T08:31:32.19Z</time></trkpt><trkpt lat="44.8276681" lon="9.7003127"><ele>480.0</ele><time>2026-04-12T08:31:33.183Z</time></trkpt><trkpt lat="44.827784" lon="9.700344"><ele>480.0</ele><time>2026-04-12T08:31:35.18Z</time></trkpt><trkpt lat="44.8278972" lon="9.7003307"><ele>480.0</ele><time>2026-04-12T08:31:37.181Z</time></trkpt><trkpt lat="44.8279456" lon="9.700266"><ele>480.0</ele><time>2026-04-12T08:31:38.188Z</time></trkpt><trkpt lat="44.8279755" lon="9.7001738"><ele>478.14285714285717</ele><time>2026-04-12T08:31:39.181Z</time></trkpt><trkpt lat="44.8279944" lon="9.7000884"><ele>476.2857142857142</ele><time>2026-04-12T08:31:40.172Z</time></trkpt><trkpt lat="44.8280041" lon="9.6999968"><ele>474.4285714285714</ele><time>2026-04-12T08:31:41.178Z</time></trkpt><trkpt lat="44.8279826" lon="9.6998967"><ele>472.57142857142856</ele><time>2026-04-12T08:31:42.179Z</time></trkpt><trkpt lat="44.8279506" lon="9.6997945"><ele>470.71428571428567</ele><time>2026-04-12T08:31:43.181Z</time></trkpt><trkpt lat="44.8279127" lon="9.6997039"><ele>468.8571428571428</ele><time>2026-04-12T08:31:44.178Z</time></trkpt><trkpt lat="44.8278824" lon="9.6996059"><ele>466.99999999999994</ele><time>2026-04-12T08:31:45.182Z</time></trkpt><trkpt lat="44.8278497" lon="9.6995103"><ele>466.99999999999994</ele><time>2026-04-12T08:31:46.184Z</time></trkpt><trkpt lat="44.8278157" lon="9.6994192"><ele>467.0</ele><time>2026-04-12T08:31:47.162Z</time></trkpt><trkpt lat="44.8277876" lon="9.6993265"><ele>466.99999999999994</ele><time>2026-04-12T08:31:48.17Z</time></trkpt><trkpt lat="44.827761" lon="9.6992377"><ele>466.99999999999994</ele><time>2026-04-12T08:31:49.18Z</time></trkpt><trkpt lat="44.8277373" lon="9.6991491"><ele>467.0</ele><time>2026-04-12T08:31:50.172Z</time></trkpt><trkpt lat="44.8277173" lon="9.6990558"><ele>466.99999999999994</ele><time>2026-04-12T08:31:51.18Z</time></trkpt><trkpt lat="44.8276999" lon="9.6989648"><ele>466.99999999999994</ele><time>2026-04-12T08:31:52.165Z</time></trkpt><trkpt lat="44.8276821" lon="9.698878"><ele>467.0</ele><time>2026-04-12T08:31:53.184Z</time></trkpt><trkpt lat="44.8276443" lon="9.6987126"><ele>467.00000000000006</ele><time>2026-04-12T08:31:55.183Z</time></trkpt><trkpt lat="44.82761" lon="9.6985718"><ele>467.00000000000006</ele><time>2026-04-12T08:31:57.185Z</time></trkpt><trkpt lat="44.827592" lon="9.6984628"><ele>467.0</ele><time>2026-04-12T08:31:59.183Z</time></trkpt><trkpt lat="44.8275889" lon="9.6983581"><ele>467.0</ele><time>2026-04-12T08:32:01.182Z</time></trkpt><trkpt lat="44.8276125" lon="9.6982423"><ele>467.8333333333333</ele><time>2026-04-12T08:32:04.181Z</time></trkpt><trkpt lat="44.827675" lon="9.6981888"><ele>468.66666666666663</ele><time>2026-04-12T08:34:09.179Z</time></trkpt><trkpt lat="44.8277293" lon="9.6981402"><ele>469.5</ele><time>2026-04-12T08:34:12.172Z</time></trkpt><trkpt lat="44.8278182" lon="9.6980852"><ele>470.33333333333337</ele><time>2026-04-12T08:34:15.171Z</time></trkpt><trkpt lat="44.8278933" lon="9.6980693"><ele>471.1666666666667</ele><time>2026-04-12T08:34:17.189Z</time></trkpt><trkpt lat="44.827966" lon="9.6980754"><ele>472.0</ele><time>2026-04-12T08:34:19.171Z</time></trkpt><trkpt lat="44.828039" lon="9.69808"><ele>472.00000000000006</ele><time>2026-04-12T08:34:21.177Z</time></trkpt><trkpt lat="44.828125" lon="9.6980808"><ele>472.0</ele><time>2026-04-12T08:34:24.165Z</time></trkpt><trkpt lat="44.8281963" lon="9.698071"><ele>472.0</ele><time>2026-04-12T08:34:27.161Z</time></trkpt><trkpt lat="44.8282692" lon="9.6980827"><ele>472.0</ele><time>2026-04-12T08:34:30.179Z</time></trkpt><trkpt lat="44.8283591" lon="9.6981125"><ele>472.00000000000006</ele><time>2026-04-12T08:34:33.189Z</time></trkpt><trkpt lat="44.8284239" lon="9.6981335"><ele>472.0</ele><time>2026-04-12T08:34:35.172Z</time></trkpt><trkpt lat="44.8284963" lon="9.6981508"><ele>472.2857142857143</ele><time>2026-04-12T08:34:37.19Z</time></trkpt><trkpt lat="44.8285731" lon="9.6981592"><ele>472.57142857142856</ele><time>2026-04-12T08:34:39.172Z</time></trkpt><trkpt lat="44.8286454" lon="9.6981736"><ele>472.85714285714283</ele><time>2026-04-12T08:34:41.18Z</time></trkpt><trkpt lat="44.828711" lon="9.6982043"><ele>473.1428571428571</ele><time>2026-04-12T08:34:43.165Z</time></trkpt><trkpt lat="44.8287716" lon="9.6982454"><ele>473.42857142857144</ele><time>2026-04-12T08:34:45.183Z</time></trkpt><trkpt lat="44.8288352" lon="9.6982879"><ele>473.71428571428567</ele><time>2026-04-12T08:34:47.169Z</time></trkpt><trkpt lat="44.8288927" lon="9.6983403"><ele>473.99999999999994</ele><time>2026-04-12T08:34:49.178Z</time></trkpt><trkpt lat="44.8289508" lon="9.6983901"><ele>474.0</ele><time>2026-04-12T08:34:51.18Z</time></trkpt><trkpt lat="44.8290192" lon="9.6984308"><ele>474.0</ele><time>2026-04-12T08:34:54.178Z</time></trkpt><trkpt lat="44.829097" lon="9.6984772"><ele>474.0</ele><time>2026-04-12T08:35:58.183Z</time></trkpt><trkpt lat="44.8291724" lon="9.6985195"><ele>474.0</ele><time>2026-04-12T08:36:00.167Z</time></trkpt><trkpt lat="44.8292529" lon="9.6985527"><ele>474.0</ele><time>2026-04-12T08:36:02.176Z</time></trkpt><trkpt lat="44.8293351" lon="9.6985733"><ele>474.0</ele><time>2026-04-12T08:36:04.174Z</time></trkpt><trkpt lat="44.8294209" lon="9.6986002"><ele>471.0</ele><time>2026-04-12T08:36:06.175Z</time></trkpt><trkpt lat="44.8295237" lon="9.6986412"><ele>468.0</ele><time>2026-04-12T08:36:08.181Z</time></trkpt><trkpt lat="44.8296193" lon="9.6986607"><ele>465.0</ele><time>2026-04-12T08:36:10.168Z</time></trkpt><trkpt lat="44.8297284" lon="9.69865"><ele>462.0</ele><time>2026-04-12T08:36:12.176Z</time></trkpt><trkpt lat="44.8298302" lon="9.6986704"><ele>459.0</ele><time>2026-04-12T08:36:14.179Z</time></trkpt><trkpt lat="44.8299506" lon="9.6987123"><ele>459.0</ele><time>2026-04-12T08:36:16.176Z</time></trkpt><trkpt lat="44.8300522" lon="9.6987427"><ele>459.0</ele><time>2026-04-12T08:36:18.173Z</time></trkpt><trkpt lat="44.8301429" lon="9.6987297"><ele>459.0</ele><time>2026-04-12T08:36:20.15Z</time></trkpt><trkpt lat="44.830221" lon="9.6986947"><ele>459.0</ele><time>2026-04-12T08:36:22.179Z</time></trkpt><trkpt lat="44.8302832" lon="9.6986552"><ele>459.0</ele><time>2026-04-12T08:36:24.171Z</time></trkpt><trkpt lat="44.8303715" lon="9.6986306"><ele>459.0</ele><time>2026-04-12T08:36:27.173Z</time></trkpt><trkpt lat="44.830459" lon="9.6986438"><ele>460.0</ele><time>2026-04-12T08:36:30.165Z</time></trkpt><trkpt lat="44.8305208" lon="9.6986656"><ele>461.0</ele><time>2026-04-12T08:36:32.178Z</time></trkpt><trkpt lat="44.8305916" lon="9.6986928"><ele>462.0</ele><time>2026-04-12T08:36:34.166Z</time></trkpt><trkpt lat="44.830654" lon="9.6987411"><ele>463.0</ele><time>2026-04-12T08:36:37.182Z</time></trkpt><trkpt lat="44.8307185" lon="9.6988105"><ele>464.0</ele><time>2026-04-12T08:36:41.179Z</time></trkpt><trkpt lat="44.8307609" lon="9.6988854"><ele>465.0</ele><time>2026-04-12T08:36:44.174Z</time></trkpt><trkpt lat="44.8308287" lon="9.698954"><ele>466.0</ele><time>2026-04-12T08:36:47.176Z</time></trkpt><trkpt lat="44.8309088" lon="9.6989634"><ele>466.33333333333337</ele><time>2026-04-12T08:36:50.181Z</time></trkpt><trkpt lat="44.8309761" lon="9.6989657"><ele>466.6666666666667</ele><time>2026-04-12T08:36:53.183Z</time></trkpt><trkpt lat="44.8310617" lon="9.6989664"><ele>467.0</ele><time>2026-04-12T08:36:56.184Z</time></trkpt><trkpt lat="44.8311377" lon="9.6989664"><ele>467.33333333333337</ele><time>2026-04-12T08:36:59.178Z</time></trkpt><trkpt lat="44.8312098" lon="9.6989924"><ele>467.6666666666667</ele><time>2026-04-12T08:37:02.172Z</time></trkpt><trkpt lat="44.831292" lon="9.6990489"><ele>468.0</ele><time>2026-04-12T08:37:05.162Z</time></trkpt><trkpt lat="44.8313639" lon="9.6990952"><ele>468.0</ele><time>2026-04-12T08:37:07.183Z</time></trkpt><trkpt lat="44.8314491" lon="9.6991265"><ele>467.99999999999994</ele><time>2026-04-12T08:37:10.178Z</time></trkpt><trkpt lat="44.8315209" lon="9.6991157"><ele>467.99999999999994</ele><time>2026-04-12T08:37:12.168Z</time></trkpt><trkpt lat="44.831603" lon="9.6990976"><ele>468.0</ele><time>2026-04-12T08:37:14.17Z</time></trkpt><trkpt lat="44.8317027" lon="9.6990326"><ele>468.0</ele><time>2026-04-12T08:37:16.168Z</time></trkpt><trkpt lat="44.8318064" lon="9.6989791"><ele>467.6666666666667</ele><time>2026-04-12T08:37:18.175Z</time></trkpt><trkpt lat="44.8318702" lon="9.6988934"><ele>467.33333333333337</ele><time>2026-04-12T08:37:20.182Z</time></trkpt><trkpt lat="44.8319221" lon="9.6987833"><ele>467.0</ele><time>2026-04-12T08:37:22.16Z</time></trkpt><trkpt lat="44.8319637" lon="9.6986896"><ele>466.6666666666667</ele><time>2026-04-12T08:37:24.178Z</time></trkpt><trkpt lat="44.8319915" lon="9.6986083"><ele>466.33333333333337</ele><time>2026-04-12T08:37:26.181Z</time></trkpt><trkpt lat="44.832019" lon="9.6985233"><ele>466.0</ele><time>2026-04-12T08:37:28.186Z</time></trkpt><trkpt lat="44.8320566" lon="9.6984475"><ele>466.00000000000006</ele><time>2026-04-12T08:37:30.181Z</time></trkpt><trkpt lat="44.8320887" lon="9.6983709"><ele>466.0</ele><time>2026-04-12T08:37:32.18Z</time></trkpt><trkpt lat="44.832163" lon="9.6982859"><ele>466.0</ele><time>2026-04-12T08:37:35.175Z</time></trkpt><trkpt lat="44.8322288" lon="9.6982267"><ele>466.0</ele><time>2026-04-12T08:37:37.182Z</time></trkpt><trkpt lat="44.8322899" lon="9.6981781"><ele>466.00000000000006</ele><time>2026-04-12T08:37:39.18Z</time></trkpt><trkpt lat="44.8323616" lon="9.6981348"><ele>466.0</ele><time>2026-04-12T08:37:41.183Z</time></trkpt><trkpt lat="44.8324278" lon="9.6980845"><ele>466.00000000000006</ele><time>2026-04-12T08:37:43.156Z</time></trkpt><trkpt lat="44.8325014" lon="9.6980327"><ele>466.0</ele><time>2026-04-12T08:37:45.183Z</time></trkpt><trkpt lat="44.8325679" lon="9.697974"><ele>466.0</ele><time>2026-04-12T08:37:47.185Z</time></trkpt><trkpt lat="44.8326276" lon="9.6979367"><ele>466.0</ele><time>2026-04-12T08:37:49.179Z</time></trkpt><trkpt lat="44.8327084" lon="9.6978928"><ele>466.00000000000006</ele><time>2026-04-12T08:37:52.176Z</time></trkpt><trkpt lat="44.8327841" lon="9.6978659"><ele>466.0</ele><time>2026-04-12T08:37:55.177Z</time></trkpt><trkpt lat="44.832857" lon="9.6978738"><ele>464.8</ele><time>2026-04-12T08:37:57.178Z</time></trkpt><trkpt lat="44.8329433" lon="9.697886"><ele>463.6</ele><time>2026-04-12T08:37:59.185Z</time></trkpt><trkpt lat="44.8330396" lon="9.6978709"><ele>462.4</ele><time>2026-04-12T08:38:01.178Z</time></trkpt><trkpt lat="44.8331428" lon="9.6978665"><ele>461.2</ele><time>2026-04-12T08:38:03.178Z</time></trkpt><trkpt lat="44.8332482" lon="9.6978677"><ele>460.0</ele><time>2026-04-12T08:38:05.176Z</time></trkpt><trkpt lat="44.8333536" lon="9.6978758"><ele>460.0</ele><time>2026-04-12T08:38:07.189Z</time></trkpt><trkpt lat="44.8334341" lon="9.6978952"><ele>460.0</ele><time>2026-04-12T08:38:09.182Z</time></trkpt><trkpt lat="44.8335194" lon="9.6979211"><ele>460.0</ele><time>2026-04-12T08:38:11.186Z</time></trkpt><trkpt lat="44.8336236" lon="9.6979455"><ele>460.0</ele><time>2026-04-12T08:38:13.182Z</time></trkpt><trkpt lat="44.8337214" lon="9.6979802"><ele>460.0</ele><time>2026-04-12T08:38:15.187Z</time></trkpt><trkpt lat="44.8338307" lon="9.6980149"><ele>459.0</ele><time>2026-04-12T08:38:17.173Z</time></trkpt><trkpt lat="44.8339418" lon="9.6980496"><ele>458.0</ele><time>2026-04-12T08:38:19.185Z</time></trkpt><trkpt lat="44.8340428" lon="9.6981024"><ele>457.0</ele><time>2026-04-12T08:38:21.196Z</time></trkpt><trkpt lat="44.8341554" lon="9.6981608"><ele>456.0</ele><time>2026-04-12T08:38:23.183Z</time></trkpt><trkpt lat="44.8342559" lon="9.6982058"><ele>455.0</ele><time>2026-04-12T08:38:25.166Z</time></trkpt><trkpt lat="44.8343414" lon="9.6982687"><ele>454.49999999999994</ele><time>2026-04-12T08:38:27.163Z</time></trkpt><trkpt lat="44.8344132" lon="9.6983511"><ele>454.0</ele><time>2026-04-12T08:38:29.172Z</time></trkpt><trkpt lat="44.8344694" lon="9.6984173"><ele>453.5</ele><time>2026-04-12T08:38:31.182Z</time></trkpt><trkpt lat="44.8345278" lon="9.6985023"><ele>453.0</ele><time>2026-04-12T08:38:33.188Z</time></trkpt><trkpt lat="44.8345703" lon="9.6985928"><ele>452.49999999999994</ele><time>2026-04-12T08:38:35.165Z</time></trkpt><trkpt lat="44.8346343" lon="9.6986637"><ele>452.0</ele><time>2026-04-12T08:38:37.176Z</time></trkpt><trkpt lat="44.8347074" lon="9.6987289"><ele>451.3333333333333</ele><time>2026-04-12T08:38:39.179Z</time></trkpt><trkpt lat="44.8347836" lon="9.6987912"><ele>450.66666666666663</ele><time>2026-04-12T08:38:41.184Z</time></trkpt><trkpt lat="44.8348633" lon="9.6988488"><ele>450.0</ele><time>2026-04-12T08:38:43.169Z</time></trkpt><trkpt lat="44.8349366" lon="9.698902"><ele>449.33333333333337</ele><time>2026-04-12T08:38:45.192Z</time></trkpt><trkpt lat="44.8350138" lon="9.6989283"><ele>448.6666666666667</ele><time>2026-04-12T08:38:47.186Z</time></trkpt><trkpt lat="44.8350825" lon="9.6989701"><ele>448.0</ele><time>2026-04-12T08:38:49.173Z</time></trkpt><trkpt lat="44.8351558" lon="9.6990129"><ele>448.0</ele><time>2026-04-12T08:38:51.185Z</time></trkpt><trkpt lat="44.8352453" lon="9.6990702"><ele>447.99999999999994</ele><time>2026-04-12T08:38:53.163Z</time></trkpt><trkpt lat="44.8353478" lon="9.6991281"><ele>447.99999999999994</ele><time>2026-04-12T08:38:55.19Z</time></trkpt><trkpt lat="44.8354675" lon="9.6992075"><ele>448.0</ele><time>2026-04-12T08:38:57.183Z</time></trkpt><trkpt lat="44.835539" lon="9.6992459"><ele>448.0</ele><time>2026-04-12T08:38:58.183Z</time></trkpt><trkpt lat="44.8356171" lon="9.699285"><ele>448.00000000000006</ele><time>2026-04-12T08:38:59.178Z</time></trkpt><trkpt lat="44.8356997" lon="9.699327"><ele>448.0</ele><time>2026-04-12T08:39:00.177Z</time></trkpt><trkpt lat="44.8357808" lon="9.6993664"><ele>448.0</ele><time>2026-04-12T08:39:01.185Z</time></trkpt><trkpt lat="44.8358615" lon="9.6994088"><ele>448.0</ele><time>2026-04-12T08:39:02.176Z</time></trkpt><trkpt lat="44.8359463" lon="9.6994535"><ele>448.00000000000006</ele><time>2026-04-12T08:39:03.182Z</time></trkpt><trkpt lat="44.8360302" lon="9.6994948"><ele>448.0</ele><time>2026-04-12T08:39:04.189Z</time></trkpt><trkpt lat="44.8361161" lon="9.6995307"><ele>448.1666666666667</ele><time>2026-04-12T08:39:05.181Z</time></trkpt><trkpt lat="44.8362032" lon="9.6995683"><ele>448.33333333333337</ele><time>2026-04-12T08:39:06.173Z</time></trkpt><trkpt lat="44.8362795" lon="9.6996027"><ele>448.5</ele><time>2026-04-12T08:39:07.187Z</time></trkpt><trkpt lat="44.8363657" lon="9.6996499"><ele>448.66666666666663</ele><time>2026-04-12T08:39:08.172Z</time></trkpt><trkpt lat="44.8364447" lon="9.6996932"><ele>448.8333333333333</ele><time>2026-04-12T08:39:09.183Z</time></trkpt><trkpt lat="44.8365227" lon="9.6997212"><ele>449.0</ele><time>2026-04-12T08:39:10.185Z</time></trkpt><trkpt lat="44.8366037" lon="9.6997424"><ele>448.99999999999994</ele><time>2026-04-12T08:39:11.179Z</time></trkpt><trkpt lat="44.8366793" lon="9.6997751"><ele>449.0</ele><time>2026-04-12T08:39:12.184Z</time></trkpt><trkpt lat="44.8367427" lon="9.699815"><ele>449.0</ele><time>2026-04-12T08:39:13.184Z</time></trkpt><trkpt lat="44.8368084" lon="9.6998438"><ele>449.0</ele><time>2026-04-12T08:39:14.182Z</time></trkpt><trkpt lat="44.8368716" lon="9.6998555"><ele>448.99999999999994</ele><time>2026-04-12T08:39:15.178Z</time></trkpt><trkpt lat="44.8369813" lon="9.6998663"><ele>449.0</ele><time>2026-04-12T08:39:17.178Z</time></trkpt><trkpt lat="44.8370774" lon="9.6998557"><ele>449.66666666666663</ele><time>2026-04-12T08:39:19.185Z</time></trkpt><trkpt lat="44.8371635" lon="9.699847"><ele>450.3333333333333</ele><time>2026-04-12T08:39:21.176Z</time></trkpt><trkpt lat="44.8372396" lon="9.6998306"><ele>451.0</ele><time>2026-04-12T08:39:23.189Z</time></trkpt><trkpt lat="44.8373098" lon="9.6998227"><ele>451.66666666666663</ele><time>2026-04-12T08:39:25.186Z</time></trkpt><trkpt lat="44.8373813" lon="9.6998298"><ele>452.3333333333333</ele><time>2026-04-12T08:39:27.186Z</time></trkpt><trkpt lat="44.8374475" lon="9.6998181"><ele>453.0</ele><time>2026-04-12T08:39:29.182Z</time></trkpt><trkpt lat="44.8375279" lon="9.6998342"><ele>453.0</ele><time>2026-04-12T08:39:32.184Z</time></trkpt><trkpt lat="44.8376132" lon="9.6998724"><ele>453.0</ele><time>2026-04-12T08:39:35.177Z</time></trkpt><trkpt lat="44.8376764" lon="9.6998981"><ele>453.0</ele><time>2026-04-12T08:39:37.182Z</time></trkpt><trkpt lat="44.8377559" lon="9.6999383"><ele>453.0</ele><time>2026-04-12T08:39:39.192Z</time></trkpt><trkpt lat="44.837818" lon="9.6999936"><ele>453.0</ele><time>2026-04-12T08:39:41.172Z</time></trkpt><trkpt lat="44.8378805" lon="9.700042"><ele>453.0</ele><time>2026-04-12T08:39:43.179Z</time></trkpt><trkpt lat="44.8379436" lon="9.7000845"><ele>453.8571428571428</ele><time>2026-04-12T08:39:45.17Z</time></trkpt><trkpt lat="44.8379999" lon="9.7001347"><ele>454.71428571428567</ele><time>2026-04-12T08:39:47.186Z</time></trkpt><trkpt lat="44.8380633" lon="9.7001786"><ele>455.57142857142856</ele><time>2026-04-12T08:39:49.172Z</time></trkpt><trkpt lat="44.8381228" lon="9.700234"><ele>456.4285714285714</ele><time>2026-04-12T08:39:51.202Z</time></trkpt><trkpt lat="44.8381895" lon="9.7002826"><ele>457.2857142857142</ele><time>2026-04-12T08:39:53.182Z</time></trkpt><trkpt lat="44.8382485" lon="9.7003326"><ele>458.14285714285717</ele><time>2026-04-12T08:39:55.177Z</time></trkpt><trkpt lat="44.8383169" lon="9.7004163"><ele>459.0</ele><time>2026-04-12T08:39:58.179Z</time></trkpt><trkpt lat="44.8383811" lon="9.7005067"><ele>459.79999999999995</ele><time>2026-04-12T08:40:01.158Z</time></trkpt><trkpt lat="44.8384068" lon="9.7006008"><ele>460.59999999999997</ele><time>2026-04-12T08:40:04.193Z</time></trkpt><trkpt lat="44.8384311" lon="9.700686"><ele>461.4</ele><time>2026-04-12T08:40:06.178Z</time></trkpt><trkpt lat="44.8384715" lon="9.7008037"><ele>462.2</ele><time>2026-04-12T08:40:08.162Z</time></trkpt><trkpt lat="44.8385432" lon="9.7009176"><ele>463.0</ele><time>2026-04-12T08:40:10.186Z</time></trkpt><trkpt lat="44.838633" lon="9.7010224"><ele>461.50000000000006</ele><time>2026-04-12T08:40:12.181Z</time></trkpt><trkpt lat="44.8386868" lon="9.7010711"><ele>460.0</ele><time>2026-04-12T08:40:13.198Z</time></trkpt><trkpt lat="44.8387524" lon="9.7011252"><ele>458.5</ele><time>2026-04-12T08:40:14.18Z</time></trkpt><trkpt lat="44.8388158" lon="9.7012035"><ele>457.0</ele><time>2026-04-12T08:40:15.184Z</time></trkpt><trkpt lat="44.8388753" lon="9.7012778"><ele>455.50000000000006</ele><time>2026-04-12T08:40:16.172Z</time></trkpt><trkpt lat="44.8389352" lon="9.7013592"><ele>454.0</ele><time>2026-04-12T08:40:17.18Z</time></trkpt><trkpt lat="44.8389888" lon="9.7014564"><ele>454.00000000000006</ele><time>2026-04-12T08:40:18.178Z</time></trkpt><trkpt lat="44.8390476" lon="9.7015554"><ele>454.0</ele><time>2026-04-12T08:40:19.183Z</time></trkpt><trkpt lat="44.8390978" lon="9.7016523"><ele>454.0</ele><time>2026-04-12T08:40:20.179Z</time></trkpt><trkpt lat="44.8391438" lon="9.7017337"><ele>454.0</ele><time>2026-04-12T08:40:21.162Z</time></trkpt><trkpt lat="44.8391864" lon="9.701803"><ele>454.00000000000006</ele><time>2026-04-12T08:40:22.181Z</time></trkpt><trkpt lat="44.8392278" lon="9.7018724"><ele>454.0</ele><time>2026-04-12T08:40:23.181Z</time></trkpt><trkpt lat="44.8393009" lon="9.7020099"><ele>451.79999999999995</ele><time>2026-04-12T08:40:25.189Z</time></trkpt><trkpt lat="44.839351" lon="9.702142"><ele>449.59999999999997</ele><time>2026-04-12T08:40:27.186Z</time></trkpt><trkpt lat="44.8393651" lon="9.702245"><ele>447.4</ele><time>2026-04-12T08:40:30.173Z</time></trkpt><trkpt lat="44.8394469" lon="9.7022909"><ele>445.2</ele><time>2026-04-12T08:40:32.17Z</time></trkpt><trkpt lat="44.839564" lon="9.702339"><ele>443.0</ele><time>2026-04-12T08:40:34.177Z</time></trkpt><trkpt lat="44.839635" lon="9.7023668"><ele>442.99999999999994</ele><time>2026-04-12T08:40:35.18Z</time></trkpt><trkpt lat="44.8397104" lon="9.7023931"><ele>443.0</ele><time>2026-04-12T08:40:36.179Z</time></trkpt><trkpt lat="44.8397947" lon="9.7024132"><ele>443.0</ele><time>2026-04-12T08:40:37.175Z</time></trkpt><trkpt lat="44.8398734" lon="9.7024234"><ele>443.0</ele><time>2026-04-12T08:40:38.182Z</time></trkpt><trkpt lat="44.8399609" lon="9.7024293"><ele>442.99999999999994</ele><time>2026-04-12T08:40:39.202Z</time></trkpt><trkpt lat="44.8400568" lon="9.7024374"><ele>443.0</ele><time>2026-04-12T08:40:40.178Z</time></trkpt><trkpt lat="44.8401448" lon="9.7024636"><ele>442.49999999999994</ele><time>2026-04-12T08:40:41.173Z</time></trkpt><trkpt lat="44.8402262" lon="9.7025"><ele>442.0</ele><time>2026-04-12T08:40:42.189Z</time></trkpt><trkpt lat="44.8403098" lon="9.702543"><ele>441.5</ele><time>2026-04-12T08:40:43.177Z</time></trkpt><trkpt lat="44.8403935" lon="9.7025735"><ele>441.0</ele><time>2026-04-12T08:40:44.193Z</time></trkpt><trkpt lat="44.8404731" lon="9.7025929"><ele>440.49999999999994</ele><time>2026-04-12T08:40:45.184Z</time></trkpt><trkpt lat="44.8405482" lon="9.7026185"><ele>440.0</ele><time>2026-04-12T08:40:46.167Z</time></trkpt><trkpt lat="44.8406191" lon="9.7026437"><ele>439.99999999999994</ele><time>2026-04-12T08:40:47.175Z</time></trkpt><trkpt lat="44.8406819" lon="9.7026579"><ele>440.0</ele><time>2026-04-12T08:40:48.178Z</time></trkpt><trkpt lat="44.8408061" lon="9.7027169"><ele>440.0</ele><time>2026-04-12T08:40:50.197Z</time></trkpt><trkpt lat="44.8408655" lon="9.7027488"><ele>440.0</ele><time>2026-04-12T08:40:51.184Z</time></trkpt><trkpt lat="44.8409254" lon="9.7027764"><ele>439.99999999999994</ele><time>2026-04-12T08:40:52.182Z</time></trkpt><trkpt lat="44.8410429" lon="9.7028463"><ele>440.0</ele><time>2026-04-12T08:40:54.19Z</time></trkpt><trkpt lat="44.841109" lon="9.7028759"><ele>439.4285714285714</ele><time>2026-04-12T08:40:55.194Z</time></trkpt><trkpt lat="44.841176" lon="9.7029203"><ele>438.85714285714283</ele><time>2026-04-12T08:40:56.185Z</time></trkpt><trkpt lat="44.8412424" lon="9.7029578"><ele>438.2857142857143</ele><time>2026-04-12T08:40:57.186Z</time></trkpt><trkpt lat="44.8413088" lon="9.7029857"><ele>437.71428571428567</ele><time>2026-04-12T08:40:58.178Z</time></trkpt><trkpt lat="44.8413796" lon="9.7030084"><ele>437.14285714285717</ele><time>2026-04-12T08:40:59.178Z</time></trkpt><trkpt lat="44.8414513" lon="9.7030195"><ele>436.57142857142856</ele><time>2026-04-12T08:41:00.186Z</time></trkpt><trkpt lat="44.8415189" lon="9.7030312"><ele>436.0</ele><time>2026-04-12T08:41:01.173Z</time></trkpt><trkpt lat="44.8415944" lon="9.7030436"><ele>436.00000000000006</ele><time>2026-04-12T08:41:02.178Z</time></trkpt><trkpt lat="44.8416757" lon="9.7030701"><ele>436.0</ele><time>2026-04-12T08:41:03.18Z</time></trkpt><trkpt lat="44.8417519" lon="9.7030974"><ele>436.0</ele><time>2026-04-12T08:41:04.169Z</time></trkpt><trkpt lat="44.8418286" lon="9.7031186"><ele>436.0</ele><time>2026-04-12T08:41:05.179Z</time></trkpt><trkpt lat="44.8419009" lon="9.7031342"><ele>436.00000000000006</ele><time>2026-04-12T08:41:06.178Z</time></trkpt><trkpt lat="44.8419793" lon="9.7031511"><ele>436.0</ele><time>2026-04-12T08:41:07.174Z</time></trkpt><trkpt lat="44.8420651" lon="9.7031639"><ele>435.1666666666667</ele><time>2026-04-12T08:41:08.193Z</time></trkpt><trkpt lat="44.8421448" lon="9.7031766"><ele>434.33333333333337</ele><time>2026-04-12T08:41:09.171Z</time></trkpt><trkpt lat="44.8422296" lon="9.7031912"><ele>433.5</ele><time>2026-04-12T08:41:10.187Z</time></trkpt><trkpt lat="44.8422996" lon="9.7032101"><ele>432.66666666666663</ele><time>2026-04-12T08:41:11.179Z</time></trkpt><trkpt lat="44.8423796" lon="9.7032392"><ele>431.8333333333333</ele><time>2026-04-12T08:41:12.183Z</time></trkpt><trkpt lat="44.8424543" lon="9.7032581"><ele>431.0</ele><time>2026-04-12T08:41:13.184Z</time></trkpt><trkpt lat="44.8425247" lon="9.7032861"><ele>430.99999999999994</ele><time>2026-04-12T08:41:14.187Z</time></trkpt><trkpt lat="44.8426026" lon="9.7033141"><ele>431.0</ele><time>2026-04-12T08:41:15.19Z</time></trkpt><trkpt lat="44.8426809" lon="9.703335"><ele>431.0</ele><time>2026-04-12T08:41:16.168Z</time></trkpt><trkpt lat="44.8427572" lon="9.7033561"><ele>431.0</ele><time>2026-04-12T08:41:17.182Z</time></trkpt><trkpt lat="44.8428329" lon="9.7033795"><ele>430.99999999999994</ele><time>2026-04-12T08:41:18.189Z</time></trkpt><trkpt lat="44.8429073" lon="9.7034055"><ele>431.0</ele><time>2026-04-12T08:41:19.192Z</time></trkpt><trkpt lat="44.8429726" lon="9.7034184"><ele>429.8571428571429</ele><time>2026-04-12T08:41:20.175Z</time></trkpt><trkpt lat="44.8430404" lon="9.7034369"><ele>428.71428571428567</ele><time>2026-04-12T08:41:21.179Z</time></trkpt><trkpt lat="44.8431064" lon="9.7034469"><ele>427.57142857142856</ele><time>2026-04-12T08:41:22.186Z</time></trkpt><trkpt lat="44.8431858" lon="9.7034636"><ele>426.42857142857144</ele><time>2026-04-12T08:41:23.16Z</time></trkpt><trkpt lat="44.8432578" lon="9.7034871"><ele>425.28571428571433</ele><time>2026-04-12T08:41:24.181Z</time></trkpt><trkpt lat="44.8433364" lon="9.7035033"><ele>424.1428571428571</ele><time>2026-04-12T08:41:25.161Z</time></trkpt><trkpt lat="44.8434153" lon="9.7035219"><ele>423.0</ele><time>2026-04-12T08:41:26.182Z</time></trkpt><trkpt lat="44.8434879" lon="9.7035414"><ele>421.7142857142857</ele><time>2026-04-12T08:41:27.181Z</time></trkpt><trkpt lat="44.8435554" lon="9.7035648"><ele>420.42857142857144</ele><time>2026-04-12T08:41:28.182Z</time></trkpt><trkpt lat="44.84362" lon="9.7035811"><ele>419.14285714285717</ele><time>2026-04-12T08:41:29.197Z</time></trkpt><trkpt lat="44.8436936" lon="9.7035934"><ele>417.8571428571429</ele><time>2026-04-12T08:41:30.166Z</time></trkpt><trkpt lat="44.8437672" lon="9.7036025"><ele>416.57142857142856</ele><time>2026-04-12T08:41:31.187Z</time></trkpt><trkpt lat="44.8438485" lon="9.7036129"><ele>415.28571428571433</ele><time>2026-04-12T08:41:32.177Z</time></trkpt><trkpt lat="44.8439266" lon="9.7036299"><ele>414.0</ele><time>2026-04-12T08:41:33.182Z</time></trkpt><trkpt lat="44.8439974" lon="9.7036457"><ele>414.0</ele><time>2026-04-12T08:41:34.191Z</time></trkpt><trkpt lat="44.8440634" lon="9.7036666"><ele>414.0</ele><time>2026-04-12T08:41:35.181Z</time></trkpt><trkpt lat="44.844158" lon="9.7037171"><ele>414.0</ele><time>2026-04-12T08:41:37.188Z</time></trkpt><trkpt lat="44.8442377" lon="9.7037593"><ele>414.0</ele><time>2026-04-12T08:41:40.165Z</time></trkpt><trkpt lat="44.8442999" lon="9.7037878"><ele>414.0</ele><time>2026-04-12T08:41:42.176Z</time></trkpt><trkpt lat="44.844358" lon="9.7038262"><ele>414.0</ele><time>2026-04-12T08:41:44.18Z</time></trkpt><trkpt lat="44.8444323" lon="9.7039028"><ele>411.6</ele><time>2026-04-12T08:41:46.166Z</time></trkpt><trkpt lat="44.8445051" lon="9.7039737"><ele>409.2</ele><time>2026-04-12T08:41:48.158Z</time></trkpt><trkpt lat="44.8445658" lon="9.7040819"><ele>406.8</ele><time>2026-04-12T08:41:50.143Z</time></trkpt><trkpt lat="44.8446231" lon="9.7041923"><ele>404.40000000000003</ele><time>2026-04-12T08:41:52.168Z</time></trkpt><trkpt lat="44.8447011" lon="9.7042637"><ele>402.0</ele><time>2026-04-12T08:41:54.192Z</time></trkpt><trkpt lat="44.8447905" lon="9.7043139"><ele>402.0</ele><time>2026-04-12T08:41:56.198Z</time></trkpt><trkpt lat="44.8448662" lon="9.7043502"><ele>402.0</ele><time>2026-04-12T08:41:58.183Z</time></trkpt><trkpt lat="44.8449487" lon="9.7044004"><ele>402.0</ele><time>2026-04-12T08:42:00.159Z</time></trkpt><trkpt lat="44.8450274" lon="9.7044301"><ele>402.0</ele><time>2026-04-12T08:42:02.172Z</time></trkpt><trkpt lat="44.8450982" lon="9.7044593"><ele>402.0</ele><time>2026-04-12T08:42:04.177Z</time></trkpt><trkpt lat="44.8451607" lon="9.7044922"><ele>402.0</ele><time>2026-04-12T08:42:06.184Z</time></trkpt><trkpt lat="44.8452368" lon="9.7045323"><ele>401.0</ele><time>2026-04-12T08:42:09.194Z</time></trkpt><trkpt lat="44.8452972" lon="9.7045833"><ele>400.0</ele><time>2026-04-12T08:42:12.182Z</time></trkpt><trkpt lat="44.8453621" lon="9.704633"><ele>399.0</ele><time>2026-04-12T08:42:15.178Z</time></trkpt><trkpt lat="44.8454356" lon="9.7046609"><ele>398.0</ele><time>2026-04-12T08:42:18.176Z</time></trkpt><trkpt lat="44.8455118" lon="9.7046811"><ele>397.0</ele><time>2026-04-12T08:42:21.178Z</time></trkpt><trkpt lat="44.8455858" lon="9.7047076"><ele>396.0</ele><time>2026-04-12T08:42:24.176Z</time></trkpt><trkpt lat="44.8456561" lon="9.7047602"><ele>396.0</ele><time>2026-04-12T08:42:27.182Z</time></trkpt><trkpt lat="44.8457332" lon="9.7048248"><ele>396.0</ele><time>2026-04-12T08:42:30.176Z</time></trkpt><trkpt lat="44.8457946" lon="9.7048753"><ele>396.0</ele><time>2026-04-12T08:42:32.172Z</time></trkpt><trkpt lat="44.8458411" lon="9.7049469"><ele>396.0</ele><time>2026-04-12T08:42:34.183Z</time></trkpt><trkpt lat="44.8459127" lon="9.7050318"><ele>396.0</ele><time>2026-04-12T08:42:36.178Z</time></trkpt><trkpt lat="44.8459847" lon="9.7051116"><ele>396.0</ele><time>2026-04-12T08:42:38.187Z</time></trkpt><trkpt lat="44.8460464" lon="9.7051474"><ele>394.0</ele><time>2026-04-12T08:42:39.179Z</time></trkpt><trkpt lat="44.8461062" lon="9.7051946"><ele>392.0</ele><time>2026-04-12T08:42:40.185Z</time></trkpt><trkpt lat="44.846206" lon="9.7052684"><ele>390.0</ele><time>2026-04-12T08:42:42.174Z</time></trkpt><trkpt lat="44.8462928" lon="9.7053525"><ele>388.0</ele><time>2026-04-12T08:42:44.183Z</time></trkpt><trkpt lat="44.8463716" lon="9.7054556"><ele>386.0</ele><time>2026-04-12T08:42:46.183Z</time></trkpt><trkpt lat="44.8464362" lon="9.7055483"><ele>385.99999999999994</ele><time>2026-04-12T08:42:48.162Z</time></trkpt><trkpt lat="44.8464979" lon="9.7056403"><ele>386.0</ele><time>2026-04-12T08:42:50.172Z</time></trkpt><trkpt lat="44.8465765" lon="9.7056943"><ele>386.0</ele><time>2026-04-12T08:42:52.177Z</time></trkpt><trkpt lat="44.846646" lon="9.7057421"><ele>386.0</ele><time>2026-04-12T08:42:54.17Z</time></trkpt><trkpt lat="44.8467251" lon="9.7057876"><ele>385.99999999999994</ele><time>2026-04-12T08:42:56.182Z</time></trkpt><trkpt lat="44.8467917" lon="9.7058425"><ele>386.0</ele><time>2026-04-12T08:42:58.178Z</time></trkpt><trkpt lat="44.8468582" lon="9.7059346"><ele>384.49999999999994</ele><time>2026-04-12T08:43:00.172Z</time></trkpt><trkpt lat="44.8469139" lon="9.7060345"><ele>383.0</ele><time>2026-04-12T08:43:02.173Z</time></trkpt><trkpt lat="44.846956" lon="9.7061514"><ele>381.5</ele><time>2026-04-12T08:43:04.174Z</time></trkpt><trkpt lat="44.8469887" lon="9.7062595"><ele>380.0</ele><time>2026-04-12T08:43:06.177Z</time></trkpt><trkpt lat="44.8470239" lon="9.7063582"><ele>378.5</ele><time>2026-04-12T08:43:08.18Z</time></trkpt><trkpt lat="44.8470831" lon="9.7064493"><ele>377.0</ele><time>2026-04-12T08:43:10.185Z</time></trkpt><trkpt lat="44.8471342" lon="9.7065418"><ele>377.0</ele><time>2026-04-12T08:43:12.184Z</time></trkpt><trkpt lat="44.8471858" lon="9.706633"><ele>377.0</ele><time>2026-04-12T08:43:14.178Z</time></trkpt><trkpt lat="44.8472438" lon="9.7067302"><ele>377.0</ele><time>2026-04-12T08:43:16.176Z</time></trkpt><trkpt lat="44.8472847" lon="9.7068003"><ele>377.0</ele><time>2026-04-12T08:43:18.167Z</time></trkpt><trkpt lat="44.847334" lon="9.7068992"><ele>377.0</ele><time>2026-04-12T08:43:21.18Z</time></trkpt><trkpt lat="44.8473945" lon="9.7069653"><ele>377.0</ele><time>2026-04-12T08:43:24.178Z</time></trkpt><trkpt lat="44.8474838" lon="9.7070016"><ele>374.6666666666667</ele><time>2026-04-12T08:43:27.187Z</time></trkpt><trkpt lat="44.8475508" lon="9.7070096"><ele>372.33333333333337</ele><time>2026-04-12T08:43:29.162Z</time></trkpt><trkpt lat="44.8476433" lon="9.7069749"><ele>370.0</ele><time>2026-04-12T08:43:32.188Z</time></trkpt><trkpt lat="44.8477217" lon="9.7069708"><ele>367.6666666666667</ele><time>2026-04-12T08:43:35.177Z</time></trkpt><trkpt lat="44.8477913" lon="9.7069529"><ele>365.3333333333333</ele><time>2026-04-12T08:43:38.173Z</time></trkpt><trkpt lat="44.8478755" lon="9.7069367"><ele>363.0</ele><time>2026-04-12T08:43:42.178Z</time></trkpt><trkpt lat="44.8479669" lon="9.7069211"><ele>362.99999999999994</ele><time>2026-04-12T08:43:45.149Z</time></trkpt><trkpt lat="44.8480316" lon="9.7069047"><ele>363.0</ele><time>2026-04-12T08:43:47.17Z</time></trkpt><trkpt lat="44.8481071" lon="9.7069034"><ele>363.0</ele><time>2026-04-12T08:43:51.182Z</time></trkpt><trkpt lat="44.848173" lon="9.7069152"><ele>363.0</ele><time>2026-04-12T08:43:54.177Z</time></trkpt><trkpt lat="44.8482402" lon="9.7069204"><ele>363.0</ele><time>2026-04-12T08:43:56.176Z</time></trkpt><trkpt lat="44.8483225" lon="9.706954"><ele>362.99999999999994</ele><time>2026-04-12T08:43:59.179Z</time></trkpt><trkpt lat="44.848398" lon="9.706996"><ele>363.0</ele><time>2026-04-12T08:44:02.178Z</time></trkpt><trkpt lat="44.8484674" lon="9.707047"><ele>362.5</ele><time>2026-04-12T08:44:05.176Z</time></trkpt><trkpt lat="44.8485528" lon="9.707101"><ele>362.0</ele><time>2026-04-12T08:44:08.178Z</time></trkpt><trkpt lat="44.8486244" lon="9.7071401"><ele>361.5</ele><time>2026-04-12T08:44:11.173Z</time></trkpt><trkpt lat="44.8487123" lon="9.7071741"><ele>361.0</ele><time>2026-04-12T08:44:14.183Z</time></trkpt><trkpt lat="44.8487882" lon="9.7072111"><ele>360.5</ele><time>2026-04-12T08:44:16.174Z</time></trkpt><trkpt lat="44.848857" lon="9.7072466"><ele>360.0</ele><time>2026-04-12T08:44:18.174Z</time></trkpt><trkpt lat="44.8489197" lon="9.7072985"><ele>360.0</ele><time>2026-04-12T08:44:20.17Z</time></trkpt><trkpt lat="44.848998" lon="9.707351"><ele>360.0</ele><time>2026-04-12T08:44:22.161Z</time></trkpt><trkpt lat="44.8490789" lon="9.7074049"><ele>360.0</ele><time>2026-04-12T08:44:24.174Z</time></trkpt><trkpt lat="44.8491561" lon="9.7074415"><ele>360.0</ele><time>2026-04-12T08:44:26.171Z</time></trkpt><trkpt lat="44.8492306" lon="9.70748"><ele>360.0</ele><time>2026-04-12T08:44:28.173Z</time></trkpt><trkpt lat="44.8493099" lon="9.7075087"><ele>360.0</ele><time>2026-04-12T08:44:30.174Z</time></trkpt><trkpt lat="44.8493873" lon="9.7075337"><ele>359.0</ele><time>2026-04-12T08:44:32.17Z</time></trkpt><trkpt lat="44.8494512" lon="9.7075554"><ele>358.0</ele><time>2026-04-12T08:44:34.178Z</time></trkpt><trkpt lat="44.8495271" lon="9.7075835"><ele>357.0</ele><time>2026-04-12T08:44:36.163Z</time></trkpt><trkpt lat="44.8495988" lon="9.7076166"><ele>356.0</ele><time>2026-04-12T08:44:38.179Z</time></trkpt><trkpt lat="44.8496645" lon="9.7076439"><ele>355.0</ele><time>2026-04-12T08:44:40.172Z</time></trkpt><trkpt lat="44.8497304" lon="9.7076655"><ele>354.0</ele><time>2026-04-12T08:44:42.174Z</time></trkpt><trkpt lat="44.8497926" lon="9.707682"><ele>353.0</ele><time>2026-04-12T08:44:44.176Z</time></trkpt><trkpt lat="44.8498584" lon="9.7077019"><ele>353.0</ele><time>2026-04-12T08:44:46.172Z</time></trkpt><trkpt lat="44.8499225" lon="9.7077161"><ele>353.0</ele><time>2026-04-12T08:44:48.174Z</time></trkpt><trkpt lat="44.8499924" lon="9.7077341"><ele>353.0</ele><time>2026-04-12T08:44:50.175Z</time></trkpt><trkpt lat="44.850059" lon="9.7077457"><ele>353.0</ele><time>2026-04-12T08:44:52.174Z</time></trkpt><trkpt lat="44.8501239" lon="9.7077543"><ele>353.0</ele><time>2026-04-12T08:44:54.177Z</time></trkpt><trkpt lat="44.8501878" lon="9.7077884"><ele>353.0</ele><time>2026-04-12T08:44:56.177Z</time></trkpt><trkpt lat="44.8502398" lon="9.707855"><ele>353.0</ele><time>2026-04-12T08:44:58.163Z</time></trkpt><trkpt lat="44.8503042" lon="9.7079492"><ele>352.85714285714283</ele><time>2026-04-12T08:45:01.178Z</time></trkpt><trkpt lat="44.8503603" lon="9.708041"><ele>352.7142857142857</ele><time>2026-04-12T08:45:04.172Z</time></trkpt><trkpt lat="44.8503945" lon="9.7081445"><ele>352.57142857142856</ele><time>2026-04-12T08:45:08.181Z</time></trkpt><trkpt lat="44.8504495" lon="9.7081923"><ele>352.42857142857144</ele><time>2026-04-12T08:45:15.178Z</time></trkpt><trkpt lat="44.8505119" lon="9.708243"><ele>352.2857142857143</ele><time>2026-04-12T08:45:23.181Z</time></trkpt><trkpt lat="44.8505707" lon="9.7082926"><ele>352.14285714285717</ele><time>2026-04-12T08:45:29.172Z</time></trkpt><trkpt lat="44.8506355" lon="9.708313"><ele>352.0</ele><time>2026-04-12T08:45:36.169Z</time></trkpt><trkpt lat="44.8507051" lon="9.7083559"><ele>352.0</ele><time>2026-04-12T08:45:43.172Z</time></trkpt><trkpt lat="44.8507722" lon="9.7083729"><ele>352.0</ele><time>2026-04-12T08:45:48.174Z</time></trkpt><trkpt lat="44.8508442" lon="9.7083865"><ele>352.0</ele><time>2026-04-12T08:45:53.174Z</time></trkpt><trkpt lat="44.8509185" lon="9.7083992"><ele>352.0</ele><time>2026-04-12T08:46:00.191Z</time></trkpt><trkpt lat="44.8509797" lon="9.7084501"><ele>352.0</ele><time>2026-04-12T08:46:05.173Z</time></trkpt><trkpt lat="44.8510317" lon="9.7085126"><ele>352.0</ele><time>2026-04-12T08:46:09.172Z</time></trkpt><trkpt lat="44.851092" lon="9.708573"><ele>352.0</ele><time>2026-04-12T08:46:12.167Z</time></trkpt><trkpt lat="44.8511657" lon="9.7086172"><ele>350.16666666666663</ele><time>2026-04-12T08:46:15.165Z</time></trkpt><trkpt lat="44.8512406" lon="9.7086386"><ele>348.3333333333333</ele><time>2026-04-12T08:46:18.157Z</time></trkpt><trkpt lat="44.8513223" lon="9.7086305"><ele>346.5</ele><time>2026-04-12T08:46:22.181Z</time></trkpt><trkpt lat="44.8513882" lon="9.7086504"><ele>344.6666666666667</ele><time>2026-04-12T08:46:25.17Z</time></trkpt><trkpt lat="44.8514736" lon="9.7087015"><ele>342.83333333333337</ele><time>2026-04-12T08:46:28.183Z</time></trkpt><trkpt lat="44.851544" lon="9.7087678"><ele>341.0</ele><time>2026-04-12T08:46:31.176Z</time></trkpt><trkpt lat="44.8516149" lon="9.7088485"><ele>341.0</ele><time>2026-04-12T08:46:34.178Z</time></trkpt><trkpt lat="44.8516588" lon="9.7089423"><ele>341.0</ele><time>2026-04-12T08:46:37.172Z</time></trkpt><trkpt lat="44.8517191" lon="9.7090104"><ele>341.0</ele><time>2026-04-12T08:46:40.175Z</time></trkpt><trkpt lat="44.8517554" lon="9.7090963"><ele>341.0</ele><time>2026-04-12T08:46:43.17Z</time></trkpt><trkpt lat="44.8517733" lon="9.7091909"><ele>341.0</ele><time>2026-04-12T08:46:46.173Z</time></trkpt><trkpt lat="44.851795" lon="9.709298"><ele>341.0</ele><time>2026-04-12T08:46:49.17Z</time></trkpt><trkpt lat="44.8518276" lon="9.7093893"><ele>341.0</ele><time>2026-04-12T08:46:52.173Z</time></trkpt><trkpt lat="44.8518774" lon="9.7094579"><ele>338.83333333333337</ele><time>2026-04-12T08:46:56.177Z</time></trkpt><trkpt lat="44.8519457" lon="9.7095369"><ele>336.6666666666667</ele><time>2026-04-12T08:47:00.176Z</time></trkpt><trkpt lat="44.8520141" lon="9.7096193"><ele>334.5</ele><time>2026-04-12T08:47:03.169Z</time></trkpt><trkpt lat="44.8520651" lon="9.7097046"><ele>332.3333333333333</ele><time>2026-04-12T08:47:06.179Z</time></trkpt><trkpt lat="44.852124" lon="9.7097854"><ele>330.16666666666663</ele><time>2026-04-12T08:47:09.165Z</time></trkpt><trkpt lat="44.852212" lon="9.7098445"><ele>328.0</ele><time>2026-04-12T08:47:12.177Z</time></trkpt><trkpt lat="44.852288" lon="9.7098877"><ele>328.0</ele><time>2026-04-12T08:47:14.172Z</time></trkpt><trkpt lat="44.8523695" lon="9.7099492"><ele>328.0</ele><time>2026-04-12T08:47:16.153Z</time></trkpt><trkpt lat="44.8524452" lon="9.7100305"><ele>328.0</ele><time>2026-04-12T08:47:18.177Z</time></trkpt><trkpt lat="44.8525137" lon="9.7100915"><ele>328.0</ele><time>2026-04-12T08:47:20.172Z</time></trkpt><trkpt lat="44.8525648" lon="9.7101513"><ele>328.0</ele><time>2026-04-12T08:47:22.178Z</time></trkpt><trkpt lat="44.8526114" lon="9.7102122"><ele>328.0</ele><time>2026-04-12T08:47:24.15Z</time></trkpt><trkpt lat="44.8526616" lon="9.7102819"><ele>325.3333333333333</ele><time>2026-04-12T08:47:26.171Z</time></trkpt><trkpt lat="44.8527227" lon="9.7103198"><ele>322.66666666666663</ele><time>2026-04-12T08:47:28.169Z</time></trkpt><trkpt lat="44.8528111" lon="9.7103484"><ele>320.0</ele><time>2026-04-12T08:47:31.167Z</time></trkpt><trkpt lat="44.8528759" lon="9.7103915"><ele>317.3333333333333</ele><time>2026-04-12T08:47:34.178Z</time></trkpt><trkpt lat="44.852939" lon="9.7104422"><ele>314.6666666666667</ele><time>2026-04-12T08:47:37.179Z</time></trkpt><trkpt lat="44.8530089" lon="9.71052"><ele>312.0</ele><time>2026-04-12T08:47:40.172Z</time></trkpt><trkpt lat="44.8530551" lon="9.7105806"><ele>312.0</ele><time>2026-04-12T08:47:42.171Z</time></trkpt><trkpt lat="44.8531415" lon="9.7106282"><ele>312.0</ele><time>2026-04-12T08:47:45.172Z</time></trkpt><trkpt lat="44.8532161" lon="9.7106471"><ele>312.0</ele><time>2026-04-12T08:47:48.179Z</time></trkpt><trkpt lat="44.8532807" lon="9.7106848"><ele>312.0</ele><time>2026-04-12T08:47:50.185Z</time></trkpt><trkpt lat="44.8533443" lon="9.7107331"><ele>312.0</ele><time>2026-04-12T08:47:52.173Z</time></trkpt><trkpt lat="44.8534097" lon="9.7107567"><ele>312.0</ele><time>2026-04-12T08:47:54.185Z</time></trkpt><trkpt lat="44.8534826" lon="9.7108139"><ele>309.8571428571429</ele><time>2026-04-12T08:47:57.15Z</time></trkpt><trkpt lat="44.8535503" lon="9.710839"><ele>307.71428571428567</ele><time>2026-04-12T08:48:00.174Z</time></trkpt><trkpt lat="44.8536129" lon="9.7109015"><ele>305.57142857142856</ele><time>2026-04-12T08:48:03.175Z</time></trkpt><trkpt lat="44.8536695" lon="9.7109626"><ele>303.42857142857144</ele><time>2026-04-12T08:48:06.167Z</time></trkpt><trkpt lat="44.8537316" lon="9.7110048"><ele>301.28571428571433</ele><time>2026-04-12T08:48:10.181Z</time></trkpt><trkpt lat="44.8538087" lon="9.7110491"><ele>299.14285714285717</ele><time>2026-04-12T08:48:13.181Z</time></trkpt><trkpt lat="44.8538636" lon="9.7111232"><ele>297.0</ele><time>2026-04-12T08:48:16.16Z</time></trkpt><trkpt lat="44.8539141" lon="9.7112136"><ele>296.5</ele><time>2026-04-12T08:48:19.171Z</time></trkpt><trkpt lat="44.8539606" lon="9.7112905"><ele>296.0</ele><time>2026-04-12T08:48:22.169Z</time></trkpt><trkpt lat="44.8540206" lon="9.7113778"><ele>295.5</ele><time>2026-04-12T08:48:25.174Z</time></trkpt><trkpt lat="44.8540746" lon="9.711446"><ele>295.0</ele><time>2026-04-12T08:48:27.156Z</time></trkpt><trkpt lat="44.8541425" lon="9.7115264"><ele>294.5</ele><time>2026-04-12T08:48:29.175Z</time></trkpt><trkpt lat="44.8542027" lon="9.7115994"><ele>294.0</ele><time>2026-04-12T08:48:31.164Z</time></trkpt><trkpt lat="44.8542779" lon="9.711683"><ele>289.8333333333333</ele><time>2026-04-12T08:48:34.171Z</time></trkpt><trkpt lat="44.8543424" lon="9.7117596"><ele>285.6666666666667</ele><time>2026-04-12T08:48:37.162Z</time></trkpt><trkpt lat="44.8544179" lon="9.7118104"><ele>281.5</ele><time>2026-04-12T08:48:40.178Z</time></trkpt><trkpt lat="44.8544871" lon="9.7118088"><ele>277.33333333333337</ele><time>2026-04-12T08:48:43.172Z</time></trkpt><trkpt lat="44.854544" lon="9.7117527"><ele>273.1666666666667</ele><time>2026-04-12T08:48:46.178Z</time></trkpt><trkpt lat="44.8545956" lon="9.7116803"><ele>269.0</ele><time>2026-04-12T08:48:49.173Z</time></trkpt><trkpt lat="44.854645" lon="9.7116064"><ele>269.0</ele><time>2026-04-12T08:48:52.171Z</time></trkpt><trkpt lat="44.8547178" lon="9.7115332"><ele>269.0</ele><time>2026-04-12T08:48:55.17Z</time></trkpt><trkpt lat="44.8547575" lon="9.7114337"><ele>269.0</ele><time>2026-04-12T08:48:58.168Z</time></trkpt><trkpt lat="44.854749" lon="9.7113132"><ele>269.0</ele><time>2026-04-12T08:49:01.185Z</time></trkpt><trkpt lat="44.854727" lon="9.7112294"><ele>269.0</ele><time>2026-04-12T08:49:03.185Z</time></trkpt><trkpt lat="44.8547046" lon="9.7111425"><ele>269.0</ele><time>2026-04-12T08:49:05.174Z</time></trkpt><trkpt lat="44.8546939" lon="9.7110119"><ele>268.5</ele><time>2026-04-12T08:49:08.179Z</time></trkpt><trkpt lat="44.8546987" lon="9.7108764"><ele>268.0</ele><time>2026-04-12T08:49:11.179Z</time></trkpt><trkpt lat="44.8546936" lon="9.7107807"><ele>267.5</ele><time>2026-04-12T08:49:13.172Z</time></trkpt><trkpt lat="44.854676" lon="9.7106745"><ele>267.0</ele><time>2026-04-12T08:49:15.168Z</time></trkpt><trkpt lat="44.8546375" lon="9.7105514"><ele>266.5</ele><time>2026-04-12T08:49:17.174Z</time></trkpt><trkpt lat="44.8546148" lon="9.7104499"><ele>266.0</ele><time>2026-04-12T08:49:19.171Z</time></trkpt><trkpt lat="44.8545908" lon="9.7103653"><ele>266.0</ele><time>2026-04-12T08:49:21.192Z</time></trkpt><trkpt lat="44.8545641" lon="9.7102683"><ele>266.0</ele><time>2026-04-12T08:49:23.182Z</time></trkpt><trkpt lat="44.8545422" lon="9.710183"><ele>266.0</ele><time>2026-04-12T08:49:25.177Z</time></trkpt><trkpt lat="44.8545073" lon="9.7100706"><ele>266.0</ele><time>2026-04-12T08:49:28.172Z</time></trkpt><trkpt lat="44.854477" lon="9.7099906"><ele>266.0</ele><time>2026-04-12T08:49:30.171Z</time></trkpt><trkpt lat="44.8544389" lon="9.7098841"><ele>266.0</ele><time>2026-04-12T08:49:33.175Z</time></trkpt><trkpt lat="44.8544449" lon="9.7097947"><ele>266.0</ele><time>2026-04-12T08:49:36.171Z</time></trkpt><trkpt lat="44.8545103" lon="9.7097178"><ele>265.14285714285717</ele><time>2026-04-12T08:49:40.165Z</time></trkpt><trkpt lat="44.8545735" lon="9.7096721"><ele>264.2857142857143</ele><time>2026-04-12T08:49:43.185Z</time></trkpt><trkpt lat="44.8546515" lon="9.7096576"><ele>263.42857142857144</ele><time>2026-04-12T08:49:47.172Z</time></trkpt><trkpt lat="44.8547233" lon="9.7096364"><ele>262.57142857142856</ele><time>2026-04-12T08:49:50.171Z</time></trkpt><trkpt lat="44.8548089" lon="9.7096017"><ele>261.7142857142857</ele><time>2026-04-12T08:49:53.175Z</time></trkpt><trkpt lat="44.8548736" lon="9.7095846"><ele>260.8571428571429</ele><time>2026-04-12T08:49:55.171Z</time></trkpt><trkpt lat="44.8549416" lon="9.7095794"><ele>260.0</ele><time>2026-04-12T08:49:57.178Z</time></trkpt><trkpt lat="44.855044" lon="9.709581"><ele>257.0</ele><time>2026-04-12T08:50:00.167Z</time></trkpt><trkpt lat="44.8551341" lon="9.7096099"><ele>254.0</ele><time>2026-04-12T08:50:02.181Z</time></trkpt><trkpt lat="44.8552436" lon="9.7096529"><ele>251.0</ele><time>2026-04-12T08:50:04.178Z</time></trkpt><trkpt lat="44.8553557" lon="9.7096835"><ele>248.0</ele><time>2026-04-12T08:50:06.181Z</time></trkpt><trkpt lat="44.855452" lon="9.7097496"><ele>245.0</ele><time>2026-04-12T08:50:08.176Z</time></trkpt><trkpt lat="44.8555166" lon="9.7098043"><ele>245.0</ele><time>2026-04-12T08:50:10.176Z</time></trkpt><trkpt lat="44.8555793" lon="9.7098949"><ele>245.0</ele><time>2026-04-12T08:50:12.182Z</time></trkpt><trkpt lat="44.8556394" lon="9.7100107"><ele>245.0</ele><time>2026-04-12T08:50:14.172Z</time></trkpt><trkpt lat="44.8557101" lon="9.7101232"><ele>245.0</ele><time>2026-04-12T08:50:16.17Z</time></trkpt><trkpt lat="44.8557741" lon="9.7102192"><ele>245.0</ele><time>2026-04-12T08:50:18.175Z</time></trkpt><trkpt lat="44.8558435" lon="9.7102907"><ele>245.66666666666669</ele><time>2026-04-12T08:50:20.169Z</time></trkpt><trkpt lat="44.8559093" lon="9.710343"><ele>246.33333333333334</ele><time>2026-04-12T08:50:22.174Z</time></trkpt><trkpt lat="44.855977" lon="9.7103902"><ele>247.0</ele><time>2026-04-12T08:50:24.171Z</time></trkpt><trkpt lat="44.8560422" lon="9.710432"><ele>247.66666666666669</ele><time>2026-04-12T08:50:26.173Z</time></trkpt><trkpt lat="44.8561147" lon="9.7104418"><ele>248.33333333333334</ele><time>2026-04-12T08:50:28.178Z</time></trkpt><trkpt lat="44.856207" lon="9.7104278"><ele>249.0</ele><time>2026-04-12T08:50:30.173Z</time></trkpt><trkpt lat="44.856289" lon="9.7104299"><ele>249.0</ele><time>2026-04-12T08:50:32.177Z</time></trkpt><trkpt lat="44.856362" lon="9.7104188"><ele>248.99999999999997</ele><time>2026-04-12T08:50:34.182Z</time></trkpt><trkpt lat="44.8564473" lon="9.7104083"><ele>248.99999999999997</ele><time>2026-04-12T08:50:36.172Z</time></trkpt><trkpt lat="44.8565332" lon="9.7104003"><ele>249.0</ele><time>2026-04-12T08:50:38.18Z</time></trkpt><trkpt lat="44.8566338" lon="9.7104164"><ele>249.0</ele><time>2026-04-12T08:50:40.183Z</time></trkpt><trkpt lat="44.8567493" lon="9.710475"><ele>247.42857142857142</ele><time>2026-04-12T08:50:42.179Z</time></trkpt><trkpt lat="44.8568111" lon="9.7105149"><ele>245.85714285714283</ele><time>2026-04-12T08:50:43.18Z</time></trkpt><trkpt lat="44.856873" lon="9.7105597"><ele>244.28571428571428</ele><time>2026-04-12T08:50:44.185Z</time></trkpt><trkpt lat="44.8569332" lon="9.7106066"><ele>242.71428571428572</ele><time>2026-04-12T08:50:45.178Z</time></trkpt><trkpt lat="44.8569868" lon="9.7106549"><ele>241.14285714285714</ele><time>2026-04-12T08:50:46.188Z</time></trkpt><trkpt lat="44.8570498" lon="9.7107053"><ele>239.57142857142856</ele><time>2026-04-12T08:50:47.189Z</time></trkpt><trkpt lat="44.8571124" lon="9.7107546"><ele>238.0</ele><time>2026-04-12T08:50:48.178Z</time></trkpt><trkpt lat="44.8571818" lon="9.710807"><ele>237.99999999999997</ele><time>2026-04-12T08:50:49.18Z</time></trkpt><trkpt lat="44.8572473" lon="9.7108633"><ele>238.0</ele><time>2026-04-12T08:50:50.175Z</time></trkpt><trkpt lat="44.857309" lon="9.7109295"><ele>238.0</ele><time>2026-04-12T08:50:51.186Z</time></trkpt><trkpt lat="44.8573714" lon="9.7109914"><ele>238.0</ele><time>2026-04-12T08:50:52.159Z</time></trkpt><trkpt lat="44.8574335" lon="9.7110578"><ele>237.99999999999997</ele><time>2026-04-12T08:50:53.184Z</time></trkpt><trkpt lat="44.857497" lon="9.7111243"><ele>238.0</ele><time>2026-04-12T08:50:54.177Z</time></trkpt><trkpt lat="44.8575569" lon="9.7111944"><ele>238.66666666666666</ele><time>2026-04-12T08:50:55.18Z</time></trkpt><trkpt lat="44.8576173" lon="9.7112648"><ele>239.33333333333331</ele><time>2026-04-12T08:50:56.174Z</time></trkpt><trkpt lat="44.8576798" lon="9.7113191"><ele>240.0</ele><time>2026-04-12T08:50:57.166Z</time></trkpt><trkpt lat="44.8577396" lon="9.71137"><ele>240.66666666666669</ele><time>2026-04-12T08:50:58.172Z</time></trkpt><trkpt lat="44.8578097" lon="9.7114146"><ele>241.33333333333334</ele><time>2026-04-12T08:50:59.173Z</time></trkpt><trkpt lat="44.8578862" lon="9.7114504"><ele>242.0</ele><time>2026-04-12T08:51:00.17Z</time></trkpt><trkpt lat="44.8579637" lon="9.7114751"><ele>240.50000000000003</ele><time>2026-04-12T08:51:01.17Z</time></trkpt><trkpt lat="44.8580454" lon="9.7114978"><ele>239.0</ele><time>2026-04-12T08:51:02.175Z</time></trkpt><trkpt lat="44.8581318" lon="9.7115184"><ele>237.5</ele><time>2026-04-12T08:51:03.171Z</time></trkpt><trkpt lat="44.8582101" lon="9.7115261"><ele>236.0</ele><time>2026-04-12T08:51:04.171Z</time></trkpt><trkpt lat="44.858295" lon="9.711523"><ele>234.50000000000003</ele><time>2026-04-12T08:51:05.174Z</time></trkpt><trkpt lat="44.8583717" lon="9.7115116"><ele>233.0</ele><time>2026-04-12T08:51:06.162Z</time></trkpt><trkpt lat="44.8584511" lon="9.7115007"><ele>232.28571428571428</ele><time>2026-04-12T08:51:07.172Z</time></trkpt><trkpt lat="44.858529" lon="9.7115067"><ele>231.57142857142856</ele><time>2026-04-12T08:51:08.174Z</time></trkpt><trkpt lat="44.8586103" lon="9.7115184"><ele>230.85714285714283</ele><time>2026-04-12T08:51:09.164Z</time></trkpt><trkpt lat="44.8586877" lon="9.7115356"><ele>230.14285714285714</ele><time>2026-04-12T08:51:10.163Z</time></trkpt><trkpt lat="44.8587531" lon="9.7115534"><ele>229.4285714285714</ele><time>2026-04-12T08:51:11.167Z</time></trkpt><trkpt lat="44.85882" lon="9.7115771"><ele>228.7142857142857</ele><time>2026-04-12T08:51:12.173Z</time></trkpt><trkpt lat="44.8588827" lon="9.7116058"><ele>228.0</ele><time>2026-04-12T08:51:13.177Z</time></trkpt><trkpt lat="44.8589511" lon="9.7116289"><ele>228.0</ele><time>2026-04-12T08:51:14.175Z</time></trkpt><trkpt lat="44.8590598" lon="9.7116764"><ele>228.0</ele><time>2026-04-12T08:51:16.156Z</time></trkpt><trkpt lat="44.8591583" lon="9.7117213"><ele>228.0</ele><time>2026-04-12T08:51:18.17Z</time></trkpt><trkpt lat="44.8592423" lon="9.7117406"><ele>228.0</ele><time>2026-04-12T08:51:20.175Z</time></trkpt><trkpt lat="44.8593103" lon="9.711777"><ele>228.0</ele><time>2026-04-12T08:51:22.167Z</time></trkpt><trkpt lat="44.8593987" lon="9.7118191"><ele>227.85714285714283</ele><time>2026-04-12T08:51:25.157Z</time></trkpt><trkpt lat="44.8594567" lon="9.7118903"><ele>227.7142857142857</ele><time>2026-04-12T08:51:28.174Z</time></trkpt><trkpt lat="44.8594554" lon="9.711981"><ele>227.57142857142856</ele><time>2026-04-12T08:51:31.166Z</time></trkpt><trkpt lat="44.8594286" lon="9.7120659"><ele>227.42857142857144</ele><time>2026-04-12T08:51:34.171Z</time></trkpt><trkpt lat="44.8593945" lon="9.7121476"><ele>227.2857142857143</ele><time>2026-04-12T08:51:37.173Z</time></trkpt><trkpt lat="44.8593465" lon="9.7122467"><ele>227.14285714285717</ele><time>2026-04-12T08:51:41.175Z</time></trkpt><trkpt lat="44.8593242" lon="9.7123301"><ele>227.0</ele><time>2026-04-12T08:51:44.181Z</time></trkpt><trkpt lat="44.8592911" lon="9.7124342"><ele>227.85714285714286</ele><time>2026-04-12T08:51:48.174Z</time></trkpt><trkpt lat="44.8592527" lon="9.7125122"><ele>228.71428571428572</ele><time>2026-04-12T08:51:51.176Z</time></trkpt><trkpt lat="44.8592085" lon="9.712586"><ele>229.57142857142858</ele><time>2026-04-12T08:51:54.174Z</time></trkpt><trkpt lat="44.8591624" lon="9.7126575"><ele>230.42857142857144</ele><time>2026-04-12T08:51:57.182Z</time></trkpt><trkpt lat="44.8591055" lon="9.7127305"><ele>231.28571428571428</ele><time>2026-04-12T08:52:01.173Z</time></trkpt><trkpt lat="44.8590471" lon="9.7127823"><ele>232.14285714285717</ele><time>2026-04-12T08:52:05.176Z</time></trkpt><trkpt lat="44.8589913" lon="9.712829"><ele>233.0</ele><time>2026-04-12T08:52:09.181Z</time></trkpt><trkpt lat="44.8589327" lon="9.7128864"><ele>233.71428571428572</ele><time>2026-04-12T08:52:14.169Z</time></trkpt><trkpt lat="44.8588721" lon="9.7129523"><ele>234.42857142857142</ele><time>2026-04-12T08:52:19.175Z</time></trkpt><trkpt lat="44.8588146" lon="9.7130066"><ele>235.14285714285714</ele><time>2026-04-12T08:52:23.178Z</time></trkpt><trkpt lat="44.8587582" lon="9.713071"><ele>235.85714285714286</ele><time>2026-04-12T08:52:28.177Z</time></trkpt><trkpt lat="44.858707" lon="9.7131252"><ele>236.57142857142856</ele><time>2026-04-12T08:52:32.175Z</time></trkpt><trkpt lat="44.8586436" lon="9.7131934"><ele>237.28571428571428</ele><time>2026-04-12T08:52:37.176Z</time></trkpt><trkpt lat="44.858586" lon="9.7132517"><ele>238.0</ele><time>2026-04-12T08:52:42.171Z</time></trkpt><trkpt lat="44.8585286" lon="9.7132972"><ele>238.0</ele><time>2026-04-12T08:52:46.175Z</time></trkpt><trkpt lat="44.8584786" lon="9.7133534"><ele>238.0</ele><time>2026-04-12T08:52:50.17Z</time></trkpt><trkpt lat="44.8584096" lon="9.7133925"><ele>238.0</ele><time>2026-04-12T08:52:55.168Z</time></trkpt><trkpt lat="44.8583518" lon="9.713434"><ele>238.0</ele><time>2026-04-12T08:53:00.17Z</time></trkpt><trkpt lat="44.8582929" lon="9.7134715"><ele>238.0</ele><time>2026-04-12T08:53:04.167Z</time></trkpt><trkpt lat="44.8582249" lon="9.7135221"><ele>238.0</ele><time>2026-04-12T08:53:09.174Z</time></trkpt><trkpt lat="44.8581588" lon="9.7135553"><ele>238.0</ele><time>2026-04-12T08:53:13.185Z</time></trkpt><trkpt lat="44.8580901" lon="9.7135653"><ele>239.57142857142856</ele><time>2026-04-12T08:53:18.175Z</time></trkpt><trkpt lat="44.8580171" lon="9.7135374"><ele>241.14285714285714</ele><time>2026-04-12T08:53:23.165Z</time></trkpt><trkpt lat="44.8579391" lon="9.7135225"><ele>242.71428571428572</ele><time>2026-04-12T08:53:28.168Z</time></trkpt><trkpt lat="44.8578632" lon="9.7135098"><ele>244.28571428571428</ele><time>2026-04-12T08:53:33.178Z</time></trkpt><trkpt lat="44.8578013" lon="9.7134881"><ele>245.85714285714283</ele><time>2026-04-12T08:53:37.178Z</time></trkpt><trkpt lat="44.8577345" lon="9.7134557"><ele>247.42857142857142</ele><time>2026-04-12T08:53:41.181Z</time></trkpt><trkpt lat="44.857671" lon="9.7134469"><ele>249.0</ele><time>2026-04-12T08:53:45.173Z</time></trkpt><trkpt lat="44.8576049" lon="9.713436"><ele>249.85714285714283</ele><time>2026-04-12T08:53:49.186Z</time></trkpt><trkpt lat="44.857529" lon="9.7134305"><ele>250.7142857142857</ele><time>2026-04-12T08:53:54.194Z</time></trkpt><trkpt lat="44.8574624" lon="9.7134151"><ele>251.57142857142856</ele><time>2026-04-12T08:53:58.175Z</time></trkpt><trkpt lat="44.857399" lon="9.7134046"><ele>252.42857142857144</ele><time>2026-04-12T08:54:02.166Z</time></trkpt><trkpt lat="44.857335" lon="9.7134068"><ele>253.2857142857143</ele><time>2026-04-12T08:54:06.173Z</time></trkpt><trkpt lat="44.8572673" lon="9.7134091"><ele>254.14285714285717</ele><time>2026-04-12T08:54:10.172Z</time></trkpt><trkpt lat="44.8572016" lon="9.7134096"><ele>255.0</ele><time>2026-04-12T08:54:14.173Z</time></trkpt><trkpt lat="44.857123" lon="9.7134221"><ele>255.0</ele><time>2026-04-12T08:54:19.177Z</time></trkpt><trkpt lat="44.8570549" lon="9.713444"><ele>255.00000000000003</ele><time>2026-04-12T08:54:23.165Z</time></trkpt><trkpt lat="44.8569913" lon="9.7134543"><ele>255.0</ele><time>2026-04-12T08:54:27.176Z</time></trkpt><trkpt lat="44.8569199" lon="9.7134738"><ele>255.0</ele><time>2026-04-12T08:54:31.183Z</time></trkpt><trkpt lat="44.8568404" lon="9.7134934"><ele>255.00000000000003</ele><time>2026-04-12T08:54:36.168Z</time></trkpt><trkpt lat="44.8567695" lon="9.7135236"><ele>255.0</ele><time>2026-04-12T08:54:40.178Z</time></trkpt><trkpt lat="44.8566943" lon="9.7135526"><ele>255.0</ele><time>2026-04-12T08:54:45.177Z</time></trkpt><trkpt lat="44.8566318" lon="9.7135794"><ele>255.57142857142858</ele><time>2026-04-12T08:54:49.178Z</time></trkpt><trkpt lat="44.8565638" lon="9.713608"><ele>256.14285714285717</ele><time>2026-04-12T08:54:53.179Z</time></trkpt><trkpt lat="44.8564964" lon="9.713624"><ele>256.7142857142857</ele><time>2026-04-12T08:54:57.173Z</time></trkpt><trkpt lat="44.8564304" lon="9.7136528"><ele>257.2857142857143</ele><time>2026-04-12T08:55:01.177Z</time></trkpt><trkpt lat="44.8563687" lon="9.7136847"><ele>257.8571428571429</ele><time>2026-04-12T08:55:05.174Z</time></trkpt><trkpt lat="44.8563024" lon="9.7137141"><ele>258.42857142857144</ele><time>2026-04-12T08:55:09.178Z</time></trkpt><trkpt lat="44.8562274" lon="9.7137333"><ele>259.0</ele><time>2026-04-12T08:55:14.175Z</time></trkpt><trkpt lat="44.8561624" lon="9.7137531"><ele>259.0</ele><time>2026-04-12T08:55:18.174Z</time></trkpt><trkpt lat="44.8560983" lon="9.7137724"><ele>259.0</ele><time>2026-04-12T08:55:22.157Z</time></trkpt><trkpt lat="44.856032" lon="9.7138042"><ele>259.0</ele><time>2026-04-12T08:55:26.176Z</time></trkpt><trkpt lat="44.8559686" lon="9.7138245"><ele>259.0</ele><time>2026-04-12T08:55:30.176Z</time></trkpt><trkpt lat="44.8559051" lon="9.7138442"><ele>259.0</ele><time>2026-04-12T08:55:34.173Z</time></trkpt><trkpt lat="44.8558287" lon="9.7138626"><ele>259.0</ele><time>2026-04-12T08:55:39.179Z</time></trkpt><trkpt lat="44.855757" lon="9.713847"><ele>259.0</ele><time>2026-04-12T08:55:43.179Z</time></trkpt><trkpt lat="44.8556845" lon="9.7138743"><ele>260.42857142857144</ele><time>2026-04-12T08:55:48.183Z</time></trkpt><trkpt lat="44.8556221" lon="9.7138904"><ele>261.8571428571429</ele><time>2026-04-12T08:55:52.171Z</time></trkpt><trkpt lat="44.8555505" lon="9.7139182"><ele>263.2857142857143</ele><time>2026-04-12T08:55:56.175Z</time></trkpt><trkpt lat="44.8554797" lon="9.713934"><ele>264.7142857142857</ele><time>2026-04-12T08:56:00.176Z</time></trkpt><trkpt lat="44.855417" lon="9.7139609"><ele>266.14285714285717</ele><time>2026-04-12T08:56:04.178Z</time></trkpt><trkpt lat="44.855353" lon="9.7139824"><ele>267.57142857142856</ele><time>2026-04-12T08:56:08.179Z</time></trkpt><trkpt lat="44.8552865" lon="9.7140105"><ele>269.0</ele><time>2026-04-12T08:56:12.169Z</time></trkpt><trkpt lat="44.8552258" lon="9.7140396"><ele>269.0</ele><time>2026-04-12T08:56:16.161Z</time></trkpt><trkpt lat="44.8551622" lon="9.71409"><ele>269.0</ele><time>2026-04-12T08:56:20.17Z</time></trkpt><trkpt lat="44.8550985" lon="9.7141212"><ele>269.0</ele><time>2026-04-12T08:56:24.179Z</time></trkpt><trkpt lat="44.8550328" lon="9.7141561"><ele>269.0</ele><time>2026-04-12T08:56:28.173Z</time></trkpt><trkpt lat="44.8549683" lon="9.7141795"><ele>269.0</ele><time>2026-04-12T08:56:32.169Z</time></trkpt><trkpt lat="44.8549055" lon="9.7142113"><ele>269.0</ele><time>2026-04-12T08:56:36.157Z</time></trkpt><trkpt lat="44.8548387" lon="9.7142388"><ele>269.0</ele><time>2026-04-12T08:56:40.174Z</time></trkpt><trkpt lat="44.8547739" lon="9.7142703"><ele>269.8571428571429</ele><time>2026-04-12T08:56:44.185Z</time></trkpt><trkpt lat="44.8547143" lon="9.7143007"><ele>270.7142857142857</ele><time>2026-04-12T08:56:48.166Z</time></trkpt><trkpt lat="44.8546384" lon="9.7143394"><ele>271.57142857142856</ele><time>2026-04-12T08:56:52.173Z</time></trkpt><trkpt lat="44.8545704" lon="9.7143615"><ele>272.42857142857144</ele><time>2026-04-12T08:56:56.172Z</time></trkpt><trkpt lat="44.8545072" lon="9.7143825"><ele>273.2857142857143</ele><time>2026-04-12T08:57:00.183Z</time></trkpt><trkpt lat="44.8544437" lon="9.7144156"><ele>274.14285714285717</ele><time>2026-04-12T08:57:04.18Z</time></trkpt><trkpt lat="44.8543838" lon="9.7144474"><ele>275.0</ele><time>2026-04-12T08:57:08.171Z</time></trkpt><trkpt lat="44.8543171" lon="9.7144743"><ele>277.0</ele><time>2026-04-12T08:57:12.155Z</time></trkpt><trkpt lat="44.8542537" lon="9.7145182"><ele>279.0</ele><time>2026-04-12T08:57:16.174Z</time></trkpt><trkpt lat="44.854188" lon="9.7145556"><ele>281.0</ele><time>2026-04-12T08:57:21.172Z</time></trkpt><trkpt lat="44.8541196" lon="9.7146181"><ele>283.0</ele><time>2026-04-12T08:57:26.172Z</time></trkpt><trkpt lat="44.8540591" lon="9.7146632"><ele>285.0</ele><time>2026-04-12T08:57:30.178Z</time></trkpt><trkpt lat="44.8540098" lon="9.7147356"><ele>287.0</ele><time>2026-04-12T08:57:34.178Z</time></trkpt><trkpt lat="44.8539581" lon="9.7147969"><ele>289.0</ele><time>2026-04-12T08:57:38.176Z</time></trkpt><trkpt lat="44.8539006" lon="9.7148596"><ele>289.0</ele><time>2026-04-12T08:57:43.179Z</time></trkpt><trkpt lat="44.8538535" lon="9.714924"><ele>289.0</ele><time>2026-04-12T08:57:47.171Z</time></trkpt><trkpt lat="44.8537924" lon="9.7149852"><ele>289.0</ele><time>2026-04-12T08:57:52.166Z</time></trkpt><trkpt lat="44.8537472" lon="9.7150569"><ele>289.0</ele><time>2026-04-12T08:57:56.18Z</time></trkpt><trkpt lat="44.8537188" lon="9.7151412"><ele>289.0</ele><time>2026-04-12T08:58:00.162Z</time></trkpt><trkpt lat="44.8536943" lon="9.7152507"><ele>289.0</ele><time>2026-04-12T08:58:05.155Z</time></trkpt><trkpt lat="44.8536809" lon="9.7153621"><ele>289.0</ele><time>2026-04-12T08:58:10.173Z</time></trkpt><trkpt lat="44.8536806" lon="9.715452"><ele>289.8571428571429</ele><time>2026-04-12T08:58:14.184Z</time></trkpt><trkpt lat="44.8536917" lon="9.7155649"><ele>290.7142857142857</ele><time>2026-04-12T08:58:19.157Z</time></trkpt><trkpt lat="44.8537044" lon="9.7156567"><ele>291.57142857142856</ele><time>2026-04-12T08:58:23.197Z</time></trkpt><trkpt lat="44.8537151" lon="9.715751"><ele>292.42857142857144</ele><time>2026-04-12T08:58:27.175Z</time></trkpt><trkpt lat="44.8537287" lon="9.7158453"><ele>293.2857142857143</ele><time>2026-04-12T08:58:31.17Z</time></trkpt><trkpt lat="44.8537509" lon="9.7159486"><ele>294.14285714285717</ele><time>2026-04-12T08:58:35.169Z</time></trkpt><trkpt lat="44.8537757" lon="9.71604"><ele>295.0</ele><time>2026-04-12T08:58:39.17Z</time></trkpt><trkpt lat="44.8537883" lon="9.7161423"><ele>295.5714285714286</ele><time>2026-04-12T08:58:43.174Z</time></trkpt><trkpt lat="44.8537775" lon="9.7162456"><ele>296.14285714285717</ele><time>2026-04-12T08:58:47.188Z</time></trkpt><trkpt lat="44.8537439" lon="9.7163426"><ele>296.7142857142857</ele><time>2026-04-12T08:58:51.179Z</time></trkpt><trkpt lat="44.8536962" lon="9.7164046"><ele>297.28571428571433</ele><time>2026-04-12T08:58:55.176Z</time></trkpt><trkpt lat="44.8536305" lon="9.7164576"><ele>297.8571428571429</ele><time>2026-04-12T08:58:59.174Z</time></trkpt><trkpt lat="44.8535671" lon="9.7164818"><ele>298.42857142857144</ele><time>2026-04-12T08:59:03.167Z</time></trkpt><trkpt lat="44.8535076" lon="9.716525"><ele>299.0</ele><time>2026-04-12T08:59:07.167Z</time></trkpt><trkpt lat="44.8534494" lon="9.7165788"><ele>300.0</ele><time>2026-04-12T08:59:11.171Z</time></trkpt><trkpt lat="44.8533846" lon="9.7166299"><ele>301.0</ele><time>2026-04-12T08:59:15.179Z</time></trkpt><trkpt lat="44.8533268" lon="9.7166742"><ele>302.0</ele><time>2026-04-12T08:59:19.16Z</time></trkpt><trkpt lat="44.8532693" lon="9.7167244"><ele>303.0</ele><time>2026-04-12T08:59:23.186Z</time></trkpt><trkpt lat="44.8532094" lon="9.7167757"><ele>304.0</ele><time>2026-04-12T08:59:27.17Z</time></trkpt><trkpt lat="44.8531548" lon="9.716835"><ele>305.0</ele><time>2026-04-12T08:59:31.19Z</time></trkpt><trkpt lat="44.853092" lon="9.7168726"><ele>306.0</ele><time>2026-04-12T08:59:35.177Z</time></trkpt><trkpt lat="44.8530359" lon="9.7169156"><ele>306.42857142857144</ele><time>2026-04-12T08:59:39.168Z</time></trkpt><trkpt lat="44.8529748" lon="9.7169607"><ele>306.8571428571429</ele><time>2026-04-12T08:59:43.167Z</time></trkpt><trkpt lat="44.852906" lon="9.7169881"><ele>307.28571428571433</ele><time>2026-04-12T08:59:47.175Z</time></trkpt><trkpt lat="44.8528355" lon="9.7170337"><ele>307.7142857142857</ele><time>2026-04-12T08:59:52.173Z</time></trkpt><trkpt lat="44.8527799" lon="9.7170836"><ele>308.14285714285717</ele><time>2026-04-12T08:59:56.171Z</time></trkpt><trkpt lat="44.8527185" lon="9.7171312"><ele>308.5714285714286</ele><time>2026-04-12T09:00:00.175Z</time></trkpt><trkpt lat="44.8526531" lon="9.7171753"><ele>309.0</ele><time>2026-04-12T09:00:04.175Z</time></trkpt><trkpt lat="44.8525907" lon="9.7172191"><ele>309.7142857142857</ele><time>2026-04-12T09:00:08.176Z</time></trkpt><trkpt lat="44.8525283" lon="9.7172709"><ele>310.42857142857144</ele><time>2026-04-12T09:00:12.177Z</time></trkpt><trkpt lat="44.8524653" lon="9.7173152"><ele>311.1428571428571</ele><time>2026-04-12T09:00:16.214Z</time></trkpt><trkpt lat="44.8524219" lon="9.7174"><ele>311.8571428571429</ele><time>2026-04-12T09:00:20.159Z</time></trkpt><trkpt lat="44.8523948" lon="9.7175051"><ele>312.57142857142856</ele><time>2026-04-12T09:00:25.166Z</time></trkpt><trkpt lat="44.8523936" lon="9.7176007"><ele>313.2857142857143</ele><time>2026-04-12T09:00:29.177Z</time></trkpt><trkpt lat="44.852371" lon="9.7177018"><ele>314.0</ele><time>2026-04-12T09:00:34.18Z</time></trkpt><trkpt lat="44.8522974" lon="9.7177392"><ele>314.71428571428567</ele><time>2026-04-12T09:00:39.182Z</time></trkpt><trkpt lat="44.8522273" lon="9.7177682"><ele>315.42857142857144</ele><time>2026-04-12T09:00:43.181Z</time></trkpt><trkpt lat="44.8521641" lon="9.7177944"><ele>316.1428571428571</ele><time>2026-04-12T09:00:47.154Z</time></trkpt><trkpt lat="44.852093" lon="9.7178193"><ele>316.85714285714283</ele><time>2026-04-12T09:00:51.176Z</time></trkpt><trkpt lat="44.852026" lon="9.7178463"><ele>317.57142857142856</ele><time>2026-04-12T09:00:55.168Z</time></trkpt><trkpt lat="44.8519608" lon="9.7178746"><ele>318.2857142857143</ele><time>2026-04-12T09:01:00.177Z</time></trkpt><trkpt lat="44.8518906" lon="9.7179205"><ele>319.0</ele><time>2026-04-12T09:01:04.174Z</time></trkpt><trkpt lat="44.8518324" lon="9.7179668"><ele>319.8571428571429</ele><time>2026-04-12T09:01:08.179Z</time></trkpt><trkpt lat="44.8517715" lon="9.7180031"><ele>320.71428571428567</ele><time>2026-04-12T09:01:12.18Z</time></trkpt><trkpt lat="44.85171" lon="9.7180422"><ele>321.57142857142856</ele><time>2026-04-12T09:01:16.182Z</time></trkpt><trkpt lat="44.8516529" lon="9.7180866"><ele>322.42857142857144</ele><time>2026-04-12T09:01:20.178Z</time></trkpt><trkpt lat="44.8515863" lon="9.7181344"><ele>323.28571428571433</ele><time>2026-04-12T09:01:24.169Z</time></trkpt><trkpt lat="44.851534" lon="9.7181889"><ele>324.1428571428571</ele><time>2026-04-12T09:01:28.171Z</time></trkpt><trkpt lat="44.85147" lon="9.7182284"><ele>325.0</ele><time>2026-04-12T09:01:33.161Z</time></trkpt><trkpt lat="44.8514056" lon="9.7182756"><ele>325.0</ele><time>2026-04-12T09:01:37.181Z</time></trkpt><trkpt lat="44.8513337" lon="9.7183189"><ele>325.0</ele><time>2026-04-12T09:01:42.182Z</time></trkpt><trkpt lat="44.8512618" lon="9.7183575"><ele>325.0</ele><time>2026-04-12T09:01:47.176Z</time></trkpt><trkpt lat="44.8511903" lon="9.7183743"><ele>325.0</ele><time>2026-04-12T09:01:52.174Z</time></trkpt><trkpt lat="44.8511221" lon="9.7183728"><ele>325.0</ele><time>2026-04-12T09:01:57.165Z</time></trkpt><trkpt lat="44.8510505" lon="9.7183694"><ele>325.0</ele><time>2026-04-12T09:02:02.178Z</time></trkpt><trkpt lat="44.850978" lon="9.718378"><ele>325.0</ele><time>2026-04-12T09:02:07.181Z</time></trkpt><trkpt lat="44.8509082" lon="9.718379"><ele>326.4285714285714</ele><time>2026-04-12T09:02:12.178Z</time></trkpt><trkpt lat="44.8508432" lon="9.7183595"><ele>327.8571428571429</ele><time>2026-04-12T09:02:17.183Z</time></trkpt><trkpt lat="44.850774" lon="9.7183466"><ele>329.2857142857143</ele><time>2026-04-12T09:02:22.176Z</time></trkpt><trkpt lat="44.8507046" lon="9.7183266"><ele>330.71428571428567</ele><time>2026-04-12T09:02:27.182Z</time></trkpt><trkpt lat="44.8506363" lon="9.7183025"><ele>332.1428571428571</ele><time>2026-04-12T09:02:32.176Z</time></trkpt><trkpt lat="44.850562" lon="9.7182859"><ele>333.57142857142856</ele><time>2026-04-12T09:02:38.171Z</time></trkpt><trkpt lat="44.8504922" lon="9.7182699"><ele>335.0</ele><time>2026-04-12T09:02:43.183Z</time></trkpt><trkpt lat="44.8504268" lon="9.7182481"><ele>334.99999999999994</ele><time>2026-04-12T09:02:48.177Z</time></trkpt><trkpt lat="44.8503497" lon="9.7182484"><ele>335.0</ele><time>2026-04-12T09:02:54.183Z</time></trkpt><trkpt lat="44.850276" lon="9.7182627"><ele>335.0</ele><time>2026-04-12T09:02:59.171Z</time></trkpt><trkpt lat="44.8502128" lon="9.7182986"><ele>335.0</ele><time>2026-04-12T09:03:04.172Z</time></trkpt><trkpt lat="44.8501607" lon="9.7183608"><ele>335.0</ele><time>2026-04-12T09:03:09.165Z</time></trkpt><trkpt lat="44.8501114" lon="9.7184413"><ele>334.99999999999994</ele><time>2026-04-12T09:03:14.177Z</time></trkpt><trkpt lat="44.8500947" lon="9.7185477"><ele>335.0</ele><time>2026-04-12T09:03:19.174Z</time></trkpt><trkpt lat="44.8500784" lon="9.7186549"><ele>338.2857142857143</ele><time>2026-04-12T09:03:24.178Z</time></trkpt><trkpt lat="44.8500639" lon="9.7187567"><ele>341.57142857142856</ele><time>2026-04-12T09:03:30.175Z</time></trkpt><trkpt lat="44.8500392" lon="9.718854"><ele>344.8571428571429</ele><time>2026-04-12T09:03:35.177Z</time></trkpt><trkpt lat="44.8500131" lon="9.7189454"><ele>348.1428571428571</ele><time>2026-04-12T09:03:40.169Z</time></trkpt><trkpt lat="44.8500032" lon="9.7190481"><ele>351.42857142857144</ele><time>2026-04-12T09:03:45.167Z</time></trkpt><trkpt lat="44.8499837" lon="9.7191547"><ele>354.7142857142857</ele><time>2026-04-12T09:03:50.191Z</time></trkpt><trkpt lat="44.8499765" lon="9.7192601"><ele>358.0</ele><time>2026-04-12T09:03:55.167Z</time></trkpt><trkpt lat="44.8499702" lon="9.7193595"><ele>359.00000000000006</ele><time>2026-04-12T09:04:00.176Z</time></trkpt><trkpt lat="44.8499886" lon="9.7194456"><ele>360.0</ele><time>2026-04-12T09:04:05.177Z</time></trkpt><trkpt lat="44.8500333" lon="9.719524"><ele>361.0</ele><time>2026-04-12T09:04:10.179Z</time></trkpt><trkpt lat="44.8500744" lon="9.7196039"><ele>362.0</ele><time>2026-04-12T09:04:15.186Z</time></trkpt><trkpt lat="44.8501145" lon="9.7196787"><ele>363.0</ele><time>2026-04-12T09:04:20.169Z</time></trkpt><trkpt lat="44.850169" lon="9.7197345"><ele>364.00000000000006</ele><time>2026-04-12T09:04:25.169Z</time></trkpt><trkpt lat="44.8502382" lon="9.7197869"><ele>365.0</ele><time>2026-04-12T09:04:30.168Z</time></trkpt><trkpt lat="44.8502918" lon="9.7198445"><ele>365.00000000000006</ele><time>2026-04-12T09:04:35.173Z</time></trkpt><trkpt lat="44.8503505" lon="9.7198875"><ele>365.0</ele><time>2026-04-12T09:04:40.174Z</time></trkpt><trkpt lat="44.8504228" lon="9.7199272"><ele>365.0</ele><time>2026-04-12T09:04:45.175Z</time></trkpt><trkpt lat="44.8504878" lon="9.7199702"><ele>365.0</ele><time>2026-04-12T09:04:50.178Z</time></trkpt><trkpt lat="44.8505523" lon="9.7200248"><ele>365.0</ele><time>2026-04-12T09:04:56.178Z</time></trkpt><trkpt lat="44.8506228" lon="9.7200559"><ele>365.00000000000006</ele><time>2026-04-12T09:05:02.174Z</time></trkpt><trkpt lat="44.8506945" lon="9.7200812"><ele>365.0</ele><time>2026-04-12T09:05:06.17Z</time></trkpt><trkpt lat="44.850754" lon="9.7201226"><ele>365.00000000000006</ele><time>2026-04-12T09:05:10.181Z</time></trkpt><trkpt lat="44.8508068" lon="9.7201764"><ele>365.0</ele><time>2026-04-12T09:05:14.18Z</time></trkpt><trkpt lat="44.8508662" lon="9.7202364"><ele>365.0</ele><time>2026-04-12T09:05:19.187Z</time></trkpt><trkpt lat="44.8509267" lon="9.7203004"><ele>365.0</ele><time>2026-04-12T09:05:24.174Z</time></trkpt><trkpt lat="44.8509937" lon="9.7203409"><ele>365.0</ele><time>2026-04-12T09:05:29.182Z</time></trkpt><trkpt lat="44.8510465" lon="9.720402"><ele>365.00000000000006</ele><time>2026-04-12T09:05:33.177Z</time></trkpt><trkpt lat="44.8510913" lon="9.7204808"><ele>365.0</ele><time>2026-04-12T09:05:38.17Z</time></trkpt><trkpt lat="44.8511417" lon="9.7205454"><ele>366.42857142857144</ele><time>2026-04-12T09:05:43.176Z</time></trkpt><trkpt lat="44.8511903" lon="9.7206128"><ele>367.8571428571429</ele><time>2026-04-12T09:05:48.178Z</time></trkpt><trkpt lat="44.8512593" lon="9.7206639"><ele>369.28571428571433</ele><time>2026-04-12T09:05:53.178Z</time></trkpt><trkpt lat="44.8513127" lon="9.7207269"><ele>370.7142857142857</ele><time>2026-04-12T09:05:58.173Z</time></trkpt><trkpt lat="44.8513702" lon="9.7208011"><ele>372.1428571428571</ele><time>2026-04-12T09:06:03.178Z</time></trkpt><trkpt lat="44.851424" lon="9.7208688"><ele>373.5714285714286</ele><time>2026-04-12T09:06:08.168Z</time></trkpt><trkpt lat="44.8514746" lon="9.720922"><ele>375.0</ele><time>2026-04-12T09:06:12.179Z</time></trkpt><trkpt lat="44.851529" lon="9.7209861"><ele>375.42857142857144</ele><time>2026-04-12T09:06:17.18Z</time></trkpt><trkpt lat="44.8515668" lon="9.7210665"><ele>375.85714285714283</ele><time>2026-04-12T09:06:22.178Z</time></trkpt><trkpt lat="44.8516287" lon="9.7211173"><ele>376.2857142857143</ele><time>2026-04-12T09:06:27.182Z</time></trkpt><trkpt lat="44.8516943" lon="9.7211207"><ele>376.7142857142857</ele><time>2026-04-12T09:06:32.183Z</time></trkpt><trkpt lat="44.8517766" lon="9.72112"><ele>377.1428571428571</ele><time>2026-04-12T09:06:35.174Z</time></trkpt><trkpt lat="44.851844" lon="9.7211239"><ele>377.57142857142856</ele><time>2026-04-12T09:08:21.186Z</time></trkpt><trkpt lat="44.8519295" lon="9.7211661"><ele>378.0</ele><time>2026-04-12T09:08:25.182Z</time></trkpt><trkpt lat="44.8520157" lon="9.7212036"><ele>376.79999999999995</ele><time>2026-04-12T09:08:28.182Z</time></trkpt><trkpt lat="44.8520823" lon="9.721233"><ele>375.6</ele><time>2026-04-12T09:08:30.189Z</time></trkpt><trkpt lat="44.8521714" lon="9.7212601"><ele>374.4</ele><time>2026-04-12T09:08:32.178Z</time></trkpt><trkpt lat="44.8522707" lon="9.721302"><ele>373.20000000000005</ele><time>2026-04-12T09:08:34.179Z</time></trkpt><trkpt lat="44.8523721" lon="9.7213478"><ele>372.0</ele><time>2026-04-12T09:08:36.182Z</time></trkpt><trkpt lat="44.8524824" lon="9.7213985"><ele>372.00000000000006</ele><time>2026-04-12T09:08:38.179Z</time></trkpt><trkpt lat="44.8525435" lon="9.7214274"><ele>372.0</ele><time>2026-04-12T09:08:39.185Z</time></trkpt><trkpt lat="44.8526075" lon="9.7214683"><ele>372.0</ele><time>2026-04-12T09:08:40.19Z</time></trkpt><trkpt lat="44.852678" lon="9.721512"><ele>372.0</ele><time>2026-04-12T09:08:41.189Z</time></trkpt><trkpt lat="44.8527504" lon="9.7215449"><ele>372.0</ele><time>2026-04-12T09:08:42.159Z</time></trkpt><trkpt lat="44.8528279" lon="9.7215712"><ele>372.00000000000006</ele><time>2026-04-12T09:08:43.174Z</time></trkpt><trkpt lat="44.8529045" lon="9.7216036"><ele>372.0</ele><time>2026-04-12T09:08:44.182Z</time></trkpt><trkpt lat="44.852982" lon="9.7216328"><ele>371.8333333333333</ele><time>2026-04-12T09:08:45.176Z</time></trkpt><trkpt lat="44.8530617" lon="9.721662"><ele>371.6666666666667</ele><time>2026-04-12T09:08:46.169Z</time></trkpt><trkpt lat="44.8531409" lon="9.7216859"><ele>371.5</ele><time>2026-04-12T09:08:47.181Z</time></trkpt><trkpt lat="44.8532189" lon="9.7217016"><ele>371.33333333333337</ele><time>2026-04-12T09:08:48.192Z</time></trkpt><trkpt lat="44.8532898" lon="9.7217209"><ele>371.1666666666667</ele><time>2026-04-12T09:08:49.181Z</time></trkpt><trkpt lat="44.8533552" lon="9.7217393"><ele>371.0</ele><time>2026-04-12T09:08:50.185Z</time></trkpt><trkpt lat="44.8534229" lon="9.7217638"><ele>369.42857142857144</ele><time>2026-04-12T09:08:51.171Z</time></trkpt><trkpt lat="44.8534925" lon="9.7217868"><ele>367.8571428571429</ele><time>2026-04-12T09:08:52.181Z</time></trkpt><trkpt lat="44.8535587" lon="9.7218156"><ele>366.2857142857143</ele><time>2026-04-12T09:08:53.173Z</time></trkpt><trkpt lat="44.8536246" lon="9.7218389"><ele>364.7142857142857</ele><time>2026-04-12T09:08:54.176Z</time></trkpt><trkpt lat="44.8536927" lon="9.721862"><ele>363.14285714285717</ele><time>2026-04-12T09:08:55.176Z</time></trkpt><trkpt lat="44.8537736" lon="9.7218783"><ele>361.57142857142856</ele><time>2026-04-12T09:08:56.191Z</time></trkpt><trkpt lat="44.8538499" lon="9.7218987"><ele>360.0</ele><time>2026-04-12T09:08:57.172Z</time></trkpt><trkpt lat="44.8539312" lon="9.721918"><ele>358.4</ele><time>2026-04-12T09:08:58.166Z</time></trkpt><trkpt lat="44.8540201" lon="9.7219355"><ele>356.8</ele><time>2026-04-12T09:08:59.174Z</time></trkpt><trkpt lat="44.8541137" lon="9.7219556"><ele>355.20000000000005</ele><time>2026-04-12T09:09:00.174Z</time></trkpt><trkpt lat="44.8542065" lon="9.72198"><ele>353.6</ele><time>2026-04-12T09:09:01.173Z</time></trkpt><trkpt lat="44.8542967" lon="9.721999"><ele>352.0</ele><time>2026-04-12T09:09:02.177Z</time></trkpt><trkpt lat="44.8543866" lon="9.7220288"><ele>350.40000000000003</ele><time>2026-04-12T09:09:03.166Z</time></trkpt><trkpt lat="44.8544756" lon="9.7220608"><ele>348.8</ele><time>2026-04-12T09:09:04.176Z</time></trkpt><trkpt lat="44.8545665" lon="9.7221013"><ele>347.2</ele><time>2026-04-12T09:09:05.184Z</time></trkpt><trkpt lat="44.8546568" lon="9.7221459"><ele>345.6</ele><time>2026-04-12T09:09:06.176Z</time></trkpt><trkpt lat="44.8547495" lon="9.7221951"><ele>344.0</ele><time>2026-04-12T09:09:07.179Z</time></trkpt><trkpt lat="44.8548518" lon="9.7222437"><ele>344.0</ele><time>2026-04-12T09:09:08.192Z</time></trkpt><trkpt lat="44.8549601" lon="9.7222867"><ele>344.0</ele><time>2026-04-12T09:09:09.153Z</time></trkpt><trkpt lat="44.8550713" lon="9.7223249"><ele>344.0</ele><time>2026-04-12T09:09:10.179Z</time></trkpt><trkpt lat="44.855191" lon="9.7223697"><ele>344.0</ele><time>2026-04-12T09:09:11.174Z</time></trkpt><trkpt lat="44.8553082" lon="9.7224285"><ele>344.0</ele><time>2026-04-12T09:09:12.171Z</time></trkpt><trkpt lat="44.8554223" lon="9.7224965"><ele>344.0</ele><time>2026-04-12T09:09:13.174Z</time></trkpt><trkpt lat="44.8555397" lon="9.7225691"><ele>344.0</ele><time>2026-04-12T09:09:14.182Z</time></trkpt><trkpt lat="44.8556573" lon="9.7226392"><ele>344.0</ele><time>2026-04-12T09:09:15.181Z</time></trkpt><trkpt lat="44.8557744" lon="9.722702"><ele>343.5</ele><time>2026-04-12T09:09:16.185Z</time></trkpt><trkpt lat="44.8558933" lon="9.7227462"><ele>343.0</ele><time>2026-04-12T09:09:17.183Z</time></trkpt><trkpt lat="44.8560093" lon="9.7227814"><ele>342.5</ele><time>2026-04-12T09:09:18.175Z</time></trkpt><trkpt lat="44.8561186" lon="9.722811"><ele>342.0</ele><time>2026-04-12T09:09:19.182Z</time></trkpt><trkpt lat="44.8562197" lon="9.722839"><ele>342.0</ele><time>2026-04-12T09:09:20.175Z</time></trkpt><trkpt lat="44.8563128" lon="9.7228651"><ele>342.0</ele><time>2026-04-12T09:09:21.182Z</time></trkpt><trkpt lat="44.8563996" lon="9.7228868"><ele>342.0</ele><time>2026-04-12T09:09:22.184Z</time></trkpt><trkpt lat="44.8564846" lon="9.7229138"><ele>342.0</ele><time>2026-04-12T09:09:23.179Z</time></trkpt><trkpt lat="44.856561" lon="9.7229338"><ele>342.0</ele><time>2026-04-12T09:09:24.18Z</time></trkpt><trkpt lat="44.8566273" lon="9.7229571"><ele>342.0</ele><time>2026-04-12T09:09:25.177Z</time></trkpt><trkpt lat="44.8566905" lon="9.7229758"><ele>342.5</ele><time>2026-04-12T09:09:26.188Z</time></trkpt><trkpt lat="44.8567961" lon="9.722997"><ele>343.0</ele><time>2026-04-12T09:09:28.182Z</time></trkpt><trkpt lat="44.8568671" lon="9.7230172"><ele>343.5</ele><time>2026-04-12T09:09:30.179Z</time></trkpt><trkpt lat="44.8569285" lon="9.7230376"><ele>344.0</ele><time>2026-04-12T09:09:32.18Z</time></trkpt><trkpt lat="44.8570118" lon="9.7230617"><ele>344.5</ele><time>2026-04-12T09:09:35.183Z</time></trkpt><trkpt lat="44.8570989" lon="9.7230769"><ele>345.0</ele><time>2026-04-12T09:09:38.177Z</time></trkpt><trkpt lat="44.8571862" lon="9.7231139"><ele>345.0</ele><time>2026-04-12T09:09:41.177Z</time></trkpt><trkpt lat="44.8572527" lon="9.7231323"><ele>345.0</ele><time>2026-04-12T09:09:43.174Z</time></trkpt><trkpt lat="44.8573479" lon="9.7231556"><ele>345.0</ele><time>2026-04-12T09:09:46.183Z</time></trkpt><trkpt lat="44.8574129" lon="9.7231695"><ele>345.0</ele><time>2026-04-12T09:09:48.175Z</time></trkpt><trkpt lat="44.8574807" lon="9.723185"><ele>345.0</ele><time>2026-04-12T09:09:50.179Z</time></trkpt><trkpt lat="44.8575525" lon="9.7231943"><ele>345.0</ele><time>2026-04-12T09:09:52.18Z</time></trkpt><trkpt lat="44.8576309" lon="9.7232143"><ele>344.6</ele><time>2026-04-12T09:09:54.178Z</time></trkpt><trkpt lat="44.8577217" lon="9.7232288"><ele>344.2</ele><time>2026-04-12T09:09:56.174Z</time></trkpt><trkpt lat="44.8578233" lon="9.7232475"><ele>343.79999999999995</ele><time>2026-04-12T09:09:58.175Z</time></trkpt><trkpt lat="44.8579396" lon="9.7232563"><ele>343.4</ele><time>2026-04-12T09:10:00.171Z</time></trkpt><trkpt lat="44.8580592" lon="9.7232786"><ele>343.0</ele><time>2026-04-12T09:10:02.182Z</time></trkpt><trkpt lat="44.8581776" lon="9.7233364"><ele>343.0</ele><time>2026-04-12T09:10:04.179Z</time></trkpt><trkpt lat="44.8582748" lon="9.7233892"><ele>343.0</ele><time>2026-04-12T09:10:06.172Z</time></trkpt><trkpt lat="44.8583675" lon="9.7234415"><ele>343.0</ele><time>2026-04-12T09:10:08.178Z</time></trkpt><trkpt lat="44.8584429" lon="9.7234898"><ele>343.0</ele><time>2026-04-12T09:10:10.191Z</time></trkpt><trkpt lat="44.8585171" lon="9.7235425"><ele>343.0</ele><time>2026-04-12T09:10:12.172Z</time></trkpt><trkpt lat="44.8585977" lon="9.7236064"><ele>341.79999999999995</ele><time>2026-04-12T09:10:14.175Z</time></trkpt><trkpt lat="44.8586867" lon="9.723674"><ele>340.6</ele><time>2026-04-12T09:10:16.187Z</time></trkpt><trkpt lat="44.8587767" lon="9.7237423"><ele>339.4</ele><time>2026-04-12T09:10:18.185Z</time></trkpt><trkpt lat="44.8588683" lon="9.7238336"><ele>338.20000000000005</ele><time>2026-04-12T09:10:20.179Z</time></trkpt><trkpt lat="44.8589592" lon="9.7239368"><ele>337.0</ele><time>2026-04-12T09:10:22.175Z</time></trkpt><trkpt lat="44.8590088" lon="9.7239932"><ele>337.0</ele><time>2026-04-12T09:10:23.176Z</time></trkpt><trkpt lat="44.8590647" lon="9.7240568"><ele>337.0</ele><time>2026-04-12T09:10:24.195Z</time></trkpt><trkpt lat="44.859121" lon="9.724125"><ele>337.0</ele><time>2026-04-12T09:10:25.177Z</time></trkpt><trkpt lat="44.8591736" lon="9.7241947"><ele>337.0</ele><time>2026-04-12T09:10:26.191Z</time></trkpt><trkpt lat="44.8592362" lon="9.7242638"><ele>337.0</ele><time>2026-04-12T09:10:27.178Z</time></trkpt><trkpt lat="44.8593009" lon="9.724349"><ele>337.0</ele><time>2026-04-12T09:10:28.181Z</time></trkpt><trkpt lat="44.8593657" lon="9.724429"><ele>335.8</ele><time>2026-04-12T09:10:29.189Z</time></trkpt><trkpt lat="44.8594329" lon="9.7245116"><ele>334.6</ele><time>2026-04-12T09:10:30.177Z</time></trkpt><trkpt lat="44.8595036" lon="9.724598"><ele>333.40000000000003</ele><time>2026-04-12T09:10:31.177Z</time></trkpt><trkpt lat="44.8595709" lon="9.7246819"><ele>332.20000000000005</ele><time>2026-04-12T09:10:32.184Z</time></trkpt><trkpt lat="44.859641" lon="9.7247652"><ele>331.0</ele><time>2026-04-12T09:10:33.177Z</time></trkpt><trkpt lat="44.8597076" lon="9.7248514"><ele>331.0</ele><time>2026-04-12T09:10:34.173Z</time></trkpt><trkpt lat="44.8597727" lon="9.7249397"><ele>331.0</ele><time>2026-04-12T09:10:35.183Z</time></trkpt><trkpt lat="44.8598431" lon="9.7250276"><ele>331.0</ele><time>2026-04-12T09:10:36.162Z</time></trkpt><trkpt lat="44.8599134" lon="9.725114"><ele>331.0</ele><time>2026-04-12T09:10:37.185Z</time></trkpt><trkpt lat="44.8599891" lon="9.7251982"><ele>331.0</ele><time>2026-04-12T09:10:38.183Z</time></trkpt><trkpt lat="44.8600671" lon="9.7252938"><ele>328.25</ele><time>2026-04-12T09:10:39.182Z</time></trkpt><trkpt lat="44.8601457" lon="9.7253969"><ele>325.5</ele><time>2026-04-12T09:10:40.179Z</time></trkpt><trkpt lat="44.8602236" lon="9.7254997"><ele>322.75</ele><time>2026-04-12T09:10:41.177Z</time></trkpt><trkpt lat="44.8603116" lon="9.7256084"><ele>320.0</ele><time>2026-04-12T09:10:42.175Z</time></trkpt><trkpt lat="44.860404" lon="9.725725"><ele>320.0</ele><time>2026-04-12T09:10:43.163Z</time></trkpt><trkpt lat="44.860501" lon="9.7258365"><ele>320.0</ele><time>2026-04-12T09:10:44.186Z</time></trkpt><trkpt lat="44.8605966" lon="9.725942"><ele>320.0</ele><time>2026-04-12T09:10:45.181Z</time></trkpt><trkpt lat="44.8606884" lon="9.726049"><ele>320.0</ele><time>2026-04-12T09:10:46.18Z</time></trkpt><trkpt lat="44.8607841" lon="9.7261412"><ele>320.0</ele><time>2026-04-12T09:10:47.185Z</time></trkpt><trkpt lat="44.8608815" lon="9.7262202"><ele>320.0</ele><time>2026-04-12T09:10:48.177Z</time></trkpt><trkpt lat="44.8609793" lon="9.7262972"><ele>320.0</ele><time>2026-04-12T09:10:49.175Z</time></trkpt><trkpt lat="44.861076" lon="9.7263718"><ele>320.0</ele><time>2026-04-12T09:10:50.174Z</time></trkpt><trkpt lat="44.8611697" lon="9.726442"><ele>320.0</ele><time>2026-04-12T09:10:51.179Z</time></trkpt><trkpt lat="44.8612544" lon="9.726508"><ele>320.0</ele><time>2026-04-12T09:10:52.181Z</time></trkpt><trkpt lat="44.8613362" lon="9.7265574"><ele>320.0</ele><time>2026-04-12T09:10:53.188Z</time></trkpt><trkpt lat="44.8614152" lon="9.726606"><ele>320.0</ele><time>2026-04-12T09:10:54.169Z</time></trkpt><trkpt lat="44.8614861" lon="9.726659"><ele>320.0</ele><time>2026-04-12T09:10:55.178Z</time></trkpt><trkpt lat="44.8615562" lon="9.7267049"><ele>320.0</ele><time>2026-04-12T09:10:56.18Z</time></trkpt><trkpt lat="44.8616294" lon="9.7267541"><ele>320.0</ele><time>2026-04-12T09:10:57.188Z</time></trkpt><trkpt lat="44.8616991" lon="9.7268048"><ele>320.0</ele><time>2026-04-12T09:10:58.175Z</time></trkpt><trkpt lat="44.8617645" lon="9.7268542"><ele>320.0</ele><time>2026-04-12T09:10:59.181Z</time></trkpt><trkpt lat="44.8618762" lon="9.7268"><ele>320.0</ele><time>2026-04-12T09:11:01.182Z</time></trkpt><trkpt lat="44.861915" lon="9.726714"><ele>320.0</ele><time>2026-04-12T09:11:02.168Z</time></trkpt><trkpt lat="44.861953" lon="9.7265944"><ele>320.0</ele><time>2026-04-12T09:11:03.171Z</time></trkpt><trkpt lat="44.8619843" lon="9.7264854"><ele>320.0</ele><time>2026-04-12T09:11:04.185Z</time></trkpt><trkpt lat="44.8620426" lon="9.7264177"><ele>317.4</ele><time>2026-04-12T09:11:05.179Z</time></trkpt><trkpt lat="44.8621236" lon="9.7263882"><ele>314.8</ele><time>2026-04-12T09:11:06.184Z</time></trkpt><trkpt lat="44.8622258" lon="9.7263982"><ele>312.2</ele><time>2026-04-12T09:11:07.163Z</time></trkpt><trkpt lat="44.8623235" lon="9.7264229"><ele>309.6</ele><time>2026-04-12T09:11:08.158Z</time></trkpt><trkpt lat="44.8624186" lon="9.7264443"><ele>307.0</ele><time>2026-04-12T09:11:09.173Z</time></trkpt><trkpt lat="44.8625176" lon="9.7264736"><ele>305.6</ele><time>2026-04-12T09:11:10.182Z</time></trkpt><trkpt lat="44.8626195" lon="9.726493"><ele>304.2</ele><time>2026-04-12T09:11:11.169Z</time></trkpt><trkpt lat="44.8627198" lon="9.7265102"><ele>302.8</ele><time>2026-04-12T09:11:12.18Z</time></trkpt><trkpt lat="44.8628179" lon="9.7265189"><ele>301.4</ele><time>2026-04-12T09:11:13.172Z</time></trkpt><trkpt lat="44.862915" lon="9.7265352"><ele>300.0</ele><time>2026-04-12T09:11:14.164Z</time></trkpt><trkpt lat="44.8630066" lon="9.72655"><ele>300.0</ele><time>2026-04-12T09:11:15.18Z</time></trkpt><trkpt lat="44.8630961" lon="9.7265677"><ele>300.0</ele><time>2026-04-12T09:11:16.189Z</time></trkpt><trkpt lat="44.8631877" lon="9.7265888"><ele>300.0</ele><time>2026-04-12T09:11:17.189Z</time></trkpt><trkpt lat="44.8632757" lon="9.7266135"><ele>300.0</ele><time>2026-04-12T09:11:18.182Z</time></trkpt><trkpt lat="44.8633627" lon="9.7266343"><ele>300.0</ele><time>2026-04-12T09:11:19.182Z</time></trkpt><trkpt lat="44.8634484" lon="9.7266627"><ele>300.0</ele><time>2026-04-12T09:11:20.179Z</time></trkpt><trkpt lat="44.8635351" lon="9.7266926"><ele>299.3333333333333</ele><time>2026-04-12T09:11:21.182Z</time></trkpt><trkpt lat="44.8636209" lon="9.7267344"><ele>298.6666666666667</ele><time>2026-04-12T09:11:22.175Z</time></trkpt><trkpt lat="44.8637022" lon="9.7267898"><ele>298.0</ele><time>2026-04-12T09:11:23.182Z</time></trkpt><trkpt lat="44.8637748" lon="9.7268588"><ele>297.33333333333337</ele><time>2026-04-12T09:11:24.188Z</time></trkpt><trkpt lat="44.8638396" lon="9.7269339"><ele>296.6666666666667</ele><time>2026-04-12T09:11:25.189Z</time></trkpt><trkpt lat="44.8639006" lon="9.727014"><ele>296.0</ele><time>2026-04-12T09:11:26.18Z</time></trkpt><trkpt lat="44.8639662" lon="9.7270901"><ele>296.0</ele><time>2026-04-12T09:11:27.18Z</time></trkpt><trkpt lat="44.8640268" lon="9.7271592"><ele>296.0</ele><time>2026-04-12T09:11:28.148Z</time></trkpt><trkpt lat="44.8640816" lon="9.7272234"><ele>296.0</ele><time>2026-04-12T09:11:29.151Z</time></trkpt><trkpt lat="44.8641286" lon="9.7272842"><ele>296.0</ele><time>2026-04-12T09:11:30.179Z</time></trkpt><trkpt lat="44.8641955" lon="9.7274138"><ele>296.0</ele><time>2026-04-12T09:11:32.181Z</time></trkpt><trkpt lat="44.8642796" lon="9.7275025"><ele>296.0</ele><time>2026-04-12T09:11:34.174Z</time></trkpt><trkpt lat="44.8643772" lon="9.7275627"><ele>294.6</ele><time>2026-04-12T09:11:36.15Z</time></trkpt><trkpt lat="44.8644615" lon="9.727628"><ele>293.20000000000005</ele><time>2026-04-12T09:11:38.177Z</time></trkpt><trkpt lat="44.8645433" lon="9.7276948"><ele>291.79999999999995</ele><time>2026-04-12T09:11:40.163Z</time></trkpt><trkpt lat="44.8646274" lon="9.7277518"><ele>290.4</ele><time>2026-04-12T09:11:42.178Z</time></trkpt><trkpt lat="44.8647245" lon="9.7278179"><ele>289.0</ele><time>2026-04-12T09:11:44.17Z</time></trkpt><trkpt lat="44.864816" lon="9.7279006"><ele>289.0</ele><time>2026-04-12T09:11:46.187Z</time></trkpt><trkpt lat="44.8648695" lon="9.7279513"><ele>289.0</ele><time>2026-04-12T09:11:47.163Z</time></trkpt><trkpt lat="44.8649239" lon="9.7279978"><ele>289.0</ele><time>2026-04-12T09:11:48.169Z</time></trkpt><trkpt lat="44.8650358" lon="9.7280824"><ele>289.0</ele><time>2026-04-12T09:11:50.174Z</time></trkpt><trkpt lat="44.8650925" lon="9.7281242"><ele>289.0</ele><time>2026-04-12T09:11:51.144Z</time></trkpt><trkpt lat="44.8651928" lon="9.7282178"><ele>289.0</ele><time>2026-04-12T09:11:53.181Z</time></trkpt><trkpt lat="44.8652742" lon="9.7283243"><ele>287.75</ele><time>2026-04-12T09:11:55.181Z</time></trkpt><trkpt lat="44.8653598" lon="9.728417"><ele>286.5</ele><time>2026-04-12T09:11:57.173Z</time></trkpt><trkpt lat="44.8654535" lon="9.7284787"><ele>285.25</ele><time>2026-04-12T09:11:59.145Z</time></trkpt><trkpt lat="44.8655629" lon="9.7285329"><ele>284.0</ele><time>2026-04-12T09:12:01.146Z</time></trkpt><trkpt lat="44.8656733" lon="9.7286308"><ele>284.0</ele><time>2026-04-12T09:12:03.171Z</time></trkpt><trkpt lat="44.8657302" lon="9.7286949"><ele>284.0</ele><time>2026-04-12T09:12:04.228Z</time></trkpt><trkpt lat="44.8657863" lon="9.728767"><ele>284.0</ele><time>2026-04-12T09:12:05.175Z</time></trkpt><trkpt lat="44.8658333" lon="9.7288279"><ele>284.0</ele><time>2026-04-12T09:12:06.164Z</time></trkpt><trkpt lat="44.8659216" lon="9.7289452"><ele>284.0</ele><time>2026-04-12T09:12:08.185Z</time></trkpt><trkpt lat="44.8660106" lon="9.7290386"><ele>284.0</ele><time>2026-04-12T09:12:10.183Z</time></trkpt><trkpt lat="44.8660883" lon="9.7291207"><ele>283.2</ele><time>2026-04-12T09:12:12.182Z</time></trkpt><trkpt lat="44.8661656" lon="9.7292235"><ele>282.4</ele><time>2026-04-12T09:12:14.185Z</time></trkpt><trkpt lat="44.8662427" lon="9.7293203"><ele>281.6</ele><time>2026-04-12T09:12:16.169Z</time></trkpt><trkpt lat="44.866307" lon="9.7294043"><ele>280.8</ele><time>2026-04-12T09:12:18.145Z</time></trkpt><trkpt lat="44.8663828" lon="9.7294884"><ele>280.0</ele><time>2026-04-12T09:12:20.179Z</time></trkpt><trkpt lat="44.8664482" lon="9.7295397"><ele>280.0</ele><time>2026-04-12T09:12:23.164Z</time></trkpt><trkpt lat="44.8665014" lon="9.7295956"><ele>280.0</ele><time>2026-04-12T09:12:25.169Z</time></trkpt><trkpt lat="44.8665544" lon="9.7296765"><ele>280.0</ele><time>2026-04-12T09:12:27.165Z</time></trkpt><trkpt lat="44.8665984" lon="9.7297803"><ele>280.0</ele><time>2026-04-12T09:12:29.162Z</time></trkpt><trkpt lat="44.8666456" lon="9.7299049"><ele>280.0</ele><time>2026-04-12T09:12:31.171Z</time></trkpt><trkpt lat="44.8666961" lon="9.7299795"><ele>280.0</ele><time>2026-04-12T09:12:33.153Z</time></trkpt><trkpt lat="44.8667474" lon="9.7300569"><ele>280.2857142857143</ele><time>2026-04-12T09:12:35.176Z</time></trkpt><trkpt lat="44.8667943" lon="9.7301172"><ele>280.57142857142856</ele><time>2026-04-12T09:12:37.15Z</time></trkpt><trkpt lat="44.8668464" lon="9.7302192"><ele>280.8571428571429</ele><time>2026-04-12T09:12:40.181Z</time></trkpt><trkpt lat="44.8668375" lon="9.7303199"><ele>281.1428571428571</ele><time>2026-04-12T09:12:42.189Z</time></trkpt><trkpt lat="44.8667947" lon="9.7304053"><ele>281.42857142857144</ele><time>2026-04-12T09:12:44.187Z</time></trkpt><trkpt lat="44.8667546" lon="9.7304799"><ele>281.7142857142857</ele><time>2026-04-12T09:12:46.182Z</time></trkpt><trkpt lat="44.8667004" lon="9.7305568"><ele>282.0</ele><time>2026-04-12T09:12:49.171Z</time></trkpt><trkpt lat="44.8666518" lon="9.7306433"><ele>282.0</ele><time>2026-04-12T09:12:53.172Z</time></trkpt><trkpt lat="44.8665964" lon="9.730728"><ele>282.0</ele><time>2026-04-12T09:12:57.175Z</time></trkpt><trkpt lat="44.8665788" lon="9.7308187"><ele>282.0</ele><time>2026-04-12T09:13:01.18Z</time></trkpt><trkpt lat="44.8666149" lon="9.7309041"><ele>282.0</ele><time>2026-04-12T09:13:04.169Z</time></trkpt><trkpt lat="44.8666683" lon="9.7309755"><ele>282.0</ele><time>2026-04-12T09:13:07.174Z</time></trkpt><trkpt lat="44.8667161" lon="9.7310638"><ele>282.0</ele><time>2026-04-12T09:13:10.171Z</time></trkpt><trkpt lat="44.8667554" lon="9.7311729"><ele>280.5</ele><time>2026-04-12T09:13:13.174Z</time></trkpt><trkpt lat="44.8668063" lon="9.7312781"><ele>279.0</ele><time>2026-04-12T09:13:16.18Z</time></trkpt><trkpt lat="44.8668613" lon="9.7313581"><ele>277.5</ele><time>2026-04-12T09:13:18.179Z</time></trkpt><trkpt lat="44.8669261" lon="9.7314239"><ele>276.0</ele><time>2026-04-12T09:13:20.179Z</time></trkpt><trkpt lat="44.8669851" lon="9.7314856"><ele>274.5</ele><time>2026-04-12T09:13:22.175Z</time></trkpt><trkpt lat="44.8670371" lon="9.731566"><ele>273.0</ele><time>2026-04-12T09:13:24.176Z</time></trkpt><trkpt lat="44.867078" lon="9.7316471"><ele>273.0</ele><time>2026-04-12T09:13:26.166Z</time></trkpt><trkpt lat="44.8671232" lon="9.7317319"><ele>273.0</ele><time>2026-04-12T09:13:28.161Z</time></trkpt><trkpt lat="44.8671762" lon="9.731828"><ele>273.0</ele><time>2026-04-12T09:13:30.182Z</time></trkpt><trkpt lat="44.8672289" lon="9.7319104"><ele>273.0</ele><time>2026-04-12T09:13:32.172Z</time></trkpt><trkpt lat="44.8672724" lon="9.732005"><ele>273.0</ele><time>2026-04-12T09:13:34.171Z</time></trkpt><trkpt lat="44.8673011" lon="9.7321144"><ele>273.0</ele><time>2026-04-12T09:13:36.19Z</time></trkpt><trkpt lat="44.8672947" lon="9.7322219"><ele>273.6666666666667</ele><time>2026-04-12T09:13:38.182Z</time></trkpt><trkpt lat="44.8672827" lon="9.7323364"><ele>274.3333333333333</ele><time>2026-04-12T09:13:40.181Z</time></trkpt><trkpt lat="44.8672759" lon="9.7324359"><ele>275.0</ele><time>2026-04-12T09:13:42.18Z</time></trkpt><trkpt lat="44.8672782" lon="9.7325428"><ele>275.66666666666663</ele><time>2026-04-12T09:13:44.179Z</time></trkpt><trkpt lat="44.8672775" lon="9.7326513"><ele>276.3333333333333</ele><time>2026-04-12T09:13:46.183Z</time></trkpt><trkpt lat="44.8672813" lon="9.7327561"><ele>277.0</ele><time>2026-04-12T09:13:48.172Z</time></trkpt><trkpt lat="44.867276" lon="9.7328718"><ele>277.16666666666663</ele><time>2026-04-12T09:13:50.178Z</time></trkpt><trkpt lat="44.8672861" lon="9.7329869"><ele>277.3333333333333</ele><time>2026-04-12T09:13:52.183Z</time></trkpt><trkpt lat="44.8672834" lon="9.7331038"><ele>277.5</ele><time>2026-04-12T09:13:54.182Z</time></trkpt><trkpt lat="44.8672932" lon="9.7332116"><ele>277.6666666666667</ele><time>2026-04-12T09:13:56.197Z</time></trkpt><trkpt lat="44.8673025" lon="9.7333183"><ele>277.83333333333337</ele><time>2026-04-12T09:13:58.181Z</time></trkpt><trkpt lat="44.8673087" lon="9.7334193"><ele>278.0</ele><time>2026-04-12T09:14:00.168Z</time></trkpt><trkpt lat="44.8673086" lon="9.7335238"><ele>277.5</ele><time>2026-04-12T09:14:02.159Z</time></trkpt><trkpt lat="44.8673127" lon="9.7336324"><ele>277.0</ele><time>2026-04-12T09:14:04.188Z</time></trkpt><trkpt lat="44.8673342" lon="9.7337229"><ele>276.5</ele><time>2026-04-12T09:14:06.177Z</time></trkpt><trkpt lat="44.8673739" lon="9.7338064"><ele>276.0</ele><time>2026-04-12T09:14:08.186Z</time></trkpt><trkpt lat="44.8674273" lon="9.7338873"><ele>275.5</ele><time>2026-04-12T09:14:10.187Z</time></trkpt><trkpt lat="44.8674804" lon="9.7339807"><ele>275.0</ele><time>2026-04-12T09:14:12.183Z</time></trkpt><trkpt lat="44.8675349" lon="9.7340641"><ele>272.8</ele><time>2026-04-12T09:14:14.17Z</time></trkpt><trkpt lat="44.8676425" lon="9.7341535"><ele>270.6</ele><time>2026-04-12T09:14:16.169Z</time></trkpt><trkpt lat="44.867734" lon="9.7341233"><ele>268.4</ele><time>2026-04-12T09:14:18.171Z</time></trkpt><trkpt lat="44.8678108" lon="9.7340702"><ele>266.2</ele><time>2026-04-12T09:14:20.179Z</time></trkpt><trkpt lat="44.8679251" lon="9.7340875"><ele>264.0</ele><time>2026-04-12T09:14:22.174Z</time></trkpt><trkpt lat="44.8679795" lon="9.7341382"><ele>264.0</ele><time>2026-04-12T09:14:23.178Z</time></trkpt><trkpt lat="44.8680722" lon="9.7342425"><ele>264.0</ele><time>2026-04-12T09:14:25.174Z</time></trkpt><trkpt lat="44.8681211" lon="9.734299"><ele>264.0</ele><time>2026-04-12T09:14:26.185Z</time></trkpt><trkpt lat="44.8682337" lon="9.7343997"><ele>264.0</ele><time>2026-04-12T09:14:28.177Z</time></trkpt><trkpt lat="44.8682881" lon="9.7344486"><ele>264.0</ele><time>2026-04-12T09:14:29.177Z</time></trkpt><trkpt lat="44.8683432" lon="9.7344975"><ele>264.0</ele><time>2026-04-12T09:14:30.181Z</time></trkpt><trkpt lat="44.8683977" lon="9.734546"><ele>263.8</ele><time>2026-04-12T09:14:31.157Z</time></trkpt><trkpt lat="44.868454" lon="9.7345862"><ele>263.59999999999997</ele><time>2026-04-12T09:14:32.175Z</time></trkpt><trkpt lat="44.8685633" lon="9.734659"><ele>263.4</ele><time>2026-04-12T09:14:34.176Z</time></trkpt><trkpt lat="44.868682" lon="9.7347205"><ele>263.2</ele><time>2026-04-12T09:14:36.165Z</time></trkpt><trkpt lat="44.8687391" lon="9.7347594"><ele>263.0</ele><time>2026-04-12T09:14:37.182Z</time></trkpt><trkpt lat="44.8688345" lon="9.7348497"><ele>263.0</ele><time>2026-04-12T09:14:39.184Z</time></trkpt><trkpt lat="44.8689107" lon="9.7349449"><ele>263.0</ele><time>2026-04-12T09:14:41.175Z</time></trkpt><trkpt lat="44.8689708" lon="9.7350311"><ele>263.0</ele><time>2026-04-12T09:14:43.175Z</time></trkpt><trkpt lat="44.8690159" lon="9.7351225"><ele>263.0</ele><time>2026-04-12T09:14:45.178Z</time></trkpt><trkpt lat="44.8690781" lon="9.7352018"><ele>263.0</ele><time>2026-04-12T09:14:47.173Z</time></trkpt><trkpt lat="44.8691304" lon="9.7352786"><ele>263.0</ele><time>2026-04-12T09:14:49.177Z</time></trkpt><trkpt lat="44.8691876" lon="9.7353811"><ele>263.2</ele><time>2026-04-12T09:14:51.179Z</time></trkpt><trkpt lat="44.8692491" lon="9.7354745"><ele>263.4</ele><time>2026-04-12T09:14:53.182Z</time></trkpt><trkpt lat="44.8693127" lon="9.7355716"><ele>263.59999999999997</ele><time>2026-04-12T09:14:55.178Z</time></trkpt><trkpt lat="44.8693742" lon="9.7356809"><ele>263.8</ele><time>2026-04-12T09:14:57.176Z</time></trkpt><trkpt lat="44.8694433" lon="9.7357815"><ele>264.0</ele><time>2026-04-12T09:14:59.171Z</time></trkpt><trkpt lat="44.8695167" lon="9.735898"><ele>263.4</ele><time>2026-04-12T09:15:01.182Z</time></trkpt><trkpt lat="44.8695964" lon="9.7360143"><ele>262.79999999999995</ele><time>2026-04-12T09:15:03.182Z</time></trkpt><trkpt lat="44.8696736" lon="9.7361249"><ele>262.20000000000005</ele><time>2026-04-12T09:15:05.164Z</time></trkpt><trkpt lat="44.8697438" lon="9.7362362"><ele>261.6</ele><time>2026-04-12T09:15:07.191Z</time></trkpt><trkpt lat="44.8698142" lon="9.7363499"><ele>261.0</ele><time>2026-04-12T09:15:09.18Z</time></trkpt><trkpt lat="44.8698905" lon="9.7364644"><ele>260.8571428571429</ele><time>2026-04-12T09:15:11.179Z</time></trkpt><trkpt lat="44.8699773" lon="9.7365753"><ele>260.7142857142857</ele><time>2026-04-12T09:15:13.183Z</time></trkpt><trkpt lat="44.8700303" lon="9.7366243"><ele>260.57142857142856</ele><time>2026-04-12T09:15:14.18Z</time></trkpt><trkpt lat="44.8700769" lon="9.7366932"><ele>260.42857142857144</ele><time>2026-04-12T09:15:15.184Z</time></trkpt><trkpt lat="44.8701162" lon="9.7367644"><ele>260.2857142857143</ele><time>2026-04-12T09:15:16.187Z</time></trkpt><trkpt lat="44.8701591" lon="9.7368338"><ele>260.14285714285717</ele><time>2026-04-12T09:15:17.185Z</time></trkpt><trkpt lat="44.8702049" lon="9.7369041"><ele>260.0</ele><time>2026-04-12T09:15:18.187Z</time></trkpt><trkpt lat="44.8702522" lon="9.7369687"><ele>259.0</ele><time>2026-04-12T09:15:19.181Z</time></trkpt><trkpt lat="44.8702951" lon="9.7370378"><ele>258.0</ele><time>2026-04-12T09:15:20.177Z</time></trkpt><trkpt lat="44.8703728" lon="9.7371705"><ele>257.0</ele><time>2026-04-12T09:15:22.174Z</time></trkpt><trkpt lat="44.8704556" lon="9.7372903"><ele>256.0</ele><time>2026-04-12T09:15:24.184Z</time></trkpt><trkpt lat="44.8705327" lon="9.7374033"><ele>255.0</ele><time>2026-04-12T09:15:26.178Z</time></trkpt><trkpt lat="44.8706019" lon="9.7375184"><ele>255.0</ele><time>2026-04-12T09:15:28.179Z</time></trkpt><trkpt lat="44.8706839" lon="9.7376376"><ele>255.0</ele><time>2026-04-12T09:15:30.179Z</time></trkpt><trkpt lat="44.8707632" lon="9.7377672"><ele>255.0</ele><time>2026-04-12T09:15:32.189Z</time></trkpt><trkpt lat="44.8708418" lon="9.7378885"><ele>255.0</ele><time>2026-04-12T09:15:34.179Z</time></trkpt><trkpt lat="44.8708815" lon="9.7379599"><ele>255.0</ele><time>2026-04-12T09:15:35.18Z</time></trkpt><trkpt lat="44.8709669" lon="9.7380693"><ele>253.8</ele><time>2026-04-12T09:15:37.19Z</time></trkpt><trkpt lat="44.8710636" lon="9.7381192"><ele>252.6</ele><time>2026-04-12T09:15:39.189Z</time></trkpt><trkpt lat="44.8711626" lon="9.738074"><ele>251.39999999999998</ele><time>2026-04-12T09:15:41.184Z</time></trkpt><trkpt lat="44.8712671" lon="9.7380405"><ele>250.2</ele><time>2026-04-12T09:15:43.197Z</time></trkpt><trkpt lat="44.8713605" lon="9.7381145"><ele>249.0</ele><time>2026-04-12T09:15:45.181Z</time></trkpt><trkpt lat="44.8714218" lon="9.7382223"><ele>249.0</ele><time>2026-04-12T09:15:47.173Z</time></trkpt><trkpt lat="44.8714806" lon="9.7383282"><ele>248.99999999999997</ele><time>2026-04-12T09:15:49.179Z</time></trkpt><trkpt lat="44.871553" lon="9.7384265"><ele>248.99999999999997</ele><time>2026-04-12T09:15:51.184Z</time></trkpt><trkpt lat="44.8716317" lon="9.7385204"><ele>249.0</ele><time>2026-04-12T09:15:53.178Z</time></trkpt><trkpt lat="44.8717169" lon="9.7386038"><ele>249.0</ele><time>2026-04-12T09:15:55.187Z</time></trkpt><trkpt lat="44.8718066" lon="9.7386921"><ele>248.39999999999998</ele><time>2026-04-12T09:15:57.185Z</time></trkpt><trkpt lat="44.8718966" lon="9.7387895"><ele>247.79999999999998</ele><time>2026-04-12T09:15:59.182Z</time></trkpt><trkpt lat="44.8719938" lon="9.7388913"><ele>247.20000000000002</ele><time>2026-04-12T09:16:01.188Z</time></trkpt><trkpt lat="44.8720436" lon="9.7389458"><ele>246.60000000000002</ele><time>2026-04-12T09:16:02.199Z</time></trkpt><trkpt lat="44.8721383" lon="9.7390564"><ele>246.0</ele><time>2026-04-12T09:16:04.186Z</time></trkpt><trkpt lat="44.8722321" lon="9.7391653"><ele>246.0</ele><time>2026-04-12T09:16:06.185Z</time></trkpt><trkpt lat="44.8723337" lon="9.7392692"><ele>246.0</ele><time>2026-04-12T09:16:08.165Z</time></trkpt><trkpt lat="44.8724391" lon="9.73937"><ele>246.0</ele><time>2026-04-12T09:16:10.185Z</time></trkpt><trkpt lat="44.8725479" lon="9.7394427"><ele>246.0</ele><time>2026-04-12T09:16:12.18Z</time></trkpt><trkpt lat="44.8726565" lon="9.7395054"><ele>244.83333333333334</ele><time>2026-04-12T09:16:14.181Z</time></trkpt><trkpt lat="44.872761" lon="9.7395455"><ele>243.66666666666669</ele><time>2026-04-12T09:16:16.168Z</time></trkpt><trkpt lat="44.8728456" lon="9.7395672"><ele>242.5</ele><time>2026-04-12T09:16:18.185Z</time></trkpt><trkpt lat="44.8729334" lon="9.7395605"><ele>241.33333333333334</ele><time>2026-04-12T09:16:20.186Z</time></trkpt><trkpt lat="44.8729932" lon="9.7395018"><ele>240.16666666666669</ele><time>2026-04-12T09:16:22.182Z</time></trkpt><trkpt lat="44.8730591" lon="9.7394874"><ele>239.0</ele><time>2026-04-12T09:16:24.183Z</time></trkpt><trkpt lat="44.8731155" lon="9.739567"><ele>239.0</ele><time>2026-04-12T09:16:26.174Z</time></trkpt><trkpt lat="44.8731682" lon="9.739672"><ele>238.99999999999997</ele><time>2026-04-12T09:16:28.169Z</time></trkpt><trkpt lat="44.8732246" lon="9.7398031"><ele>238.99999999999997</ele><time>2026-04-12T09:16:30.176Z</time></trkpt><trkpt lat="44.8733052" lon="9.739941"><ele>239.0</ele><time>2026-04-12T09:16:32.175Z</time></trkpt><trkpt lat="44.8733497" lon="9.7400123"><ele>239.0</ele><time>2026-04-12T09:16:33.178Z</time></trkpt><trkpt lat="44.8733987" lon="9.7400887"><ele>237.5714285714286</ele><time>2026-04-12T09:16:34.172Z</time></trkpt><trkpt lat="44.8734484" lon="9.7401502"><ele>236.14285714285717</ele><time>2026-04-12T09:16:35.18Z</time></trkpt><trkpt lat="44.8735056" lon="9.740211"><ele>234.71428571428572</ele><time>2026-04-12T09:16:36.175Z</time></trkpt><trkpt lat="44.8735631" lon="9.7402707"><ele>233.2857142857143</ele><time>2026-04-12T09:16:37.164Z</time></trkpt><trkpt lat="44.8736203" lon="9.7403206"><ele>231.8571428571429</ele><time>2026-04-12T09:16:38.178Z</time></trkpt><trkpt lat="44.8736788" lon="9.7403751"><ele>230.42857142857142</ele><time>2026-04-12T09:16:39.159Z</time></trkpt><trkpt lat="44.8737378" lon="9.7404424"><ele>229.0</ele><time>2026-04-12T09:16:40.162Z</time></trkpt><trkpt lat="44.8737977" lon="9.7405032"><ele>228.99999999999997</ele><time>2026-04-12T09:16:41.177Z</time></trkpt><trkpt lat="44.8738557" lon="9.7405803"><ele>229.0</ele><time>2026-04-12T09:16:42.178Z</time></trkpt><trkpt lat="44.873904" lon="9.7406689"><ele>229.0</ele><time>2026-04-12T09:16:43.173Z</time></trkpt><trkpt lat="44.8739499" lon="9.740758"><ele>229.0</ele><time>2026-04-12T09:16:44.177Z</time></trkpt><trkpt lat="44.8740044" lon="9.7408531"><ele>228.99999999999997</ele><time>2026-04-12T09:16:45.185Z</time></trkpt><trkpt lat="44.8740565" lon="9.740953"><ele>229.0</ele><time>2026-04-12T09:16:46.169Z</time></trkpt><trkpt lat="44.8741093" lon="9.7410667"><ele>229.2</ele><time>2026-04-12T09:16:47.175Z</time></trkpt><trkpt lat="44.8741666" lon="9.7411935"><ele>229.39999999999998</ele><time>2026-04-12T09:16:48.183Z</time></trkpt><trkpt lat="44.8742215" lon="9.7413262"><ele>229.6</ele><time>2026-04-12T09:16:49.181Z</time></trkpt><trkpt lat="44.8742874" lon="9.7414584"><ele>229.8</ele><time>2026-04-12T09:16:50.187Z</time></trkpt><trkpt lat="44.8743546" lon="9.7415839"><ele>230.0</ele><time>2026-04-12T09:16:51.176Z</time></trkpt><trkpt lat="44.8744254" lon="9.7417135"><ele>229.8</ele><time>2026-04-12T09:16:52.177Z</time></trkpt><trkpt lat="44.8744926" lon="9.7418236"><ele>229.6</ele><time>2026-04-12T09:16:53.177Z</time></trkpt><trkpt lat="44.8745562" lon="9.7419158"><ele>229.39999999999998</ele><time>2026-04-12T09:16:54.176Z</time></trkpt><trkpt lat="44.87461" lon="9.7419942"><ele>229.2</ele><time>2026-04-12T09:16:55.174Z</time></trkpt><trkpt lat="44.8746617" lon="9.7420635"><ele>229.0</ele><time>2026-04-12T09:16:56.18Z</time></trkpt><trkpt lat="44.8747359" lon="9.7421761"><ele>228.99999999999997</ele><time>2026-04-12T09:16:58.191Z</time></trkpt><trkpt lat="44.8748054" lon="9.7422751"><ele>229.0</ele><time>2026-04-12T09:17:00.185Z</time></trkpt><trkpt lat="44.8748664" lon="9.742356"><ele>229.0</ele><time>2026-04-12T09:17:02.183Z</time></trkpt><trkpt lat="44.8749322" lon="9.7424379"><ele>229.0</ele><time>2026-04-12T09:17:04.192Z</time></trkpt><trkpt lat="44.8749874" lon="9.7425176"><ele>228.99999999999997</ele><time>2026-04-12T09:17:06.179Z</time></trkpt><trkpt lat="44.8750394" lon="9.7426077"><ele>229.0</ele><time>2026-04-12T09:17:08.178Z</time></trkpt><trkpt lat="44.8751033" lon="9.7427005"><ele>228.75</ele><time>2026-04-12T09:17:10.171Z</time></trkpt><trkpt lat="44.8751745" lon="9.7428163"><ele>228.5</ele><time>2026-04-12T09:17:12.189Z</time></trkpt><trkpt lat="44.8752504" lon="9.7429336"><ele>228.25</ele><time>2026-04-12T09:17:14.178Z</time></trkpt><trkpt lat="44.8753371" lon="9.7430564"><ele>228.0</ele><time>2026-04-12T09:17:16.175Z</time></trkpt><trkpt lat="44.8754259" lon="9.7431829"><ele>228.0</ele><time>2026-04-12T09:17:18.179Z</time></trkpt><trkpt lat="44.8755152" lon="9.7433148"><ele>228.0</ele><time>2026-04-12T09:17:20.186Z</time></trkpt><trkpt lat="44.8755569" lon="9.7433861"><ele>228.0</ele><time>2026-04-12T09:17:21.172Z</time></trkpt><trkpt lat="44.8755857" lon="9.7434681"><ele>228.0</ele><time>2026-04-12T09:17:22.183Z</time></trkpt><trkpt lat="44.8755614" lon="9.7436164"><ele>228.0</ele><time>2026-04-12T09:17:24.175Z</time></trkpt><trkpt lat="44.87547" lon="9.743703"><ele>227.8</ele><time>2026-04-12T09:17:26.175Z</time></trkpt><trkpt lat="44.8753841" lon="9.7437785"><ele>227.60000000000002</ele><time>2026-04-12T09:17:28.174Z</time></trkpt><trkpt lat="44.8753038" lon="9.7438528"><ele>227.39999999999998</ele><time>2026-04-12T09:17:30.167Z</time></trkpt><trkpt lat="44.8752255" lon="9.7439223"><ele>227.2</ele><time>2026-04-12T09:17:32.18Z</time></trkpt><trkpt lat="44.8751681" lon="9.7440073"><ele>227.0</ele><time>2026-04-12T09:17:34.186Z</time></trkpt><trkpt lat="44.8751476" lon="9.7441249"><ele>227.0</ele><time>2026-04-12T09:17:36.182Z</time></trkpt><trkpt lat="44.8752015" lon="9.7442538"><ele>227.0</ele><time>2026-04-12T09:17:38.154Z</time></trkpt><trkpt lat="44.8752875" lon="9.7443632"><ele>227.0</ele><time>2026-04-12T09:17:40.188Z</time></trkpt><trkpt lat="44.8753567" lon="9.7444902"><ele>227.0</ele><time>2026-04-12T09:17:42.182Z</time></trkpt><trkpt lat="44.8754414" lon="9.7446097"><ele>226.71428571428572</ele><time>2026-04-12T09:17:44.177Z</time></trkpt><trkpt lat="44.8754838" lon="9.7446771"><ele>226.42857142857144</ele><time>2026-04-12T09:17:45.179Z</time></trkpt><trkpt lat="44.8755331" lon="9.7447479"><ele>226.14285714285717</ele><time>2026-04-12T09:17:46.178Z</time></trkpt><trkpt lat="44.8755849" lon="9.7448134"><ele>225.8571428571429</ele><time>2026-04-12T09:17:47.19Z</time></trkpt><trkpt lat="44.8756382" lon="9.7448849"><ele>225.57142857142858</ele><time>2026-04-12T09:17:48.171Z</time></trkpt><trkpt lat="44.8756935" lon="9.7449594"><ele>225.28571428571433</ele><time>2026-04-12T09:17:49.178Z</time></trkpt><trkpt lat="44.8757411" lon="9.7450296"><ele>225.00000000000003</ele><time>2026-04-12T09:17:50.175Z</time></trkpt><trkpt lat="44.8757952" lon="9.745103"><ele>225.0</ele><time>2026-04-12T09:17:51.181Z</time></trkpt><trkpt lat="44.875847" lon="9.7451814"><ele>225.0</ele><time>2026-04-12T09:17:52.177Z</time></trkpt><trkpt lat="44.8758971" lon="9.7452554"><ele>225.0</ele><time>2026-04-12T09:17:53.174Z</time></trkpt><trkpt lat="44.8759532" lon="9.7453326"><ele>225.0</ele><time>2026-04-12T09:17:54.189Z</time></trkpt><trkpt lat="44.8760122" lon="9.7454055"><ele>225.0</ele><time>2026-04-12T09:17:55.183Z</time></trkpt><trkpt lat="44.876071" lon="9.7454946"><ele>225.0</ele><time>2026-04-12T09:17:56.18Z</time></trkpt><trkpt lat="44.8761282" lon="9.7455753"><ele>223.6</ele><time>2026-04-12T09:17:57.18Z</time></trkpt><trkpt lat="44.8761861" lon="9.7456587"><ele>222.2</ele><time>2026-04-12T09:17:58.173Z</time></trkpt><trkpt lat="44.8762474" lon="9.745749"><ele>220.8</ele><time>2026-04-12T09:17:59.173Z</time></trkpt><trkpt lat="44.8763137" lon="9.7458403"><ele>219.4</ele><time>2026-04-12T09:18:00.161Z</time></trkpt><trkpt lat="44.8763828" lon="9.7459365"><ele>218.0</ele><time>2026-04-12T09:18:01.183Z</time></trkpt><trkpt lat="44.8764492" lon="9.7460381"><ele>217.4</ele><time>2026-04-12T09:18:02.174Z</time></trkpt><trkpt lat="44.8765098" lon="9.746137"><ele>216.8</ele><time>2026-04-12T09:18:03.186Z</time></trkpt><trkpt lat="44.8765741" lon="9.7462386"><ele>216.2</ele><time>2026-04-12T09:18:04.155Z</time></trkpt><trkpt lat="44.8766423" lon="9.7463451"><ele>215.6</ele><time>2026-04-12T09:18:05.178Z</time></trkpt><trkpt lat="44.8767197" lon="9.7464432"><ele>215.0</ele><time>2026-04-12T09:18:06.183Z</time></trkpt><trkpt lat="44.8767981" lon="9.7465393"><ele>213.8</ele><time>2026-04-12T09:18:07.183Z</time></trkpt><trkpt lat="44.8768776" lon="9.7466346"><ele>212.6</ele><time>2026-04-12T09:18:08.183Z</time></trkpt><trkpt lat="44.8769568" lon="9.7467244"><ele>211.39999999999998</ele><time>2026-04-12T09:18:09.185Z</time></trkpt><trkpt lat="44.8770311" lon="9.7468166"><ele>210.2</ele><time>2026-04-12T09:18:10.181Z</time></trkpt><trkpt lat="44.8771064" lon="9.7469052"><ele>209.0</ele><time>2026-04-12T09:18:11.181Z</time></trkpt><trkpt lat="44.8771813" lon="9.7469912"><ele>209.0</ele><time>2026-04-12T09:18:12.179Z</time></trkpt><trkpt lat="44.8772621" lon="9.7470737"><ele>209.0</ele><time>2026-04-12T09:18:13.184Z</time></trkpt><trkpt lat="44.8773475" lon="9.747145"><ele>209.0</ele><time>2026-04-12T09:18:14.179Z</time></trkpt><trkpt lat="44.8774314" lon="9.7472148"><ele>209.0</ele><time>2026-04-12T09:18:15.184Z</time></trkpt><trkpt lat="44.8775116" lon="9.7472796"><ele>209.0</ele><time>2026-04-12T09:18:16.182Z</time></trkpt><trkpt lat="44.8775977" lon="9.7473342"><ele>208.79999999999998</ele><time>2026-04-12T09:18:17.185Z</time></trkpt><trkpt lat="44.8776834" lon="9.7473913"><ele>208.6</ele><time>2026-04-12T09:18:18.178Z</time></trkpt><trkpt lat="44.8777655" lon="9.7474483"><ele>208.4</ele><time>2026-04-12T09:18:19.178Z</time></trkpt><trkpt lat="44.8778443" lon="9.7475056"><ele>208.2</ele><time>2026-04-12T09:18:20.181Z</time></trkpt><trkpt lat="44.8779217" lon="9.7475634"><ele>208.0</ele><time>2026-04-12T09:18:21.18Z</time></trkpt><trkpt lat="44.8780027" lon="9.7476228"><ele>207.99999999999997</ele><time>2026-04-12T09:18:22.182Z</time></trkpt><trkpt lat="44.8780802" lon="9.7476889"><ele>208.0</ele><time>2026-04-12T09:18:23.149Z</time></trkpt><trkpt lat="44.8781519" lon="9.7477588"><ele>208.0</ele><time>2026-04-12T09:18:24.175Z</time></trkpt><trkpt lat="44.8782192" lon="9.7478321"><ele>208.0</ele><time>2026-04-12T09:18:25.194Z</time></trkpt><trkpt lat="44.8782801" lon="9.747906"><ele>207.99999999999997</ele><time>2026-04-12T09:18:26.173Z</time></trkpt><trkpt lat="44.8783378" lon="9.7479796"><ele>208.0</ele><time>2026-04-12T09:18:27.185Z</time></trkpt><trkpt lat="44.8784011" lon="9.7480533"><ele>207.66666666666666</ele><time>2026-04-12T09:18:28.178Z</time></trkpt><trkpt lat="44.8784613" lon="9.7481224"><ele>207.33333333333331</ele><time>2026-04-12T09:18:29.186Z</time></trkpt><trkpt lat="44.8785215" lon="9.7481891"><ele>207.0</ele><time>2026-04-12T09:18:30.172Z</time></trkpt><trkpt lat="44.8785886" lon="9.7482445"><ele>206.66666666666669</ele><time>2026-04-12T09:18:31.177Z</time></trkpt><trkpt lat="44.8786538" lon="9.7483101"><ele>206.33333333333334</ele><time>2026-04-12T09:18:32.184Z</time></trkpt><trkpt lat="44.8787184" lon="9.7483623"><ele>206.0</ele><time>2026-04-12T09:18:33.193Z</time></trkpt><trkpt lat="44.8787856" lon="9.7484131"><ele>206.00000000000003</ele><time>2026-04-12T09:18:34.164Z</time></trkpt><trkpt lat="44.8788512" lon="9.7484647"><ele>206.0</ele><time>2026-04-12T09:18:35.186Z</time></trkpt><trkpt lat="44.8789165" lon="9.7485201"><ele>206.0</ele><time>2026-04-12T09:18:36.182Z</time></trkpt><trkpt lat="44.8789846" lon="9.7485711"><ele>206.0</ele><time>2026-04-12T09:18:37.189Z</time></trkpt><trkpt lat="44.8790508" lon="9.7486155"><ele>206.00000000000003</ele><time>2026-04-12T09:18:38.193Z</time></trkpt><trkpt lat="44.8791178" lon="9.7486636"><ele>206.0</ele><time>2026-04-12T09:18:39.181Z</time></trkpt><trkpt lat="44.8791829" lon="9.7487142"><ele>205.66666666666669</ele><time>2026-04-12T09:18:40.176Z</time></trkpt><trkpt lat="44.8792499" lon="9.7487695"><ele>205.33333333333334</ele><time>2026-04-12T09:18:41.185Z</time></trkpt><trkpt lat="44.8793165" lon="9.7488264"><ele>205.0</ele><time>2026-04-12T09:18:42.175Z</time></trkpt><trkpt lat="44.8793801" lon="9.7488836"><ele>204.66666666666669</ele><time>2026-04-12T09:18:43.184Z</time></trkpt><trkpt lat="44.8794433" lon="9.7489435"><ele>204.33333333333334</ele><time>2026-04-12T09:18:44.179Z</time></trkpt><trkpt lat="44.879509" lon="9.7490008"><ele>204.0</ele><time>2026-04-12T09:18:45.169Z</time></trkpt><trkpt lat="44.8795752" lon="9.7490549"><ele>203.57142857142858</ele><time>2026-04-12T09:18:46.176Z</time></trkpt><trkpt lat="44.8796437" lon="9.7491007"><ele>203.14285714285717</ele><time>2026-04-12T09:18:47.183Z</time></trkpt><trkpt lat="44.8797104" lon="9.7491504"><ele>202.71428571428572</ele><time>2026-04-12T09:18:48.187Z</time></trkpt><trkpt lat="44.8797754" lon="9.7491917"><ele>202.28571428571428</ele><time>2026-04-12T09:18:49.191Z</time></trkpt><trkpt lat="44.8798433" lon="9.7492337"><ele>201.85714285714286</ele><time>2026-04-12T09:18:50.18Z</time></trkpt><trkpt lat="44.8799091" lon="9.7492724"><ele>201.42857142857142</ele><time>2026-04-12T09:18:51.178Z</time></trkpt><trkpt lat="44.8799658" lon="9.7493178"><ele>201.0</ele><time>2026-04-12T09:18:52.183Z</time></trkpt><trkpt lat="44.880019" lon="9.7493789"><ele>201.0</ele><time>2026-04-12T09:18:53.182Z</time></trkpt><trkpt lat="44.8800733" lon="9.7494457"><ele>201.0</ele><time>2026-04-12T09:18:54.173Z</time></trkpt><trkpt lat="44.8801214" lon="9.7495161"><ele>201.0</ele><time>2026-04-12T09:18:55.178Z</time></trkpt><trkpt lat="44.8801711" lon="9.7495862"><ele>201.0</ele><time>2026-04-12T09:18:56.184Z</time></trkpt><trkpt lat="44.8802147" lon="9.7496615"><ele>201.0</ele><time>2026-04-12T09:18:57.186Z</time></trkpt><trkpt lat="44.8802558" lon="9.7497347"><ele>201.0</ele><time>2026-04-12T09:18:58.184Z</time></trkpt><trkpt lat="44.8802997" lon="9.7498055"><ele>201.0</ele><time>2026-04-12T09:18:59.181Z</time></trkpt><trkpt lat="44.8803483" lon="9.7498747"><ele>200.28571428571428</ele><time>2026-04-12T09:19:00.19Z</time></trkpt><trkpt lat="44.8803962" lon="9.7499449"><ele>199.57142857142858</ele><time>2026-04-12T09:19:01.182Z</time></trkpt><trkpt lat="44.8804403" lon="9.7500188"><ele>198.85714285714286</ele><time>2026-04-12T09:19:02.179Z</time></trkpt><trkpt lat="44.8804815" lon="9.7500923"><ele>198.14285714285714</ele><time>2026-04-12T09:19:03.187Z</time></trkpt><trkpt lat="44.8805241" lon="9.7501625"><ele>197.42857142857144</ele><time>2026-04-12T09:19:04.182Z</time></trkpt><trkpt lat="44.8805653" lon="9.7502309"><ele>196.71428571428572</ele><time>2026-04-12T09:19:05.186Z</time></trkpt><trkpt lat="44.8806082" lon="9.7502981"><ele>196.0</ele><time>2026-04-12T09:19:06.179Z</time></trkpt><trkpt lat="44.8806905" lon="9.7504296"><ele>196.0</ele><time>2026-04-12T09:19:08.182Z</time></trkpt><trkpt lat="44.8807611" lon="9.7505644"><ele>196.0</ele><time>2026-04-12T09:19:10.183Z</time></trkpt><trkpt lat="44.8808429" lon="9.7506996"><ele>196.0</ele><time>2026-04-12T09:19:12.178Z</time></trkpt><trkpt lat="44.8808852" lon="9.7507674"><ele>196.0</ele><time>2026-04-12T09:19:13.178Z</time></trkpt><trkpt lat="44.880933" lon="9.750845"><ele>196.0</ele><time>2026-04-12T09:19:14.183Z</time></trkpt><trkpt lat="44.8809897" lon="9.7509247"><ele>194.20000000000002</ele><time>2026-04-12T09:19:15.188Z</time></trkpt><trkpt lat="44.8810599" lon="9.7509887"><ele>192.4</ele><time>2026-04-12T09:19:16.185Z</time></trkpt><trkpt lat="44.8811473" lon="9.7510349"><ele>190.6</ele><time>2026-04-12T09:19:17.171Z</time></trkpt><trkpt lat="44.8812395" lon="9.7510943"><ele>188.8</ele><time>2026-04-12T09:19:18.179Z</time></trkpt><trkpt lat="44.8813338" lon="9.7511703"><ele>187.0</ele><time>2026-04-12T09:19:19.183Z</time></trkpt><trkpt lat="44.8814241" lon="9.7512653"><ele>187.0</ele><time>2026-04-12T09:19:20.186Z</time></trkpt><trkpt lat="44.8815088" lon="9.7513827"><ele>187.0</ele><time>2026-04-12T09:19:21.18Z</time></trkpt><trkpt lat="44.881583" lon="9.7515108"><ele>187.0</ele><time>2026-04-12T09:19:22.184Z</time></trkpt><trkpt lat="44.8816533" lon="9.7516382"><ele>187.0</ele><time>2026-04-12T09:19:23.18Z</time></trkpt><trkpt lat="44.8817243" lon="9.7517669"><ele>184.25</ele><time>2026-04-12T09:19:24.185Z</time></trkpt><trkpt lat="44.8817988" lon="9.7518898"><ele>181.5</ele><time>2026-04-12T09:19:25.183Z</time></trkpt><trkpt lat="44.8818714" lon="9.7520196"><ele>178.75</ele><time>2026-04-12T09:19:26.182Z</time></trkpt><trkpt lat="44.8819426" lon="9.7521479"><ele>176.0</ele><time>2026-04-12T09:19:27.182Z</time></trkpt><trkpt lat="44.8820129" lon="9.7522744"><ele>176.0</ele><time>2026-04-12T09:19:28.187Z</time></trkpt><trkpt lat="44.8820787" lon="9.7524008"><ele>176.0</ele><time>2026-04-12T09:19:29.184Z</time></trkpt><trkpt lat="44.8821444" lon="9.7525266"><ele>176.0</ele><time>2026-04-12T09:19:30.185Z</time></trkpt><trkpt lat="44.8822167" lon="9.7526427"><ele>176.0</ele><time>2026-04-12T09:19:31.182Z</time></trkpt><trkpt lat="44.8822912" lon="9.7527468"><ele>176.0</ele><time>2026-04-12T09:19:32.173Z</time></trkpt><trkpt lat="44.8823793" lon="9.7528348"><ele>175.20000000000002</ele><time>2026-04-12T09:19:33.191Z</time></trkpt><trkpt lat="44.8824701" lon="9.7529293"><ele>174.4</ele><time>2026-04-12T09:19:34.181Z</time></trkpt><trkpt lat="44.8825479" lon="9.7530323"><ele>173.6</ele><time>2026-04-12T09:19:35.174Z</time></trkpt><trkpt lat="44.8826059" lon="9.7531663"><ele>172.8</ele><time>2026-04-12T09:19:36.18Z</time></trkpt><trkpt lat="44.882654" lon="9.7532989"><ele>172.0</ele><time>2026-04-12T09:19:37.182Z</time></trkpt><trkpt lat="44.8827116" lon="9.7534299"><ele>171.39999999999998</ele><time>2026-04-12T09:19:38.177Z</time></trkpt><trkpt lat="44.8827859" lon="9.7535269"><ele>170.79999999999998</ele><time>2026-04-12T09:19:39.186Z</time></trkpt><trkpt lat="44.882881" lon="9.7536076"><ele>170.2</ele><time>2026-04-12T09:19:40.181Z</time></trkpt><trkpt lat="44.882976" lon="9.7536773"><ele>169.6</ele><time>2026-04-12T09:19:41.185Z</time></trkpt><trkpt lat="44.8830716" lon="9.7537383"><ele>169.0</ele><time>2026-04-12T09:19:42.182Z</time></trkpt><trkpt lat="44.8831635" lon="9.7538024"><ele>168.79999999999998</ele><time>2026-04-12T09:19:43.184Z</time></trkpt><trkpt lat="44.8832522" lon="9.753868"><ele>168.6</ele><time>2026-04-12T09:19:44.191Z</time></trkpt><trkpt lat="44.883337" lon="9.7539435"><ele>168.4</ele><time>2026-04-12T09:19:45.182Z</time></trkpt><trkpt lat="44.8834187" lon="9.7540343"><ele>168.2</ele><time>2026-04-12T09:19:46.181Z</time></trkpt><trkpt lat="44.8834774" lon="9.7541372"><ele>168.0</ele><time>2026-04-12T09:19:47.194Z</time></trkpt><trkpt lat="44.8835282" lon="9.7542447"><ele>166.8</ele><time>2026-04-12T09:19:48.176Z</time></trkpt><trkpt lat="44.883568" lon="9.7543585"><ele>165.60000000000002</ele><time>2026-04-12T09:19:49.181Z</time></trkpt><trkpt lat="44.8835809" lon="9.7544773"><ele>164.39999999999998</ele><time>2026-04-12T09:19:50.191Z</time></trkpt><trkpt lat="44.8835685" lon="9.7546158"><ele>163.2</ele><time>2026-04-12T09:19:51.18Z</time></trkpt><trkpt lat="44.8835453" lon="9.7547506"><ele>162.0</ele><time>2026-04-12T09:19:52.183Z</time></trkpt><trkpt lat="44.8835191" lon="9.7548861"><ele>162.0</ele><time>2026-04-12T09:19:53.164Z</time></trkpt><trkpt lat="44.8834904" lon="9.755019"><ele>162.0</ele><time>2026-04-12T09:19:54.184Z</time></trkpt><trkpt lat="44.8834584" lon="9.7551463"><ele>162.0</ele><time>2026-04-12T09:19:55.184Z</time></trkpt><trkpt lat="44.8834288" lon="9.7552791"><ele>162.0</ele><time>2026-04-12T09:19:56.183Z</time></trkpt><trkpt lat="44.8833997" lon="9.7554026"><ele>162.0</ele><time>2026-04-12T09:19:57.179Z</time></trkpt><trkpt lat="44.8833696" lon="9.7555224"><ele>162.33333333333334</ele><time>2026-04-12T09:19:58.179Z</time></trkpt><trkpt lat="44.8833407" lon="9.7556419"><ele>162.66666666666666</ele><time>2026-04-12T09:19:59.181Z</time></trkpt><trkpt lat="44.8833124" lon="9.7557545"><ele>163.0</ele><time>2026-04-12T09:20:00.178Z</time></trkpt><trkpt lat="44.8832909" lon="9.7558664"><ele>163.33333333333331</ele><time>2026-04-12T09:20:01.182Z</time></trkpt><trkpt lat="44.883271" lon="9.7559699"><ele>163.66666666666666</ele><time>2026-04-12T09:20:02.18Z</time></trkpt><trkpt lat="44.8832509" lon="9.7560709"><ele>164.0</ele><time>2026-04-12T09:20:03.184Z</time></trkpt><trkpt lat="44.8832306" lon="9.7561693"><ele>164.66666666666666</ele><time>2026-04-12T09:20:04.18Z</time></trkpt><trkpt lat="44.8832093" lon="9.7562663"><ele>165.33333333333331</ele><time>2026-04-12T09:20:05.178Z</time></trkpt><trkpt lat="44.8831903" lon="9.7563666"><ele>166.0</ele><time>2026-04-12T09:20:06.193Z</time></trkpt><trkpt lat="44.8831731" lon="9.7564642"><ele>166.66666666666666</ele><time>2026-04-12T09:20:07.181Z</time></trkpt><trkpt lat="44.883154" lon="9.7565581"><ele>167.33333333333334</ele><time>2026-04-12T09:20:08.187Z</time></trkpt><trkpt lat="44.8831418" lon="9.7566536"><ele>168.0</ele><time>2026-04-12T09:20:09.193Z</time></trkpt><trkpt lat="44.8831164" lon="9.7568275"><ele>168.0</ele><time>2026-04-12T09:20:11.181Z</time></trkpt><trkpt lat="44.8830934" lon="9.7569822"><ele>168.0</ele><time>2026-04-12T09:20:13.196Z</time></trkpt><trkpt lat="44.8830812" lon="9.7571268"><ele>168.0</ele><time>2026-04-12T09:20:15.173Z</time></trkpt><trkpt lat="44.8830663" lon="9.7572732"><ele>168.0</ele><time>2026-04-12T09:20:17.176Z</time></trkpt><trkpt lat="44.8830452" lon="9.7574188"><ele>168.0</ele><time>2026-04-12T09:20:19.181Z</time></trkpt><trkpt lat="44.8830251" lon="9.7575695"><ele>167.8</ele><time>2026-04-12T09:20:21.179Z</time></trkpt><trkpt lat="44.883008" lon="9.7577115"><ele>167.60000000000002</ele><time>2026-04-12T09:20:23.183Z</time></trkpt><trkpt lat="44.8829942" lon="9.7578608"><ele>167.39999999999998</ele><time>2026-04-12T09:20:25.19Z</time></trkpt><trkpt lat="44.8829868" lon="9.7580197"><ele>167.2</ele><time>2026-04-12T09:20:27.186Z</time></trkpt><trkpt lat="44.8829715" lon="9.7581805"><ele>167.0</ele><time>2026-04-12T09:20:29.194Z</time></trkpt><trkpt lat="44.8829525" lon="9.7583509"><ele>167.0</ele><time>2026-04-12T09:20:31.187Z</time></trkpt><trkpt lat="44.8829402" lon="9.7584402"><ele>167.0</ele><time>2026-04-12T09:20:32.188Z</time></trkpt><trkpt lat="44.8829292" lon="9.7585309"><ele>167.0</ele><time>2026-04-12T09:20:33.188Z</time></trkpt><trkpt lat="44.8829232" lon="9.7586212"><ele>167.0</ele><time>2026-04-12T09:20:34.183Z</time></trkpt><trkpt lat="44.8829176" lon="9.7587132"><ele>167.0</ele><time>2026-04-12T09:20:35.191Z</time></trkpt><trkpt lat="44.8829091" lon="9.7588116"><ele>167.0</ele><time>2026-04-12T09:20:36.183Z</time></trkpt><trkpt lat="44.8828994" lon="9.7589086"><ele>167.0</ele><time>2026-04-12T09:20:37.193Z</time></trkpt><trkpt lat="44.8828887" lon="9.7590133"><ele>166.0</ele><time>2026-04-12T09:20:38.176Z</time></trkpt><trkpt lat="44.8828806" lon="9.7591107"><ele>165.0</ele><time>2026-04-12T09:20:39.178Z</time></trkpt><trkpt lat="44.8828749" lon="9.7592071"><ele>164.0</ele><time>2026-04-12T09:20:40.186Z</time></trkpt><trkpt lat="44.8828664" lon="9.7592993"><ele>163.0</ele><time>2026-04-12T09:20:41.184Z</time></trkpt><trkpt lat="44.8828611" lon="9.759395"><ele>162.0</ele><time>2026-04-12T09:20:42.181Z</time></trkpt><trkpt lat="44.8828524" lon="9.7594868"><ele>161.0</ele><time>2026-04-12T09:20:43.153Z</time></trkpt><trkpt lat="44.8828435" lon="9.7595757"><ele>160.0</ele><time>2026-04-12T09:20:44.177Z</time></trkpt><trkpt lat="44.8828356" lon="9.75967"><ele>159.85714285714286</ele><time>2026-04-12T09:20:45.185Z</time></trkpt><trkpt lat="44.8828343" lon="9.7597669"><ele>159.71428571428572</ele><time>2026-04-12T09:20:46.176Z</time></trkpt><trkpt lat="44.8828315" lon="9.7598699"><ele>159.57142857142856</ele><time>2026-04-12T09:20:47.19Z</time></trkpt><trkpt lat="44.8828335" lon="9.7599684"><ele>159.42857142857144</ele><time>2026-04-12T09:20:48.18Z</time></trkpt><trkpt lat="44.8828355" lon="9.7600702"><ele>159.2857142857143</ele><time>2026-04-12T09:20:49.185Z</time></trkpt><trkpt lat="44.8828401" lon="9.7601725"><ele>159.14285714285714</ele><time>2026-04-12T09:20:50.175Z</time></trkpt><trkpt lat="44.8828454" lon="9.7602693"><ele>159.0</ele><time>2026-04-12T09:20:51.169Z</time></trkpt><trkpt lat="44.8828509" lon="9.7603714"><ele>159.5</ele><time>2026-04-12T09:20:52.191Z</time></trkpt><trkpt lat="44.8828569" lon="9.7604671"><ele>160.0</ele><time>2026-04-12T09:20:53.186Z</time></trkpt><trkpt lat="44.8828668" lon="9.7605586"><ele>160.5</ele><time>2026-04-12T09:20:54.18Z</time></trkpt><trkpt lat="44.8828822" lon="9.7606487"><ele>161.0</ele><time>2026-04-12T09:20:55.197Z</time></trkpt><trkpt lat="44.8829157" lon="9.7607265"><ele>161.5</ele><time>2026-04-12T09:20:56.167Z</time></trkpt><trkpt lat="44.8830228" lon="9.7608307"><ele>162.0</ele><time>2026-04-12T09:20:58.187Z</time></trkpt><trkpt lat="44.8830849" lon="9.7608682"><ele>162.0</ele><time>2026-04-12T09:20:59.183Z</time></trkpt><trkpt lat="44.8831484" lon="9.7609101"><ele>162.0</ele><time>2026-04-12T09:21:00.198Z</time></trkpt><trkpt lat="44.8832126" lon="9.7609583"><ele>162.0</ele><time>2026-04-12T09:21:01.19Z</time></trkpt><trkpt lat="44.8832738" lon="9.7610048"><ele>162.0</ele><time>2026-04-12T09:21:02.192Z</time></trkpt><trkpt lat="44.8833386" lon="9.7610505"><ele>162.0</ele><time>2026-04-12T09:21:03.19Z</time></trkpt><trkpt lat="44.883408" lon="9.761092"><ele>162.0</ele><time>2026-04-12T09:21:04.178Z</time></trkpt><trkpt lat="44.8834805" lon="9.7611378"><ele>162.0</ele><time>2026-04-12T09:21:05.17Z</time></trkpt><trkpt lat="44.8835496" lon="9.7611786"><ele>161.5</ele><time>2026-04-12T09:21:06.191Z</time></trkpt><trkpt lat="44.8836165" lon="9.761217"><ele>161.0</ele><time>2026-04-12T09:21:07.194Z</time></trkpt><trkpt lat="44.8836853" lon="9.7612606"><ele>160.5</ele><time>2026-04-12T09:21:08.185Z</time></trkpt><trkpt lat="44.8837562" lon="9.7613113"><ele>160.0</ele><time>2026-04-12T09:21:09.182Z</time></trkpt><trkpt lat="44.8838343" lon="9.7613638"><ele>159.5</ele><time>2026-04-12T09:21:10.188Z</time></trkpt><trkpt lat="44.8839087" lon="9.7613981"><ele>159.0</ele><time>2026-04-12T09:21:11.185Z</time></trkpt><trkpt lat="44.8839748" lon="9.7614556"><ele>159.0</ele><time>2026-04-12T09:21:12.185Z</time></trkpt><trkpt lat="44.8840477" lon="9.7615141"><ele>159.0</ele><time>2026-04-12T09:21:13.173Z</time></trkpt><trkpt lat="44.8841217" lon="9.7615677"><ele>159.0</ele><time>2026-04-12T09:21:14.179Z</time></trkpt><trkpt lat="44.8841981" lon="9.7616187"><ele>159.0</ele><time>2026-04-12T09:21:15.18Z</time></trkpt><trkpt lat="44.8842723" lon="9.7616657"><ele>159.0</ele><time>2026-04-12T09:21:16.183Z</time></trkpt><trkpt lat="44.8843482" lon="9.761709"><ele>159.0</ele><time>2026-04-12T09:21:17.177Z</time></trkpt><trkpt lat="44.8844222" lon="9.7617543"><ele>158.16666666666666</ele><time>2026-04-12T09:21:18.17Z</time></trkpt><trkpt lat="44.8844985" lon="9.7618068"><ele>157.33333333333334</ele><time>2026-04-12T09:21:19.195Z</time></trkpt><trkpt lat="44.8845708" lon="9.7618568"><ele>156.5</ele><time>2026-04-12T09:21:20.181Z</time></trkpt><trkpt lat="44.8846429" lon="9.7619076"><ele>155.66666666666669</ele><time>2026-04-12T09:21:21.186Z</time></trkpt><trkpt lat="44.8847215" lon="9.7619544"><ele>154.83333333333334</ele><time>2026-04-12T09:21:22.182Z</time></trkpt><trkpt lat="44.8847959" lon="9.7619995"><ele>154.0</ele><time>2026-04-12T09:21:23.187Z</time></trkpt><trkpt lat="44.8848688" lon="9.7620387"><ele>153.71428571428572</ele><time>2026-04-12T09:21:24.186Z</time></trkpt><trkpt lat="44.8849411" lon="9.762082"><ele>153.42857142857144</ele><time>2026-04-12T09:21:25.179Z</time></trkpt><trkpt lat="44.8850049" lon="9.7621301"><ele>153.14285714285714</ele><time>2026-04-12T09:21:26.191Z</time></trkpt><trkpt lat="44.8850693" lon="9.7621777"><ele>152.85714285714286</ele><time>2026-04-12T09:21:27.168Z</time></trkpt><trkpt lat="44.8851359" lon="9.762229"><ele>152.57142857142858</ele><time>2026-04-12T09:21:28.183Z</time></trkpt><trkpt lat="44.8851987" lon="9.7622685"><ele>152.28571428571428</ele><time>2026-04-12T09:21:29.19Z</time></trkpt><trkpt lat="44.885266" lon="9.762308"><ele>152.0</ele><time>2026-04-12T09:21:30.187Z</time></trkpt><trkpt lat="44.8853338" lon="9.76235"><ele>151.7142857142857</ele><time>2026-04-12T09:21:31.191Z</time></trkpt><trkpt lat="44.8853995" lon="9.7623838"><ele>151.42857142857144</ele><time>2026-04-12T09:21:32.194Z</time></trkpt><trkpt lat="44.8854662" lon="9.7624153"><ele>151.14285714285714</ele><time>2026-04-12T09:21:33.181Z</time></trkpt><trkpt lat="44.885532" lon="9.7624372"><ele>150.85714285714283</ele><time>2026-04-12T09:21:34.185Z</time></trkpt><trkpt lat="44.8856014" lon="9.7624591"><ele>150.57142857142856</ele><time>2026-04-12T09:21:35.175Z</time></trkpt><trkpt lat="44.8856689" lon="9.7624775"><ele>150.28571428571428</ele><time>2026-04-12T09:21:36.183Z</time></trkpt><trkpt lat="44.8857349" lon="9.7624926"><ele>150.0</ele><time>2026-04-12T09:21:37.184Z</time></trkpt><trkpt lat="44.8858035" lon="9.7625113"><ele>149.99999999999997</ele><time>2026-04-12T09:21:38.195Z</time></trkpt><trkpt lat="44.8858746" lon="9.7625289"><ele>150.0</ele><time>2026-04-12T09:21:39.181Z</time></trkpt><trkpt lat="44.8859451" lon="9.7625437"><ele>150.0</ele><time>2026-04-12T09:21:40.185Z</time></trkpt><trkpt lat="44.8860102" lon="9.7625673"><ele>150.0</ele><time>2026-04-12T09:21:41.183Z</time></trkpt><trkpt lat="44.886076" lon="9.7625869"><ele>150.0</ele><time>2026-04-12T09:21:42.176Z</time></trkpt><trkpt lat="44.8861375" lon="9.7626096"><ele>149.99999999999997</ele><time>2026-04-12T09:21:43.181Z</time></trkpt><trkpt lat="44.8862071" lon="9.7626307"><ele>150.0</ele><time>2026-04-12T09:21:44.181Z</time></trkpt><trkpt lat="44.8862719" lon="9.7626528"><ele>149.7142857142857</ele><time>2026-04-12T09:21:45.182Z</time></trkpt><trkpt lat="44.8863375" lon="9.7626706"><ele>149.42857142857142</ele><time>2026-04-12T09:21:46.181Z</time></trkpt><trkpt lat="44.8864015" lon="9.7626955"><ele>149.14285714285714</ele><time>2026-04-12T09:21:47.18Z</time></trkpt><trkpt lat="44.8864684" lon="9.7627151"><ele>148.85714285714283</ele><time>2026-04-12T09:21:48.176Z</time></trkpt><trkpt lat="44.8865319" lon="9.7627377"><ele>148.57142857142856</ele><time>2026-04-12T09:21:49.189Z</time></trkpt><trkpt lat="44.8865994" lon="9.7627581"><ele>148.28571428571428</ele><time>2026-04-12T09:21:50.19Z</time></trkpt><trkpt lat="44.8866644" lon="9.7627797"><ele>148.0</ele><time>2026-04-12T09:21:51.185Z</time></trkpt><trkpt lat="44.8867317" lon="9.7627966"><ele>148.14285714285714</ele><time>2026-04-12T09:21:52.193Z</time></trkpt><trkpt lat="44.8867959" lon="9.762816"><ele>148.28571428571428</ele><time>2026-04-12T09:21:53.183Z</time></trkpt><trkpt lat="44.8868636" lon="9.7628345"><ele>148.42857142857142</ele><time>2026-04-12T09:21:54.189Z</time></trkpt><trkpt lat="44.8869321" lon="9.7628498"><ele>148.57142857142856</ele><time>2026-04-12T09:21:55.183Z</time></trkpt><trkpt lat="44.8869973" lon="9.7628715"><ele>148.7142857142857</ele><time>2026-04-12T09:21:56.185Z</time></trkpt><trkpt lat="44.8870665" lon="9.762894"><ele>148.85714285714286</ele><time>2026-04-12T09:21:57.189Z</time></trkpt><trkpt lat="44.8871318" lon="9.7629146"><ele>149.0</ele><time>2026-04-12T09:21:58.181Z</time></trkpt><trkpt lat="44.8871981" lon="9.7629381"><ele>149.0</ele><time>2026-04-12T09:21:59.167Z</time></trkpt><trkpt lat="44.8872656" lon="9.7629619"><ele>149.0</ele><time>2026-04-12T09:22:00.182Z</time></trkpt><trkpt lat="44.8873336" lon="9.7629825"><ele>149.0</ele><time>2026-04-12T09:22:01.184Z</time></trkpt><trkpt lat="44.8873996" lon="9.7630052"><ele>149.0</ele><time>2026-04-12T09:22:02.183Z</time></trkpt><trkpt lat="44.8874665" lon="9.7630277"><ele>149.0</ele><time>2026-04-12T09:22:03.186Z</time></trkpt><trkpt lat="44.8875358" lon="9.7630472"><ele>149.0</ele><time>2026-04-12T09:22:04.181Z</time></trkpt><trkpt lat="44.8876031" lon="9.7630656"><ele>149.0</ele><time>2026-04-12T09:22:05.189Z</time></trkpt><trkpt lat="44.8876677" lon="9.7630884"><ele>148.57142857142856</ele><time>2026-04-12T09:22:06.181Z</time></trkpt><trkpt lat="44.8877368" lon="9.7631082"><ele>148.14285714285714</ele><time>2026-04-12T09:22:07.184Z</time></trkpt><trkpt lat="44.8878063" lon="9.7631272"><ele>147.71428571428572</ele><time>2026-04-12T09:22:08.186Z</time></trkpt><trkpt lat="44.8878716" lon="9.7631515"><ele>147.28571428571428</ele><time>2026-04-12T09:22:09.186Z</time></trkpt><trkpt lat="44.8879391" lon="9.7631681"><ele>146.85714285714286</ele><time>2026-04-12T09:22:10.161Z</time></trkpt><trkpt lat="44.8880055" lon="9.7631947"><ele>146.42857142857142</ele><time>2026-04-12T09:22:11.19Z</time></trkpt><trkpt lat="44.8880772" lon="9.7632135"><ele>146.0</ele><time>2026-04-12T09:22:12.188Z</time></trkpt><trkpt lat="44.8881413" lon="9.7632372"><ele>146.0</ele><time>2026-04-12T09:22:13.183Z</time></trkpt><trkpt lat="44.8882093" lon="9.7632608"><ele>146.0</ele><time>2026-04-12T09:22:14.19Z</time></trkpt><trkpt lat="44.8882759" lon="9.7632819"><ele>146.0</ele><time>2026-04-12T09:22:15.154Z</time></trkpt><trkpt lat="44.8883459" lon="9.7633033"><ele>146.0</ele><time>2026-04-12T09:22:16.191Z</time></trkpt><trkpt lat="44.888415" lon="9.7633273"><ele>146.0</ele><time>2026-04-12T09:22:17.189Z</time></trkpt><trkpt lat="44.8884859" lon="9.7633478"><ele>146.0</ele><time>2026-04-12T09:22:18.184Z</time></trkpt><trkpt lat="44.888553" lon="9.7633688"><ele>146.0</ele><time>2026-04-12T09:22:19.182Z</time></trkpt><trkpt lat="44.8886222" lon="9.7633871"><ele>145.71428571428572</ele><time>2026-04-12T09:22:20.177Z</time></trkpt><trkpt lat="44.8886906" lon="9.7634083"><ele>145.42857142857144</ele><time>2026-04-12T09:22:21.186Z</time></trkpt><trkpt lat="44.8887565" lon="9.7634277"><ele>145.14285714285717</ele><time>2026-04-12T09:22:22.179Z</time></trkpt><trkpt lat="44.8888262" lon="9.7634503"><ele>144.85714285714286</ele><time>2026-04-12T09:22:23.183Z</time></trkpt><trkpt lat="44.888897" lon="9.7634712"><ele>144.57142857142858</ele><time>2026-04-12T09:22:24.187Z</time></trkpt><trkpt lat="44.8889683" lon="9.76349"><ele>144.2857142857143</ele><time>2026-04-12T09:22:25.189Z</time></trkpt><trkpt lat="44.8890391" lon="9.7635092"><ele>144.0</ele><time>2026-04-12T09:22:26.185Z</time></trkpt><trkpt lat="44.8891073" lon="9.7635326"><ele>143.85714285714286</ele><time>2026-04-12T09:22:27.184Z</time></trkpt><trkpt lat="44.8891804" lon="9.7635512"><ele>143.71428571428572</ele><time>2026-04-12T09:22:28.192Z</time></trkpt><trkpt lat="44.8892486" lon="9.7635754"><ele>143.57142857142856</ele><time>2026-04-12T09:22:29.18Z</time></trkpt><trkpt lat="44.8893165" lon="9.7636005"><ele>143.42857142857144</ele><time>2026-04-12T09:22:30.182Z</time></trkpt><trkpt lat="44.8893874" lon="9.763622"><ele>143.28571428571428</ele><time>2026-04-12T09:22:31.191Z</time></trkpt><trkpt lat="44.8894555" lon="9.7636439"><ele>143.14285714285714</ele><time>2026-04-12T09:22:32.182Z</time></trkpt><trkpt lat="44.8895248" lon="9.7636609"><ele>143.0</ele><time>2026-04-12T09:22:33.2Z</time></trkpt><trkpt lat="44.8895959" lon="9.7636817"><ele>142.99999999999997</ele><time>2026-04-12T09:22:34.173Z</time></trkpt><trkpt lat="44.8896656" lon="9.763703"><ele>143.0</ele><time>2026-04-12T09:22:35.191Z</time></trkpt><trkpt lat="44.8897346" lon="9.7637239"><ele>143.0</ele><time>2026-04-12T09:22:36.176Z</time></trkpt><trkpt lat="44.8898053" lon="9.7637423"><ele>143.0</ele><time>2026-04-12T09:22:37.185Z</time></trkpt><trkpt lat="44.8898732" lon="9.7637651"><ele>143.0</ele><time>2026-04-12T09:22:38.192Z</time></trkpt><trkpt lat="44.8899394" lon="9.7637889"><ele>142.99999999999997</ele><time>2026-04-12T09:22:39.191Z</time></trkpt><trkpt lat="44.8900084" lon="9.7638131"><ele>143.0</ele><time>2026-04-12T09:22:40.192Z</time></trkpt><trkpt lat="44.8900756" lon="9.763834"><ele>142.99999999999997</ele><time>2026-04-12T09:22:41.181Z</time></trkpt><trkpt lat="44.8901456" lon="9.7638536"><ele>143.0</ele><time>2026-04-12T09:22:42.184Z</time></trkpt><trkpt lat="44.8902101" lon="9.763876"><ele>143.0</ele><time>2026-04-12T09:22:43.182Z</time></trkpt><trkpt lat="44.8902762" lon="9.763899"><ele>143.0</ele><time>2026-04-12T09:22:44.181Z</time></trkpt><trkpt lat="44.8903462" lon="9.7639227"><ele>143.0</ele><time>2026-04-12T09:22:45.191Z</time></trkpt><trkpt lat="44.8904152" lon="9.7639412"><ele>142.99999999999997</ele><time>2026-04-12T09:22:46.183Z</time></trkpt><trkpt lat="44.8904821" lon="9.7639639"><ele>143.0</ele><time>2026-04-12T09:22:47.188Z</time></trkpt><trkpt lat="44.8905481" lon="9.7639872"><ele>142.99999999999997</ele><time>2026-04-12T09:22:48.181Z</time></trkpt><trkpt lat="44.8906187" lon="9.764006"><ele>143.0</ele><time>2026-04-12T09:22:49.185Z</time></trkpt><trkpt lat="44.8906852" lon="9.764027"><ele>143.0</ele><time>2026-04-12T09:22:50.185Z</time></trkpt><trkpt lat="44.8907514" lon="9.7640488"><ele>143.0</ele><time>2026-04-12T09:22:51.184Z</time></trkpt><trkpt lat="44.890815" lon="9.7640666"><ele>143.0</ele><time>2026-04-12T09:22:52.177Z</time></trkpt><trkpt lat="44.8908817" lon="9.7640834"><ele>142.99999999999997</ele><time>2026-04-12T09:22:53.19Z</time></trkpt><trkpt lat="44.8909479" lon="9.7641044"><ele>143.0</ele><time>2026-04-12T09:22:54.179Z</time></trkpt><trkpt lat="44.8910141" lon="9.7641237"><ele>142.42857142857142</ele><time>2026-04-12T09:22:55.174Z</time></trkpt><trkpt lat="44.8910783" lon="9.7641437"><ele>141.85714285714286</ele><time>2026-04-12T09:22:56.191Z</time></trkpt><trkpt lat="44.891147" lon="9.7641679"><ele>141.28571428571428</ele><time>2026-04-12T09:22:57.179Z</time></trkpt><trkpt lat="44.8912171" lon="9.7641852"><ele>140.71428571428572</ele><time>2026-04-12T09:22:58.185Z</time></trkpt><trkpt lat="44.8912834" lon="9.7642046"><ele>140.14285714285714</ele><time>2026-04-12T09:22:59.19Z</time></trkpt><trkpt lat="44.8913482" lon="9.7642274"><ele>139.57142857142856</ele><time>2026-04-12T09:23:00.177Z</time></trkpt><trkpt lat="44.891416" lon="9.7642527"><ele>139.0</ele><time>2026-04-12T09:23:01.177Z</time></trkpt><trkpt lat="44.8914845" lon="9.7642727"><ele>139.0</ele><time>2026-04-12T09:23:02.187Z</time></trkpt><trkpt lat="44.891552" lon="9.7642927"><ele>139.0</ele><time>2026-04-12T09:23:03.187Z</time></trkpt><trkpt lat="44.8916176" lon="9.7643124"><ele>139.0</ele><time>2026-04-12T09:23:04.181Z</time></trkpt><trkpt lat="44.8916852" lon="9.7643336"><ele>139.0</ele><time>2026-04-12T09:23:05.185Z</time></trkpt><trkpt lat="44.8917517" lon="9.7643563"><ele>139.0</ele><time>2026-04-12T09:23:06.18Z</time></trkpt><trkpt lat="44.8918197" lon="9.7643773"><ele>139.0</ele><time>2026-04-12T09:23:07.177Z</time></trkpt><trkpt lat="44.8918869" lon="9.7643973"><ele>139.0</ele><time>2026-04-12T09:23:08.183Z</time></trkpt><trkpt lat="44.8919563" lon="9.7644155"><ele>139.14285714285714</ele><time>2026-04-12T09:23:09.184Z</time></trkpt><trkpt lat="44.892026" lon="9.7644322"><ele>139.28571428571428</ele><time>2026-04-12T09:23:10.192Z</time></trkpt><trkpt lat="44.892095" lon="9.7644545"><ele>139.42857142857144</ele><time>2026-04-12T09:23:11.19Z</time></trkpt><trkpt lat="44.8921643" lon="9.7644764"><ele>139.57142857142856</ele><time>2026-04-12T09:23:12.173Z</time></trkpt><trkpt lat="44.8922341" lon="9.7644945"><ele>139.71428571428572</ele><time>2026-04-12T09:23:13.182Z</time></trkpt><trkpt lat="44.8923" lon="9.7645201"><ele>139.85714285714286</ele><time>2026-04-12T09:23:14.187Z</time></trkpt><trkpt lat="44.8923679" lon="9.7645388"><ele>140.0</ele><time>2026-04-12T09:23:15.182Z</time></trkpt><trkpt lat="44.8924347" lon="9.7645581"><ele>140.0</ele><time>2026-04-12T09:23:16.198Z</time></trkpt><trkpt lat="44.8925011" lon="9.7645756"><ele>140.0</ele><time>2026-04-12T09:23:17.183Z</time></trkpt><trkpt lat="44.8925705" lon="9.7645966"><ele>140.0</ele><time>2026-04-12T09:23:18.163Z</time></trkpt><trkpt lat="44.8926337" lon="9.7646227"><ele>140.0</ele><time>2026-04-12T09:23:19.183Z</time></trkpt><trkpt lat="44.892702" lon="9.7646438"><ele>140.0</ele><time>2026-04-12T09:23:20.188Z</time></trkpt><trkpt lat="44.8927732" lon="9.7646631"><ele>140.0</ele><time>2026-04-12T09:23:21.187Z</time></trkpt><trkpt lat="44.8928419" lon="9.7646826"><ele>140.0</ele><time>2026-04-12T09:23:22.183Z</time></trkpt><trkpt lat="44.8929095" lon="9.7647036"><ele>140.0</ele><time>2026-04-12T09:23:23.187Z</time></trkpt><trkpt lat="44.8929753" lon="9.7647268"><ele>140.0</ele><time>2026-04-12T09:23:24.184Z</time></trkpt><trkpt lat="44.8930431" lon="9.7647479"><ele>140.0</ele><time>2026-04-12T09:23:25.177Z</time></trkpt><trkpt lat="44.8931115" lon="9.7647654"><ele>140.0</ele><time>2026-04-12T09:23:26.186Z</time></trkpt><trkpt lat="44.8931783" lon="9.7647824"><ele>140.0</ele><time>2026-04-12T09:23:27.189Z</time></trkpt><trkpt lat="44.8932463" lon="9.7647991"><ele>140.0</ele><time>2026-04-12T09:23:28.189Z</time></trkpt><trkpt lat="44.8933109" lon="9.7648202"><ele>140.0</ele><time>2026-04-12T09:23:29.188Z</time></trkpt><trkpt lat="44.8933797" lon="9.764838"><ele>139.57142857142858</ele><time>2026-04-12T09:23:30.181Z</time></trkpt><trkpt lat="44.8934472" lon="9.764854"><ele>139.14285714285714</ele><time>2026-04-12T09:23:31.182Z</time></trkpt><trkpt lat="44.893514" lon="9.7648689"><ele>138.71428571428572</ele><time>2026-04-12T09:23:32.183Z</time></trkpt><trkpt lat="44.8935802" lon="9.7648883"><ele>138.28571428571428</ele><time>2026-04-12T09:23:33.181Z</time></trkpt><trkpt lat="44.8936427" lon="9.7649097"><ele>137.85714285714286</ele><time>2026-04-12T09:23:34.184Z</time></trkpt><trkpt lat="44.893709" lon="9.7649247"><ele>137.42857142857144</ele><time>2026-04-12T09:23:35.186Z</time></trkpt><trkpt lat="44.8937811" lon="9.7649392"><ele>137.0</ele><time>2026-04-12T09:23:36.189Z</time></trkpt><trkpt lat="44.8938519" lon="9.7649511"><ele>137.00000000000003</ele><time>2026-04-12T09:23:37.185Z</time></trkpt><trkpt lat="44.89392" lon="9.764964"><ele>137.0</ele><time>2026-04-12T09:23:38.179Z</time></trkpt><trkpt lat="44.8939854" lon="9.764979"><ele>137.0</ele><time>2026-04-12T09:23:39.181Z</time></trkpt><trkpt lat="44.8940516" lon="9.7649936"><ele>137.0</ele><time>2026-04-12T09:23:40.181Z</time></trkpt><trkpt lat="44.8941185" lon="9.7650072"><ele>137.0</ele><time>2026-04-12T09:23:41.18Z</time></trkpt><trkpt lat="44.8941872" lon="9.7650206"><ele>137.00000000000003</ele><time>2026-04-12T09:23:42.186Z</time></trkpt><trkpt lat="44.8942572" lon="9.7650355"><ele>137.0</ele><time>2026-04-12T09:23:43.194Z</time></trkpt><trkpt lat="44.8943258" lon="9.7650484"><ele>137.2857142857143</ele><time>2026-04-12T09:23:44.185Z</time></trkpt><trkpt lat="44.894392" lon="9.7650625"><ele>137.57142857142858</ele><time>2026-04-12T09:23:45.186Z</time></trkpt><trkpt lat="44.8944604" lon="9.7650801"><ele>137.85714285714286</ele><time>2026-04-12T09:23:46.182Z</time></trkpt><trkpt lat="44.8945314" lon="9.765092"><ele>138.14285714285717</ele><time>2026-04-12T09:23:47.182Z</time></trkpt><trkpt lat="44.8945997" lon="9.7651022"><ele>138.42857142857144</ele><time>2026-04-12T09:23:48.182Z</time></trkpt><trkpt lat="44.8946696" lon="9.7651191"><ele>138.71428571428572</ele><time>2026-04-12T09:23:49.192Z</time></trkpt><trkpt lat="44.8947379" lon="9.7651301"><ele>139.0</ele><time>2026-04-12T09:23:50.183Z</time></trkpt><trkpt lat="44.8948083" lon="9.7651429"><ele>139.0</ele><time>2026-04-12T09:23:51.182Z</time></trkpt><trkpt lat="44.8948773" lon="9.7651566"><ele>139.0</ele><time>2026-04-12T09:23:52.182Z</time></trkpt><trkpt lat="44.8949441" lon="9.765168"><ele>139.0</ele><time>2026-04-12T09:23:53.198Z</time></trkpt><trkpt lat="44.8950118" lon="9.7651799"><ele>139.0</ele><time>2026-04-12T09:23:54.196Z</time></trkpt><trkpt lat="44.8950769" lon="9.765197"><ele>139.0</ele><time>2026-04-12T09:23:55.19Z</time></trkpt><trkpt lat="44.8951418" lon="9.7652108"><ele>139.0</ele><time>2026-04-12T09:23:56.164Z</time></trkpt><trkpt lat="44.8952101" lon="9.7652263"><ele>139.0</ele><time>2026-04-12T09:23:57.162Z</time></trkpt><trkpt lat="44.8952739" lon="9.7652401"><ele>138.42857142857142</ele><time>2026-04-12T09:23:58.182Z</time></trkpt><trkpt lat="44.895344" lon="9.7652519"><ele>137.85714285714286</ele><time>2026-04-12T09:23:59.182Z</time></trkpt><trkpt lat="44.895408" lon="9.7652663"><ele>137.28571428571428</ele><time>2026-04-12T09:24:00.191Z</time></trkpt><trkpt lat="44.8954772" lon="9.7652768"><ele>136.71428571428572</ele><time>2026-04-12T09:24:01.179Z</time></trkpt><trkpt lat="44.8955428" lon="9.7652878"><ele>136.14285714285714</ele><time>2026-04-12T09:24:02.188Z</time></trkpt><trkpt lat="44.8956111" lon="9.7653002"><ele>135.57142857142856</ele><time>2026-04-12T09:24:03.189Z</time></trkpt><trkpt lat="44.8956782" lon="9.7653195"><ele>135.0</ele><time>2026-04-12T09:24:04.182Z</time></trkpt><trkpt lat="44.8957443" lon="9.7653323"><ele>135.0</ele><time>2026-04-12T09:24:05.184Z</time></trkpt><trkpt lat="44.8958103" lon="9.7653443"><ele>135.0</ele><time>2026-04-12T09:24:06.181Z</time></trkpt><trkpt lat="44.8958777" lon="9.7653589"><ele>135.0</ele><time>2026-04-12T09:24:07.194Z</time></trkpt><trkpt lat="44.8959478" lon="9.7653733"><ele>135.0</ele><time>2026-04-12T09:24:08.169Z</time></trkpt><trkpt lat="44.8960128" lon="9.7653899"><ele>135.0</ele><time>2026-04-12T09:24:09.178Z</time></trkpt><trkpt lat="44.8960746" lon="9.7654116"><ele>135.0</ele><time>2026-04-12T09:24:10.187Z</time></trkpt><trkpt lat="44.8961429" lon="9.7654302"><ele>135.0</ele><time>2026-04-12T09:24:11.189Z</time></trkpt><trkpt lat="44.8962113" lon="9.7654477"><ele>134.71428571428572</ele><time>2026-04-12T09:24:12.179Z</time></trkpt><trkpt lat="44.8962778" lon="9.7654661"><ele>134.42857142857142</ele><time>2026-04-12T09:24:13.189Z</time></trkpt><trkpt lat="44.8963433" lon="9.7654879"><ele>134.14285714285714</ele><time>2026-04-12T09:24:14.188Z</time></trkpt><trkpt lat="44.8964122" lon="9.7655068"><ele>133.85714285714286</ele><time>2026-04-12T09:24:15.188Z</time></trkpt><trkpt lat="44.8964797" lon="9.7655227"><ele>133.57142857142856</ele><time>2026-04-12T09:24:16.154Z</time></trkpt><trkpt lat="44.8965472" lon="9.7655404"><ele>133.28571428571428</ele><time>2026-04-12T09:24:17.148Z</time></trkpt><trkpt lat="44.8966146" lon="9.7655608"><ele>133.0</ele><time>2026-04-12T09:24:18.155Z</time></trkpt><trkpt lat="44.8966804" lon="9.7655813"><ele>133.0</ele><time>2026-04-12T09:24:19.185Z</time></trkpt><trkpt lat="44.8967457" lon="9.7656014"><ele>133.0</ele><time>2026-04-12T09:24:20.181Z</time></trkpt><trkpt lat="44.8968123" lon="9.7656224"><ele>133.0</ele><time>2026-04-12T09:24:21.163Z</time></trkpt><trkpt lat="44.896879" lon="9.7656434"><ele>133.0</ele><time>2026-04-12T09:24:22.182Z</time></trkpt><trkpt lat="44.8969428" lon="9.7656685"><ele>133.0</ele><time>2026-04-12T09:24:23.187Z</time></trkpt><trkpt lat="44.8970095" lon="9.7656895"><ele>133.0</ele><time>2026-04-12T09:24:24.178Z</time></trkpt><trkpt lat="44.8970735" lon="9.7657121"><ele>133.0</ele><time>2026-04-12T09:24:25.188Z</time></trkpt><trkpt lat="44.8971401" lon="9.7657373"><ele>133.0</ele><time>2026-04-12T09:24:26.18Z</time></trkpt><trkpt lat="44.8972092" lon="9.765763"><ele>133.0</ele><time>2026-04-12T09:24:27.189Z</time></trkpt><trkpt lat="44.8972769" lon="9.7657822"><ele>133.0</ele><time>2026-04-12T09:24:28.181Z</time></trkpt><trkpt lat="44.8973432" lon="9.7658092"><ele>133.0</ele><time>2026-04-12T09:24:29.178Z</time></trkpt><trkpt lat="44.8974077" lon="9.7658349"><ele>133.0</ele><time>2026-04-12T09:24:30.187Z</time></trkpt><trkpt lat="44.8974728" lon="9.7658627"><ele>133.0</ele><time>2026-04-12T09:24:31.182Z</time></trkpt><trkpt lat="44.8975397" lon="9.7658854"><ele>133.0</ele><time>2026-04-12T09:24:32.185Z</time></trkpt><trkpt lat="44.8976056" lon="9.7659106"><ele>133.0</ele><time>2026-04-12T09:24:33.191Z</time></trkpt><trkpt lat="44.8976721" lon="9.7659337"><ele>133.0</ele><time>2026-04-12T09:24:34.183Z</time></trkpt><trkpt lat="44.8977365" lon="9.7659638"><ele>133.0</ele><time>2026-04-12T09:24:35.188Z</time></trkpt><trkpt lat="44.8978021" lon="9.7659901"><ele>133.0</ele><time>2026-04-12T09:24:36.182Z</time></trkpt><trkpt lat="44.8978665" lon="9.7660209"><ele>133.0</ele><time>2026-04-12T09:24:37.179Z</time></trkpt><trkpt lat="44.8979296" lon="9.7660539"><ele>133.0</ele><time>2026-04-12T09:24:38.198Z</time></trkpt><trkpt lat="44.897995" lon="9.7660817"><ele>133.0</ele><time>2026-04-12T09:24:39.19Z</time></trkpt><trkpt lat="44.8980572" lon="9.7661128"><ele>133.0</ele><time>2026-04-12T09:24:40.185Z</time></trkpt><trkpt lat="44.8981204" lon="9.7661435"><ele>133.0</ele><time>2026-04-12T09:24:41.182Z</time></trkpt><trkpt lat="44.8981862" lon="9.7661766"><ele>133.0</ele><time>2026-04-12T09:24:42.19Z</time></trkpt><trkpt lat="44.8982526" lon="9.7662078"><ele>133.0</ele><time>2026-04-12T09:24:43.185Z</time></trkpt><trkpt lat="44.8983186" lon="9.7662339"><ele>133.0</ele><time>2026-04-12T09:24:44.181Z</time></trkpt><trkpt lat="44.898382" lon="9.7662667"><ele>133.0</ele><time>2026-04-12T09:24:45.185Z</time></trkpt><trkpt lat="44.8984435" lon="9.7662996"><ele>133.0</ele><time>2026-04-12T09:24:46.186Z</time></trkpt><trkpt lat="44.8985093" lon="9.7663331"><ele>133.0</ele><time>2026-04-12T09:24:47.186Z</time></trkpt><trkpt lat="44.8985746" lon="9.7663656"><ele>133.0</ele><time>2026-04-12T09:24:48.18Z</time></trkpt><trkpt lat="44.8986407" lon="9.7664002"><ele>133.0</ele><time>2026-04-12T09:24:49.185Z</time></trkpt><trkpt lat="44.8987073" lon="9.7664373"><ele>133.0</ele><time>2026-04-12T09:24:50.17Z</time></trkpt><trkpt lat="44.8987713" lon="9.7664732"><ele>133.0</ele><time>2026-04-12T09:24:51.181Z</time></trkpt><trkpt lat="44.8988368" lon="9.766504"><ele>133.0</ele><time>2026-04-12T09:24:52.184Z</time></trkpt><trkpt lat="44.8989039" lon="9.7665357"><ele>133.0</ele><time>2026-04-12T09:24:53.192Z</time></trkpt><trkpt lat="44.8989716" lon="9.7665672"><ele>133.0</ele><time>2026-04-12T09:24:54.197Z</time></trkpt><trkpt lat="44.8990366" lon="9.7666015"><ele>133.0</ele><time>2026-04-12T09:24:55.186Z</time></trkpt><trkpt lat="44.899102" lon="9.7666329"><ele>133.0</ele><time>2026-04-12T09:24:56.187Z</time></trkpt><trkpt lat="44.8991665" lon="9.7666674"><ele>133.0</ele><time>2026-04-12T09:24:57.181Z</time></trkpt><trkpt lat="44.8992284" lon="9.7667015"><ele>133.0</ele><time>2026-04-12T09:24:58.18Z</time></trkpt><trkpt lat="44.8992985" lon="9.7667377"><ele>133.0</ele><time>2026-04-12T09:24:59.186Z</time></trkpt><trkpt lat="44.8993636" lon="9.7667739"><ele>133.0</ele><time>2026-04-12T09:25:00.182Z</time></trkpt><trkpt lat="44.8994305" lon="9.7668053"><ele>132.71428571428572</ele><time>2026-04-12T09:25:01.163Z</time></trkpt><trkpt lat="44.8994945" lon="9.7668372"><ele>132.42857142857144</ele><time>2026-04-12T09:25:02.186Z</time></trkpt><trkpt lat="44.8995639" lon="9.7668688"><ele>132.14285714285714</ele><time>2026-04-12T09:25:03.185Z</time></trkpt><trkpt lat="44.8996275" lon="9.7669055"><ele>131.85714285714286</ele><time>2026-04-12T09:25:04.18Z</time></trkpt><trkpt lat="44.8996958" lon="9.7669403"><ele>131.57142857142858</ele><time>2026-04-12T09:25:05.182Z</time></trkpt><trkpt lat="44.8997641" lon="9.7669639"><ele>131.28571428571428</ele><time>2026-04-12T09:25:06.189Z</time></trkpt><trkpt lat="44.8998299" lon="9.7669965"><ele>131.0</ele><time>2026-04-12T09:25:07.159Z</time></trkpt><trkpt lat="44.899897" lon="9.7670301"><ele>130.85714285714286</ele><time>2026-04-12T09:25:08.181Z</time></trkpt><trkpt lat="44.8999579" lon="9.7670656"><ele>130.71428571428572</ele><time>2026-04-12T09:25:09.188Z</time></trkpt><trkpt lat="44.9000212" lon="9.7671034"><ele>130.57142857142858</ele><time>2026-04-12T09:25:10.183Z</time></trkpt><trkpt lat="44.9000855" lon="9.7671366"><ele>130.42857142857144</ele><time>2026-04-12T09:25:11.185Z</time></trkpt><trkpt lat="44.9001474" lon="9.767171"><ele>130.28571428571428</ele><time>2026-04-12T09:25:12.183Z</time></trkpt><trkpt lat="44.9002123" lon="9.7672048"><ele>130.14285714285717</ele><time>2026-04-12T09:25:13.194Z</time></trkpt><trkpt lat="44.9002815" lon="9.7672338"><ele>130.0</ele><time>2026-04-12T09:25:14.182Z</time></trkpt><trkpt lat="44.9003487" lon="9.7672655"><ele>130.00000000000003</ele><time>2026-04-12T09:25:15.19Z</time></trkpt><trkpt lat="44.9004118" lon="9.7672972"><ele>130.0</ele><time>2026-04-12T09:25:16.184Z</time></trkpt><trkpt lat="44.9004749" lon="9.7673336"><ele>130.0</ele><time>2026-04-12T09:25:17.185Z</time></trkpt><trkpt lat="44.9005397" lon="9.7673712"><ele>130.0</ele><time>2026-04-12T09:25:18.183Z</time></trkpt><trkpt lat="44.9006025" lon="9.7674037"><ele>130.0</ele><time>2026-04-12T09:25:19.193Z</time></trkpt><trkpt lat="44.9006672" lon="9.7674358"><ele>130.00000000000003</ele><time>2026-04-12T09:25:20.183Z</time></trkpt><trkpt lat="44.9007361" lon="9.7674734"><ele>130.0</ele><time>2026-04-12T09:25:21.191Z</time></trkpt><trkpt lat="44.9008002" lon="9.7675137"><ele>130.00000000000003</ele><time>2026-04-12T09:25:22.182Z</time></trkpt><trkpt lat="44.9008676" lon="9.7675479"><ele>130.0</ele><time>2026-04-12T09:25:23.185Z</time></trkpt><trkpt lat="44.9009333" lon="9.7675852"><ele>130.0</ele><time>2026-04-12T09:25:24.188Z</time></trkpt><trkpt lat="44.9010009" lon="9.7676201"><ele>130.0</ele><time>2026-04-12T09:25:25.191Z</time></trkpt><trkpt lat="44.9010718" lon="9.7676567"><ele>130.0</ele><time>2026-04-12T09:25:26.189Z</time></trkpt><trkpt lat="44.9011399" lon="9.7676959"><ele>130.00000000000003</ele><time>2026-04-12T09:25:27.194Z</time></trkpt><trkpt lat="44.9012088" lon="9.7677294"><ele>130.0</ele><time>2026-04-12T09:25:28.182Z</time></trkpt><trkpt lat="44.9012809" lon="9.7677614"><ele>129.71428571428572</ele><time>2026-04-12T09:25:29.191Z</time></trkpt><trkpt lat="44.9013487" lon="9.7677909"><ele>129.42857142857144</ele><time>2026-04-12T09:25:30.183Z</time></trkpt><trkpt lat="44.901416" lon="9.7678266"><ele>129.14285714285714</ele><time>2026-04-12T09:25:31.177Z</time></trkpt><trkpt lat="44.9014828" lon="9.7678624"><ele>128.85714285714286</ele><time>2026-04-12T09:25:32.182Z</time></trkpt><trkpt lat="44.9015501" lon="9.7678975"><ele>128.57142857142856</ele><time>2026-04-12T09:25:33.181Z</time></trkpt><trkpt lat="44.901617" lon="9.7679333"><ele>128.28571428571428</ele><time>2026-04-12T09:25:34.185Z</time></trkpt><trkpt lat="44.9016863" lon="9.767967"><ele>128.0</ele><time>2026-04-12T09:25:35.186Z</time></trkpt><trkpt lat="44.9017583" lon="9.7680037"><ele>128.0</ele><time>2026-04-12T09:25:36.173Z</time></trkpt><trkpt lat="44.9018296" lon="9.768042"><ele>127.99999999999999</ele><time>2026-04-12T09:25:37.19Z</time></trkpt><trkpt lat="44.9019016" lon="9.768078"><ele>128.0</ele><time>2026-04-12T09:25:38.183Z</time></trkpt><trkpt lat="44.9019699" lon="9.7681097"><ele>128.0</ele><time>2026-04-12T09:25:39.19Z</time></trkpt><trkpt lat="44.9020349" lon="9.7681445"><ele>127.99999999999999</ele><time>2026-04-12T09:25:40.179Z</time></trkpt><trkpt lat="44.9021062" lon="9.7681767"><ele>128.0</ele><time>2026-04-12T09:25:41.187Z</time></trkpt><trkpt lat="44.9021759" lon="9.7682073"><ele>128.0</ele><time>2026-04-12T09:25:42.183Z</time></trkpt><trkpt lat="44.9022452" lon="9.768245"><ele>128.0</ele><time>2026-04-12T09:25:43.194Z</time></trkpt><trkpt lat="44.9023119" lon="9.7682779"><ele>127.99999999999999</ele><time>2026-04-12T09:25:44.162Z</time></trkpt><trkpt lat="44.9023798" lon="9.7683132"><ele>128.0</ele><time>2026-04-12T09:25:45.188Z</time></trkpt><trkpt lat="44.9024479" lon="9.76835"><ele>128.0</ele><time>2026-04-12T09:25:46.185Z</time></trkpt><trkpt lat="44.9025159" lon="9.7683862"><ele>127.99999999999999</ele><time>2026-04-12T09:25:47.186Z</time></trkpt><trkpt lat="44.9025833" lon="9.7684219"><ele>128.0</ele><time>2026-04-12T09:25:48.178Z</time></trkpt><trkpt lat="44.9026542" lon="9.7684515"><ele>128.0</ele><time>2026-04-12T09:25:49.19Z</time></trkpt><trkpt lat="44.90272" lon="9.7684891"><ele>127.85714285714285</ele><time>2026-04-12T09:25:50.186Z</time></trkpt><trkpt lat="44.9027819" lon="9.7685217"><ele>127.7142857142857</ele><time>2026-04-12T09:25:51.193Z</time></trkpt><trkpt lat="44.9028493" lon="9.7685533"><ele>127.57142857142857</ele><time>2026-04-12T09:25:52.182Z</time></trkpt><trkpt lat="44.9029108" lon="9.7685896"><ele>127.42857142857142</ele><time>2026-04-12T09:25:53.189Z</time></trkpt><trkpt lat="44.9029771" lon="9.7686266"><ele>127.28571428571428</ele><time>2026-04-12T09:25:54.179Z</time></trkpt><trkpt lat="44.9030454" lon="9.7686635"><ele>127.14285714285714</ele><time>2026-04-12T09:25:55.189Z</time></trkpt><trkpt lat="44.903111" lon="9.7687015"><ele>127.0</ele><time>2026-04-12T09:25:56.187Z</time></trkpt><trkpt lat="44.9031817" lon="9.7687343"><ele>126.57142857142858</ele><time>2026-04-12T09:25:57.178Z</time></trkpt><trkpt lat="44.9032508" lon="9.7687683"><ele>126.14285714285714</ele><time>2026-04-12T09:25:58.184Z</time></trkpt><trkpt lat="44.9033166" lon="9.7688012"><ele>125.71428571428572</ele><time>2026-04-12T09:25:59.182Z</time></trkpt><trkpt lat="44.9033861" lon="9.7688365"><ele>125.28571428571429</ele><time>2026-04-12T09:26:00.178Z</time></trkpt><trkpt lat="44.9034546" lon="9.7688714"><ele>124.85714285714286</ele><time>2026-04-12T09:26:01.151Z</time></trkpt><trkpt lat="44.9035232" lon="9.7689064"><ele>124.42857142857143</ele><time>2026-04-12T09:26:02.176Z</time></trkpt><trkpt lat="44.9035885" lon="9.7689385"><ele>124.0</ele><time>2026-04-12T09:26:03.17Z</time></trkpt><trkpt lat="44.9036534" lon="9.7689763"><ele>123.42857142857143</ele><time>2026-04-12T09:26:04.183Z</time></trkpt><trkpt lat="44.9037197" lon="9.7690126"><ele>122.85714285714286</ele><time>2026-04-12T09:26:05.189Z</time></trkpt><trkpt lat="44.903786" lon="9.7690461"><ele>122.28571428571429</ele><time>2026-04-12T09:26:06.174Z</time></trkpt><trkpt lat="44.9038554" lon="9.769078"><ele>121.71428571428572</ele><time>2026-04-12T09:26:07.177Z</time></trkpt><trkpt lat="44.9039212" lon="9.7691133"><ele>121.14285714285714</ele><time>2026-04-12T09:26:08.185Z</time></trkpt><trkpt lat="44.903987" lon="9.769148"><ele>120.57142857142858</ele><time>2026-04-12T09:26:09.191Z</time></trkpt><trkpt lat="44.9040528" lon="9.7691813"><ele>120.0</ele><time>2026-04-12T09:26:10.179Z</time></trkpt><trkpt lat="44.9041215" lon="9.7692191"><ele>120.0</ele><time>2026-04-12T09:26:11.183Z</time></trkpt><trkpt lat="44.9041914" lon="9.7692507"><ele>120.0</ele><time>2026-04-12T09:26:12.186Z</time></trkpt><trkpt lat="44.9042575" lon="9.7692851"><ele>120.0</ele><time>2026-04-12T09:26:13.19Z</time></trkpt><trkpt lat="44.9043261" lon="9.769319"><ele>120.0</ele><time>2026-04-12T09:26:14.2Z</time></trkpt><trkpt lat="44.9043937" lon="9.7693536"><ele>120.0</ele><time>2026-04-12T09:26:15.186Z</time></trkpt><trkpt lat="44.9044601" lon="9.7693873"><ele>120.0</ele><time>2026-04-12T09:26:16.178Z</time></trkpt><trkpt lat="44.9045273" lon="9.7694228"><ele>120.0</ele><time>2026-04-12T09:26:17.188Z</time></trkpt><trkpt lat="44.904591" lon="9.7694606"><ele>120.0</ele><time>2026-04-12T09:26:18.186Z</time></trkpt><trkpt lat="44.9046538" lon="9.7694924"><ele>120.0</ele><time>2026-04-12T09:26:19.19Z</time></trkpt><trkpt lat="44.9047181" lon="9.7695244"><ele>120.0</ele><time>2026-04-12T09:26:20.188Z</time></trkpt><trkpt lat="44.9047889" lon="9.7695571"><ele>120.0</ele><time>2026-04-12T09:26:21.183Z</time></trkpt><trkpt lat="44.9048581" lon="9.7695876"><ele>120.0</ele><time>2026-04-12T09:26:22.184Z</time></trkpt><trkpt lat="44.9049262" lon="9.7696216"><ele>120.0</ele><time>2026-04-12T09:26:23.194Z</time></trkpt><trkpt lat="44.9049873" lon="9.7696561"><ele>120.0</ele><time>2026-04-12T09:26:24.183Z</time></trkpt><trkpt lat="44.9050541" lon="9.7696928"><ele>120.14285714285714</ele><time>2026-04-12T09:26:25.193Z</time></trkpt><trkpt lat="44.9051194" lon="9.7697277"><ele>120.28571428571428</ele><time>2026-04-12T09:26:26.184Z</time></trkpt><trkpt lat="44.9051881" lon="9.7697598"><ele>120.42857142857142</ele><time>2026-04-12T09:26:27.191Z</time></trkpt><trkpt lat="44.9052566" lon="9.7697846"><ele>120.57142857142857</ele><time>2026-04-12T09:26:28.188Z</time></trkpt><trkpt lat="44.9053236" lon="9.7698078"><ele>120.7142857142857</ele><time>2026-04-12T09:26:29.183Z</time></trkpt><trkpt lat="44.9053888" lon="9.7698316"><ele>120.85714285714285</ele><time>2026-04-12T09:26:30.183Z</time></trkpt><trkpt lat="44.9054584" lon="9.769853"><ele>121.0</ele><time>2026-04-12T09:26:31.183Z</time></trkpt><trkpt lat="44.9055266" lon="9.7698753"><ele>121.0</ele><time>2026-04-12T09:26:32.182Z</time></trkpt><trkpt lat="44.9055965" lon="9.7698981"><ele>120.99999999999999</ele><time>2026-04-12T09:26:33.186Z</time></trkpt><trkpt lat="44.9056635" lon="9.7699282"><ele>121.0</ele><time>2026-04-12T09:26:34.196Z</time></trkpt><trkpt lat="44.9057304" lon="9.7699505"><ele>121.0</ele><time>2026-04-12T09:26:35.185Z</time></trkpt><trkpt lat="44.9058001" lon="9.769976"><ele>120.99999999999999</ele><time>2026-04-12T09:26:36.179Z</time></trkpt><trkpt lat="44.905869" lon="9.769995"><ele>121.0</ele><time>2026-04-12T09:26:37.186Z</time></trkpt><trkpt lat="44.9059403" lon="9.7700128"><ele>121.0</ele><time>2026-04-12T09:26:38.187Z</time></trkpt><trkpt lat="44.9060121" lon="9.770035"><ele>121.0</ele><time>2026-04-12T09:26:39.191Z</time></trkpt><trkpt lat="44.9060799" lon="9.7700541"><ele>120.99999999999999</ele><time>2026-04-12T09:26:40.184Z</time></trkpt><trkpt lat="44.9061496" lon="9.7700644"><ele>121.0</ele><time>2026-04-12T09:26:41.184Z</time></trkpt><trkpt lat="44.9062167" lon="9.7700827"><ele>121.0</ele><time>2026-04-12T09:26:42.183Z</time></trkpt><trkpt lat="44.9062807" lon="9.7701021"><ele>120.99999999999999</ele><time>2026-04-12T09:26:43.179Z</time></trkpt><trkpt lat="44.9063449" lon="9.7701209"><ele>121.0</ele><time>2026-04-12T09:26:44.2Z</time></trkpt><trkpt lat="44.9064139" lon="9.7701393"><ele>121.0</ele><time>2026-04-12T09:26:45.182Z</time></trkpt><trkpt lat="44.9064838" lon="9.7701582"><ele>121.0</ele><time>2026-04-12T09:26:46.195Z</time></trkpt><trkpt lat="44.906558" lon="9.7701752"><ele>120.99999999999999</ele><time>2026-04-12T09:26:47.19Z</time></trkpt><trkpt lat="44.9066302" lon="9.7701958"><ele>121.0</ele><time>2026-04-12T09:26:48.188Z</time></trkpt><trkpt lat="44.9067003" lon="9.7702151"><ele>121.0</ele><time>2026-04-12T09:26:49.165Z</time></trkpt><trkpt lat="44.9067684" lon="9.7702343"><ele>120.99999999999999</ele><time>2026-04-12T09:26:50.197Z</time></trkpt><trkpt lat="44.9068364" lon="9.7702567"><ele>121.0</ele><time>2026-04-12T09:26:51.185Z</time></trkpt><trkpt lat="44.9069038" lon="9.7702755"><ele>121.0</ele><time>2026-04-12T09:26:52.183Z</time></trkpt><trkpt lat="44.906972" lon="9.7702903"><ele>121.0</ele><time>2026-04-12T09:26:53.176Z</time></trkpt><trkpt lat="44.9070421" lon="9.7703094"><ele>120.99999999999999</ele><time>2026-04-12T09:26:54.186Z</time></trkpt><trkpt lat="44.9071125" lon="9.7703303"><ele>121.0</ele><time>2026-04-12T09:26:55.182Z</time></trkpt><trkpt lat="44.9071816" lon="9.7703489"><ele>121.0</ele><time>2026-04-12T09:26:56.183Z</time></trkpt><trkpt lat="44.9072505" lon="9.7703679"><ele>120.99999999999999</ele><time>2026-04-12T09:26:57.187Z</time></trkpt><trkpt lat="44.907316" lon="9.77039"><ele>121.0</ele><time>2026-04-12T09:26:58.181Z</time></trkpt><trkpt lat="44.9073839" lon="9.7704064"><ele>121.0</ele><time>2026-04-12T09:26:59.186Z</time></trkpt><trkpt lat="44.9074538" lon="9.7704243"><ele>121.0</ele><time>2026-04-12T09:27:00.185Z</time></trkpt><trkpt lat="44.9075267" lon="9.7704431"><ele>120.99999999999999</ele><time>2026-04-12T09:27:01.177Z</time></trkpt><trkpt lat="44.9075945" lon="9.7704611"><ele>121.0</ele><time>2026-04-12T09:27:02.169Z</time></trkpt><trkpt lat="44.907661" lon="9.7704812"><ele>121.0</ele><time>2026-04-12T09:27:03.187Z</time></trkpt><trkpt lat="44.9077288" lon="9.7705032"><ele>120.99999999999999</ele><time>2026-04-12T09:27:04.185Z</time></trkpt><trkpt lat="44.9077955" lon="9.7705248"><ele>121.0</ele><time>2026-04-12T09:27:05.185Z</time></trkpt><trkpt lat="44.9078652" lon="9.7705441"><ele>121.0</ele><time>2026-04-12T09:27:06.178Z</time></trkpt><trkpt lat="44.9079349" lon="9.770556"><ele>121.14285714285714</ele><time>2026-04-12T09:27:07.181Z</time></trkpt><trkpt lat="44.9080031" lon="9.7705737"><ele>121.28571428571428</ele><time>2026-04-12T09:27:08.163Z</time></trkpt><trkpt lat="44.9080739" lon="9.7705895"><ele>121.42857142857142</ele><time>2026-04-12T09:27:09.181Z</time></trkpt><trkpt lat="44.9081414" lon="9.7706104"><ele>121.57142857142856</ele><time>2026-04-12T09:27:10.174Z</time></trkpt><trkpt lat="44.9082152" lon="9.7706279"><ele>121.71428571428571</ele><time>2026-04-12T09:27:11.168Z</time></trkpt><trkpt lat="44.9082864" lon="9.7706471"><ele>121.85714285714283</ele><time>2026-04-12T09:27:12.181Z</time></trkpt><trkpt lat="44.908357" lon="9.7706689"><ele>121.99999999999999</ele><time>2026-04-12T09:27:13.187Z</time></trkpt><trkpt lat="44.9084267" lon="9.770686"><ele>122.14285714285712</ele><time>2026-04-12T09:27:14.189Z</time></trkpt><trkpt lat="44.9084949" lon="9.7707036"><ele>122.28571428571428</ele><time>2026-04-12T09:27:15.19Z</time></trkpt><trkpt lat="44.9085637" lon="9.7707208"><ele>122.42857142857143</ele><time>2026-04-12T09:27:16.196Z</time></trkpt><trkpt lat="44.9086364" lon="9.7707347"><ele>122.57142857142857</ele><time>2026-04-12T09:27:17.19Z</time></trkpt><trkpt lat="44.9087064" lon="9.7707509"><ele>122.71428571428572</ele><time>2026-04-12T09:27:18.189Z</time></trkpt><trkpt lat="44.9087784" lon="9.7707694"><ele>122.85714285714288</ele><time>2026-04-12T09:27:19.171Z</time></trkpt><trkpt lat="44.9088495" lon="9.7707866"><ele>123.00000000000001</ele><time>2026-04-12T09:27:20.19Z</time></trkpt><trkpt lat="44.9089257" lon="9.7708016"><ele>123.00000000000001</ele><time>2026-04-12T09:27:21.188Z</time></trkpt><trkpt lat="44.9089996" lon="9.7708222"><ele>123.0</ele><time>2026-04-12T09:27:22.182Z</time></trkpt><trkpt lat="44.9090732" lon="9.7708412"><ele>123.00000000000001</ele><time>2026-04-12T09:27:23.184Z</time></trkpt><trkpt lat="44.9091415" lon="9.7708616"><ele>123.00000000000001</ele><time>2026-04-12T09:27:24.18Z</time></trkpt><trkpt lat="44.9092105" lon="9.7708827"><ele>123.0</ele><time>2026-04-12T09:27:25.186Z</time></trkpt><trkpt lat="44.909283" lon="9.7709"><ele>123.00000000000001</ele><time>2026-04-12T09:27:26.19Z</time></trkpt><trkpt lat="44.9093529" lon="9.7709232"><ele>123.00000000000001</ele><time>2026-04-12T09:27:27.182Z</time></trkpt><trkpt lat="44.9094255" lon="9.7709381"><ele>122.71428571428572</ele><time>2026-04-12T09:27:28.19Z</time></trkpt><trkpt lat="44.9094954" lon="9.770959"><ele>122.42857142857143</ele><time>2026-04-12T09:27:29.185Z</time></trkpt><trkpt lat="44.9095673" lon="9.7709783"><ele>122.14285714285714</ele><time>2026-04-12T09:27:30.182Z</time></trkpt><trkpt lat="44.9096398" lon="9.7709916"><ele>121.85714285714286</ele><time>2026-04-12T09:27:31.165Z</time></trkpt><trkpt lat="44.909712" lon="9.7710103"><ele>121.57142857142856</ele><time>2026-04-12T09:27:32.182Z</time></trkpt><trkpt lat="44.9097843" lon="9.7710283"><ele>121.28571428571428</ele><time>2026-04-12T09:27:33.182Z</time></trkpt><trkpt lat="44.9098552" lon="9.7710429"><ele>121.0</ele><time>2026-04-12T09:27:34.187Z</time></trkpt><trkpt lat="44.9099249" lon="9.7710603"><ele>120.57142857142857</ele><time>2026-04-12T09:27:35.186Z</time></trkpt><trkpt lat="44.9099943" lon="9.7710776"><ele>120.14285714285714</ele><time>2026-04-12T09:27:36.191Z</time></trkpt><trkpt lat="44.9100651" lon="9.7711006"><ele>119.71428571428571</ele><time>2026-04-12T09:27:37.197Z</time></trkpt><trkpt lat="44.9101344" lon="9.7711146"><ele>119.28571428571428</ele><time>2026-04-12T09:27:38.187Z</time></trkpt><trkpt lat="44.9102059" lon="9.771134"><ele>118.85714285714286</ele><time>2026-04-12T09:27:39.184Z</time></trkpt><trkpt lat="44.9102751" lon="9.7711538"><ele>118.42857142857142</ele><time>2026-04-12T09:27:40.179Z</time></trkpt><trkpt lat="44.9103441" lon="9.7711698"><ele>118.0</ele><time>2026-04-12T09:27:41.188Z</time></trkpt><trkpt lat="44.9104154" lon="9.7711843"><ele>117.71428571428571</ele><time>2026-04-12T09:27:42.188Z</time></trkpt><trkpt lat="44.9104855" lon="9.7712023"><ele>117.42857142857144</ele><time>2026-04-12T09:27:43.15Z</time></trkpt><trkpt lat="44.910556" lon="9.7712262"><ele>117.14285714285715</ele><time>2026-04-12T09:27:44.163Z</time></trkpt><trkpt lat="44.9106247" lon="9.7712436"><ele>116.85714285714286</ele><time>2026-04-12T09:27:45.186Z</time></trkpt><trkpt lat="44.9106923" lon="9.7712633"><ele>116.57142857142858</ele><time>2026-04-12T09:27:46.153Z</time></trkpt><trkpt lat="44.9107633" lon="9.7712806"><ele>116.2857142857143</ele><time>2026-04-12T09:27:47.152Z</time></trkpt><trkpt lat="44.9108299" lon="9.7712983"><ele>116.00000000000001</ele><time>2026-04-12T09:27:48.15Z</time></trkpt><trkpt lat="44.9109058" lon="9.7713154"><ele>115.57142857142858</ele><time>2026-04-12T09:27:49.185Z</time></trkpt><trkpt lat="44.9109823" lon="9.7713378"><ele>115.14285714285714</ele><time>2026-04-12T09:27:50.163Z</time></trkpt><trkpt lat="44.9110547" lon="9.7713535"><ele>114.71428571428572</ele><time>2026-04-12T09:27:51.189Z</time></trkpt><trkpt lat="44.9111244" lon="9.7713712"><ele>114.28571428571429</ele><time>2026-04-12T09:27:52.153Z</time></trkpt><trkpt lat="44.9111927" lon="9.7713848"><ele>113.85714285714286</ele><time>2026-04-12T09:27:53.179Z</time></trkpt><trkpt lat="44.9112638" lon="9.7714026"><ele>113.42857142857143</ele><time>2026-04-12T09:27:54.185Z</time></trkpt><trkpt lat="44.9113343" lon="9.7714207"><ele>113.0</ele><time>2026-04-12T09:27:55.183Z</time></trkpt><trkpt lat="44.9114051" lon="9.7714419"><ele>113.0</ele><time>2026-04-12T09:27:56.184Z</time></trkpt><trkpt lat="44.9114737" lon="9.771462"><ele>113.0</ele><time>2026-04-12T09:27:57.185Z</time></trkpt><trkpt lat="44.9115421" lon="9.7714768"><ele>113.0</ele><time>2026-04-12T09:27:58.182Z</time></trkpt><trkpt lat="44.9116128" lon="9.7714928"><ele>113.0</ele><time>2026-04-12T09:27:59.188Z</time></trkpt><trkpt lat="44.9116889" lon="9.7715129"><ele>113.0</ele><time>2026-04-12T09:28:00.188Z</time></trkpt><trkpt lat="44.9117613" lon="9.7715298"><ele>113.0</ele><time>2026-04-12T09:28:01.171Z</time></trkpt><trkpt lat="44.9118334" lon="9.7715474"><ele>113.0</ele><time>2026-04-12T09:28:02.186Z</time></trkpt><trkpt lat="44.9118998" lon="9.7715685"><ele>112.57142857142857</ele><time>2026-04-12T09:28:03.167Z</time></trkpt><trkpt lat="44.9119671" lon="9.7715856"><ele>112.14285714285714</ele><time>2026-04-12T09:28:04.184Z</time></trkpt><trkpt lat="44.912037" lon="9.7716094"><ele>111.71428571428571</ele><time>2026-04-12T09:28:05.173Z</time></trkpt><trkpt lat="44.9121032" lon="9.7716284"><ele>111.28571428571428</ele><time>2026-04-12T09:28:06.179Z</time></trkpt><trkpt lat="44.912167" lon="9.7716416"><ele>110.85714285714286</ele><time>2026-04-12T09:28:07.179Z</time></trkpt><trkpt lat="44.9122349" lon="9.7716627"><ele>110.42857142857142</ele><time>2026-04-12T09:28:08.179Z</time></trkpt><trkpt lat="44.9123068" lon="9.7716788"><ele>110.0</ele><time>2026-04-12T09:28:09.179Z</time></trkpt><trkpt lat="44.9123802" lon="9.7716909"><ele>109.99999999999999</ele><time>2026-04-12T09:28:10.172Z</time></trkpt><trkpt lat="44.9124491" lon="9.7717054"><ele>110.0</ele><time>2026-04-12T09:28:11.19Z</time></trkpt><trkpt lat="44.9125198" lon="9.7717199"><ele>110.0</ele><time>2026-04-12T09:28:12.182Z</time></trkpt><trkpt lat="44.9125937" lon="9.7717412"><ele>110.0</ele><time>2026-04-12T09:28:13.172Z</time></trkpt><trkpt lat="44.9126618" lon="9.771757"><ele>110.0</ele><time>2026-04-12T09:28:14.181Z</time></trkpt><trkpt lat="44.9127323" lon="9.771773"><ele>109.99999999999999</ele><time>2026-04-12T09:28:15.182Z</time></trkpt><trkpt lat="44.9128034" lon="9.7717894"><ele>110.0</ele><time>2026-04-12T09:28:16.18Z</time></trkpt><trkpt lat="44.912872" lon="9.7718141"><ele>110.14285714285714</ele><time>2026-04-12T09:28:17.192Z</time></trkpt><trkpt lat="44.9129375" lon="9.7718365"><ele>110.28571428571428</ele><time>2026-04-12T09:28:18.182Z</time></trkpt><trkpt lat="44.9130046" lon="9.771852"><ele>110.42857142857142</ele><time>2026-04-12T09:28:19.188Z</time></trkpt><trkpt lat="44.9130786" lon="9.7718727"><ele>110.57142857142857</ele><time>2026-04-12T09:28:20.187Z</time></trkpt><trkpt lat="44.9131512" lon="9.7718901"><ele>110.71428571428572</ele><time>2026-04-12T09:28:21.189Z</time></trkpt><trkpt lat="44.9132213" lon="9.7719034"><ele>110.85714285714285</ele><time>2026-04-12T09:28:22.182Z</time></trkpt><trkpt lat="44.9132929" lon="9.7719206"><ele>111.0</ele><time>2026-04-12T09:28:23.156Z</time></trkpt><trkpt lat="44.9133604" lon="9.7719401"><ele>110.85714285714285</ele><time>2026-04-12T09:28:24.168Z</time></trkpt><trkpt lat="44.9134275" lon="9.7719565"><ele>110.71428571428572</ele><time>2026-04-12T09:28:25.157Z</time></trkpt><trkpt lat="44.9134933" lon="9.7719774"><ele>110.57142857142857</ele><time>2026-04-12T09:28:26.146Z</time></trkpt><trkpt lat="44.9135626" lon="9.7719929"><ele>110.42857142857142</ele><time>2026-04-12T09:28:27.174Z</time></trkpt><trkpt lat="44.9136319" lon="9.7720088"><ele>110.28571428571428</ele><time>2026-04-12T09:28:28.189Z</time></trkpt><trkpt lat="44.9137037" lon="9.7720328"><ele>110.14285714285714</ele><time>2026-04-12T09:28:29.159Z</time></trkpt><trkpt lat="44.9137752" lon="9.7720471"><ele>110.0</ele><time>2026-04-12T09:28:30.178Z</time></trkpt><trkpt lat="44.9138428" lon="9.7720627"><ele>109.99999999999999</ele><time>2026-04-12T09:28:31.191Z</time></trkpt><trkpt lat="44.9139071" lon="9.7720772"><ele>110.0</ele><time>2026-04-12T09:28:32.17Z</time></trkpt><trkpt lat="44.913974" lon="9.7720872"><ele>110.0</ele><time>2026-04-12T09:28:33.164Z</time></trkpt><trkpt lat="44.9140399" lon="9.7720967"><ele>110.0</ele><time>2026-04-12T09:28:34.181Z</time></trkpt><trkpt lat="44.9141045" lon="9.7721121"><ele>110.0</ele><time>2026-04-12T09:28:35.176Z</time></trkpt><trkpt lat="44.9141723" lon="9.7721337"><ele>109.99999999999999</ele><time>2026-04-12T09:28:36.186Z</time></trkpt><trkpt lat="44.9142427" lon="9.7721466"><ele>110.0</ele><time>2026-04-12T09:28:37.191Z</time></trkpt><trkpt lat="44.9143091" lon="9.7721694"><ele>110.14285714285714</ele><time>2026-04-12T09:28:38.178Z</time></trkpt><trkpt lat="44.9143778" lon="9.7721868"><ele>110.28571428571428</ele><time>2026-04-12T09:28:39.179Z</time></trkpt><trkpt lat="44.9144469" lon="9.7722042"><ele>110.42857142857142</ele><time>2026-04-12T09:28:40.185Z</time></trkpt><trkpt lat="44.914513" lon="9.7722209"><ele>110.57142857142857</ele><time>2026-04-12T09:28:41.183Z</time></trkpt><trkpt lat="44.9145813" lon="9.7722392"><ele>110.71428571428572</ele><time>2026-04-12T09:28:42.175Z</time></trkpt><trkpt lat="44.9146505" lon="9.772253"><ele>110.85714285714285</ele><time>2026-04-12T09:28:43.162Z</time></trkpt><trkpt lat="44.9147204" lon="9.7722756"><ele>111.0</ele><time>2026-04-12T09:28:44.184Z</time></trkpt><trkpt lat="44.9147858" lon="9.7722942"><ele>111.0</ele><time>2026-04-12T09:28:45.184Z</time></trkpt><trkpt lat="44.914857" lon="9.7723095"><ele>111.0</ele><time>2026-04-12T09:28:46.176Z</time></trkpt><trkpt lat="44.9149265" lon="9.7723219"><ele>111.0</ele><time>2026-04-12T09:28:47.205Z</time></trkpt><trkpt lat="44.9149948" lon="9.7723388"><ele>111.0</ele><time>2026-04-12T09:28:48.176Z</time></trkpt><trkpt lat="44.9150648" lon="9.7723554"><ele>111.0</ele><time>2026-04-12T09:28:49.181Z</time></trkpt><trkpt lat="44.9151342" lon="9.7723753"><ele>111.0</ele><time>2026-04-12T09:28:50.183Z</time></trkpt><trkpt lat="44.9151969" lon="9.7723965"><ele>111.0</ele><time>2026-04-12T09:28:51.186Z</time></trkpt><trkpt lat="44.9152639" lon="9.7724133"><ele>111.0</ele><time>2026-04-12T09:28:52.187Z</time></trkpt><trkpt lat="44.9153328" lon="9.7724343"><ele>111.0</ele><time>2026-04-12T09:28:53.183Z</time></trkpt><trkpt lat="44.9153986" lon="9.7724504"><ele>111.0</ele><time>2026-04-12T09:28:54.179Z</time></trkpt><trkpt lat="44.9154603" lon="9.7724707"><ele>111.0</ele><time>2026-04-12T09:28:55.178Z</time></trkpt><trkpt lat="44.9155311" lon="9.7724809"><ele>111.0</ele><time>2026-04-12T09:28:56.168Z</time></trkpt><trkpt lat="44.9155993" lon="9.7724947"><ele>111.0</ele><time>2026-04-12T09:28:57.18Z</time></trkpt><trkpt lat="44.9156631" lon="9.7725203"><ele>111.0</ele><time>2026-04-12T09:28:58.175Z</time></trkpt><trkpt lat="44.9157266" lon="9.7725339"><ele>111.0</ele><time>2026-04-12T09:28:59.185Z</time></trkpt><trkpt lat="44.9157933" lon="9.7725514"><ele>111.0</ele><time>2026-04-12T09:29:00.179Z</time></trkpt><trkpt lat="44.9158572" lon="9.772565"><ele>111.0</ele><time>2026-04-12T09:29:01.185Z</time></trkpt><trkpt lat="44.9159231" lon="9.7725746"><ele>111.0</ele><time>2026-04-12T09:29:02.173Z</time></trkpt><trkpt lat="44.9159905" lon="9.7725934"><ele>111.0</ele><time>2026-04-12T09:29:03.178Z</time></trkpt><trkpt lat="44.9160606" lon="9.772611"><ele>111.0</ele><time>2026-04-12T09:29:04.191Z</time></trkpt><trkpt lat="44.9161303" lon="9.7726329"><ele>111.0</ele><time>2026-04-12T09:29:05.181Z</time></trkpt><trkpt lat="44.9161997" lon="9.7726482"><ele>110.85714285714285</ele><time>2026-04-12T09:29:06.18Z</time></trkpt><trkpt lat="44.9162691" lon="9.7726643"><ele>110.71428571428572</ele><time>2026-04-12T09:29:07.182Z</time></trkpt><trkpt lat="44.916342" lon="9.7726818"><ele>110.57142857142857</ele><time>2026-04-12T09:29:08.18Z</time></trkpt><trkpt lat="44.9164107" lon="9.7727004"><ele>110.42857142857142</ele><time>2026-04-12T09:29:09.185Z</time></trkpt><trkpt lat="44.916483" lon="9.7727171"><ele>110.28571428571428</ele><time>2026-04-12T09:29:10.179Z</time></trkpt><trkpt lat="44.9165504" lon="9.7727317"><ele>110.14285714285714</ele><time>2026-04-12T09:29:11.177Z</time></trkpt><trkpt lat="44.9166158" lon="9.7727518"><ele>110.0</ele><time>2026-04-12T09:29:12.176Z</time></trkpt><trkpt lat="44.9166837" lon="9.7727669"><ele>109.71428571428571</ele><time>2026-04-12T09:29:13.183Z</time></trkpt><trkpt lat="44.9167511" lon="9.772785"><ele>109.42857142857143</ele><time>2026-04-12T09:29:14.177Z</time></trkpt><trkpt lat="44.9168195" lon="9.7728061"><ele>109.14285714285714</ele><time>2026-04-12T09:29:15.186Z</time></trkpt><trkpt lat="44.9168897" lon="9.7728197"><ele>108.85714285714286</ele><time>2026-04-12T09:29:16.191Z</time></trkpt><trkpt lat="44.9169552" lon="9.7728378"><ele>108.57142857142857</ele><time>2026-04-12T09:29:17.183Z</time></trkpt><trkpt lat="44.9170247" lon="9.7728528"><ele>108.28571428571428</ele><time>2026-04-12T09:29:18.178Z</time></trkpt><trkpt lat="44.9170922" lon="9.7728715"><ele>108.0</ele><time>2026-04-12T09:29:19.187Z</time></trkpt><trkpt lat="44.9171597" lon="9.7728813"><ele>108.0</ele><time>2026-04-12T09:29:20.193Z</time></trkpt><trkpt lat="44.9172234" lon="9.7728935"><ele>108.0</ele><time>2026-04-12T09:29:21.176Z</time></trkpt><trkpt lat="44.9172907" lon="9.7729082"><ele>108.0</ele><time>2026-04-12T09:29:22.183Z</time></trkpt><trkpt lat="44.9173559" lon="9.7729227"><ele>108.0</ele><time>2026-04-12T09:29:23.197Z</time></trkpt><trkpt lat="44.9174257" lon="9.7729477"><ele>108.0</ele><time>2026-04-12T09:29:24.181Z</time></trkpt><trkpt lat="44.917491" lon="9.7729707"><ele>108.0</ele><time>2026-04-12T09:29:25.164Z</time></trkpt><trkpt lat="44.9175544" lon="9.772986"><ele>108.0</ele><time>2026-04-12T09:29:26.163Z</time></trkpt><trkpt lat="44.9176776" lon="9.7730163"><ele>108.0</ele><time>2026-04-12T09:29:28.172Z</time></trkpt><trkpt lat="44.9177405" lon="9.7730342"><ele>108.00000000000001</ele><time>2026-04-12T09:29:29.171Z</time></trkpt><trkpt lat="44.9178549" lon="9.7730678"><ele>108.00000000000001</ele><time>2026-04-12T09:29:31.18Z</time></trkpt><trkpt lat="44.9179612" lon="9.7730958"><ele>108.0</ele><time>2026-04-12T09:29:33.18Z</time></trkpt><trkpt lat="44.9180645" lon="9.7731166"><ele>108.0</ele><time>2026-04-12T09:29:35.167Z</time></trkpt><trkpt lat="44.9181682" lon="9.7731426"><ele>108.0</ele><time>2026-04-12T09:29:37.181Z</time></trkpt><trkpt lat="44.918264" lon="9.7731698"><ele>108.0</ele><time>2026-04-12T09:29:39.186Z</time></trkpt><trkpt lat="44.9183546" lon="9.7732097"><ele>108.0</ele><time>2026-04-12T09:29:41.183Z</time></trkpt><trkpt lat="44.9184189" lon="9.7732386"><ele>108.0</ele><time>2026-04-12T09:29:43.16Z</time></trkpt><trkpt lat="44.9184866" lon="9.7732654"><ele>108.0</ele><time>2026-04-12T09:29:47.161Z</time></trkpt><trkpt lat="44.91855" lon="9.773278"><ele>108.0</ele><time>2026-04-12T09:29:54.181Z</time></trkpt><trkpt lat="44.9186097" lon="9.7732456"><ele>107.4</ele><time>2026-04-12T09:29:57.181Z</time></trkpt><trkpt lat="44.9186546" lon="9.7731763"><ele>106.80000000000001</ele><time>2026-04-12T09:29:59.176Z</time></trkpt><trkpt lat="44.9186798" lon="9.7730554"><ele>106.2</ele><time>2026-04-12T09:30:01.158Z</time></trkpt><trkpt lat="44.9187104" lon="9.7729152"><ele>105.6</ele><time>2026-04-12T09:30:03.187Z</time></trkpt><trkpt lat="44.9187364" lon="9.7727629"><ele>105.0</ele><time>2026-04-12T09:30:05.162Z</time></trkpt><trkpt lat="44.9187584" lon="9.7726066"><ele>105.0</ele><time>2026-04-12T09:30:07.173Z</time></trkpt><trkpt lat="44.9187729" lon="9.772448"><ele>105.0</ele><time>2026-04-12T09:30:09.176Z</time></trkpt><trkpt lat="44.9187989" lon="9.7722855"><ele>105.0</ele><time>2026-04-12T09:30:11.177Z</time></trkpt><trkpt lat="44.9188265" lon="9.7721188"><ele>105.0</ele><time>2026-04-12T09:30:13.155Z</time></trkpt><trkpt lat="44.9188519" lon="9.7719509"><ele>105.2</ele><time>2026-04-12T09:30:15.183Z</time></trkpt><trkpt lat="44.9188769" lon="9.7717829"><ele>105.4</ele><time>2026-04-12T09:30:17.185Z</time></trkpt><trkpt lat="44.918898" lon="9.7716136"><ele>105.6</ele><time>2026-04-12T09:30:19.181Z</time></trkpt><trkpt lat="44.9189112" lon="9.7715249"><ele>105.8</ele><time>2026-04-12T09:30:20.182Z</time></trkpt><trkpt lat="44.9189396" lon="9.771359"><ele>106.0</ele><time>2026-04-12T09:30:22.18Z</time></trkpt><trkpt lat="44.9189676" lon="9.7711934"><ele>106.0</ele><time>2026-04-12T09:30:24.189Z</time></trkpt><trkpt lat="44.9189915" lon="9.7710423"><ele>106.0</ele><time>2026-04-12T09:30:26.18Z</time></trkpt><trkpt lat="44.9190221" lon="9.770908"><ele>106.0</ele><time>2026-04-12T09:30:28.187Z</time></trkpt><trkpt lat="44.9191164" lon="9.7709092"><ele>106.0</ele><time>2026-04-12T09:30:30.191Z</time></trkpt><trkpt lat="44.9192237" lon="9.7709477"><ele>106.0</ele><time>2026-04-12T09:30:32.179Z</time></trkpt><trkpt lat="44.9193428" lon="9.7709816"><ele>106.8</ele><time>2026-04-12T09:30:34.177Z</time></trkpt><trkpt lat="44.9194616" lon="9.771002"><ele>107.6</ele><time>2026-04-12T09:30:36.192Z</time></trkpt><trkpt lat="44.9195716" lon="9.7710426"><ele>108.4</ele><time>2026-04-12T09:30:38.181Z</time></trkpt><trkpt lat="44.9196757" lon="9.7710814"><ele>109.2</ele><time>2026-04-12T09:30:40.198Z</time></trkpt><trkpt lat="44.9197768" lon="9.771096"><ele>110.0</ele><time>2026-04-12T09:30:42.177Z</time></trkpt><trkpt lat="44.9198776" lon="9.7711294"><ele>110.0</ele><time>2026-04-12T09:30:44.186Z</time></trkpt><trkpt lat="44.9199823" lon="9.7711755"><ele>110.0</ele><time>2026-04-12T09:30:46.172Z</time></trkpt><trkpt lat="44.9200933" lon="9.7711948"><ele>110.0</ele><time>2026-04-12T09:30:48.15Z</time></trkpt><trkpt lat="44.9202103" lon="9.7712303"><ele>110.0</ele><time>2026-04-12T09:30:50.159Z</time></trkpt><trkpt lat="44.9203279" lon="9.7712804"><ele>109.8</ele><time>2026-04-12T09:30:52.178Z</time></trkpt><trkpt lat="44.9204371" lon="9.7713126"><ele>109.6</ele><time>2026-04-12T09:30:54.146Z</time></trkpt><trkpt lat="44.9205464" lon="9.7713323"><ele>109.4</ele><time>2026-04-12T09:30:56.152Z</time></trkpt><trkpt lat="44.9206434" lon="9.7713477"><ele>109.2</ele><time>2026-04-12T09:30:58.147Z</time></trkpt><trkpt lat="44.9207464" lon="9.7713863"><ele>109.0</ele><time>2026-04-12T09:31:00.173Z</time></trkpt><trkpt lat="44.9208585" lon="9.7714218"><ele>108.4</ele><time>2026-04-12T09:31:02.187Z</time></trkpt><trkpt lat="44.9209695" lon="9.7714568"><ele>107.80000000000001</ele><time>2026-04-12T09:31:04.17Z</time></trkpt><trkpt lat="44.9210731" lon="9.7714853"><ele>107.19999999999999</ele><time>2026-04-12T09:31:06.184Z</time></trkpt><trkpt lat="44.9211731" lon="9.7715149"><ele>106.6</ele><time>2026-04-12T09:31:08.184Z</time></trkpt><trkpt lat="44.9212872" lon="9.7715468"><ele>106.0</ele><time>2026-04-12T09:31:10.178Z</time></trkpt><trkpt lat="44.9214051" lon="9.7715727"><ele>106.0</ele><time>2026-04-12T09:31:12.181Z</time></trkpt><trkpt lat="44.921527" lon="9.7715987"><ele>106.0</ele><time>2026-04-12T09:31:14.18Z</time></trkpt><trkpt lat="44.9215895" lon="9.7716217"><ele>106.0</ele><time>2026-04-12T09:31:15.185Z</time></trkpt><trkpt lat="44.9217102" lon="9.7716549"><ele>106.0</ele><time>2026-04-12T09:31:17.182Z</time></trkpt><trkpt lat="44.9218311" lon="9.7716832"><ele>106.0</ele><time>2026-04-12T09:31:19.187Z</time></trkpt><trkpt lat="44.9219504" lon="9.7717244"><ele>106.0</ele><time>2026-04-12T09:31:21.182Z</time></trkpt><trkpt lat="44.9220718" lon="9.7717486"><ele>106.0</ele><time>2026-04-12T09:31:23.192Z</time></trkpt><trkpt lat="44.9221915" lon="9.7717829"><ele>106.0</ele><time>2026-04-12T09:31:25.164Z</time></trkpt><trkpt lat="44.9223103" lon="9.7718069"><ele>106.0</ele><time>2026-04-12T09:31:27.176Z</time></trkpt><trkpt lat="44.9224284" lon="9.7718115"><ele>106.0</ele><time>2026-04-12T09:31:29.19Z</time></trkpt><trkpt lat="44.9225441" lon="9.7718187"><ele>106.0</ele><time>2026-04-12T09:31:31.188Z</time></trkpt><trkpt lat="44.9226649" lon="9.7718328"><ele>106.0</ele><time>2026-04-12T09:31:33.182Z</time></trkpt><trkpt lat="44.9227877" lon="9.7718588"><ele>106.0</ele><time>2026-04-12T09:31:35.184Z</time></trkpt><trkpt lat="44.9229091" lon="9.7718896"><ele>105.4</ele><time>2026-04-12T09:31:37.189Z</time></trkpt><trkpt lat="44.9229732" lon="9.7719004"><ele>104.8</ele><time>2026-04-12T09:31:38.189Z</time></trkpt><trkpt lat="44.9230995" lon="9.7719258"><ele>104.2</ele><time>2026-04-12T09:31:40.178Z</time></trkpt><trkpt lat="44.9231649" lon="9.7719386"><ele>103.60000000000001</ele><time>2026-04-12T09:31:41.183Z</time></trkpt><trkpt lat="44.9232291" lon="9.7719563"><ele>103.0</ele><time>2026-04-12T09:31:42.194Z</time></trkpt><trkpt lat="44.9233563" lon="9.7719939"><ele>102.50000000000001</ele><time>2026-04-12T09:31:44.187Z</time></trkpt><trkpt lat="44.92342" lon="9.7720038"><ele>102.0</ele><time>2026-04-12T09:31:45.173Z</time></trkpt><trkpt lat="44.9235403" lon="9.7720365"><ele>101.5</ele><time>2026-04-12T09:31:47.183Z</time></trkpt><trkpt lat="44.9236624" lon="9.7720646"><ele>101.0</ele><time>2026-04-12T09:31:49.188Z</time></trkpt><trkpt lat="44.9237303" lon="9.7720784"><ele>100.50000000000001</ele><time>2026-04-12T09:31:50.187Z</time></trkpt><trkpt lat="44.9237923" lon="9.7720944"><ele>100.0</ele><time>2026-04-12T09:31:51.199Z</time></trkpt><trkpt lat="44.9238546" lon="9.77211"><ele>100.00000000000001</ele><time>2026-04-12T09:31:52.193Z</time></trkpt><trkpt lat="44.9239197" lon="9.7721264"><ele>100.0</ele><time>2026-04-12T09:31:53.191Z</time></trkpt><trkpt lat="44.9239852" lon="9.7721426"><ele>100.0</ele><time>2026-04-12T09:31:54.191Z</time></trkpt><trkpt lat="44.9240476" lon="9.7721598"><ele>100.0</ele><time>2026-04-12T09:31:55.19Z</time></trkpt><trkpt lat="44.9241702" lon="9.7721877"><ele>100.00000000000001</ele><time>2026-04-12T09:31:57.172Z</time></trkpt><trkpt lat="44.9242925" lon="9.7722075"><ele>100.0</ele><time>2026-04-12T09:31:59.181Z</time></trkpt><trkpt lat="44.9243602" lon="9.7722104"><ele>100.33333333333334</ele><time>2026-04-12T09:32:00.18Z</time></trkpt><trkpt lat="44.9244254" lon="9.7722155"><ele>100.66666666666667</ele><time>2026-04-12T09:32:01.181Z</time></trkpt><trkpt lat="44.9244913" lon="9.7722304"><ele>101.0</ele><time>2026-04-12T09:32:02.186Z</time></trkpt><trkpt lat="44.9245564" lon="9.7722487"><ele>101.33333333333334</ele><time>2026-04-12T09:32:03.185Z</time></trkpt><trkpt lat="44.9246795" lon="9.7722805"><ele>101.66666666666667</ele><time>2026-04-12T09:32:05.183Z</time></trkpt><trkpt lat="44.9247446" lon="9.7722939"><ele>102.0</ele><time>2026-04-12T09:32:06.176Z</time></trkpt><trkpt lat="44.9248121" lon="9.7723092"><ele>102.0</ele><time>2026-04-12T09:32:07.192Z</time></trkpt><trkpt lat="44.9248808" lon="9.7723289"><ele>102.0</ele><time>2026-04-12T09:32:08.179Z</time></trkpt><trkpt lat="44.9249463" lon="9.7723455"><ele>102.0</ele><time>2026-04-12T09:32:09.196Z</time></trkpt><trkpt lat="44.9250121" lon="9.7723647"><ele>102.0</ele><time>2026-04-12T09:32:10.184Z</time></trkpt><trkpt lat="44.9250785" lon="9.7723832"><ele>102.0</ele><time>2026-04-12T09:32:11.189Z</time></trkpt><trkpt lat="44.9251458" lon="9.7723997"><ele>102.0</ele><time>2026-04-12T09:32:12.166Z</time></trkpt><trkpt lat="44.9252133" lon="9.7724099"><ele>102.0</ele><time>2026-04-12T09:32:13.16Z</time></trkpt><trkpt lat="44.9252796" lon="9.7724213"><ele>102.14285714285714</ele><time>2026-04-12T09:32:14.183Z</time></trkpt><trkpt lat="44.9253489" lon="9.7724346"><ele>102.28571428571429</ele><time>2026-04-12T09:32:15.168Z</time></trkpt><trkpt lat="44.9254167" lon="9.7724534"><ele>102.42857142857142</ele><time>2026-04-12T09:32:16.182Z</time></trkpt><trkpt lat="44.9254843" lon="9.7724708"><ele>102.57142857142857</ele><time>2026-04-12T09:32:17.178Z</time></trkpt><trkpt lat="44.9255475" lon="9.7724916"><ele>102.71428571428571</ele><time>2026-04-12T09:32:18.162Z</time></trkpt><trkpt lat="44.9256154" lon="9.7725055"><ele>102.85714285714285</ele><time>2026-04-12T09:32:19.182Z</time></trkpt><trkpt lat="44.9256822" lon="9.7725266"><ele>103.0</ele><time>2026-04-12T09:32:20.191Z</time></trkpt><trkpt lat="44.9257464" lon="9.7725428"><ele>103.0</ele><time>2026-04-12T09:32:21.187Z</time></trkpt><trkpt lat="44.9258133" lon="9.7725576"><ele>103.0</ele><time>2026-04-12T09:32:22.178Z</time></trkpt><trkpt lat="44.9258766" lon="9.772578"><ele>103.0</ele><time>2026-04-12T09:32:23.188Z</time></trkpt><trkpt lat="44.9260011" lon="9.7726094"><ele>103.0</ele><time>2026-04-12T09:32:25.182Z</time></trkpt><trkpt lat="44.9260649" lon="9.7726233"><ele>103.0</ele><time>2026-04-12T09:32:26.179Z</time></trkpt><trkpt lat="44.9261946" lon="9.7726456"><ele>102.80000000000001</ele><time>2026-04-12T09:32:28.172Z</time></trkpt><trkpt lat="44.9262579" lon="9.7726637"><ele>102.6</ele><time>2026-04-12T09:32:29.189Z</time></trkpt><trkpt lat="44.9263211" lon="9.7726766"><ele>102.4</ele><time>2026-04-12T09:32:30.183Z</time></trkpt><trkpt lat="44.9264434" lon="9.7727026"><ele>102.19999999999999</ele><time>2026-04-12T09:32:32.179Z</time></trkpt><trkpt lat="44.926567" lon="9.7727339"><ele>102.0</ele><time>2026-04-12T09:32:34.185Z</time></trkpt><trkpt lat="44.9266919" lon="9.7727574"><ele>101.71428571428572</ele><time>2026-04-12T09:32:36.178Z</time></trkpt><trkpt lat="44.9267553" lon="9.772771"><ele>101.42857142857143</ele><time>2026-04-12T09:32:37.188Z</time></trkpt><trkpt lat="44.9268214" lon="9.7727835"><ele>101.14285714285714</ele><time>2026-04-12T09:32:38.182Z</time></trkpt><trkpt lat="44.9268838" lon="9.7727953"><ele>100.85714285714286</ele><time>2026-04-12T09:32:39.183Z</time></trkpt><trkpt lat="44.9270035" lon="9.7728207"><ele>100.57142857142857</ele><time>2026-04-12T09:32:41.182Z</time></trkpt><trkpt lat="44.9270672" lon="9.7728368"><ele>100.28571428571429</ele><time>2026-04-12T09:32:42.185Z</time></trkpt><trkpt lat="44.9271324" lon="9.7728527"><ele>100.0</ele><time>2026-04-12T09:32:43.189Z</time></trkpt><trkpt lat="44.9271969" lon="9.7728638"><ele>100.00000000000001</ele><time>2026-04-12T09:32:44.192Z</time></trkpt><trkpt lat="44.9272612" lon="9.7728668"><ele>100.0</ele><time>2026-04-12T09:32:45.185Z</time></trkpt><trkpt lat="44.9273248" lon="9.7728745"><ele>100.0</ele><time>2026-04-12T09:32:46.185Z</time></trkpt><trkpt lat="44.9274426" lon="9.7728994"><ele>100.0</ele><time>2026-04-12T09:32:48.178Z</time></trkpt><trkpt lat="44.9275617" lon="9.7729249"><ele>100.00000000000001</ele><time>2026-04-12T09:32:50.184Z</time></trkpt><trkpt lat="44.9276251" lon="9.7729426"><ele>100.0</ele><time>2026-04-12T09:32:51.182Z</time></trkpt><trkpt lat="44.9276897" lon="9.772952"><ele>99.83333333333334</ele><time>2026-04-12T09:32:52.18Z</time></trkpt><trkpt lat="44.9277585" lon="9.7729698"><ele>99.66666666666667</ele><time>2026-04-12T09:32:53.161Z</time></trkpt><trkpt lat="44.9278843" lon="9.7730044"><ele>99.5</ele><time>2026-04-12T09:32:55.179Z</time></trkpt><trkpt lat="44.9279515" lon="9.7730166"><ele>99.33333333333334</ele><time>2026-04-12T09:32:56.181Z</time></trkpt><trkpt lat="44.9280179" lon="9.7730353"><ele>99.16666666666667</ele><time>2026-04-12T09:32:57.188Z</time></trkpt><trkpt lat="44.9280816" lon="9.7730526"><ele>99.0</ele><time>2026-04-12T09:32:58.171Z</time></trkpt><trkpt lat="44.9281472" lon="9.7730778"><ele>99.0</ele><time>2026-04-12T09:32:59.179Z</time></trkpt><trkpt lat="44.9282121" lon="9.7730975"><ele>99.0</ele><time>2026-04-12T09:33:00.175Z</time></trkpt><trkpt lat="44.9283377" lon="9.7731166"><ele>99.0</ele><time>2026-04-12T09:33:02.182Z</time></trkpt><trkpt lat="44.9284022" lon="9.7731285"><ele>99.0</ele><time>2026-04-12T09:33:03.172Z</time></trkpt><trkpt lat="44.9284683" lon="9.7731351"><ele>99.0</ele><time>2026-04-12T09:33:04.192Z</time></trkpt><trkpt lat="44.9285359" lon="9.773145"><ele>99.0</ele><time>2026-04-12T09:33:05.197Z</time></trkpt><trkpt lat="44.9286011" lon="9.7731561"><ele>99.6</ele><time>2026-04-12T09:33:06.189Z</time></trkpt><trkpt lat="44.9287212" lon="9.7731806"><ele>100.2</ele><time>2026-04-12T09:33:08.184Z</time></trkpt><trkpt lat="44.9288303" lon="9.7731973"><ele>100.8</ele><time>2026-04-12T09:33:10.178Z</time></trkpt><trkpt lat="44.928932" lon="9.7732294"><ele>101.39999999999999</ele><time>2026-04-12T09:33:12.192Z</time></trkpt><trkpt lat="44.9290398" lon="9.773275"><ele>102.0</ele><time>2026-04-12T09:33:14.189Z</time></trkpt><trkpt lat="44.9291474" lon="9.7733503"><ele>102.0</ele><time>2026-04-12T09:33:16.178Z</time></trkpt><trkpt lat="44.9292024" lon="9.7734109"><ele>102.0</ele><time>2026-04-12T09:33:17.191Z</time></trkpt><trkpt lat="44.9292616" lon="9.773464"><ele>102.0</ele><time>2026-04-12T09:33:18.184Z</time></trkpt><trkpt lat="44.9293209" lon="9.7735199"><ele>102.0</ele><time>2026-04-12T09:33:19.194Z</time></trkpt><trkpt lat="44.9293875" lon="9.7735686"><ele>102.0</ele><time>2026-04-12T09:33:20.165Z</time></trkpt><trkpt lat="44.9294496" lon="9.7736117"><ele>102.0</ele><time>2026-04-12T09:33:21.187Z</time></trkpt><trkpt lat="44.9295148" lon="9.7736558"><ele>102.0</ele><time>2026-04-12T09:33:22.18Z</time></trkpt><trkpt lat="44.9295783" lon="9.7736925"><ele>101.33333333333333</ele><time>2026-04-12T09:33:23.19Z</time></trkpt><trkpt lat="44.9296418" lon="9.7737215"><ele>100.66666666666666</ele><time>2026-04-12T09:33:24.182Z</time></trkpt><trkpt lat="44.9297026" lon="9.7737601"><ele>100.0</ele><time>2026-04-12T09:33:25.172Z</time></trkpt><trkpt lat="44.9297665" lon="9.7737935"><ele>99.33333333333333</ele><time>2026-04-12T09:33:26.193Z</time></trkpt><trkpt lat="44.9298304" lon="9.7738143"><ele>98.66666666666666</ele><time>2026-04-12T09:33:27.186Z</time></trkpt><trkpt lat="44.9299426" lon="9.7738441"><ele>98.0</ele><time>2026-04-12T09:33:29.187Z</time></trkpt><trkpt lat="44.9300659" lon="9.773875"><ele>97.80000000000001</ele><time>2026-04-12T09:33:31.184Z</time></trkpt><trkpt lat="44.9301292" lon="9.773884"><ele>97.6</ele><time>2026-04-12T09:33:32.189Z</time></trkpt><trkpt lat="44.9302523" lon="9.77391"><ele>97.4</ele><time>2026-04-12T09:33:34.183Z</time></trkpt><trkpt lat="44.9303624" lon="9.7739355"><ele>97.19999999999999</ele><time>2026-04-12T09:33:36.198Z</time></trkpt><trkpt lat="44.9304879" lon="9.7739593"><ele>97.0</ele><time>2026-04-12T09:33:38.189Z</time></trkpt><trkpt lat="44.930612" lon="9.7739804"><ele>97.0</ele><time>2026-04-12T09:33:40.188Z</time></trkpt><trkpt lat="44.9307338" lon="9.7739962"><ele>97.0</ele><time>2026-04-12T09:33:42.188Z</time></trkpt><trkpt lat="44.9308497" lon="9.7740312"><ele>97.0</ele><time>2026-04-12T09:33:44.177Z</time></trkpt><trkpt lat="44.9309723" lon="9.7740712"><ele>97.0</ele><time>2026-04-12T09:33:46.183Z</time></trkpt><trkpt lat="44.9310384" lon="9.7740877"><ele>97.0</ele><time>2026-04-12T09:33:47.184Z</time></trkpt><trkpt lat="44.9311622" lon="9.7741205"><ele>96.85714285714285</ele><time>2026-04-12T09:33:49.186Z</time></trkpt><trkpt lat="44.9312242" lon="9.7741379"><ele>96.71428571428572</ele><time>2026-04-12T09:33:50.17Z</time></trkpt><trkpt lat="44.9312891" lon="9.7741543"><ele>96.57142857142857</ele><time>2026-04-12T09:33:51.182Z</time></trkpt><trkpt lat="44.9313524" lon="9.7741722"><ele>96.42857142857142</ele><time>2026-04-12T09:33:52.188Z</time></trkpt><trkpt lat="44.9314157" lon="9.774189"><ele>96.28571428571428</ele><time>2026-04-12T09:33:53.192Z</time></trkpt><trkpt lat="44.9314771" lon="9.774211"><ele>96.14285714285714</ele><time>2026-04-12T09:33:54.177Z</time></trkpt><trkpt lat="44.9315393" lon="9.7742292"><ele>96.0</ele><time>2026-04-12T09:33:55.185Z</time></trkpt><trkpt lat="44.9316086" lon="9.7742526"><ele>95.99999999999999</ele><time>2026-04-12T09:33:56.183Z</time></trkpt><trkpt lat="44.9316747" lon="9.7742748"><ele>96.0</ele><time>2026-04-12T09:33:57.185Z</time></trkpt><trkpt lat="44.9317394" lon="9.774295"><ele>96.0</ele><time>2026-04-12T09:33:58.177Z</time></trkpt><trkpt lat="44.9318088" lon="9.7743172"><ele>96.0</ele><time>2026-04-12T09:33:59.185Z</time></trkpt><trkpt lat="44.9318737" lon="9.77434"><ele>96.0</ele><time>2026-04-12T09:34:00.177Z</time></trkpt><trkpt lat="44.931942" lon="9.774359"><ele>95.99999999999999</ele><time>2026-04-12T09:34:01.196Z</time></trkpt><trkpt lat="44.9320077" lon="9.7743765"><ele>96.0</ele><time>2026-04-12T09:34:02.17Z</time></trkpt><trkpt lat="44.9320713" lon="9.7743986"><ele>95.99999999999999</ele><time>2026-04-12T09:34:03.193Z</time></trkpt><trkpt lat="44.9321404" lon="9.7744198"><ele>96.0</ele><time>2026-04-12T09:34:04.181Z</time></trkpt><trkpt lat="44.9322084" lon="9.7744394"><ele>96.0</ele><time>2026-04-12T09:34:05.184Z</time></trkpt><trkpt lat="44.9322756" lon="9.774461"><ele>96.0</ele><time>2026-04-12T09:34:06.159Z</time></trkpt><trkpt lat="44.9323395" lon="9.7744794"><ele>96.0</ele><time>2026-04-12T09:34:07.176Z</time></trkpt><trkpt lat="44.9324075" lon="9.7744915"><ele>95.99999999999999</ele><time>2026-04-12T09:34:08.184Z</time></trkpt><trkpt lat="44.9324732" lon="9.7745029"><ele>96.0</ele><time>2026-04-12T09:34:09.203Z</time></trkpt><trkpt lat="44.9325412" lon="9.7745087"><ele>95.99999999999999</ele><time>2026-04-12T09:34:10.182Z</time></trkpt><trkpt lat="44.9326112" lon="9.7745148"><ele>96.0</ele><time>2026-04-12T09:34:11.19Z</time></trkpt><trkpt lat="44.9326776" lon="9.7745213"><ele>96.0</ele><time>2026-04-12T09:34:12.182Z</time></trkpt><trkpt lat="44.9327455" lon="9.7745301"><ele>96.0</ele><time>2026-04-12T09:34:13.181Z</time></trkpt><trkpt lat="44.9328136" lon="9.7745359"><ele>96.0</ele><time>2026-04-12T09:34:14.182Z</time></trkpt><trkpt lat="44.9328845" lon="9.7745466"><ele>95.99999999999999</ele><time>2026-04-12T09:34:15.191Z</time></trkpt><trkpt lat="44.9329524" lon="9.7745529"><ele>96.0</ele><time>2026-04-12T09:34:16.181Z</time></trkpt><trkpt lat="44.9330174" lon="9.7745565"><ele>95.99999999999999</ele><time>2026-04-12T09:34:17.188Z</time></trkpt><trkpt lat="44.9330852" lon="9.7745645"><ele>96.0</ele><time>2026-04-12T09:34:18.184Z</time></trkpt><trkpt lat="44.9331526" lon="9.7745711"><ele>96.0</ele><time>2026-04-12T09:34:19.192Z</time></trkpt><trkpt lat="44.9332209" lon="9.7745768"><ele>96.0</ele><time>2026-04-12T09:34:20.182Z</time></trkpt><trkpt lat="44.9332874" lon="9.774584"><ele>96.0</ele><time>2026-04-12T09:34:21.185Z</time></trkpt><trkpt lat="44.9333551" lon="9.7745896"><ele>95.99999999999999</ele><time>2026-04-12T09:34:22.19Z</time></trkpt><trkpt lat="44.933421" lon="9.7745959"><ele>96.0</ele><time>2026-04-12T09:34:23.191Z</time></trkpt><trkpt lat="44.9334882" lon="9.7746026"><ele>96.14285714285714</ele><time>2026-04-12T09:34:24.196Z</time></trkpt><trkpt lat="44.9335579" lon="9.7746116"><ele>96.28571428571428</ele><time>2026-04-12T09:34:25.184Z</time></trkpt><trkpt lat="44.9336268" lon="9.7746186"><ele>96.42857142857142</ele><time>2026-04-12T09:34:26.191Z</time></trkpt><trkpt lat="44.9336914" lon="9.7746208"><ele>96.57142857142857</ele><time>2026-04-12T09:34:27.182Z</time></trkpt><trkpt lat="44.9337571" lon="9.7746258"><ele>96.71428571428572</ele><time>2026-04-12T09:34:28.203Z</time></trkpt><trkpt lat="44.9338282" lon="9.7746302"><ele>96.85714285714285</ele><time>2026-04-12T09:34:29.187Z</time></trkpt><trkpt lat="44.9339018" lon="9.7746359"><ele>97.0</ele><time>2026-04-12T09:34:30.192Z</time></trkpt><trkpt lat="44.93397" lon="9.7746451"><ele>97.0</ele><time>2026-04-12T09:34:31.185Z</time></trkpt><trkpt lat="44.9340412" lon="9.7746489"><ele>97.0</ele><time>2026-04-12T09:34:32.186Z</time></trkpt><trkpt lat="44.9341168" lon="9.7746615"><ele>97.0</ele><time>2026-04-12T09:34:33.19Z</time></trkpt><trkpt lat="44.9341857" lon="9.7746691"><ele>97.0</ele><time>2026-04-12T09:34:34.18Z</time></trkpt><trkpt lat="44.9342573" lon="9.7746815"><ele>97.0</ele><time>2026-04-12T09:34:35.19Z</time></trkpt><trkpt lat="44.9343261" lon="9.774699"><ele>97.0</ele><time>2026-04-12T09:34:36.191Z</time></trkpt><trkpt lat="44.9343967" lon="9.774716"><ele>97.0</ele><time>2026-04-12T09:34:37.199Z</time></trkpt><trkpt lat="44.9344686" lon="9.7747214"><ele>96.57142857142857</ele><time>2026-04-12T09:34:38.184Z</time></trkpt><trkpt lat="44.9345372" lon="9.7747307"><ele>96.14285714285715</ele><time>2026-04-12T09:34:39.186Z</time></trkpt><trkpt lat="44.9346081" lon="9.7747475"><ele>95.71428571428572</ele><time>2026-04-12T09:34:40.191Z</time></trkpt><trkpt lat="44.9346766" lon="9.7747536"><ele>95.28571428571428</ele><time>2026-04-12T09:34:41.182Z</time></trkpt><trkpt lat="44.9347427" lon="9.774754"><ele>94.85714285714286</ele><time>2026-04-12T09:34:42.179Z</time></trkpt><trkpt lat="44.9348077" lon="9.7747622"><ele>94.42857142857143</ele><time>2026-04-12T09:34:43.186Z</time></trkpt><trkpt lat="44.9348711" lon="9.7747744"><ele>94.0</ele><time>2026-04-12T09:34:44.19Z</time></trkpt><trkpt lat="44.9349368" lon="9.7747819"><ele>94.0</ele><time>2026-04-12T09:34:45.182Z</time></trkpt><trkpt lat="44.935003" lon="9.7747924"><ele>94.0</ele><time>2026-04-12T09:34:46.185Z</time></trkpt><trkpt lat="44.9350678" lon="9.7747997"><ele>94.0</ele><time>2026-04-12T09:34:47.185Z</time></trkpt><trkpt lat="44.9351362" lon="9.7748068"><ele>94.0</ele><time>2026-04-12T09:34:48.193Z</time></trkpt><trkpt lat="44.9352018" lon="9.7748189"><ele>94.0</ele><time>2026-04-12T09:34:49.197Z</time></trkpt><trkpt lat="44.9352704" lon="9.774828"><ele>94.0</ele><time>2026-04-12T09:34:50.172Z</time></trkpt><trkpt lat="44.935336" lon="9.7748373"><ele>94.0</ele><time>2026-04-12T09:34:51.185Z</time></trkpt><trkpt lat="44.9354003" lon="9.7748441"><ele>93.71428571428571</ele><time>2026-04-12T09:34:52.191Z</time></trkpt><trkpt lat="44.9354636" lon="9.7748554"><ele>93.42857142857142</ele><time>2026-04-12T09:34:53.182Z</time></trkpt><trkpt lat="44.9355332" lon="9.7748618"><ele>93.14285714285714</ele><time>2026-04-12T09:34:54.186Z</time></trkpt><trkpt lat="44.9356011" lon="9.7748635"><ele>92.85714285714286</ele><time>2026-04-12T09:34:55.193Z</time></trkpt><trkpt lat="44.9356683" lon="9.7748733"><ele>92.57142857142857</ele><time>2026-04-12T09:34:56.188Z</time></trkpt><trkpt lat="44.9357362" lon="9.7748818"><ele>92.28571428571429</ele><time>2026-04-12T09:34:57.181Z</time></trkpt><trkpt lat="44.935804" lon="9.7748918"><ele>92.0</ele><time>2026-04-12T09:34:58.163Z</time></trkpt><trkpt lat="44.9358709" lon="9.7749044"><ele>92.0</ele><time>2026-04-12T09:34:59.18Z</time></trkpt><trkpt lat="44.9359364" lon="9.7749156"><ele>92.0</ele><time>2026-04-12T09:35:00.174Z</time></trkpt><trkpt lat="44.9359993" lon="9.7749295"><ele>92.0</ele><time>2026-04-12T09:35:01.181Z</time></trkpt><trkpt lat="44.9360644" lon="9.7749392"><ele>92.0</ele><time>2026-04-12T09:35:02.179Z</time></trkpt><trkpt lat="44.936133" lon="9.7749529"><ele>92.0</ele><time>2026-04-12T09:35:03.178Z</time></trkpt><trkpt lat="44.9361965" lon="9.7749676"><ele>92.0</ele><time>2026-04-12T09:35:04.17Z</time></trkpt><trkpt lat="44.9362636" lon="9.77498"><ele>92.0</ele><time>2026-04-12T09:35:05.174Z</time></trkpt><trkpt lat="44.9363305" lon="9.7749986"><ele>92.0</ele><time>2026-04-12T09:35:06.185Z</time></trkpt><trkpt lat="44.9363983" lon="9.775013"><ele>92.0</ele><time>2026-04-12T09:35:07.184Z</time></trkpt><trkpt lat="44.9364674" lon="9.7750297"><ele>92.0</ele><time>2026-04-12T09:35:08.184Z</time></trkpt><trkpt lat="44.9365358" lon="9.775043"><ele>92.0</ele><time>2026-04-12T09:35:09.162Z</time></trkpt><trkpt lat="44.9365993" lon="9.7750599"><ele>92.0</ele><time>2026-04-12T09:35:10.191Z</time></trkpt><trkpt lat="44.9366704" lon="9.775078"><ele>92.0</ele><time>2026-04-12T09:35:11.181Z</time></trkpt><trkpt lat="44.9367408" lon="9.7750976"><ele>92.0</ele><time>2026-04-12T09:35:12.186Z</time></trkpt><trkpt lat="44.9368089" lon="9.7751178"><ele>92.28571428571429</ele><time>2026-04-12T09:35:13.182Z</time></trkpt><trkpt lat="44.9368749" lon="9.775144"><ele>92.57142857142857</ele><time>2026-04-12T09:35:14.186Z</time></trkpt><trkpt lat="44.9369409" lon="9.7751618"><ele>92.85714285714286</ele><time>2026-04-12T09:35:15.179Z</time></trkpt><trkpt lat="44.9370064" lon="9.7751807"><ele>93.14285714285714</ele><time>2026-04-12T09:35:16.183Z</time></trkpt><trkpt lat="44.9370753" lon="9.7752063"><ele>93.42857142857142</ele><time>2026-04-12T09:35:17.179Z</time></trkpt><trkpt lat="44.9371406" lon="9.7752343"><ele>93.71428571428571</ele><time>2026-04-12T09:35:18.156Z</time></trkpt><trkpt lat="44.9372078" lon="9.7752578"><ele>94.0</ele><time>2026-04-12T09:35:19.164Z</time></trkpt><trkpt lat="44.9372778" lon="9.7752841"><ele>94.0</ele><time>2026-04-12T09:35:20.162Z</time></trkpt><trkpt lat="44.9373454" lon="9.7753056"><ele>94.0</ele><time>2026-04-12T09:35:21.179Z</time></trkpt><trkpt lat="44.9374111" lon="9.7753356"><ele>94.0</ele><time>2026-04-12T09:35:22.182Z</time></trkpt><trkpt lat="44.9374786" lon="9.7753596"><ele>94.0</ele><time>2026-04-12T09:35:23.182Z</time></trkpt><trkpt lat="44.9375469" lon="9.7753755"><ele>94.0</ele><time>2026-04-12T09:35:24.182Z</time></trkpt><trkpt lat="44.9376161" lon="9.775407"><ele>94.0</ele><time>2026-04-12T09:35:25.176Z</time></trkpt><trkpt lat="44.9376816" lon="9.7754314"><ele>94.0</ele><time>2026-04-12T09:35:26.183Z</time></trkpt><trkpt lat="44.9377487" lon="9.7754603"><ele>94.0</ele><time>2026-04-12T09:35:27.2Z</time></trkpt><trkpt lat="44.9378161" lon="9.7754881"><ele>94.0</ele><time>2026-04-12T09:35:28.168Z</time></trkpt><trkpt lat="44.9378872" lon="9.7755127"><ele>94.0</ele><time>2026-04-12T09:35:29.179Z</time></trkpt><trkpt lat="44.9379502" lon="9.7755356"><ele>94.0</ele><time>2026-04-12T09:35:30.175Z</time></trkpt><trkpt lat="44.9380141" lon="9.775562"><ele>94.0</ele><time>2026-04-12T09:35:31.18Z</time></trkpt><trkpt lat="44.9380822" lon="9.7755813"><ele>94.0</ele><time>2026-04-12T09:35:32.184Z</time></trkpt><trkpt lat="44.9381452" lon="9.7756039"><ele>94.0</ele><time>2026-04-12T09:35:33.175Z</time></trkpt><trkpt lat="44.9382083" lon="9.775627"><ele>94.0</ele><time>2026-04-12T09:35:34.18Z</time></trkpt><trkpt lat="44.9382763" lon="9.7756444"><ele>94.0</ele><time>2026-04-12T09:35:35.179Z</time></trkpt><trkpt lat="44.9383433" lon="9.7756657"><ele>94.0</ele><time>2026-04-12T09:35:36.171Z</time></trkpt><trkpt lat="44.938411" lon="9.7756864"><ele>94.0</ele><time>2026-04-12T09:35:37.181Z</time></trkpt><trkpt lat="44.9384838" lon="9.7757006"><ele>94.0</ele><time>2026-04-12T09:35:38.177Z</time></trkpt><trkpt lat="44.9385547" lon="9.7757163"><ele>94.0</ele><time>2026-04-12T09:35:39.179Z</time></trkpt><trkpt lat="44.9386254" lon="9.7757316"><ele>94.0</ele><time>2026-04-12T09:35:40.182Z</time></trkpt><trkpt lat="44.9386967" lon="9.7757445"><ele>93.85714285714286</ele><time>2026-04-12T09:35:41.194Z</time></trkpt><trkpt lat="44.9387631" lon="9.7757622"><ele>93.71428571428571</ele><time>2026-04-12T09:35:42.186Z</time></trkpt><trkpt lat="44.9388297" lon="9.7757815"><ele>93.57142857142858</ele><time>2026-04-12T09:35:43.181Z</time></trkpt><trkpt lat="44.9389" lon="9.7757976"><ele>93.42857142857143</ele><time>2026-04-12T09:35:44.189Z</time></trkpt><trkpt lat="44.9389693" lon="9.775818"><ele>93.28571428571429</ele><time>2026-04-12T09:35:45.185Z</time></trkpt><trkpt lat="44.9390362" lon="9.775837"><ele>93.14285714285715</ele><time>2026-04-12T09:35:46.176Z</time></trkpt><trkpt lat="44.9391031" lon="9.7758581"><ele>93.0</ele><time>2026-04-12T09:35:47.18Z</time></trkpt><trkpt lat="44.93917" lon="9.7758788"><ele>92.85714285714286</ele><time>2026-04-12T09:35:48.186Z</time></trkpt><trkpt lat="44.9392361" lon="9.775897"><ele>92.71428571428572</ele><time>2026-04-12T09:35:49.174Z</time></trkpt><trkpt lat="44.9393018" lon="9.7759141"><ele>92.57142857142858</ele><time>2026-04-12T09:35:50.197Z</time></trkpt><trkpt lat="44.9393679" lon="9.7759305"><ele>92.42857142857143</ele><time>2026-04-12T09:35:51.186Z</time></trkpt><trkpt lat="44.939433" lon="9.775951"><ele>92.28571428571428</ele><time>2026-04-12T09:35:52.178Z</time></trkpt><trkpt lat="44.9395051" lon="9.7759694"><ele>92.14285714285715</ele><time>2026-04-12T09:35:53.19Z</time></trkpt><trkpt lat="44.9395705" lon="9.7759859"><ele>92.0</ele><time>2026-04-12T09:35:54.188Z</time></trkpt><trkpt lat="44.9396377" lon="9.7760023"><ele>92.0</ele><time>2026-04-12T09:35:55.179Z</time></trkpt><trkpt lat="44.9397042" lon="9.7760168"><ele>92.0</ele><time>2026-04-12T09:35:56.176Z</time></trkpt><trkpt lat="44.9397765" lon="9.7760259"><ele>92.0</ele><time>2026-04-12T09:35:57.186Z</time></trkpt><trkpt lat="44.9398462" lon="9.7760375"><ele>92.0</ele><time>2026-04-12T09:35:58.199Z</time></trkpt><trkpt lat="44.9399155" lon="9.7760475"><ele>92.0</ele><time>2026-04-12T09:35:59.18Z</time></trkpt><trkpt lat="44.9399854" lon="9.7760533"><ele>92.0</ele><time>2026-04-12T09:36:00.183Z</time></trkpt><trkpt lat="44.9400585" lon="9.7760615"><ele>92.0</ele><time>2026-04-12T09:36:01.176Z</time></trkpt><trkpt lat="44.9401259" lon="9.77606"><ele>91.71428571428572</ele><time>2026-04-12T09:36:02.175Z</time></trkpt><trkpt lat="44.940195" lon="9.7760657"><ele>91.42857142857142</ele><time>2026-04-12T09:36:03.186Z</time></trkpt><trkpt lat="44.9402635" lon="9.7760751"><ele>91.14285714285714</ele><time>2026-04-12T09:36:04.184Z</time></trkpt><trkpt lat="44.9403318" lon="9.7760868"><ele>90.85714285714286</ele><time>2026-04-12T09:36:05.164Z</time></trkpt><trkpt lat="44.9403961" lon="9.7760938"><ele>90.57142857142858</ele><time>2026-04-12T09:36:06.178Z</time></trkpt><trkpt lat="44.9404597" lon="9.7760997"><ele>90.28571428571428</ele><time>2026-04-12T09:36:07.193Z</time></trkpt><trkpt lat="44.9405267" lon="9.7761123"><ele>90.0</ele><time>2026-04-12T09:36:08.189Z</time></trkpt><trkpt lat="44.9405959" lon="9.7761312"><ele>90.0</ele><time>2026-04-12T09:36:09.185Z</time></trkpt><trkpt lat="44.9406644" lon="9.776151"><ele>90.0</ele><time>2026-04-12T09:36:10.182Z</time></trkpt><trkpt lat="44.9407286" lon="9.7761779"><ele>90.0</ele><time>2026-04-12T09:36:11.161Z</time></trkpt><trkpt lat="44.9407966" lon="9.7762048"><ele>90.0</ele><time>2026-04-12T09:36:12.184Z</time></trkpt><trkpt lat="44.9408624" lon="9.7762267"><ele>90.0</ele><time>2026-04-12T09:36:13.181Z</time></trkpt><trkpt lat="44.9409326" lon="9.7762497"><ele>90.0</ele><time>2026-04-12T09:36:14.179Z</time></trkpt><trkpt lat="44.9409974" lon="9.7762764"><ele>90.0</ele><time>2026-04-12T09:36:15.179Z</time></trkpt><trkpt lat="44.9410623" lon="9.7763052"><ele>89.83333333333333</ele><time>2026-04-12T09:36:16.17Z</time></trkpt><trkpt lat="44.9411257" lon="9.7763313"><ele>89.66666666666667</ele><time>2026-04-12T09:36:17.198Z</time></trkpt><trkpt lat="44.9411935" lon="9.7763601"><ele>89.5</ele><time>2026-04-12T09:36:18.174Z</time></trkpt><trkpt lat="44.9412641" lon="9.7763826"><ele>89.33333333333334</ele><time>2026-04-12T09:36:19.184Z</time></trkpt><trkpt lat="44.9413294" lon="9.7764"><ele>89.16666666666667</ele><time>2026-04-12T09:36:20.183Z</time></trkpt><trkpt lat="44.9414529" lon="9.7764388"><ele>89.0</ele><time>2026-04-12T09:36:22.184Z</time></trkpt><trkpt lat="44.9415185" lon="9.7764527"><ele>89.0</ele><time>2026-04-12T09:36:23.181Z</time></trkpt><trkpt lat="44.9415837" lon="9.776472"><ele>89.0</ele><time>2026-04-12T09:36:24.177Z</time></trkpt><trkpt lat="44.9416532" lon="9.7764823"><ele>89.0</ele><time>2026-04-12T09:36:25.179Z</time></trkpt><trkpt lat="44.9417792" lon="9.7765095"><ele>89.0</ele><time>2026-04-12T09:36:27.185Z</time></trkpt><trkpt lat="44.9418418" lon="9.7765251"><ele>89.0</ele><time>2026-04-12T09:36:28.181Z</time></trkpt><trkpt lat="44.9419075" lon="9.7765426"><ele>89.0</ele><time>2026-04-12T09:36:29.176Z</time></trkpt><trkpt lat="44.9420363" lon="9.7765727"><ele>88.83333333333334</ele><time>2026-04-12T09:36:31.182Z</time></trkpt><trkpt lat="44.9421057" lon="9.77659"><ele>88.66666666666667</ele><time>2026-04-12T09:36:32.178Z</time></trkpt><trkpt lat="44.9421728" lon="9.7765998"><ele>88.5</ele><time>2026-04-12T09:36:33.182Z</time></trkpt><trkpt lat="44.9422439" lon="9.7766098"><ele>88.33333333333333</ele><time>2026-04-12T09:36:34.186Z</time></trkpt><trkpt lat="44.9423123" lon="9.7766186"><ele>88.16666666666666</ele><time>2026-04-12T09:36:35.174Z</time></trkpt><trkpt lat="44.9424424" lon="9.7766371"><ele>88.0</ele><time>2026-04-12T09:36:37.176Z</time></trkpt><trkpt lat="44.9425129" lon="9.7766427"><ele>88.14285714285714</ele><time>2026-04-12T09:36:38.184Z</time></trkpt><trkpt lat="44.9425783" lon="9.7766591"><ele>88.28571428571428</ele><time>2026-04-12T09:36:39.199Z</time></trkpt><trkpt lat="44.9426474" lon="9.7766785"><ele>88.42857142857142</ele><time>2026-04-12T09:36:40.186Z</time></trkpt><trkpt lat="44.9427201" lon="9.7767032"><ele>88.57142857142857</ele><time>2026-04-12T09:36:41.185Z</time></trkpt><trkpt lat="44.9427882" lon="9.7767265"><ele>88.71428571428571</ele><time>2026-04-12T09:36:42.185Z</time></trkpt><trkpt lat="44.9428552" lon="9.7767475"><ele>88.85714285714285</ele><time>2026-04-12T09:36:43.186Z</time></trkpt><trkpt lat="44.9429187" lon="9.7767697"><ele>89.0</ele><time>2026-04-12T09:36:44.162Z</time></trkpt><trkpt lat="44.9429868" lon="9.7767908"><ele>88.99999999999999</ele><time>2026-04-12T09:36:45.175Z</time></trkpt><trkpt lat="44.9430511" lon="9.7767997"><ele>89.0</ele><time>2026-04-12T09:36:46.189Z</time></trkpt><trkpt lat="44.9431189" lon="9.7768063"><ele>89.0</ele><time>2026-04-12T09:36:47.184Z</time></trkpt><trkpt lat="44.943183" lon="9.776819"><ele>89.0</ele><time>2026-04-12T09:36:48.183Z</time></trkpt><trkpt lat="44.9432475" lon="9.7768255"><ele>89.0</ele><time>2026-04-12T09:36:49.184Z</time></trkpt><trkpt lat="44.9433146" lon="9.776828"><ele>88.99999999999999</ele><time>2026-04-12T09:36:50.18Z</time></trkpt><trkpt lat="44.9433835" lon="9.776826"><ele>89.0</ele><time>2026-04-12T09:36:51.181Z</time></trkpt><trkpt lat="44.9434523" lon="9.7768186"><ele>88.99999999999999</ele><time>2026-04-12T09:36:52.183Z</time></trkpt><trkpt lat="44.9435257" lon="9.7768122"><ele>89.0</ele><time>2026-04-12T09:36:53.183Z</time></trkpt><trkpt lat="44.9435942" lon="9.776811"><ele>89.0</ele><time>2026-04-12T09:36:54.175Z</time></trkpt><trkpt lat="44.9436652" lon="9.7768169"><ele>89.0</ele><time>2026-04-12T09:36:55.18Z</time></trkpt><trkpt lat="44.9437356" lon="9.7768257"><ele>89.0</ele><time>2026-04-12T09:36:56.186Z</time></trkpt><trkpt lat="44.9437995" lon="9.7768548"><ele>88.99999999999999</ele><time>2026-04-12T09:36:57.185Z</time></trkpt><trkpt lat="44.9438611" lon="9.7768786"><ele>89.0</ele><time>2026-04-12T09:36:58.178Z</time></trkpt><trkpt lat="44.9439246" lon="9.7769068"><ele>88.85714285714285</ele><time>2026-04-12T09:36:59.182Z</time></trkpt><trkpt lat="44.9439899" lon="9.7769373"><ele>88.71428571428571</ele><time>2026-04-12T09:37:00.172Z</time></trkpt><trkpt lat="44.9440567" lon="9.7769656"><ele>88.57142857142857</ele><time>2026-04-12T09:37:01.184Z</time></trkpt><trkpt lat="44.9441176" lon="9.7769985"><ele>88.42857142857142</ele><time>2026-04-12T09:37:02.168Z</time></trkpt><trkpt lat="44.944183" lon="9.7770297"><ele>88.28571428571428</ele><time>2026-04-12T09:37:03.182Z</time></trkpt><trkpt lat="44.94425" lon="9.7770578"><ele>88.14285714285714</ele><time>2026-04-12T09:37:04.158Z</time></trkpt><trkpt lat="44.9443183" lon="9.777083"><ele>88.0</ele><time>2026-04-12T09:37:05.176Z</time></trkpt><trkpt lat="44.9443818" lon="9.7770939"><ele>88.0</ele><time>2026-04-12T09:37:06.171Z</time></trkpt><trkpt lat="44.9444465" lon="9.7770974"><ele>88.0</ele><time>2026-04-12T09:37:07.172Z</time></trkpt><trkpt lat="44.9445142" lon="9.7770902"><ele>88.0</ele><time>2026-04-12T09:37:08.186Z</time></trkpt><trkpt lat="44.9445807" lon="9.7770771"><ele>88.0</ele><time>2026-04-12T09:37:09.181Z</time></trkpt><trkpt lat="44.9446486" lon="9.7770598"><ele>88.0</ele><time>2026-04-12T09:37:10.179Z</time></trkpt><trkpt lat="44.9447685" lon="9.7770056"><ele>88.0</ele><time>2026-04-12T09:37:12.186Z</time></trkpt><trkpt lat="44.9448316" lon="9.7769772"><ele>88.0</ele><time>2026-04-12T09:37:13.188Z</time></trkpt><trkpt lat="44.9448935" lon="9.7769506"><ele>88.0</ele><time>2026-04-12T09:37:14.195Z</time></trkpt><trkpt lat="44.944963" lon="9.776931"><ele>88.0</ele><time>2026-04-12T09:37:15.177Z</time></trkpt><trkpt lat="44.9450302" lon="9.776928"><ele>88.0</ele><time>2026-04-12T09:37:16.188Z</time></trkpt><trkpt lat="44.9450961" lon="9.7769239"><ele>88.0</ele><time>2026-04-12T09:37:17.193Z</time></trkpt><trkpt lat="44.945163" lon="9.7769175"><ele>88.0</ele><time>2026-04-12T09:37:18.184Z</time></trkpt><trkpt lat="44.94523" lon="9.776919"><ele>88.0</ele><time>2026-04-12T09:37:19.188Z</time></trkpt><trkpt lat="44.9452996" lon="9.7769251"><ele>88.0</ele><time>2026-04-12T09:37:20.192Z</time></trkpt><trkpt lat="44.945364" lon="9.7769304"><ele>88.0</ele><time>2026-04-12T09:37:21.18Z</time></trkpt><trkpt lat="44.9454335" lon="9.7769428"><ele>88.0</ele><time>2026-04-12T09:37:22.183Z</time></trkpt><trkpt lat="44.9454986" lon="9.7769543"><ele>88.0</ele><time>2026-04-12T09:37:23.188Z</time></trkpt><trkpt lat="44.9455678" lon="9.7769708"><ele>88.0</ele><time>2026-04-12T09:37:24.18Z</time></trkpt><trkpt lat="44.9456351" lon="9.7769978"><ele>88.0</ele><time>2026-04-12T09:37:25.197Z</time></trkpt><trkpt lat="44.945699" lon="9.7770275"><ele>88.0</ele><time>2026-04-12T09:37:26.184Z</time></trkpt><trkpt lat="44.9457605" lon="9.7770656"><ele>88.0</ele><time>2026-04-12T09:37:27.19Z</time></trkpt><trkpt lat="44.9458317" lon="9.7770941"><ele>88.0</ele><time>2026-04-12T09:37:28.191Z</time></trkpt><trkpt lat="44.9458952" lon="9.7771259"><ele>88.0</ele><time>2026-04-12T09:37:29.193Z</time></trkpt><trkpt lat="44.9459529" lon="9.7771645"><ele>88.0</ele><time>2026-04-12T09:37:30.191Z</time></trkpt><trkpt lat="44.9460139" lon="9.7772059"><ele>88.0</ele><time>2026-04-12T09:37:31.182Z</time></trkpt><trkpt lat="44.9460753" lon="9.7772513"><ele>88.0</ele><time>2026-04-12T09:37:32.172Z</time></trkpt><trkpt lat="44.9461359" lon="9.7772937"><ele>88.0</ele><time>2026-04-12T09:37:33.193Z</time></trkpt><trkpt lat="44.9461953" lon="9.7773378"><ele>88.0</ele><time>2026-04-12T09:37:34.162Z</time></trkpt><trkpt lat="44.9462549" lon="9.7773775"><ele>88.0</ele><time>2026-04-12T09:37:35.178Z</time></trkpt><trkpt lat="44.9463176" lon="9.7774113"><ele>88.0</ele><time>2026-04-12T09:37:36.186Z</time></trkpt><trkpt lat="44.9463811" lon="9.7774441"><ele>88.0</ele><time>2026-04-12T09:37:37.159Z</time></trkpt><trkpt lat="44.9464483" lon="9.7774736"><ele>88.0</ele><time>2026-04-12T09:37:38.179Z</time></trkpt><trkpt lat="44.9465153" lon="9.777507"><ele>88.0</ele><time>2026-04-12T09:37:39.188Z</time></trkpt><trkpt lat="44.9465812" lon="9.7775409"><ele>88.0</ele><time>2026-04-12T09:37:40.177Z</time></trkpt><trkpt lat="44.9466461" lon="9.7775754"><ele>87.85714285714286</ele><time>2026-04-12T09:37:41.183Z</time></trkpt><trkpt lat="44.9467121" lon="9.777601"><ele>87.71428571428571</ele><time>2026-04-12T09:37:42.18Z</time></trkpt><trkpt lat="44.9467791" lon="9.7776282"><ele>87.57142857142857</ele><time>2026-04-12T09:37:43.154Z</time></trkpt><trkpt lat="44.9468426" lon="9.7776607"><ele>87.42857142857143</ele><time>2026-04-12T09:37:44.185Z</time></trkpt><trkpt lat="44.9469076" lon="9.7776945"><ele>87.28571428571429</ele><time>2026-04-12T09:37:45.181Z</time></trkpt><trkpt lat="44.946969" lon="9.7777283"><ele>87.14285714285714</ele><time>2026-04-12T09:37:46.194Z</time></trkpt><trkpt lat="44.9470302" lon="9.7777636"><ele>87.0</ele><time>2026-04-12T09:37:47.185Z</time></trkpt><trkpt lat="44.9470953" lon="9.7777964"><ele>86.85714285714286</ele><time>2026-04-12T09:37:48.183Z</time></trkpt><trkpt lat="44.9471575" lon="9.7778247"><ele>86.71428571428572</ele><time>2026-04-12T09:37:49.191Z</time></trkpt><trkpt lat="44.9472216" lon="9.7778527"><ele>86.57142857142858</ele><time>2026-04-12T09:37:50.187Z</time></trkpt><trkpt lat="44.9472819" lon="9.7778832"><ele>86.42857142857143</ele><time>2026-04-12T09:37:51.184Z</time></trkpt><trkpt lat="44.9473456" lon="9.777907"><ele>86.28571428571429</ele><time>2026-04-12T09:37:52.184Z</time></trkpt><trkpt lat="44.9474101" lon="9.7779361"><ele>86.14285714285715</ele><time>2026-04-12T09:37:53.193Z</time></trkpt><trkpt lat="44.9474707" lon="9.7779702"><ele>86.0</ele><time>2026-04-12T09:37:54.192Z</time></trkpt><trkpt lat="44.9475321" lon="9.7780054"><ele>85.6</ele><time>2026-04-12T09:37:55.187Z</time></trkpt><trkpt lat="44.9475954" lon="9.7780371"><ele>85.19999999999999</ele><time>2026-04-12T09:37:56.177Z</time></trkpt><trkpt lat="44.9476572" lon="9.7780717"><ele>84.80000000000001</ele><time>2026-04-12T09:37:57.181Z</time></trkpt><trkpt lat="44.9477742" lon="9.778121"><ele>84.4</ele><time>2026-04-12T09:37:59.178Z</time></trkpt><trkpt lat="44.9478839" lon="9.7781728"><ele>84.0</ele><time>2026-04-12T09:38:01.187Z</time></trkpt><trkpt lat="44.947995" lon="9.7782277"><ele>84.0</ele><time>2026-04-12T09:38:03.179Z</time></trkpt><trkpt lat="44.9480927" lon="9.7782867"><ele>84.0</ele><time>2026-04-12T09:38:05.182Z</time></trkpt><trkpt lat="44.9481604" lon="9.778391"><ele>84.0</ele><time>2026-04-12T09:38:07.188Z</time></trkpt><trkpt lat="44.9481499" lon="9.7785359"><ele>84.0</ele><time>2026-04-12T09:38:09.176Z</time></trkpt><trkpt lat="44.9481224" lon="9.7787074"><ele>84.0</ele><time>2026-04-12T09:38:11.155Z</time></trkpt><trkpt lat="44.9481014" lon="9.7788689"><ele>84.25</ele><time>2026-04-12T09:38:13.177Z</time></trkpt><trkpt lat="44.9480795" lon="9.7790317"><ele>84.5</ele><time>2026-04-12T09:38:15.178Z</time></trkpt><trkpt lat="44.9480598" lon="9.7791909"><ele>84.75</ele><time>2026-04-12T09:38:17.187Z</time></trkpt><trkpt lat="44.9480392" lon="9.7793505"><ele>85.0</ele><time>2026-04-12T09:38:19.166Z</time></trkpt><trkpt lat="44.9480249" lon="9.7795125"><ele>85.0</ele><time>2026-04-12T09:38:21.202Z</time></trkpt><trkpt lat="44.9480021" lon="9.7796742"><ele>85.0</ele><time>2026-04-12T09:38:23.189Z</time></trkpt><trkpt lat="44.9479828" lon="9.7798378"><ele>85.0</ele><time>2026-04-12T09:38:25.186Z</time></trkpt><trkpt lat="44.9479627" lon="9.7800028"><ele>85.0</ele><time>2026-04-12T09:38:27.188Z</time></trkpt><trkpt lat="44.9479458" lon="9.7801721"><ele>84.5</ele><time>2026-04-12T09:38:29.189Z</time></trkpt><trkpt lat="44.9479292" lon="9.7803291"><ele>84.0</ele><time>2026-04-12T09:38:31.187Z</time></trkpt><trkpt lat="44.9479103" lon="9.7804869"><ele>83.5</ele><time>2026-04-12T09:38:33.182Z</time></trkpt><trkpt lat="44.9478871" lon="9.7806459"><ele>83.0</ele><time>2026-04-12T09:38:35.183Z</time></trkpt><trkpt lat="44.9478669" lon="9.7808141"><ele>83.0</ele><time>2026-04-12T09:38:37.181Z</time></trkpt><trkpt lat="44.9478449" lon="9.780981"><ele>83.0</ele><time>2026-04-12T09:38:39.191Z</time></trkpt><trkpt lat="44.9478211" lon="9.7811413"><ele>83.0</ele><time>2026-04-12T09:38:41.171Z</time></trkpt><trkpt lat="44.9478031" lon="9.7813063"><ele>83.0</ele><time>2026-04-12T09:38:43.184Z</time></trkpt><trkpt lat="44.9477859" lon="9.7814668"><ele>83.0</ele><time>2026-04-12T09:38:45.197Z</time></trkpt><trkpt lat="44.9477711" lon="9.7816209"><ele>83.0</ele><time>2026-04-12T09:38:47.185Z</time></trkpt><trkpt lat="44.9477582" lon="9.78176"><ele>83.0</ele><time>2026-04-12T09:38:49.186Z</time></trkpt><trkpt lat="44.9477386" lon="9.7818988"><ele>83.0</ele><time>2026-04-12T09:38:51.187Z</time></trkpt><trkpt lat="44.9477243" lon="9.7820299"><ele>83.0</ele><time>2026-04-12T09:38:53.184Z</time></trkpt><trkpt lat="44.9477559" lon="9.7821599"><ele>83.2</ele><time>2026-04-12T09:38:55.189Z</time></trkpt><trkpt lat="44.947854" lon="9.7822268"><ele>83.4</ele><time>2026-04-12T09:38:57.176Z</time></trkpt><trkpt lat="44.947952" lon="9.7822643"><ele>83.60000000000001</ele><time>2026-04-12T09:38:59.18Z</time></trkpt><trkpt lat="44.9480546" lon="9.7823168"><ele>83.80000000000001</ele><time>2026-04-12T09:39:01.182Z</time></trkpt><trkpt lat="44.9481576" lon="9.7823624"><ele>84.0</ele><time>2026-04-12T09:39:03.185Z</time></trkpt><trkpt lat="44.9482624" lon="9.7824054"><ele>84.0</ele><time>2026-04-12T09:39:05.183Z</time></trkpt><trkpt lat="44.9483702" lon="9.7824491"><ele>84.0</ele><time>2026-04-12T09:39:07.177Z</time></trkpt><trkpt lat="44.9484803" lon="9.7824933"><ele>84.0</ele><time>2026-04-12T09:39:09.184Z</time></trkpt><trkpt lat="44.9485901" lon="9.7825292"><ele>84.0</ele><time>2026-04-12T09:39:11.187Z</time></trkpt><trkpt lat="44.9486969" lon="9.7825678"><ele>83.75</ele><time>2026-04-12T09:39:13.18Z</time></trkpt><trkpt lat="44.9488108" lon="9.7826063"><ele>83.5</ele><time>2026-04-12T09:39:15.195Z</time></trkpt><trkpt lat="44.9489221" lon="9.7826458"><ele>83.25</ele><time>2026-04-12T09:39:17.179Z</time></trkpt><trkpt lat="44.9490304" lon="9.7826873"><ele>83.0</ele><time>2026-04-12T09:39:19.182Z</time></trkpt><trkpt lat="44.9491363" lon="9.7827268"><ele>83.0</ele><time>2026-04-12T09:39:21.18Z</time></trkpt><trkpt lat="44.9492441" lon="9.7827722"><ele>83.0</ele><time>2026-04-12T09:39:23.188Z</time></trkpt><trkpt lat="44.9493538" lon="9.7828191"><ele>83.0</ele><time>2026-04-12T09:39:25.185Z</time></trkpt><trkpt lat="44.9494609" lon="9.7828618"><ele>83.0</ele><time>2026-04-12T09:39:27.19Z</time></trkpt><trkpt lat="44.9495624" lon="9.7829061"><ele>83.0</ele><time>2026-04-12T09:39:29.19Z</time></trkpt><trkpt lat="44.9496682" lon="9.7829519"><ele>83.0</ele><time>2026-04-12T09:39:31.187Z</time></trkpt><trkpt lat="44.9497685" lon="9.7829927"><ele>83.0</ele><time>2026-04-12T09:39:33.188Z</time></trkpt><trkpt lat="44.9498736" lon="9.7830301"><ele>83.0</ele><time>2026-04-12T09:39:35.178Z</time></trkpt><trkpt lat="44.9499716" lon="9.7830694"><ele>83.0</ele><time>2026-04-12T09:39:37.192Z</time></trkpt><trkpt lat="44.9500857" lon="9.7831034"><ele>83.0</ele><time>2026-04-12T09:39:39.182Z</time></trkpt><trkpt lat="44.9501889" lon="9.7831415"><ele>83.0</ele><time>2026-04-12T09:39:41.19Z</time></trkpt><trkpt lat="44.9502961" lon="9.7831758"><ele>83.0</ele><time>2026-04-12T09:39:43.182Z</time></trkpt><trkpt lat="44.950404" lon="9.7832046"><ele>83.0</ele><time>2026-04-12T09:39:45.187Z</time></trkpt><trkpt lat="44.9505147" lon="9.7832378"><ele>83.0</ele><time>2026-04-12T09:39:47.18Z</time></trkpt><trkpt lat="44.9506211" lon="9.7832633"><ele>83.0</ele><time>2026-04-12T09:39:49.169Z</time></trkpt><trkpt lat="44.9507321" lon="9.7832763"><ele>83.0</ele><time>2026-04-12T09:39:51.184Z</time></trkpt><trkpt lat="44.9508406" lon="9.7832912"><ele>83.0</ele><time>2026-04-12T09:39:53.184Z</time></trkpt><trkpt lat="44.9509553" lon="9.7833057"><ele>83.0</ele><time>2026-04-12T09:39:55.187Z</time></trkpt><trkpt lat="44.9510603" lon="9.7833172"><ele>83.0</ele><time>2026-04-12T09:39:57.182Z</time></trkpt><trkpt lat="44.9511629" lon="9.7833351"><ele>83.0</ele><time>2026-04-12T09:39:59.184Z</time></trkpt><trkpt lat="44.9512717" lon="9.7833349"><ele>83.25</ele><time>2026-04-12T09:40:01.182Z</time></trkpt><trkpt lat="44.9513829" lon="9.7833366"><ele>83.5</ele><time>2026-04-12T09:40:03.19Z</time></trkpt><trkpt lat="44.9514994" lon="9.783342"><ele>83.75</ele><time>2026-04-12T09:40:05.188Z</time></trkpt><trkpt lat="44.9516145" lon="9.7833565"><ele>84.0</ele><time>2026-04-12T09:40:07.181Z</time></trkpt><trkpt lat="44.9517223" lon="9.7833667"><ele>83.4</ele><time>2026-04-12T09:40:09.183Z</time></trkpt><trkpt lat="44.9518326" lon="9.7833721"><ele>82.80000000000001</ele><time>2026-04-12T09:40:11.21Z</time></trkpt><trkpt lat="44.9519388" lon="9.7834019"><ele>82.19999999999999</ele><time>2026-04-12T09:40:13.159Z</time></trkpt><trkpt lat="44.9520536" lon="9.7834383"><ele>81.6</ele><time>2026-04-12T09:40:15.183Z</time></trkpt><trkpt lat="44.9521617" lon="9.7834767"><ele>81.0</ele><time>2026-04-12T09:40:17.17Z</time></trkpt><trkpt lat="44.95227" lon="9.7835031"><ele>81.0</ele><time>2026-04-12T09:40:19.181Z</time></trkpt><trkpt lat="44.9523827" lon="9.7835256"><ele>81.0</ele><time>2026-04-12T09:40:21.186Z</time></trkpt><trkpt lat="44.9524945" lon="9.7835507"><ele>81.0</ele><time>2026-04-12T09:40:23.182Z</time></trkpt><trkpt lat="44.9526009" lon="9.7835744"><ele>81.0</ele><time>2026-04-12T09:40:25.188Z</time></trkpt><trkpt lat="44.95271" lon="9.7836012"><ele>81.0</ele><time>2026-04-12T09:40:27.189Z</time></trkpt><trkpt lat="44.9528171" lon="9.7836274"><ele>81.0</ele><time>2026-04-12T09:40:29.164Z</time></trkpt><trkpt lat="44.9529255" lon="9.7836511"><ele>81.0</ele><time>2026-04-12T09:40:31.194Z</time></trkpt><trkpt lat="44.9530379" lon="9.7836722"><ele>81.0</ele><time>2026-04-12T09:40:33.176Z</time></trkpt><trkpt lat="44.9531487" lon="9.7836984"><ele>81.0</ele><time>2026-04-12T09:40:35.184Z</time></trkpt><trkpt lat="44.9532581" lon="9.7837279"><ele>81.0</ele><time>2026-04-12T09:40:37.187Z</time></trkpt><trkpt lat="44.9533675" lon="9.7837479"><ele>81.0</ele><time>2026-04-12T09:40:39.184Z</time></trkpt><trkpt lat="44.9534707" lon="9.7837677"><ele>81.0</ele><time>2026-04-12T09:40:41.187Z</time></trkpt><trkpt lat="44.9535649" lon="9.7837899"><ele>81.0</ele><time>2026-04-12T09:40:43.182Z</time></trkpt><trkpt lat="44.9536517" lon="9.7837983"><ele>81.0</ele><time>2026-04-12T09:40:45.17Z</time></trkpt><trkpt lat="44.9537355" lon="9.7838165"><ele>81.0</ele><time>2026-04-12T09:40:47.183Z</time></trkpt><trkpt lat="44.9538379" lon="9.7838429"><ele>81.0</ele><time>2026-04-12T09:40:49.189Z</time></trkpt><trkpt lat="44.9539413" lon="9.7838574"><ele>81.0</ele><time>2026-04-12T09:40:51.182Z</time></trkpt><trkpt lat="44.9540398" lon="9.7838803"><ele>81.0</ele><time>2026-04-12T09:40:53.19Z</time></trkpt><trkpt lat="44.9541408" lon="9.7839041"><ele>81.0</ele><time>2026-04-12T09:40:55.194Z</time></trkpt><trkpt lat="44.9542519" lon="9.783938"><ele>81.0</ele><time>2026-04-12T09:40:57.194Z</time></trkpt><trkpt lat="44.9543627" lon="9.7839537"><ele>81.0</ele><time>2026-04-12T09:40:59.171Z</time></trkpt><trkpt lat="44.9544669" lon="9.7839717"><ele>81.0</ele><time>2026-04-12T09:41:01.179Z</time></trkpt><trkpt lat="44.9545726" lon="9.783998"><ele>81.0</ele><time>2026-04-12T09:41:03.185Z</time></trkpt><trkpt lat="44.954671" lon="9.78402"><ele>81.0</ele><time>2026-04-12T09:41:05.182Z</time></trkpt><trkpt lat="44.9547648" lon="9.7840447"><ele>81.0</ele><time>2026-04-12T09:41:07.174Z</time></trkpt><trkpt lat="44.95486" lon="9.784058"><ele>81.0</ele><time>2026-04-12T09:41:09.178Z</time></trkpt><trkpt lat="44.9549419" lon="9.7840845"><ele>81.0</ele><time>2026-04-12T09:41:11.189Z</time></trkpt><trkpt lat="44.9550157" lon="9.784043"><ele>81.0</ele><time>2026-04-12T09:41:13.175Z</time></trkpt><trkpt lat="44.9550552" lon="9.7839185"><ele>81.0</ele><time>2026-04-12T09:41:15.174Z</time></trkpt><trkpt lat="44.9550794" lon="9.7837906"><ele>81.0</ele><time>2026-04-12T09:41:17.188Z</time></trkpt><trkpt lat="44.9551158" lon="9.7836324"><ele>81.0</ele><time>2026-04-12T09:41:19.181Z</time></trkpt><trkpt lat="44.9551477" lon="9.7834732"><ele>81.0</ele><time>2026-04-12T09:41:21.185Z</time></trkpt><trkpt lat="44.9551791" lon="9.783314"><ele>81.0</ele><time>2026-04-12T09:41:23.187Z</time></trkpt><trkpt lat="44.955201" lon="9.7831561"><ele>81.0</ele><time>2026-04-12T09:41:25.184Z</time></trkpt><trkpt lat="44.955234" lon="9.7829934"><ele>81.0</ele><time>2026-04-12T09:41:27.175Z</time></trkpt><trkpt lat="44.9552639" lon="9.7828277"><ele>81.0</ele><time>2026-04-12T09:41:29.182Z</time></trkpt><trkpt lat="44.955283" lon="9.7827402"><ele>81.0</ele><time>2026-04-12T09:41:30.19Z</time></trkpt><trkpt lat="44.9553008" lon="9.7826547"><ele>81.0</ele><time>2026-04-12T09:41:31.189Z</time></trkpt><trkpt lat="44.9553151" lon="9.7825646"><ele>81.0</ele><time>2026-04-12T09:41:32.17Z</time></trkpt><trkpt lat="44.9553435" lon="9.782394"><ele>81.0</ele><time>2026-04-12T09:41:34.186Z</time></trkpt><trkpt lat="44.9553706" lon="9.7822247"><ele>81.0</ele><time>2026-04-12T09:41:36.184Z</time></trkpt><trkpt lat="44.9554103" lon="9.7820495"><ele>81.0</ele><time>2026-04-12T09:41:38.181Z</time></trkpt><trkpt lat="44.9554278" lon="9.7819598"><ele>81.0</ele><time>2026-04-12T09:41:39.188Z</time></trkpt><trkpt lat="44.955461" lon="9.7817818"><ele>81.0</ele><time>2026-04-12T09:41:41.178Z</time></trkpt><trkpt lat="44.9554965" lon="9.7816044"><ele>81.0</ele><time>2026-04-12T09:41:43.168Z</time></trkpt><trkpt lat="44.9555257" lon="9.781433"><ele>81.0</ele><time>2026-04-12T09:41:45.184Z</time></trkpt><trkpt lat="44.9555357" lon="9.781342"><ele>81.0</ele><time>2026-04-12T09:41:46.177Z</time></trkpt><trkpt lat="44.9555518" lon="9.7812508"><ele>81.0</ele><time>2026-04-12T09:41:47.176Z</time></trkpt><trkpt lat="44.9555638" lon="9.7811582"><ele>81.0</ele><time>2026-04-12T09:41:48.192Z</time></trkpt><trkpt lat="44.9555797" lon="9.7810709"><ele>81.0</ele><time>2026-04-12T09:41:49.18Z</time></trkpt><trkpt lat="44.9555961" lon="9.7809795"><ele>81.14285714285714</ele><time>2026-04-12T09:41:50.185Z</time></trkpt><trkpt lat="44.9556095" lon="9.7808839"><ele>81.28571428571428</ele><time>2026-04-12T09:41:51.18Z</time></trkpt><trkpt lat="44.9556276" lon="9.7807852"><ele>81.42857142857142</ele><time>2026-04-12T09:41:52.18Z</time></trkpt><trkpt lat="44.9556467" lon="9.7806895"><ele>81.57142857142857</ele><time>2026-04-12T09:41:53.184Z</time></trkpt><trkpt lat="44.9556649" lon="9.7806012"><ele>81.71428571428571</ele><time>2026-04-12T09:41:54.182Z</time></trkpt><trkpt lat="44.9556838" lon="9.7805135"><ele>81.85714285714285</ele><time>2026-04-12T09:41:55.179Z</time></trkpt><trkpt lat="44.9557078" lon="9.7804311"><ele>82.0</ele><time>2026-04-12T09:41:56.184Z</time></trkpt><trkpt lat="44.9557323" lon="9.7803448"><ele>82.0</ele><time>2026-04-12T09:41:57.181Z</time></trkpt><trkpt lat="44.9557907" lon="9.7801837"><ele>82.0</ele><time>2026-04-12T09:41:59.175Z</time></trkpt><trkpt lat="44.9558292" lon="9.7801126"><ele>82.0</ele><time>2026-04-12T09:42:00.181Z</time></trkpt><trkpt lat="44.9559292" lon="9.7800023"><ele>82.0</ele><time>2026-04-12T09:42:02.183Z</time></trkpt><trkpt lat="44.9559912" lon="9.7799637"><ele>82.0</ele><time>2026-04-12T09:42:03.182Z</time></trkpt><trkpt lat="44.9560612" lon="9.7799415"><ele>81.83333333333333</ele><time>2026-04-12T09:42:04.18Z</time></trkpt><trkpt lat="44.9561262" lon="9.7799426"><ele>81.66666666666666</ele><time>2026-04-12T09:42:05.179Z</time></trkpt><trkpt lat="44.9561879" lon="9.7799619"><ele>81.5</ele><time>2026-04-12T09:42:06.188Z</time></trkpt><trkpt lat="44.9562495" lon="9.7799837"><ele>81.33333333333333</ele><time>2026-04-12T09:42:07.188Z</time></trkpt><trkpt lat="44.9563735" lon="9.7800268"><ele>81.16666666666667</ele><time>2026-04-12T09:42:09.184Z</time></trkpt><trkpt lat="44.9564364" lon="9.7800514"><ele>81.0</ele><time>2026-04-12T09:42:10.191Z</time></trkpt><trkpt lat="44.9565035" lon="9.7800696"><ele>81.0</ele><time>2026-04-12T09:42:11.18Z</time></trkpt><trkpt lat="44.9565685" lon="9.7800868"><ele>81.0</ele><time>2026-04-12T09:42:12.18Z</time></trkpt><trkpt lat="44.9566356" lon="9.7801035"><ele>81.0</ele><time>2026-04-12T09:42:13.166Z</time></trkpt><trkpt lat="44.9567004" lon="9.7801168"><ele>81.0</ele><time>2026-04-12T09:42:14.192Z</time></trkpt><trkpt lat="44.9567694" lon="9.7801334"><ele>81.0</ele><time>2026-04-12T09:42:15.193Z</time></trkpt><trkpt lat="44.9568337" lon="9.7801511"><ele>81.0</ele><time>2026-04-12T09:42:16.182Z</time></trkpt><trkpt lat="44.956899" lon="9.7801588"><ele>81.0</ele><time>2026-04-12T09:42:17.188Z</time></trkpt><trkpt lat="44.9569667" lon="9.7801781"><ele>81.0</ele><time>2026-04-12T09:42:18.169Z</time></trkpt><trkpt lat="44.9570306" lon="9.7801913"><ele>81.0</ele><time>2026-04-12T09:42:19.181Z</time></trkpt><trkpt lat="44.9570945" lon="9.7802023"><ele>81.0</ele><time>2026-04-12T09:42:20.17Z</time></trkpt><trkpt lat="44.9571588" lon="9.7802142"><ele>81.0</ele><time>2026-04-12T09:42:21.188Z</time></trkpt><trkpt lat="44.9572263" lon="9.7802263"><ele>81.0</ele><time>2026-04-12T09:42:22.185Z</time></trkpt><trkpt lat="44.9572956" lon="9.7802397"><ele>81.0</ele><time>2026-04-12T09:42:23.188Z</time></trkpt><trkpt lat="44.9573653" lon="9.780255"><ele>81.0</ele><time>2026-04-12T09:42:24.17Z</time></trkpt><trkpt lat="44.9574321" lon="9.7802705"><ele>81.0</ele><time>2026-04-12T09:42:25.184Z</time></trkpt><trkpt lat="44.9574982" lon="9.7802827"><ele>81.0</ele><time>2026-04-12T09:42:26.181Z</time></trkpt><trkpt lat="44.9575631" lon="9.7802968"><ele>81.0</ele><time>2026-04-12T09:42:27.181Z</time></trkpt><trkpt lat="44.9576269" lon="9.7803149"><ele>81.0</ele><time>2026-04-12T09:42:28.16Z</time></trkpt><trkpt lat="44.9576897" lon="9.7803326"><ele>81.0</ele><time>2026-04-12T09:42:29.188Z</time></trkpt><trkpt lat="44.9577527" lon="9.7803482"><ele>81.0</ele><time>2026-04-12T09:42:30.17Z</time></trkpt><trkpt lat="44.9578187" lon="9.7803702"><ele>81.0</ele><time>2026-04-12T09:42:31.18Z</time></trkpt><trkpt lat="44.9578813" lon="9.7803842"><ele>80.6</ele><time>2026-04-12T09:42:32.183Z</time></trkpt><trkpt lat="44.9579468" lon="9.7803959"><ele>80.19999999999999</ele><time>2026-04-12T09:42:33.184Z</time></trkpt><trkpt lat="44.9580691" lon="9.7804285"><ele>79.80000000000001</ele><time>2026-04-12T09:42:35.179Z</time></trkpt><trkpt lat="44.9581959" lon="9.7804664"><ele>79.4</ele><time>2026-04-12T09:42:37.176Z</time></trkpt><trkpt lat="44.958258" lon="9.7804865"><ele>79.0</ele><time>2026-04-12T09:42:38.179Z</time></trkpt><trkpt lat="44.9583238" lon="9.7805039"><ele>78.83333333333333</ele><time>2026-04-12T09:42:39.188Z</time></trkpt><trkpt lat="44.9584496" lon="9.7805447"><ele>78.66666666666666</ele><time>2026-04-12T09:42:41.184Z</time></trkpt><trkpt lat="44.9585169" lon="9.7805579"><ele>78.5</ele><time>2026-04-12T09:42:42.18Z</time></trkpt><trkpt lat="44.9585817" lon="9.7805753"><ele>78.33333333333333</ele><time>2026-04-12T09:42:43.19Z</time></trkpt><trkpt lat="44.9586452" lon="9.7805972"><ele>78.16666666666667</ele><time>2026-04-12T09:42:44.182Z</time></trkpt><trkpt lat="44.958709" lon="9.7806136"><ele>78.0</ele><time>2026-04-12T09:42:45.179Z</time></trkpt><trkpt lat="44.9587726" lon="9.7806272"><ele>78.0</ele><time>2026-04-12T09:42:46.164Z</time></trkpt><trkpt lat="44.9588389" lon="9.7806478"><ele>78.0</ele><time>2026-04-12T09:42:47.189Z</time></trkpt><trkpt lat="44.9589042" lon="9.7806605"><ele>78.0</ele><time>2026-04-12T09:42:48.189Z</time></trkpt><trkpt lat="44.9589736" lon="9.780669"><ele>78.0</ele><time>2026-04-12T09:42:49.182Z</time></trkpt><trkpt lat="44.9590403" lon="9.7806848"><ele>78.0</ele><time>2026-04-12T09:42:50.185Z</time></trkpt><trkpt lat="44.9591093" lon="9.7807045"><ele>78.0</ele><time>2026-04-12T09:42:51.176Z</time></trkpt><trkpt lat="44.9591786" lon="9.7807184"><ele>78.0</ele><time>2026-04-12T09:42:52.18Z</time></trkpt><trkpt lat="44.9592415" lon="9.7807333"><ele>78.28571428571429</ele><time>2026-04-12T09:42:53.181Z</time></trkpt><trkpt lat="44.9593667" lon="9.7807658"><ele>78.57142857142857</ele><time>2026-04-12T09:42:55.17Z</time></trkpt><trkpt lat="44.9594305" lon="9.7807812"><ele>78.85714285714286</ele><time>2026-04-12T09:42:56.183Z</time></trkpt><trkpt lat="44.9594921" lon="9.7808008"><ele>79.14285714285714</ele><time>2026-04-12T09:42:57.184Z</time></trkpt><trkpt lat="44.9595562" lon="9.7808185"><ele>79.42857142857143</ele><time>2026-04-12T09:42:58.186Z</time></trkpt><trkpt lat="44.9596182" lon="9.7808341"><ele>79.71428571428571</ele><time>2026-04-12T09:42:59.152Z</time></trkpt><trkpt lat="44.9596828" lon="9.780848"><ele>80.0</ele><time>2026-04-12T09:43:00.182Z</time></trkpt><trkpt lat="44.9597471" lon="9.7808618"><ele>80.0</ele><time>2026-04-12T09:43:01.187Z</time></trkpt><trkpt lat="44.9598125" lon="9.780884"><ele>80.0</ele><time>2026-04-12T09:43:02.184Z</time></trkpt><trkpt lat="44.9598767" lon="9.7808976"><ele>80.0</ele><time>2026-04-12T09:43:03.186Z</time></trkpt><trkpt lat="44.9600006" lon="9.7809338"><ele>80.0</ele><time>2026-04-12T09:43:05.181Z</time></trkpt><trkpt lat="44.9600651" lon="9.7809483"><ele>80.0</ele><time>2026-04-12T09:43:06.184Z</time></trkpt><trkpt lat="44.9601271" lon="9.7809639"><ele>80.0</ele><time>2026-04-12T09:43:07.169Z</time></trkpt><trkpt lat="44.9602507" lon="9.7809917"><ele>79.83333333333334</ele><time>2026-04-12T09:43:09.183Z</time></trkpt><trkpt lat="44.9603127" lon="9.7810096"><ele>79.66666666666667</ele><time>2026-04-12T09:43:10.179Z</time></trkpt><trkpt lat="44.9603752" lon="9.7810277"><ele>79.5</ele><time>2026-04-12T09:43:11.184Z</time></trkpt><trkpt lat="44.9604384" lon="9.7810378"><ele>79.33333333333333</ele><time>2026-04-12T09:43:12.179Z</time></trkpt><trkpt lat="44.9605017" lon="9.7810561"><ele>79.16666666666666</ele><time>2026-04-12T09:43:13.186Z</time></trkpt><trkpt lat="44.9606261" lon="9.7810767"><ele>79.0</ele><time>2026-04-12T09:43:15.19Z</time></trkpt><trkpt lat="44.9607522" lon="9.7810965"><ele>78.4</ele><time>2026-04-12T09:43:17.151Z</time></trkpt><trkpt lat="44.9608725" lon="9.7811239"><ele>77.80000000000001</ele><time>2026-04-12T09:43:19.145Z</time></trkpt><trkpt lat="44.960997" lon="9.7811473"><ele>77.19999999999999</ele><time>2026-04-12T09:43:21.186Z</time></trkpt><trkpt lat="44.96106" lon="9.7811563"><ele>76.6</ele><time>2026-04-12T09:43:22.177Z</time></trkpt><trkpt lat="44.9611259" lon="9.7811685"><ele>76.0</ele><time>2026-04-12T09:43:23.197Z</time></trkpt><trkpt lat="44.9612498" lon="9.7811879"><ele>76.0</ele><time>2026-04-12T09:43:25.179Z</time></trkpt><trkpt lat="44.9613122" lon="9.7812001"><ele>76.0</ele><time>2026-04-12T09:43:26.188Z</time></trkpt><trkpt lat="44.9614357" lon="9.7812294"><ele>76.0</ele><time>2026-04-12T09:43:28.185Z</time></trkpt><trkpt lat="44.9614979" lon="9.7812482"><ele>76.0</ele><time>2026-04-12T09:43:29.189Z</time></trkpt><trkpt lat="44.9615624" lon="9.7812617"><ele>76.0</ele><time>2026-04-12T09:43:30.183Z</time></trkpt><trkpt lat="44.961627" lon="9.781271"><ele>76.0</ele><time>2026-04-12T09:43:31.187Z</time></trkpt><trkpt lat="44.9617526" lon="9.7813009"><ele>76.0</ele><time>2026-04-12T09:43:33.184Z</time></trkpt><trkpt lat="44.9618173" lon="9.7813129"><ele>76.0</ele><time>2026-04-12T09:43:34.184Z</time></trkpt><trkpt lat="44.9618803" lon="9.7813227"><ele>76.0</ele><time>2026-04-12T09:43:35.173Z</time></trkpt><trkpt lat="44.9620042" lon="9.7813447"><ele>76.0</ele><time>2026-04-12T09:43:37.189Z</time></trkpt><trkpt lat="44.962067" lon="9.7813509"><ele>76.0</ele><time>2026-04-12T09:43:38.181Z</time></trkpt><trkpt lat="44.9621949" lon="9.7813689"><ele>76.0</ele><time>2026-04-12T09:43:40.187Z</time></trkpt><trkpt lat="44.9623166" lon="9.7813981"><ele>76.0</ele><time>2026-04-12T09:43:42.193Z</time></trkpt><trkpt lat="44.9623794" lon="9.7814141"><ele>76.0</ele><time>2026-04-12T09:43:43.169Z</time></trkpt><trkpt lat="44.9624466" lon="9.7814292"><ele>76.0</ele><time>2026-04-12T09:43:44.183Z</time></trkpt><trkpt lat="44.9625114" lon="9.7814416"><ele>76.0</ele><time>2026-04-12T09:43:45.189Z</time></trkpt><trkpt lat="44.9625751" lon="9.781458"><ele>76.0</ele><time>2026-04-12T09:43:46.178Z</time></trkpt><trkpt lat="44.9626381" lon="9.7814717"><ele>76.0</ele><time>2026-04-12T09:43:47.186Z</time></trkpt><trkpt lat="44.9627023" lon="9.7814848"><ele>76.0</ele><time>2026-04-12T09:43:48.178Z</time></trkpt><trkpt lat="44.9628271" lon="9.7815187"><ele>76.33333333333333</ele><time>2026-04-12T09:43:50.197Z</time></trkpt><trkpt lat="44.9628924" lon="9.7815336"><ele>76.66666666666666</ele><time>2026-04-12T09:43:51.182Z</time></trkpt><trkpt lat="44.9630208" lon="9.7815608"><ele>77.0</ele><time>2026-04-12T09:43:53.188Z</time></trkpt><trkpt lat="44.9630848" lon="9.7815723"><ele>77.33333333333333</ele><time>2026-04-12T09:43:54.183Z</time></trkpt><trkpt lat="44.9631516" lon="9.7815835"><ele>77.66666666666667</ele><time>2026-04-12T09:43:55.197Z</time></trkpt><trkpt lat="44.9632167" lon="9.7815948"><ele>78.0</ele><time>2026-04-12T09:43:56.179Z</time></trkpt><trkpt lat="44.9633409" lon="9.7816261"><ele>77.5</ele><time>2026-04-12T09:43:58.178Z</time></trkpt><trkpt lat="44.9634651" lon="9.7816493"><ele>77.0</ele><time>2026-04-12T09:44:00.181Z</time></trkpt><trkpt lat="44.9635833" lon="9.7816625"><ele>76.5</ele><time>2026-04-12T09:44:02.183Z</time></trkpt><trkpt lat="44.9637018" lon="9.7816807"><ele>76.0</ele><time>2026-04-12T09:44:04.182Z</time></trkpt><trkpt lat="44.9638243" lon="9.7816954"><ele>76.0</ele><time>2026-04-12T09:44:06.186Z</time></trkpt><trkpt lat="44.963941" lon="9.7817162"><ele>76.0</ele><time>2026-04-12T09:44:08.183Z</time></trkpt><trkpt lat="44.9640065" lon="9.7817229"><ele>76.0</ele><time>2026-04-12T09:44:09.186Z</time></trkpt><trkpt lat="44.9640695" lon="9.78174"><ele>76.0</ele><time>2026-04-12T09:44:10.187Z</time></trkpt><trkpt lat="44.9641911" lon="9.7817683"><ele>76.0</ele><time>2026-04-12T09:44:12.179Z</time></trkpt><trkpt lat="44.9642561" lon="9.7817856"><ele>76.0</ele><time>2026-04-12T09:44:13.186Z</time></trkpt><trkpt lat="44.9643834" lon="9.7818232"><ele>76.33333333333333</ele><time>2026-04-12T09:44:15.177Z</time></trkpt><trkpt lat="44.9644499" lon="9.7818353"><ele>76.66666666666666</ele><time>2026-04-12T09:44:16.175Z</time></trkpt><trkpt lat="44.9645186" lon="9.7818475"><ele>77.0</ele><time>2026-04-12T09:44:17.186Z</time></trkpt><trkpt lat="44.9645811" lon="9.7818651"><ele>77.33333333333333</ele><time>2026-04-12T09:44:18.172Z</time></trkpt><trkpt lat="44.9646448" lon="9.7818723"><ele>77.66666666666667</ele><time>2026-04-12T09:44:19.181Z</time></trkpt><trkpt lat="44.9647663" lon="9.7818877"><ele>78.0</ele><time>2026-04-12T09:44:21.159Z</time></trkpt><trkpt lat="44.9648335" lon="9.7818981"><ele>78.0</ele><time>2026-04-12T09:44:22.152Z</time></trkpt><trkpt lat="44.9649524" lon="9.7819259"><ele>78.0</ele><time>2026-04-12T09:44:24.186Z</time></trkpt><trkpt lat="44.965017" lon="9.7819434"><ele>78.0</ele><time>2026-04-12T09:44:25.181Z</time></trkpt><trkpt lat="44.9650848" lon="9.7819551"><ele>78.0</ele><time>2026-04-12T09:44:26.154Z</time></trkpt><trkpt lat="44.9652075" lon="9.7819876"><ele>78.0</ele><time>2026-04-12T09:44:28.178Z</time></trkpt><trkpt lat="44.9653258" lon="9.7820164"><ele>78.0</ele><time>2026-04-12T09:44:30.185Z</time></trkpt><trkpt lat="44.9654382" lon="9.78203"><ele>78.0</ele><time>2026-04-12T09:44:32.19Z</time></trkpt><trkpt lat="44.9655565" lon="9.7820426"><ele>78.0</ele><time>2026-04-12T09:44:34.185Z</time></trkpt><trkpt lat="44.965678" lon="9.7820525"><ele>78.0</ele><time>2026-04-12T09:44:36.178Z</time></trkpt><trkpt lat="44.9657919" lon="9.7820597"><ele>77.75</ele><time>2026-04-12T09:44:38.175Z</time></trkpt><trkpt lat="44.9659106" lon="9.7820766"><ele>77.5</ele><time>2026-04-12T09:44:40.186Z</time></trkpt><trkpt lat="44.9660235" lon="9.782098"><ele>77.25</ele><time>2026-04-12T09:44:42.186Z</time></trkpt><trkpt lat="44.9661335" lon="9.782129"><ele>77.0</ele><time>2026-04-12T09:44:44.189Z</time></trkpt><trkpt lat="44.9662382" lon="9.7821679"><ele>77.0</ele><time>2026-04-12T09:44:46.182Z</time></trkpt><trkpt lat="44.9663353" lon="9.7821837"><ele>77.0</ele><time>2026-04-12T09:44:48.179Z</time></trkpt><trkpt lat="44.9664329" lon="9.7821491"><ele>77.0</ele><time>2026-04-12T09:44:50.193Z</time></trkpt><trkpt lat="44.9665179" lon="9.7820804"><ele>77.0</ele><time>2026-04-12T09:44:52.188Z</time></trkpt><trkpt lat="44.966597" lon="9.7819709"><ele>77.0</ele><time>2026-04-12T09:44:54.167Z</time></trkpt><trkpt lat="44.9666559" lon="9.7818481"><ele>77.0</ele><time>2026-04-12T09:44:56.188Z</time></trkpt><trkpt lat="44.9667096" lon="9.7817194"><ele>77.0</ele><time>2026-04-12T09:44:58.181Z</time></trkpt><trkpt lat="44.9667844" lon="9.7816502"><ele>77.0</ele><time>2026-04-12T09:45:00.187Z</time></trkpt><trkpt lat="44.9668898" lon="9.7816984"><ele>77.0</ele><time>2026-04-12T09:45:02.175Z</time></trkpt><trkpt lat="44.9669971" lon="9.7817607"><ele>77.0</ele><time>2026-04-12T09:45:04.186Z</time></trkpt><trkpt lat="44.9671114" lon="9.7818183"><ele>77.0</ele><time>2026-04-12T09:45:06.183Z</time></trkpt><trkpt lat="44.9671729" lon="9.7818452"><ele>77.0</ele><time>2026-04-12T09:45:07.177Z</time></trkpt><trkpt lat="44.96729" lon="9.7818881"><ele>77.0</ele><time>2026-04-12T09:45:09.189Z</time></trkpt><trkpt lat="44.9673513" lon="9.7819158"><ele>77.0</ele><time>2026-04-12T09:45:10.178Z</time></trkpt><trkpt lat="44.967453" lon="9.7819666"><ele>77.0</ele><time>2026-04-12T09:45:12.195Z</time></trkpt><trkpt lat="44.9675714" lon="9.78203"><ele>77.0</ele><time>2026-04-12T09:45:14.186Z</time></trkpt><trkpt lat="44.9676876" lon="9.782092"><ele>77.0</ele><time>2026-04-12T09:45:16.173Z</time></trkpt><trkpt lat="44.9678044" lon="9.7821454"><ele>77.0</ele><time>2026-04-12T09:45:18.182Z</time></trkpt><trkpt lat="44.9678641" lon="9.782185"><ele>77.0</ele><time>2026-04-12T09:45:19.192Z</time></trkpt><trkpt lat="44.9679281" lon="9.7822176"><ele>77.0</ele><time>2026-04-12T09:45:20.184Z</time></trkpt><trkpt lat="44.9680453" lon="9.7822823"><ele>77.0</ele><time>2026-04-12T09:45:22.18Z</time></trkpt><trkpt lat="44.968106" lon="9.7823088"><ele>77.0</ele><time>2026-04-12T09:45:23.184Z</time></trkpt><trkpt lat="44.9682255" lon="9.7823499"><ele>77.0</ele><time>2026-04-12T09:45:25.187Z</time></trkpt><trkpt lat="44.9683447" lon="9.782408"><ele>77.0</ele><time>2026-04-12T09:45:27.186Z</time></trkpt><trkpt lat="44.9684067" lon="9.7824272"><ele>77.0</ele><time>2026-04-12T09:45:28.191Z</time></trkpt><trkpt lat="44.9684671" lon="9.7824598"><ele>77.0</ele><time>2026-04-12T09:45:29.179Z</time></trkpt><trkpt lat="44.968585" lon="9.7825167"><ele>77.14285714285714</ele><time>2026-04-12T09:45:31.179Z</time></trkpt><trkpt lat="44.9686494" lon="9.782548"><ele>77.28571428571428</ele><time>2026-04-12T09:45:32.192Z</time></trkpt><trkpt lat="44.9687086" lon="9.7825789"><ele>77.42857142857143</ele><time>2026-04-12T09:45:33.176Z</time></trkpt><trkpt lat="44.9687686" lon="9.7826118"><ele>77.57142857142857</ele><time>2026-04-12T09:45:34.189Z</time></trkpt><trkpt lat="44.9688299" lon="9.7826444"><ele>77.71428571428571</ele><time>2026-04-12T09:45:35.166Z</time></trkpt><trkpt lat="44.9688963" lon="9.7826762"><ele>77.85714285714286</ele><time>2026-04-12T09:45:36.168Z</time></trkpt><trkpt lat="44.9689559" lon="9.7827094"><ele>78.0</ele><time>2026-04-12T09:45:37.187Z</time></trkpt><trkpt lat="44.9690166" lon="9.7827348"><ele>78.0</ele><time>2026-04-12T09:45:38.176Z</time></trkpt><trkpt lat="44.9690823" lon="9.7827607"><ele>78.0</ele><time>2026-04-12T09:45:39.173Z</time></trkpt><trkpt lat="44.9691443" lon="9.7827851"><ele>78.0</ele><time>2026-04-12T09:45:40.177Z</time></trkpt><trkpt lat="44.9692083" lon="9.7828105"><ele>78.0</ele><time>2026-04-12T09:45:41.166Z</time></trkpt><trkpt lat="44.9692694" lon="9.7828364"><ele>78.0</ele><time>2026-04-12T09:45:42.18Z</time></trkpt><trkpt lat="44.9693333" lon="9.7828518"><ele>78.0</ele><time>2026-04-12T09:45:43.178Z</time></trkpt><trkpt lat="44.969404" lon="9.7828713"><ele>78.0</ele><time>2026-04-12T09:45:44.179Z</time></trkpt><trkpt lat="44.9694734" lon="9.7828879"><ele>77.85714285714286</ele><time>2026-04-12T09:45:45.181Z</time></trkpt><trkpt lat="44.9695387" lon="9.7829045"><ele>77.71428571428571</ele><time>2026-04-12T09:45:46.175Z</time></trkpt><trkpt lat="44.9696053" lon="9.7829239"><ele>77.57142857142857</ele><time>2026-04-12T09:45:47.173Z</time></trkpt><trkpt lat="44.9696722" lon="9.7829406"><ele>77.42857142857143</ele><time>2026-04-12T09:45:48.18Z</time></trkpt><trkpt lat="44.9697391" lon="9.7829535"><ele>77.28571428571428</ele><time>2026-04-12T09:45:49.177Z</time></trkpt><trkpt lat="44.9698036" lon="9.7829742"><ele>77.14285714285714</ele><time>2026-04-12T09:45:50.19Z</time></trkpt><trkpt lat="44.9698684" lon="9.7830032"><ele>77.0</ele><time>2026-04-12T09:45:51.183Z</time></trkpt><trkpt lat="44.9699378" lon="9.7830219"><ele>77.0</ele><time>2026-04-12T09:45:52.157Z</time></trkpt><trkpt lat="44.9700076" lon="9.7830435"><ele>77.0</ele><time>2026-04-12T09:45:53.177Z</time></trkpt><trkpt lat="44.9700747" lon="9.783065"><ele>77.0</ele><time>2026-04-12T09:45:54.185Z</time></trkpt><trkpt lat="44.9701398" lon="9.7830791"><ele>77.0</ele><time>2026-04-12T09:45:55.149Z</time></trkpt><trkpt lat="44.9702051" lon="9.7830977"><ele>77.0</ele><time>2026-04-12T09:45:56.168Z</time></trkpt><trkpt lat="44.9702728" lon="9.7831181"><ele>77.0</ele><time>2026-04-12T09:45:57.186Z</time></trkpt><trkpt lat="44.9703402" lon="9.7831347"><ele>77.0</ele><time>2026-04-12T09:45:58.189Z</time></trkpt><trkpt lat="44.9704045" lon="9.7831569"><ele>76.4</ele><time>2026-04-12T09:45:59.161Z</time></trkpt><trkpt lat="44.9705326" lon="9.7831981"><ele>75.80000000000001</ele><time>2026-04-12T09:46:01.186Z</time></trkpt><trkpt lat="44.9705994" lon="9.7832221"><ele>75.2</ele><time>2026-04-12T09:46:02.181Z</time></trkpt><trkpt lat="44.970663" lon="9.7832436"><ele>74.60000000000001</ele><time>2026-04-12T09:46:03.182Z</time></trkpt><trkpt lat="44.9707818" lon="9.7833061"><ele>74.0</ele><time>2026-04-12T09:46:05.177Z</time></trkpt><trkpt lat="44.9708417" lon="9.783338"><ele>73.60000000000001</ele><time>2026-04-12T09:46:06.184Z</time></trkpt><trkpt lat="44.9709018" lon="9.7833804"><ele>73.2</ele><time>2026-04-12T09:46:07.186Z</time></trkpt><trkpt lat="44.9709593" lon="9.783418"><ele>72.80000000000001</ele><time>2026-04-12T09:46:08.184Z</time></trkpt><trkpt lat="44.971019" lon="9.7834651"><ele>72.4</ele><time>2026-04-12T09:46:09.181Z</time></trkpt><trkpt lat="44.9711317" lon="9.783551"><ele>72.0</ele><time>2026-04-12T09:46:11.182Z</time></trkpt><trkpt lat="44.9712432" lon="9.7836245"><ele>72.00000000000001</ele><time>2026-04-12T09:46:13.18Z</time></trkpt><trkpt lat="44.9713002" lon="9.7836646"><ele>72.0</ele><time>2026-04-12T09:46:14.191Z</time></trkpt><trkpt lat="44.9713616" lon="9.7837036"><ele>72.0</ele><time>2026-04-12T09:46:15.182Z</time></trkpt><trkpt lat="44.9714239" lon="9.7837343"><ele>72.0</ele><time>2026-04-12T09:46:16.156Z</time></trkpt><trkpt lat="44.9714874" lon="9.7837728"><ele>72.0</ele><time>2026-04-12T09:46:17.174Z</time></trkpt><trkpt lat="44.971549" lon="9.7837998"><ele>72.00000000000001</ele><time>2026-04-12T09:46:18.186Z</time></trkpt><trkpt lat="44.9716145" lon="9.7838271"><ele>72.0</ele><time>2026-04-12T09:46:19.179Z</time></trkpt><trkpt lat="44.9716766" lon="9.7838558"><ele>71.85714285714286</ele><time>2026-04-12T09:46:20.182Z</time></trkpt><trkpt lat="44.9717413" lon="9.7838814"><ele>71.71428571428572</ele><time>2026-04-12T09:46:21.187Z</time></trkpt><trkpt lat="44.9718045" lon="9.7839056"><ele>71.57142857142857</ele><time>2026-04-12T09:46:22.182Z</time></trkpt><trkpt lat="44.97187" lon="9.7839211"><ele>71.42857142857143</ele><time>2026-04-12T09:46:23.191Z</time></trkpt><trkpt lat="44.9719347" lon="9.7839351"><ele>71.28571428571428</ele><time>2026-04-12T09:46:24.177Z</time></trkpt><trkpt lat="44.9720023" lon="9.7839571"><ele>71.14285714285714</ele><time>2026-04-12T09:46:25.173Z</time></trkpt><trkpt lat="44.9720662" lon="9.7839786"><ele>71.0</ele><time>2026-04-12T09:46:26.178Z</time></trkpt><trkpt lat="44.9721302" lon="9.7840012"><ele>71.0</ele><time>2026-04-12T09:46:27.184Z</time></trkpt><trkpt lat="44.9721957" lon="9.7840195"><ele>71.0</ele><time>2026-04-12T09:46:28.183Z</time></trkpt><trkpt lat="44.9722577" lon="9.78404"><ele>71.0</ele><time>2026-04-12T09:46:29.182Z</time></trkpt><trkpt lat="44.9723793" lon="9.7840826"><ele>71.0</ele><time>2026-04-12T09:46:31.182Z</time></trkpt><trkpt lat="44.9724424" lon="9.7841017"><ele>71.0</ele><time>2026-04-12T09:46:32.187Z</time></trkpt><trkpt lat="44.9725052" lon="9.7841218"><ele>71.0</ele><time>2026-04-12T09:46:33.169Z</time></trkpt><trkpt lat="44.9725714" lon="9.7841405"><ele>70.85714285714286</ele><time>2026-04-12T09:46:34.183Z</time></trkpt><trkpt lat="44.9726341" lon="9.7841623"><ele>70.71428571428571</ele><time>2026-04-12T09:46:35.176Z</time></trkpt><trkpt lat="44.9727019" lon="9.7841851"><ele>70.57142857142857</ele><time>2026-04-12T09:46:36.185Z</time></trkpt><trkpt lat="44.9727646" lon="9.7842056"><ele>70.42857142857143</ele><time>2026-04-12T09:46:37.171Z</time></trkpt><trkpt lat="44.9728297" lon="9.7842281"><ele>70.28571428571428</ele><time>2026-04-12T09:46:38.171Z</time></trkpt><trkpt lat="44.9728943" lon="9.7842506"><ele>70.14285714285714</ele><time>2026-04-12T09:46:39.185Z</time></trkpt><trkpt lat="44.9729604" lon="9.7842725"><ele>70.0</ele><time>2026-04-12T09:46:40.181Z</time></trkpt><trkpt lat="44.9730272" lon="9.7842945"><ele>70.0</ele><time>2026-04-12T09:46:41.184Z</time></trkpt><trkpt lat="44.9730963" lon="9.7843206"><ele>70.0</ele><time>2026-04-12T09:46:42.171Z</time></trkpt><trkpt lat="44.9731586" lon="9.7843454"><ele>70.0</ele><time>2026-04-12T09:46:43.165Z</time></trkpt><trkpt lat="44.973226" lon="9.7843702"><ele>70.0</ele><time>2026-04-12T09:46:44.183Z</time></trkpt><trkpt lat="44.9732938" lon="9.7843941"><ele>70.0</ele><time>2026-04-12T09:46:45.154Z</time></trkpt><trkpt lat="44.9733604" lon="9.7844222"><ele>70.0</ele><time>2026-04-12T09:46:46.186Z</time></trkpt><trkpt lat="44.9734235" lon="9.7844521"><ele>70.0</ele><time>2026-04-12T09:46:47.175Z</time></trkpt><trkpt lat="44.9734873" lon="9.7844815"><ele>70.0</ele><time>2026-04-12T09:46:48.176Z</time></trkpt><trkpt lat="44.9735535" lon="9.7845049"><ele>70.0</ele><time>2026-04-12T09:46:49.179Z</time></trkpt><trkpt lat="44.9736208" lon="9.7845352"><ele>70.0</ele><time>2026-04-12T09:46:50.179Z</time></trkpt><trkpt lat="44.9736866" lon="9.7845583"><ele>70.0</ele><time>2026-04-12T09:46:51.183Z</time></trkpt><trkpt lat="44.9737526" lon="9.7845847"><ele>70.0</ele><time>2026-04-12T09:46:52.184Z</time></trkpt><trkpt lat="44.9738187" lon="9.7846086"><ele>70.0</ele><time>2026-04-12T09:46:53.174Z</time></trkpt><trkpt lat="44.9738837" lon="9.7846344"><ele>70.0</ele><time>2026-04-12T09:46:54.182Z</time></trkpt><trkpt lat="44.9739493" lon="9.7846593"><ele>70.0</ele><time>2026-04-12T09:46:55.164Z</time></trkpt><trkpt lat="44.9740107" lon="9.7846887"><ele>70.0</ele><time>2026-04-12T09:46:56.189Z</time></trkpt><trkpt lat="44.9740786" lon="9.7847249"><ele>70.0</ele><time>2026-04-12T09:46:57.196Z</time></trkpt><trkpt lat="44.9741464" lon="9.7847552"><ele>70.0</ele><time>2026-04-12T09:46:58.181Z</time></trkpt><trkpt lat="44.9742086" lon="9.7847844"><ele>70.0</ele><time>2026-04-12T09:46:59.181Z</time></trkpt><trkpt lat="44.9742694" lon="9.7848184"><ele>70.0</ele><time>2026-04-12T09:47:00.177Z</time></trkpt><trkpt lat="44.9743349" lon="9.7848415"><ele>70.0</ele><time>2026-04-12T09:47:01.178Z</time></trkpt><trkpt lat="44.9743979" lon="9.7848652"><ele>69.85714285714286</ele><time>2026-04-12T09:47:02.19Z</time></trkpt><trkpt lat="44.9744628" lon="9.7848918"><ele>69.71428571428572</ele><time>2026-04-12T09:47:03.159Z</time></trkpt><trkpt lat="44.9745243" lon="9.7849214"><ele>69.57142857142857</ele><time>2026-04-12T09:47:04.197Z</time></trkpt><trkpt lat="44.9745841" lon="9.7849523"><ele>69.42857142857143</ele><time>2026-04-12T09:47:05.186Z</time></trkpt><trkpt lat="44.974646" lon="9.7849844"><ele>69.28571428571429</ele><time>2026-04-12T09:47:06.184Z</time></trkpt><trkpt lat="44.9747112" lon="9.7850128"><ele>69.14285714285714</ele><time>2026-04-12T09:47:07.181Z</time></trkpt><trkpt lat="44.9747792" lon="9.7850368"><ele>69.0</ele><time>2026-04-12T09:47:08.183Z</time></trkpt><trkpt lat="44.9748491" lon="9.7850628"><ele>69.0</ele><time>2026-04-12T09:47:09.185Z</time></trkpt><trkpt lat="44.9749135" lon="9.7850965"><ele>69.0</ele><time>2026-04-12T09:47:10.178Z</time></trkpt><trkpt lat="44.9749807" lon="9.7851266"><ele>69.0</ele><time>2026-04-12T09:47:11.186Z</time></trkpt><trkpt lat="44.9750463" lon="9.7851636"><ele>69.0</ele><time>2026-04-12T09:47:12.197Z</time></trkpt><trkpt lat="44.9751162" lon="9.7851952"><ele>69.0</ele><time>2026-04-12T09:47:13.188Z</time></trkpt><trkpt lat="44.9751843" lon="9.7852254"><ele>69.0</ele><time>2026-04-12T09:47:14.183Z</time></trkpt><trkpt lat="44.9752473" lon="9.7852551"><ele>69.0</ele><time>2026-04-12T09:47:15.176Z</time></trkpt><trkpt lat="44.9753165" lon="9.7852861"><ele>69.0</ele><time>2026-04-12T09:47:16.186Z</time></trkpt><trkpt lat="44.9753865" lon="9.785316"><ele>69.0</ele><time>2026-04-12T09:47:17.17Z</time></trkpt><trkpt lat="44.97545" lon="9.7853489"><ele>69.0</ele><time>2026-04-12T09:47:18.178Z</time></trkpt><trkpt lat="44.9755145" lon="9.78538"><ele>69.0</ele><time>2026-04-12T09:47:19.17Z</time></trkpt><trkpt lat="44.9755814" lon="9.7854106"><ele>69.0</ele><time>2026-04-12T09:47:20.177Z</time></trkpt><trkpt lat="44.975649" lon="9.785442"><ele>69.0</ele><time>2026-04-12T09:47:21.184Z</time></trkpt><trkpt lat="44.9757112" lon="9.7854711"><ele>69.0</ele><time>2026-04-12T09:47:22.187Z</time></trkpt><trkpt lat="44.9757706" lon="9.7855028"><ele>69.0</ele><time>2026-04-12T09:47:23.184Z</time></trkpt><trkpt lat="44.9758329" lon="9.7855338"><ele>69.0</ele><time>2026-04-12T09:47:24.175Z</time></trkpt><trkpt lat="44.9758939" lon="9.785568"><ele>69.0</ele><time>2026-04-12T09:47:25.177Z</time></trkpt><trkpt lat="44.9759557" lon="9.7856004"><ele>69.0</ele><time>2026-04-12T09:47:26.179Z</time></trkpt><trkpt lat="44.9760169" lon="9.7856324"><ele>69.0</ele><time>2026-04-12T09:47:27.189Z</time></trkpt><trkpt lat="44.9760798" lon="9.7856681"><ele>69.0</ele><time>2026-04-12T09:47:28.186Z</time></trkpt><trkpt lat="44.9761415" lon="9.7856967"><ele>69.0</ele><time>2026-04-12T09:47:29.175Z</time></trkpt><trkpt lat="44.9762043" lon="9.7857285"><ele>69.14285714285714</ele><time>2026-04-12T09:47:30.173Z</time></trkpt><trkpt lat="44.9762691" lon="9.7857631"><ele>69.28571428571429</ele><time>2026-04-12T09:47:31.181Z</time></trkpt><trkpt lat="44.9763304" lon="9.785796"><ele>69.42857142857143</ele><time>2026-04-12T09:47:32.191Z</time></trkpt><trkpt lat="44.9763909" lon="9.78583"><ele>69.57142857142857</ele><time>2026-04-12T09:47:33.17Z</time></trkpt><trkpt lat="44.9764551" lon="9.7858604"><ele>69.71428571428572</ele><time>2026-04-12T09:47:34.181Z</time></trkpt><trkpt lat="44.9765196" lon="9.7858896"><ele>69.85714285714286</ele><time>2026-04-12T09:47:35.186Z</time></trkpt><trkpt lat="44.9765831" lon="9.7859198"><ele>70.0</ele><time>2026-04-12T09:47:36.193Z</time></trkpt><trkpt lat="44.9766958" lon="9.7859584"><ele>70.0</ele><time>2026-04-12T09:47:38.172Z</time></trkpt><trkpt lat="44.976812" lon="9.7859919"><ele>70.0</ele><time>2026-04-12T09:47:40.18Z</time></trkpt><trkpt lat="44.9769356" lon="9.7860412"><ele>70.0</ele><time>2026-04-12T09:47:42.185Z</time></trkpt><trkpt lat="44.9770035" lon="9.7860688"><ele>70.0</ele><time>2026-04-12T09:47:43.176Z</time></trkpt><trkpt lat="44.9771207" lon="9.7861114"><ele>70.0</ele><time>2026-04-12T09:47:45.173Z</time></trkpt><trkpt lat="44.977234" lon="9.7861745"><ele>69.75</ele><time>2026-04-12T09:47:47.183Z</time></trkpt><trkpt lat="44.9773543" lon="9.7862315"><ele>69.5</ele><time>2026-04-12T09:47:49.175Z</time></trkpt><trkpt lat="44.9774659" lon="9.7862898"><ele>69.25</ele><time>2026-04-12T09:47:51.191Z</time></trkpt><trkpt lat="44.9775796" lon="9.7863485"><ele>69.0</ele><time>2026-04-12T09:47:53.184Z</time></trkpt><trkpt lat="44.9776932" lon="9.786409"><ele>69.5</ele><time>2026-04-12T09:47:55.176Z</time></trkpt><trkpt lat="44.9778021" lon="9.7864671"><ele>70.0</ele><time>2026-04-12T09:47:57.174Z</time></trkpt><trkpt lat="44.9779116" lon="9.7865218"><ele>70.5</ele><time>2026-04-12T09:47:59.179Z</time></trkpt><trkpt lat="44.9780273" lon="9.7865702"><ele>71.0</ele><time>2026-04-12T09:48:01.179Z</time></trkpt><trkpt lat="44.9781387" lon="9.786635"><ele>71.0</ele><time>2026-04-12T09:48:03.188Z</time></trkpt><trkpt lat="44.9782002" lon="9.7866648"><ele>71.0</ele><time>2026-04-12T09:48:04.182Z</time></trkpt><trkpt lat="44.9782582" lon="9.7867002"><ele>71.0</ele><time>2026-04-12T09:48:05.168Z</time></trkpt><trkpt lat="44.9783201" lon="9.7867323"><ele>71.0</ele><time>2026-04-12T09:48:06.183Z</time></trkpt><trkpt lat="44.9784324" lon="9.786802"><ele>71.0</ele><time>2026-04-12T09:48:08.183Z</time></trkpt><trkpt lat="44.9785523" lon="9.7868603"><ele>71.0</ele><time>2026-04-12T09:48:10.16Z</time></trkpt><trkpt lat="44.978615" lon="9.7868912"><ele>70.5</ele><time>2026-04-12T09:48:11.193Z</time></trkpt><trkpt lat="44.9787332" lon="9.7869459"><ele>70.0</ele><time>2026-04-12T09:48:13.189Z</time></trkpt><trkpt lat="44.9788523" lon="9.7870098"><ele>69.5</ele><time>2026-04-12T09:48:15.184Z</time></trkpt><trkpt lat="44.978966" lon="9.7870724"><ele>69.0</ele><time>2026-04-12T09:48:17.178Z</time></trkpt><trkpt lat="44.9790775" lon="9.7871297"><ele>69.0</ele><time>2026-04-12T09:48:19.178Z</time></trkpt><trkpt lat="44.9791827" lon="9.7871803"><ele>69.0</ele><time>2026-04-12T09:48:21.19Z</time></trkpt><trkpt lat="44.9792856" lon="9.787235"><ele>69.0</ele><time>2026-04-12T09:48:23.178Z</time></trkpt><trkpt lat="44.9793876" lon="9.7872905"><ele>69.0</ele><time>2026-04-12T09:48:25.189Z</time></trkpt><trkpt lat="44.9795019" lon="9.7873195"><ele>69.0</ele><time>2026-04-12T09:48:27.187Z</time></trkpt><trkpt lat="44.9796189" lon="9.7872884"><ele>68.75</ele><time>2026-04-12T09:48:29.18Z</time></trkpt><trkpt lat="44.9797127" lon="9.7871765"><ele>68.5</ele><time>2026-04-12T09:48:31.168Z</time></trkpt><trkpt lat="44.9797755" lon="9.7870362"><ele>68.25</ele><time>2026-04-12T09:48:33.183Z</time></trkpt><trkpt lat="44.9798414" lon="9.7869063"><ele>68.0</ele><time>2026-04-12T09:48:35.181Z</time></trkpt><trkpt lat="44.9799065" lon="9.7867907"><ele>67.8</ele><time>2026-04-12T09:48:37.176Z</time></trkpt><trkpt lat="44.9799587" lon="9.7866739"><ele>67.6</ele><time>2026-04-12T09:48:39.175Z</time></trkpt><trkpt lat="44.9800597" lon="9.7866073"><ele>67.4</ele><time>2026-04-12T09:48:41.181Z</time></trkpt><trkpt lat="44.9801613" lon="9.786669"><ele>67.2</ele><time>2026-04-12T09:48:43.181Z</time></trkpt><trkpt lat="44.9802493" lon="9.7867709"><ele>67.0</ele><time>2026-04-12T09:48:45.184Z</time></trkpt><trkpt lat="44.9803462" lon="9.7868463"><ele>66.8</ele><time>2026-04-12T09:48:47.18Z</time></trkpt><trkpt lat="44.9804426" lon="9.786917"><ele>66.6</ele><time>2026-04-12T09:48:49.201Z</time></trkpt><trkpt lat="44.9805295" lon="9.7869927"><ele>66.39999999999999</ele><time>2026-04-12T09:48:51.187Z</time></trkpt><trkpt lat="44.9806299" lon="9.7870648"><ele>66.2</ele><time>2026-04-12T09:48:53.187Z</time></trkpt><trkpt lat="44.9807287" lon="9.7871396"><ele>66.0</ele><time>2026-04-12T09:48:55.183Z</time></trkpt><trkpt lat="44.9808286" lon="9.7872182"><ele>66.0</ele><time>2026-04-12T09:48:57.182Z</time></trkpt><trkpt lat="44.9809251" lon="9.7872949"><ele>66.0</ele><time>2026-04-12T09:48:59.182Z</time></trkpt><trkpt lat="44.9810237" lon="9.7873721"><ele>66.0</ele><time>2026-04-12T09:49:01.192Z</time></trkpt><trkpt lat="44.9811272" lon="9.7874498"><ele>66.0</ele><time>2026-04-12T09:49:03.197Z</time></trkpt><trkpt lat="44.9812276" lon="9.7875244"><ele>66.0</ele><time>2026-04-12T09:49:05.181Z</time></trkpt><trkpt lat="44.981284" lon="9.7875661"><ele>66.0</ele><time>2026-04-12T09:49:06.175Z</time></trkpt><trkpt lat="44.9813833" lon="9.7876398"><ele>66.0</ele><time>2026-04-12T09:49:08.181Z</time></trkpt><trkpt lat="44.9814853" lon="9.7877184"><ele>66.0</ele><time>2026-04-12T09:49:10.182Z</time></trkpt><trkpt lat="44.9815869" lon="9.7878018"><ele>66.0</ele><time>2026-04-12T09:49:12.165Z</time></trkpt><trkpt lat="44.981686" lon="9.7878772"><ele>66.0</ele><time>2026-04-12T09:49:14.18Z</time></trkpt><trkpt lat="44.9817888" lon="9.787958"><ele>66.0</ele><time>2026-04-12T09:49:16.189Z</time></trkpt><trkpt lat="44.9818945" lon="9.7880384"><ele>66.0</ele><time>2026-04-12T09:49:18.18Z</time></trkpt><trkpt lat="44.9819942" lon="9.7881126"><ele>66.0</ele><time>2026-04-12T09:49:20.185Z</time></trkpt><trkpt lat="44.9821013" lon="9.7881856"><ele>66.0</ele><time>2026-04-12T09:49:22.18Z</time></trkpt><trkpt lat="44.9822033" lon="9.7882666"><ele>66.0</ele><time>2026-04-12T09:49:24.186Z</time></trkpt><trkpt lat="44.9822988" lon="9.7883482"><ele>66.0</ele><time>2026-04-12T09:49:26.178Z</time></trkpt><trkpt lat="44.9823991" lon="9.7884245"><ele>66.0</ele><time>2026-04-12T09:49:28.185Z</time></trkpt><trkpt lat="44.9824998" lon="9.788497"><ele>66.0</ele><time>2026-04-12T09:49:30.187Z</time></trkpt><trkpt lat="44.9825977" lon="9.7885742"><ele>66.0</ele><time>2026-04-12T09:49:32.173Z</time></trkpt><trkpt lat="44.9827068" lon="9.7886243"><ele>66.0</ele><time>2026-04-12T09:49:34.182Z</time></trkpt><trkpt lat="44.9828226" lon="9.7886379"><ele>66.0</ele><time>2026-04-12T09:49:36.189Z</time></trkpt><trkpt lat="44.9828831" lon="9.7886133"><ele>66.0</ele><time>2026-04-12T09:49:37.179Z</time></trkpt><trkpt lat="44.9829886" lon="9.7885243"><ele>65.75</ele><time>2026-04-12T09:49:39.185Z</time></trkpt><trkpt lat="44.9830802" lon="9.7884066"><ele>65.5</ele><time>2026-04-12T09:49:41.188Z</time></trkpt><trkpt lat="44.9831737" lon="9.7883047"><ele>65.25</ele><time>2026-04-12T09:49:43.178Z</time></trkpt><trkpt lat="44.983288" lon="9.7883213"><ele>65.0</ele><time>2026-04-12T09:49:45.18Z</time></trkpt><trkpt lat="44.983399" lon="9.7883713"><ele>65.0</ele><time>2026-04-12T09:49:47.185Z</time></trkpt><trkpt lat="44.9835173" lon="9.7884119"><ele>65.0</ele><time>2026-04-12T09:49:49.179Z</time></trkpt><trkpt lat="44.9836368" lon="9.788453"><ele>65.0</ele><time>2026-04-12T09:49:51.172Z</time></trkpt><trkpt lat="44.9836989" lon="9.788475"><ele>65.0</ele><time>2026-04-12T09:49:52.184Z</time></trkpt><trkpt lat="44.9838183" lon="9.7885139"><ele>65.0</ele><time>2026-04-12T09:49:54.188Z</time></trkpt><trkpt lat="44.9839299" lon="9.7885527"><ele>65.0</ele><time>2026-04-12T09:49:56.186Z</time></trkpt><trkpt lat="44.9840454" lon="9.7885938"><ele>65.0</ele><time>2026-04-12T09:49:58.183Z</time></trkpt><trkpt lat="44.9841066" lon="9.7886159"><ele>65.0</ele><time>2026-04-12T09:49:59.181Z</time></trkpt><trkpt lat="44.9841686" lon="9.7886366"><ele>65.0</ele><time>2026-04-12T09:50:00.186Z</time></trkpt><trkpt lat="44.9842918" lon="9.788678"><ele>65.0</ele><time>2026-04-12T09:50:02.181Z</time></trkpt><trkpt lat="44.9843543" lon="9.7886975"><ele>65.0</ele><time>2026-04-12T09:50:03.18Z</time></trkpt><trkpt lat="44.9844184" lon="9.78872"><ele>64.5</ele><time>2026-04-12T09:50:04.174Z</time></trkpt><trkpt lat="44.9844804" lon="9.7887368"><ele>64.0</ele><time>2026-04-12T09:50:05.178Z</time></trkpt><trkpt lat="44.9846016" lon="9.7887834"><ele>63.5</ele><time>2026-04-12T09:50:07.192Z</time></trkpt><trkpt lat="44.9847211" lon="9.788824"><ele>63.0</ele><time>2026-04-12T09:50:09.18Z</time></trkpt><trkpt lat="44.9847841" lon="9.7888422"><ele>62.50000000000001</ele><time>2026-04-12T09:50:10.172Z</time></trkpt><trkpt lat="44.9848463" lon="9.7888673"><ele>62.0</ele><time>2026-04-12T09:50:11.179Z</time></trkpt><trkpt lat="44.9849133" lon="9.7888905"><ele>62.00000000000001</ele><time>2026-04-12T09:50:12.182Z</time></trkpt><trkpt lat="44.9849791" lon="9.788911"><ele>62.0</ele><time>2026-04-12T09:50:13.189Z</time></trkpt><trkpt lat="44.9850401" lon="9.7889359"><ele>62.0</ele><time>2026-04-12T09:50:14.178Z</time></trkpt><trkpt lat="44.9851052" lon="9.7889584"><ele>62.0</ele><time>2026-04-12T09:50:15.181Z</time></trkpt><trkpt lat="44.9852283" lon="9.7890017"><ele>62.00000000000001</ele><time>2026-04-12T09:50:17.176Z</time></trkpt><trkpt lat="44.9852955" lon="9.7890209"><ele>62.0</ele><time>2026-04-12T09:50:18.183Z</time></trkpt><trkpt lat="44.9853635" lon="9.7890424"><ele>62.333333333333336</ele><time>2026-04-12T09:50:19.187Z</time></trkpt><trkpt lat="44.9854281" lon="9.7890641"><ele>62.66666666666667</ele><time>2026-04-12T09:50:20.179Z</time></trkpt><trkpt lat="44.9854935" lon="9.7890838"><ele>63.0</ele><time>2026-04-12T09:50:21.183Z</time></trkpt><trkpt lat="44.9855624" lon="9.7891031"><ele>63.33333333333333</ele><time>2026-04-12T09:50:22.183Z</time></trkpt><trkpt lat="44.9856854" lon="9.7890758"><ele>63.666666666666664</ele><time>2026-04-12T09:50:24.18Z</time></trkpt><trkpt lat="44.9857427" lon="9.7890176"><ele>64.0</ele><time>2026-04-12T09:50:25.18Z</time></trkpt><trkpt lat="44.9857834" lon="9.7889432"><ele>63.99999999999999</ele><time>2026-04-12T09:50:26.175Z</time></trkpt><trkpt lat="44.9858142" lon="9.7888614"><ele>64.0</ele><time>2026-04-12T09:50:27.187Z</time></trkpt><trkpt lat="44.9858422" lon="9.7887767"><ele>64.0</ele><time>2026-04-12T09:50:28.19Z</time></trkpt><trkpt lat="44.9858725" lon="9.7886963"><ele>64.0</ele><time>2026-04-12T09:50:29.167Z</time></trkpt><trkpt lat="44.9859041" lon="9.7885272"><ele>63.99999999999999</ele><time>2026-04-12T09:50:31.192Z</time></trkpt><trkpt lat="44.985918" lon="9.7884345"><ele>64.0</ele><time>2026-04-12T09:50:32.178Z</time></trkpt><trkpt lat="44.9859312" lon="9.7883434"><ele>64.28571428571428</ele><time>2026-04-12T09:50:33.18Z</time></trkpt><trkpt lat="44.9859454" lon="9.7882484"><ele>64.57142857142857</ele><time>2026-04-12T09:50:34.175Z</time></trkpt><trkpt lat="44.9859598" lon="9.7881611"><ele>64.85714285714286</ele><time>2026-04-12T09:50:35.189Z</time></trkpt><trkpt lat="44.9859762" lon="9.7880707"><ele>65.14285714285714</ele><time>2026-04-12T09:50:36.179Z</time></trkpt><trkpt lat="44.9859917" lon="9.7879832"><ele>65.42857142857143</ele><time>2026-04-12T09:50:37.173Z</time></trkpt><trkpt lat="44.9860089" lon="9.7878957"><ele>65.71428571428571</ele><time>2026-04-12T09:50:38.179Z</time></trkpt><trkpt lat="44.9860224" lon="9.787803"><ele>66.0</ele><time>2026-04-12T09:50:39.183Z</time></trkpt><trkpt lat="44.9860373" lon="9.7877084"><ele>65.5</ele><time>2026-04-12T09:50:40.19Z</time></trkpt><trkpt lat="44.98605" lon="9.7876113"><ele>65.0</ele><time>2026-04-12T09:50:41.169Z</time></trkpt><trkpt lat="44.986065" lon="9.7875234"><ele>64.5</ele><time>2026-04-12T09:50:42.183Z</time></trkpt><trkpt lat="44.986078" lon="9.787434"><ele>64.0</ele><time>2026-04-12T09:50:43.176Z</time></trkpt><trkpt lat="44.9861052" lon="9.787272"><ele>63.5</ele><time>2026-04-12T09:50:45.181Z</time></trkpt><trkpt lat="44.9861301" lon="9.7871173"><ele>63.0</ele><time>2026-04-12T09:50:47.18Z</time></trkpt><trkpt lat="44.986179" lon="9.7869963"><ele>63.0</ele><time>2026-04-12T09:50:49.188Z</time></trkpt><trkpt lat="44.9862362" lon="9.7869137"><ele>63.0</ele><time>2026-04-12T09:50:51.18Z</time></trkpt><trkpt lat="44.9863416" lon="9.7868484"><ele>63.0</ele><time>2026-04-12T09:50:53.179Z</time></trkpt><trkpt lat="44.9864605" lon="9.786889"><ele>63.0</ele><time>2026-04-12T09:50:55.187Z</time></trkpt><trkpt lat="44.9865776" lon="9.7869456"><ele>63.0</ele><time>2026-04-12T09:50:57.191Z</time></trkpt><trkpt lat="44.9866955" lon="9.7869924"><ele>62.8</ele><time>2026-04-12T09:50:59.182Z</time></trkpt><trkpt lat="44.9867572" lon="9.7870164"><ele>62.599999999999994</ele><time>2026-04-12T09:51:00.175Z</time></trkpt><trkpt lat="44.9868785" lon="9.7870497"><ele>62.400000000000006</ele><time>2026-04-12T09:51:02.189Z</time></trkpt><trkpt lat="44.9869983" lon="9.7870946"><ele>62.2</ele><time>2026-04-12T09:51:04.183Z</time></trkpt><trkpt lat="44.9870601" lon="9.787118"><ele>62.0</ele><time>2026-04-12T09:51:05.178Z</time></trkpt><trkpt lat="44.9871799" lon="9.7871618"><ele>62.0</ele><time>2026-04-12T09:51:07.19Z</time></trkpt><trkpt lat="44.9873013" lon="9.7872067"><ele>62.0</ele><time>2026-04-12T09:51:09.182Z</time></trkpt><trkpt lat="44.9873632" lon="9.7872296"><ele>62.0</ele><time>2026-04-12T09:51:10.184Z</time></trkpt><trkpt lat="44.9874805" lon="9.7872675"><ele>62.0</ele><time>2026-04-12T09:51:12.183Z</time></trkpt><trkpt lat="44.9875424" lon="9.7872893"><ele>62.0</ele><time>2026-04-12T09:51:13.191Z</time></trkpt><trkpt lat="44.9876577" lon="9.7873354"><ele>62.0</ele><time>2026-04-12T09:51:15.176Z</time></trkpt><trkpt lat="44.9877222" lon="9.7873595"><ele>62.00000000000001</ele><time>2026-04-12T09:51:16.193Z</time></trkpt><trkpt lat="44.9877832" lon="9.7873835"><ele>62.0</ele><time>2026-04-12T09:51:17.193Z</time></trkpt><trkpt lat="44.987846" lon="9.7874046"><ele>62.0</ele><time>2026-04-12T09:51:18.184Z</time></trkpt><trkpt lat="44.9879124" lon="9.787425"><ele>62.00000000000001</ele><time>2026-04-12T09:51:19.19Z</time></trkpt><trkpt lat="44.9879781" lon="9.7874501"><ele>62.0</ele><time>2026-04-12T09:51:20.183Z</time></trkpt><trkpt lat="44.9880428" lon="9.7874724"><ele>62.0</ele><time>2026-04-12T09:51:21.188Z</time></trkpt><trkpt lat="44.9881668" lon="9.7875104"><ele>62.0</ele><time>2026-04-12T09:51:23.189Z</time></trkpt><trkpt lat="44.9882836" lon="9.7875514"><ele>62.0</ele><time>2026-04-12T09:51:25.188Z</time></trkpt><trkpt lat="44.9883939" lon="9.7875877"><ele>62.0</ele><time>2026-04-12T09:51:27.185Z</time></trkpt><trkpt lat="44.9885024" lon="9.7876197"><ele>62.0</ele><time>2026-04-12T09:51:29.169Z</time></trkpt><trkpt lat="44.9885861" lon="9.7876477"><ele>62.0</ele><time>2026-04-12T09:51:31.19Z</time></trkpt><trkpt lat="44.9886558" lon="9.7876632"><ele>62.2</ele><time>2026-04-12T09:51:33.176Z</time></trkpt><trkpt lat="44.9887347" lon="9.7876994"><ele>62.400000000000006</ele><time>2026-04-12T09:51:35.184Z</time></trkpt><trkpt lat="44.9888267" lon="9.7877336"><ele>62.599999999999994</ele><time>2026-04-12T09:51:37.185Z</time></trkpt><trkpt lat="44.9889311" lon="9.7877936"><ele>62.8</ele><time>2026-04-12T09:51:39.181Z</time></trkpt><trkpt lat="44.9890378" lon="9.7878502"><ele>63.0</ele><time>2026-04-12T09:51:41.188Z</time></trkpt><trkpt lat="44.9891438" lon="9.787886"><ele>63.0</ele><time>2026-04-12T09:51:43.19Z</time></trkpt><trkpt lat="44.9892592" lon="9.7879244"><ele>63.0</ele><time>2026-04-12T09:51:45.181Z</time></trkpt><trkpt lat="44.9893758" lon="9.7879522"><ele>63.0</ele><time>2026-04-12T09:51:47.19Z</time></trkpt><trkpt lat="44.9894956" lon="9.7879865"><ele>63.0</ele><time>2026-04-12T09:51:49.178Z</time></trkpt><trkpt lat="44.9896208" lon="9.7880146"><ele>63.0</ele><time>2026-04-12T09:51:51.181Z</time></trkpt><trkpt lat="44.9896866" lon="9.7880288"><ele>63.0</ele><time>2026-04-12T09:51:52.194Z</time></trkpt><trkpt lat="44.9897505" lon="9.7880429"><ele>63.0</ele><time>2026-04-12T09:51:53.186Z</time></trkpt><trkpt lat="44.9898748" lon="9.7880659"><ele>63.0</ele><time>2026-04-12T09:51:55.19Z</time></trkpt><trkpt lat="44.9899989" lon="9.7880968"><ele>63.0</ele><time>2026-04-12T09:51:57.185Z</time></trkpt><trkpt lat="44.9901248" lon="9.7881279"><ele>63.5</ele><time>2026-04-12T09:51:59.18Z</time></trkpt><trkpt lat="44.9902414" lon="9.7881485"><ele>64.0</ele><time>2026-04-12T09:52:01.186Z</time></trkpt><trkpt lat="44.9903573" lon="9.7881735"><ele>64.5</ele><time>2026-04-12T09:52:03.181Z</time></trkpt><trkpt lat="44.9904785" lon="9.788198"><ele>65.0</ele><time>2026-04-12T09:52:05.17Z</time></trkpt><trkpt lat="44.9905984" lon="9.7882274"><ele>65.0</ele><time>2026-04-12T09:52:07.185Z</time></trkpt><trkpt lat="44.9907133" lon="9.7882652"><ele>65.0</ele><time>2026-04-12T09:52:09.183Z</time></trkpt><trkpt lat="44.9908309" lon="9.7882921"><ele>65.0</ele><time>2026-04-12T09:52:11.189Z</time></trkpt><trkpt lat="44.9909403" lon="9.7883102"><ele>65.0</ele><time>2026-04-12T09:52:13.193Z</time></trkpt><trkpt lat="44.9910379" lon="9.7883139"><ele>65.0</ele><time>2026-04-12T09:52:15.181Z</time></trkpt><trkpt lat="44.9911293" lon="9.7882472"><ele>65.0</ele><time>2026-04-12T09:52:17.183Z</time></trkpt><trkpt lat="44.9911757" lon="9.7881208"><ele>65.0</ele><time>2026-04-12T09:52:19.18Z</time></trkpt><trkpt lat="44.9912063" lon="9.7879761"><ele>65.0</ele><time>2026-04-12T09:52:21.184Z</time></trkpt><trkpt lat="44.9912322" lon="9.7878269"><ele>65.0</ele><time>2026-04-12T09:52:23.183Z</time></trkpt><trkpt lat="44.9912456" lon="9.7876728"><ele>65.0</ele><time>2026-04-12T09:52:25.179Z</time></trkpt><trkpt lat="44.99127" lon="9.7875218"><ele>65.0</ele><time>2026-04-12T09:52:27.184Z</time></trkpt><trkpt lat="44.9912921" lon="9.7873741"><ele>65.0</ele><time>2026-04-12T09:52:29.18Z</time></trkpt><trkpt lat="44.991317" lon="9.7872316"><ele>65.0</ele><time>2026-04-12T09:52:31.183Z</time></trkpt><trkpt lat="44.9913397" lon="9.7870709"><ele>65.0</ele><time>2026-04-12T09:52:33.18Z</time></trkpt><trkpt lat="44.9913623" lon="9.7869141"><ele>65.0</ele><time>2026-04-12T09:52:35.19Z</time></trkpt><trkpt lat="44.991387" lon="9.7867584"><ele>65.0</ele><time>2026-04-12T09:52:37.18Z</time></trkpt><trkpt lat="44.9913955" lon="9.7866689"><ele>65.0</ele><time>2026-04-12T09:52:38.185Z</time></trkpt><trkpt lat="44.9914227" lon="9.7865118"><ele>65.0</ele><time>2026-04-12T09:52:40.176Z</time></trkpt><trkpt lat="44.9914401" lon="9.7863479"><ele>65.0</ele><time>2026-04-12T09:52:42.19Z</time></trkpt><trkpt lat="44.9914636" lon="9.7861909"><ele>65.0</ele><time>2026-04-12T09:52:44.194Z</time></trkpt><trkpt lat="44.9914852" lon="9.7860487"><ele>65.0</ele><time>2026-04-12T09:52:46.174Z</time></trkpt><trkpt lat="44.9915032" lon="9.7859127"><ele>65.0</ele><time>2026-04-12T09:52:48.192Z</time></trkpt><trkpt lat="44.9915224" lon="9.7857782"><ele>65.0</ele><time>2026-04-12T09:52:50.191Z</time></trkpt><trkpt lat="44.991538" lon="9.7856424"><ele>65.0</ele><time>2026-04-12T09:52:52.187Z</time></trkpt><trkpt lat="44.9916017" lon="9.7855999"><ele>65.0</ele><time>2026-04-12T09:52:54.19Z</time></trkpt><trkpt lat="44.9916998" lon="9.7856421"><ele>65.4</ele><time>2026-04-12T09:52:56.179Z</time></trkpt><trkpt lat="44.9918059" lon="9.7856648"><ele>65.8</ele><time>2026-04-12T09:52:58.183Z</time></trkpt><trkpt lat="44.9919099" lon="9.7856892"><ele>66.2</ele><time>2026-04-12T09:53:00.178Z</time></trkpt><trkpt lat="44.9920169" lon="9.7857129"><ele>66.6</ele><time>2026-04-12T09:53:02.166Z</time></trkpt><trkpt lat="44.9921198" lon="9.7857502"><ele>67.0</ele><time>2026-04-12T09:53:04.188Z</time></trkpt><trkpt lat="44.9922189" lon="9.7857774"><ele>67.0</ele><time>2026-04-12T09:53:06.186Z</time></trkpt><trkpt lat="44.9923136" lon="9.7857811"><ele>67.0</ele><time>2026-04-12T09:53:08.183Z</time></trkpt><trkpt lat="44.9923977" lon="9.7857964"><ele>67.0</ele><time>2026-04-12T09:53:10.176Z</time></trkpt><trkpt lat="44.9924714" lon="9.7858093"><ele>67.0</ele><time>2026-04-12T09:53:12.163Z</time></trkpt><trkpt lat="44.9925295" lon="9.7857602"><ele>67.0</ele><time>2026-04-12T09:53:16.179Z</time></trkpt><trkpt lat="44.9925125" lon="9.785665"><ele>67.0</ele><time>2026-04-12T09:53:19.185Z</time></trkpt><trkpt lat="44.9925271" lon="9.7855772"><ele>67.0</ele><time>2026-04-12T09:53:21.176Z</time></trkpt><trkpt lat="44.9925451" lon="9.7854628"><ele>67.0</ele><time>2026-04-12T09:53:23.179Z</time></trkpt><trkpt lat="44.9925473" lon="9.7853307"><ele>67.0</ele><time>2026-04-12T09:53:25.184Z</time></trkpt><trkpt lat="44.9925259" lon="9.7852046"><ele>67.0</ele><time>2026-04-12T09:53:27.183Z</time></trkpt><trkpt lat="44.9925146" lon="9.7850728"><ele>67.0</ele><time>2026-04-12T09:53:29.181Z</time></trkpt><trkpt lat="44.9924992" lon="9.7849498"><ele>66.83333333333333</ele><time>2026-04-12T09:53:31.177Z</time></trkpt><trkpt lat="44.9925075" lon="9.7848439"><ele>66.66666666666666</ele><time>2026-04-12T09:53:33.181Z</time></trkpt><trkpt lat="44.9925847" lon="9.7848617"><ele>66.5</ele><time>2026-04-12T09:53:35.175Z</time></trkpt><trkpt lat="44.9926604" lon="9.7848981"><ele>66.33333333333333</ele><time>2026-04-12T09:53:37.181Z</time></trkpt><trkpt lat="44.9927561" lon="9.7849391"><ele>66.16666666666667</ele><time>2026-04-12T09:53:39.177Z</time></trkpt><trkpt lat="44.9928604" lon="9.7849763"><ele>66.0</ele><time>2026-04-12T09:53:41.183Z</time></trkpt><trkpt lat="44.9929644" lon="9.785014"><ele>66.0</ele><time>2026-04-12T09:53:43.179Z</time></trkpt><trkpt lat="44.9930794" lon="9.7850435"><ele>66.0</ele><time>2026-04-12T09:53:45.191Z</time></trkpt><trkpt lat="44.9931897" lon="9.7850885"><ele>66.0</ele><time>2026-04-12T09:53:47.193Z</time></trkpt><trkpt lat="44.9932959" lon="9.7851252"><ele>66.0</ele><time>2026-04-12T09:53:49.184Z</time></trkpt><trkpt lat="44.9933926" lon="9.7851611"><ele>66.0</ele><time>2026-04-12T09:53:51.187Z</time></trkpt><trkpt lat="44.9934852" lon="9.7852032"><ele>66.0</ele><time>2026-04-12T09:53:53.178Z</time></trkpt><trkpt lat="44.993593" lon="9.7852751"><ele>66.0</ele><time>2026-04-12T09:53:55.178Z</time></trkpt><trkpt lat="44.9936923" lon="9.7853268"><ele>66.0</ele><time>2026-04-12T09:53:57.19Z</time></trkpt><trkpt lat="44.9937888" lon="9.785383"><ele>66.0</ele><time>2026-04-12T09:53:59.184Z</time></trkpt><trkpt lat="44.9938809" lon="9.7854524"><ele>66.0</ele><time>2026-04-12T09:54:01.182Z</time></trkpt><trkpt lat="44.9939872" lon="9.7855013"><ele>66.0</ele><time>2026-04-12T09:54:03.176Z</time></trkpt><trkpt lat="44.9940968" lon="9.78557"><ele>66.0</ele><time>2026-04-12T09:54:05.178Z</time></trkpt><trkpt lat="44.9942081" lon="9.785622"><ele>66.0</ele><time>2026-04-12T09:54:07.191Z</time></trkpt><trkpt lat="44.9943183" lon="9.7856806"><ele>66.0</ele><time>2026-04-12T09:54:09.189Z</time></trkpt><trkpt lat="44.9944233" lon="9.7857388"><ele>66.2</ele><time>2026-04-12T09:54:11.188Z</time></trkpt><trkpt lat="44.9945217" lon="9.7858089"><ele>66.39999999999999</ele><time>2026-04-12T09:54:13.188Z</time></trkpt><trkpt lat="44.9946099" lon="9.7858684"><ele>66.6</ele><time>2026-04-12T09:54:15.182Z</time></trkpt><trkpt lat="44.9946967" lon="9.7859365"><ele>66.8</ele><time>2026-04-12T09:54:17.178Z</time></trkpt><trkpt lat="44.9947968" lon="9.7860048"><ele>67.0</ele><time>2026-04-12T09:54:19.187Z</time></trkpt><trkpt lat="44.9948971" lon="9.7860566"><ele>67.0</ele><time>2026-04-12T09:54:21.181Z</time></trkpt><trkpt lat="44.9950095" lon="9.7861193"><ele>67.0</ele><time>2026-04-12T09:54:23.193Z</time></trkpt><trkpt lat="44.9951045" lon="9.7861941"><ele>67.0</ele><time>2026-04-12T09:54:25.179Z</time></trkpt><trkpt lat="44.9952079" lon="9.7862581"><ele>67.0</ele><time>2026-04-12T09:54:27.187Z</time></trkpt><trkpt lat="44.9953205" lon="9.7863217"><ele>67.0</ele><time>2026-04-12T09:54:29.178Z</time></trkpt><trkpt lat="44.9954227" lon="9.7863777"><ele>67.0</ele><time>2026-04-12T09:54:31.182Z</time></trkpt><trkpt lat="44.9955214" lon="9.7864448"><ele>67.0</ele><time>2026-04-12T09:54:33.181Z</time></trkpt><trkpt lat="44.9956155" lon="9.7865106"><ele>67.0</ele><time>2026-04-12T09:54:35.176Z</time></trkpt><trkpt lat="44.9957175" lon="9.7865806"><ele>67.0</ele><time>2026-04-12T09:54:37.182Z</time></trkpt><trkpt lat="44.9958196" lon="9.7866517"><ele>67.0</ele><time>2026-04-12T09:54:39.173Z</time></trkpt><trkpt lat="44.9959129" lon="9.7867164"><ele>67.0</ele><time>2026-04-12T09:54:41.172Z</time></trkpt><trkpt lat="44.9960008" lon="9.7867865"><ele>67.0</ele><time>2026-04-12T09:54:43.183Z</time></trkpt><trkpt lat="44.9960925" lon="9.7868589"><ele>67.0</ele><time>2026-04-12T09:54:45.184Z</time></trkpt><trkpt lat="44.9961672" lon="9.7869282"><ele>67.0</ele><time>2026-04-12T09:54:47.187Z</time></trkpt><trkpt lat="44.996239" lon="9.7870009"><ele>66.83333333333333</ele><time>2026-04-12T09:54:49.188Z</time></trkpt><trkpt lat="44.9963016" lon="9.7870745"><ele>66.66666666666666</ele><time>2026-04-12T09:54:51.175Z</time></trkpt><trkpt lat="44.9963508" lon="9.7871618"><ele>66.5</ele><time>2026-04-12T09:54:53.184Z</time></trkpt><trkpt lat="44.9964142" lon="9.7872438"><ele>66.33333333333333</ele><time>2026-04-12T09:54:55.187Z</time></trkpt><trkpt lat="44.996481" lon="9.7873242"><ele>66.16666666666667</ele><time>2026-04-12T09:54:57.179Z</time></trkpt><trkpt lat="44.9965451" lon="9.7873918"><ele>66.0</ele><time>2026-04-12T09:54:59.182Z</time></trkpt><trkpt lat="44.9966025" lon="9.7874581"><ele>66.0</ele><time>2026-04-12T09:55:01.187Z</time></trkpt><trkpt lat="44.9966635" lon="9.7875337"><ele>66.0</ele><time>2026-04-12T09:55:04.148Z</time></trkpt><trkpt lat="44.9967247" lon="9.7876054"><ele>66.0</ele><time>2026-04-12T09:55:07.178Z</time></trkpt><trkpt lat="44.9967992" lon="9.7876918"><ele>66.0</ele><time>2026-04-12T09:55:10.174Z</time></trkpt><trkpt lat="44.9968482" lon="9.7877699"><ele>66.0</ele><time>2026-04-12T09:55:12.184Z</time></trkpt><trkpt lat="44.9969147" lon="9.7878633"><ele>66.0</ele><time>2026-04-12T09:55:15.183Z</time></trkpt><trkpt lat="44.996966" lon="9.7879289"><ele>66.0</ele><time>2026-04-12T09:55:17.159Z</time></trkpt><trkpt lat="44.9970111" lon="9.7879932"><ele>66.0</ele><time>2026-04-12T09:55:19.175Z</time></trkpt><trkpt lat="44.9970598" lon="9.7880515"><ele>66.0</ele><time>2026-04-12T09:55:21.175Z</time></trkpt><trkpt lat="44.9971087" lon="9.7881099"><ele>66.0</ele><time>2026-04-12T09:55:23.186Z</time></trkpt><trkpt lat="44.9971492" lon="9.7881836"><ele>66.0</ele><time>2026-04-12T09:55:25.183Z</time></trkpt><trkpt lat="44.9971887" lon="9.7882797"><ele>66.0</ele><time>2026-04-12T09:55:28.187Z</time></trkpt><trkpt lat="44.997123" lon="9.7883488"><ele>66.0</ele><time>2026-04-12T09:55:31.185Z</time></trkpt><trkpt lat="44.9971109" lon="9.7885245"><ele>66.0</ele><time>2026-04-12T09:56:09.169Z</time></trkpt><trkpt lat="44.9971516" lon="9.7885983"><ele>66.0</ele><time>2026-04-12T09:56:14.185Z</time></trkpt><trkpt lat="44.997089" lon="9.7885626"><ele>66.0</ele><time>2026-04-12T09:57:33.16Z</time></trkpt></trkseg></trk></gpx>